# Wetter Temperatur Luftdruck Luftfeuchtigkeit Sichtweite Windgeschwindigkeit Windrichtung Zeit
1 Mist -6 1004 92 4400 5 100 15:23 01.02.2023
2 Fog -5 1005 92 10000 5 80 13:20 01.02.2023
3 Fog -5 1005 92 10000 6 80 12:59 01.02.2023
4 Mist -6 1005 100 5000 5 150 11:57 01.02.2023
5 Clouds -5 1004 85 10000 4 90 09:38 01.02.2023
6 Clouds -4 1003 100 2900 9 120 03:18 01.02.2023
7 Clouds -4 1011 86 1100 13 90 21:45 31.01.2023
8 Clouds -5 1002 92 650 14 90 20:20 31.01.2023
9 Clouds -5 1002 85 500 16 110 18:50 31.01.2023
10 Snow -5 1002 92 650 14 110 16:34 31.01.2023
11 Snow -5 1001 92 650 15 110 15:36 31.01.2023
12 Snow -5 1001 92 650 15 110 15:18 31.01.2023
13 Clouds -4 1002 86 1500 14 110 12:33 31.01.2023
14 Clouds -4 1002 86 2100 12 110 11:21 31.01.2023
15 Clouds -5 1001 92 5000 10 110 09:54 31.01.2023
16 Clouds -5 1001 92 5000 10 110 09:20 31.01.2023
17 Clouds -4 1001 86 5000 12 110 08:35 31.01.2023
18 Clouds -4 998 86 5000 11 120 05:46 31.01.2023
19 Clouds -3 996 92 1800 13 100 23:58 30.01.2023
20 Clouds -1 996 86 1300 13 100 23:23 30.01.2023
21 Clouds -3 996 92 900 12 110 22:32 30.01.2023
22 Mist -3 996 100 5000 10 110 21:23 30.01.2023
23 Fog -3 1007 100 800 10 110 20:35 30.01.2023
24 Snow -2 995 92 2200 10 110 17:54 30.01.2023
25 Snow -2 995 92 1300 10 100 16:48 30.01.2023
26 Snow -3 996 100 1200 11 100 14:28 30.01.2023
27 Snow -3 997 92 1500 12 90 12:45 30.01.2023
28 Snow -3 998 92 650 12 90 11:28 30.01.2023
29 Snow -3 998 92 450 15 90 09:54 30.01.2023
30 Snow -3 999 92 400 16 90 08:57 30.01.2023
31 Snow -3 999 92 300 23 90 07:29 30.01.2023
32 Snow -4 1004 92 550 13 70 01:42 30.01.2023
33 Clouds -1 1007 74 10000 14 80 23:35 29.01.2023
34 Clouds -2 1008 80 4000 16 90 22:37 29.01.2023
35 Clouds -2 1008 80 1500 23 90 21:41 29.01.2023
36 Clouds -4 1009 86 400 18 90 20:41 29.01.2023
37 Clouds -3 1012 93 6000 13 70 19:48 29.01.2023
38 Clouds -4 1012 92 6000 13 70 19:27 29.01.2023
39 Clouds -3 1014 86 1800 13 90 17:49 29.01.2023
40 Clouds -3 1015 92 2100 14 90 16:21 29.01.2023
41 Fog -4 1017 92 1600 9 100 14:53 29.01.2023
42 Fog -4 1018 100 1300 8 90 13:30 29.01.2023
43 Mist -3 1019 92 2600 10 90 12:44 29.01.2023
44 Mist -2 1019 86 2600 10 90 12:23 29.01.2023
45 Clouds -2 1019 86 10000 9 100 11:51 29.01.2023
46 Clouds -2 1019 86 10000 9 100 11:26 29.01.2023
47 Clouds -3 1020 86 10000 9 110 09:57 29.01.2023
48 Clouds -3 1020 93 10000 9 120 07:19 29.01.2023
49 Clear -1 1020 69 10000 6 130 03:39 29.01.2023
50 Clear -2 1020 74 10000 5 150 23:27 28.01.2023
51 Clouds -3 1018 80 10000 4 140 20:38 28.01.2023
52 Clouds -2 1017 80 10000 6 140 19:52 28.01.2023
53 Clouds -2 1016 80 10000 6 150 18:32 28.01.2023
54 Clouds -3 1016 80 10000 6 150 17:20 28.01.2023
55 Fog -3 1015 80 10000 6 130 16:20 28.01.2023
56 Clouds -4 1015 86 10000 1 0 15:49 28.01.2023
57 Mist -4 1014 86 10000 5 130 14:35 28.01.2023
58 Clouds -5 1012 93 900 10 90 12:57 28.01.2023
59 Snow -5 1012 100 400 10 110 11:55 28.01.2023
60 Snow -5 1012 93 400 13 110 10:34 28.01.2023
61 Snow -7 1012 92 200 16 90 08:22 28.01.2023
62 Clouds -6 1016 93 500 16 100 01:45 28.01.2023
63 Clouds -6 1016 93 600 15 100 00:26 28.01.2023
64 Clouds -6 1016 93 500 16 90 21:48 27.01.2023
65 Clouds -21 1021 94 4670 2.8 15 18:53 27.01.2023
66 Clouds -24 1022 96 10000 2.96 9 17:58 27.01.2023
67 Clouds -23 1022 94 10000 2.65 34 17:19 27.01.2023
68 Clouds -23 1022 94 10000 2.65 34 16:35 27.01.2023
69 Snow -13 1017 78 2400 12 80 14:58 27.01.2023
70 Snow -13 1017 78 2400 12 80 14:25 27.01.2023
71 Snow -14 1017 78 1800 12 80 13:18 27.01.2023
72 Snow -18 1017 85 2000 9 10 08:47 27.01.2023
73 Clouds -19 1018 77 1400 8 20 06:21 27.01.2023
74 Clouds -19 1019 65 10000 7 70 00:24 27.01.2023
75 Clouds -20 1019 77 2400 8 60 21:43 26.01.2023
76 Snow -20 1019 76 10000 8 90 20:40 26.01.2023
77 Clouds -19 1019 65 10000 4 10 19:57 26.01.2023
78 Clear -19 1018 70 10000 5 80 17:56 26.01.2023
79 Clouds -20 1018 76 10000 9 30 16:30 26.01.2023
80 Clouds -24 1019 77 10000 7 330 15:58 26.01.2023
81 Clouds -24 1019 77 10000 7 330 15:38 26.01.2023
82 Clouds -24 1019 77 10000 7 330 15:20 26.01.2023
83 Clear -27 1020 76 10000 7 330 13:32 26.01.2023
84 Clouds -25 1021 70 10000 6 290 12:24 26.01.2023
85 Clear -26 1022 69 10000 3 270 10:33 26.01.2023
86 Clear -25 1022 70 10000 3 280 09:44 26.01.2023
87 Clear -22 1023 64 10000 2 110 08:40 26.01.2023
88 Clouds -31 1023 74 10000 9 340 06:27 26.01.2023
89 Clouds -28 1028 69 10000 3 310 23:41 25.01.2023
90 Clouds -26 1028 76 10000 4 310 22:43 25.01.2023
91 Clear -29 1029 69 10000 9 340 21:26 25.01.2023
92 Clear -28 1029 69 10000 8 340 20:59 25.01.2023
93 Clear -29 1031 76 10000 5 340 18:29 25.01.2023
94 Clear -28 1032 69 10000 4 340 16:22 25.01.2023
95 Clear -26 1033 70 10000 3 10 14:57 25.01.2023
96 Clear -26 1034 76 10000 5 350 12:29 25.01.2023
97 Clear -26 1035 70 10000 4 350 09:53 25.01.2023
98 Clear -25 1035 64 10000 3 20 09:20 25.01.2023
99 Clear -24 1034 70 10000 4 10 06:52 25.01.2023
100 Clear -25 1034 77 10000 4 40 00:31 25.01.2023
101 Clear -22 1033 77 10000 1 0 21:56 24.01.2023
102 Clear -24 1033 77 10000 3 180 21:28 24.01.2023
103 Clear -22 1032 77 10000 2 140 19:38 24.01.2023
104 Clear -22 1031 71 10000 3 190 18:30 24.01.2023
105 Clear -22 1030 77 10000 5 240 17:18 24.01.2023
106 Clouds -31 1033 92 10000 1.96 335 16:52 24.01.2023
107 Clear -23 1029 70 10000 2 270 14:27 24.01.2023
108 Clear -20 1030 71 10000 1 0 12:28 24.01.2023
109 Clear -22 1029 59 10000 2 190 10:30 24.01.2023
110 Clear -21 1028 65 10000 3 120 08:20 24.01.2023
111 Clear -21 1028 59 10000 1 0 07:50 24.01.2023
112 Clear -23 1028 64 10000 2 130 05:21 24.01.2023
113 Clear -21 1027 65 10000 4 320 00:44 24.01.2023
114 Clear -20 1027 59 10000 3 300 23:35 23.01.2023
115 Clouds -16 1027 55 10000 11 80 21:50 23.01.2023
116 Clear -22 1027 69 10000 3 350 19:30 23.01.2023
117 Clear -21 1027 71 10000 3 270 17:43 23.01.2023
118 Clear -21 1027 71 10000 5 10 15:33 23.01.2023
119 Clear -22 1027 69 10000 7 360 13:58 23.01.2023
120 Clear -22 1027 69 10000 7 360 13:21 23.01.2023
121 Clear -21 1028 63 10000 3 360 12:45 23.01.2023
122 Clear -21 1028 58 10000 3 330 11:42 23.01.2023
123 Clear -23 1027 63 10000 3 160 08:25 23.01.2023
124 Clear -23 1029 63 10000 3 140 02:49 23.01.2023
125 Clear -23 1030 63 10000 1 310 23:22 22.01.2023
126 Clear -23 1030 63 10000 2 300 21:19 22.01.2023
127 Clear -23 1030 63 10000 4 10 20:48 22.01.2023
128 Clear -23 1030 63 10000 2 260 19:47 22.01.2023
129 Clear -24 1030 69 10000 2 260 19:18 22.01.2023
130 Clear -19 1030 46 10000 5 80 17:57 22.01.2023
131 Clear -19 1030 46 10000 5 80 17:26 22.01.2023
132 Clear -26 1030 69 10000 3 340 16:24 22.01.2023
133 Clouds -19 1029 46 10000 7 60 14:55 22.01.2023
134 Clouds -20 1030 50 10000 8 80 13:48 22.01.2023
135 Clouds -20 1030 50 10000 6 80 12:48 22.01.2023
136 Clouds -20 1030 45 10000 4 50 11:38 22.01.2023
137 Clear -21 1031 54 10000 5 40 09:36 22.01.2023
138 Clear -21 1031 49 10000 6 80 08:34 22.01.2023
139 Clear -31 1030 74 10000 5 360 02:50 22.01.2023
140 Clear -33 1030 74 10000 4 360 23:36 21.01.2023
141 Clear -34 1030 66 10000 4 350 22:35 21.01.2023
142 Clear -33 1029 68 10000 4 360 20:27 21.01.2023
143 Clear -34 1028 68 10000 4 10 17:59 21.01.2023
144 Clear -33 1027 75 10000 6 20 14:42 21.01.2023
145 Clear -32 1026 75 10000 6 20 12:59 21.01.2023
146 Clear -32 1026 75 10000 6 20 12:40 21.01.2023
147 Clear -33 1025 68 10000 6 30 11:27 21.01.2023
148 Clear -34 1025 73 10000 6 20 10:46 21.01.2023
149 Clouds -30 1021 76 10000 7 10 04:51 21.01.2023
150 Clear -33 1018 67 10000 5 40 22:47 20.01.2023
151 Clear -33 1018 67 10000 5 40 22:24 20.01.2023
152 Clear -34 1018 73 10000 5 30 21:34 20.01.2023
153 Clear -33 1017 74 10000 4 20 20:39 20.01.2023
154 Clear -34 1016 73 10000 5 20 17:54 20.01.2023
155 Clear -33 1015 68 10000 5 20 14:47 20.01.2023
156 Clear -33 1014 75 10000 5 30 13:51 20.01.2023
157 Clear -33 1014 68 10000 6 20 11:18 20.01.2023
158 Clouds -34 1012 75 10000 5 10 08:59 20.01.2023
159 Clouds -34 1011 75 10000 5 20 06:40 20.01.2023
160 Clouds -33 1009 74 10000 4 10 02:32 20.01.2023
161 Snow -33 1008 74 10000 3 360 22:37 19.01.2023
162 Clouds -33 1007 74 10000 2 360 21:39 19.01.2023
163 Snow -31 1006 74 10000 3 330 19:38 19.01.2023
164 Snow -31 1006 74 10000 2 350 18:56 19.01.2023
165 Snow -29 1006 75 10000 3 310 14:26 19.01.2023
166 Snow -29 1005 82 7000 2 40 10:26 19.01.2023
167 Snow -27 1005 76 2600 3 40 08:58 19.01.2023
168 Clouds -29 1009 76 10000 5 20 22:41 18.01.2023
169 Clouds -28 1009 69 10000 7 20 20:36 18.01.2023
170 Clouds -28 1009 69 10000 7 20 20:18 18.01.2023
171 Clear -30 1009 76 10000 5 30 19:35 18.01.2023
172 Clear -31 1011 69 10000 4 20 16:47 18.01.2023
173 Clear -30 1012 76 10000 5 360 14:21 18.01.2023
174 Clear -29 1013 76 10000 6 350 12:43 18.01.2023
175 Clear -29 1014 69 10000 4 340 10:29 18.01.2023
176 Clear -28 1014 69 10000 5 340 07:24 18.01.2023
177 Clear -27 1015 69 10000 5 350 01:25 18.01.2023
178 Clear -27 1015 69 10000 5 350 01:25 18.01.2023
179 Clear -28 1015 76 10000 8 10 22:21 17.01.2023
180 Clear -28 1015 76 10000 3 10 19:44 17.01.2023
181 Clear -28 1015 76 10000 4 360 18:59 17.01.2023
182 Clear -28 1015 76 10000 4 30 17:41 17.01.2023
183 Clear -25 1015 70 10000 3 20 15:28 17.01.2023
184 Clear -25 1014 70 10000 7 360 14:51 17.01.2023
185 Clouds -31 1015 89 10000 4.14 331 13:33 17.01.2023
186 Clear -25 1014 70 10000 4 50 11:49 17.01.2023
187 Clear -24 1014 70 10000 8 350 10:34 17.01.2023
188 Clear -24 1014 69 10000 5 320 09:26 17.01.2023
189 Clear -22 1013 64 10000 6 20 07:38 17.01.2023
190 Clear -23 1013 69 10000 1 0 03:50 17.01.2023
191 Clouds -23 1011 69 10000 7 10 00:51 17.01.2023
192 Clear -23 1010 76 10000 7 330 22:40 16.01.2023
193 Clouds -22 1010 69 10000 7 360 21:46 16.01.2023
194 Clear -22 1009 69 10000 9 360 19:56 16.01.2023
195 Clear -22 1009 69 10000 9 360 19:26 16.01.2023
196 Clear -22 1009 69 10000 6.71 10 18:49 16.01.2023
197 Clear -22 1009 69 10000 6.71 10 18:19 16.01.2023
198 Clear -23 1009 76 10000 6 360 17:20 16.01.2023
199 Clouds -22 1008 76 10000 5.81 360 14:28 16.01.2023
200 Clouds -21 1008 76 10000 7.6 20 13:37 16.01.2023
201 Clear -21 1007 70 10000 6 360 10:27 16.01.2023
202 Clear -21 1005 70 10000 7.6 30 08:44 16.01.2023
203 Clouds -24 1006 76 10000 5 350 22:58 15.01.2023
204 Clouds -24 1006 76 10000 6 340 21:25 15.01.2023
205 Clouds -24 1006 76 10000 7 350 20:31 15.01.2023
206 Clouds -23 1006 76 10000 6 20 19:38 15.01.2023
207 Clouds -22 1006 77 10000 8 20 17:38 15.01.2023
208 Clouds -20 1005 71 7000 13 30 15:18 15.01.2023
209 Clouds -21 1005 76 10000 8 10 12:29 15.01.2023
210 Clouds -21 1005 76 10000 10 360 11:29 15.01.2023
211 Clouds -21 1005 76 10000 10 360 11:29 15.01.2023
212 Clouds -19 1005 70 10000 11 20 10:27 15.01.2023
213 Clouds -19 1004 70 10000 14.75 30 08:54 15.01.2023
214 Clouds -15 1006 72 6000 6 70 00:35 15.01.2023
215 Clouds -17 1007 78 10000 10 30 22:44 14.01.2023
216 Clouds -15 1007 72 10000 12 50 21:55 14.01.2023
217 Clouds -15 1007 72 10000 12 50 21:36 14.01.2023
218 Clouds -15 1007 72 10000 12 50 21:18 14.01.2023
219 Clouds -15 1007 72 10000 12 50 21:18 14.01.2023
220 Clouds -15 1007 72 6000 9 50 20:28 14.01.2023
221 Snow -15 1007 78 1000 11 50 18:19 14.01.2023
222 Snow -16 1008 78 10000 8 30 15:43 14.01.2023
223 Snow -16 1008 78 10000 8 30 15:24 14.01.2023
224 Clouds -27 1011 95 10000 2.55 339 14:22 14.01.2023
225 Clouds -27 1011 95 10000 2.55 339 13:32 14.01.2023
226 Clouds -28 1012 98 10000 3.21 323 10:50 14.01.2023
227 Clouds -29 1012 99 10000 3.05 314 09:43 14.01.2023
228 Clouds -29 1013 97 10000 2.36 334 02:39 14.01.2023
229 Clouds -29 1014 97 10000 2.28 317 23:21 13.01.2023
230 Clouds -29 1014 97 10000 2.28 317 22:42 13.01.2023
231 Clouds -29 1014 97 10000 1.74 324 21:58 13.01.2023
232 Clouds -30 1013 97 10000 2.3 349 20:49 13.01.2023
233 Clouds -30 1013 97 10000 2.34 331 19:28 13.01.2023
234 Clouds -31 1013 98 10000 2.24 328 17:43 13.01.2023
235 Clouds -30 1013 98 10000 2.41 310 16:22 13.01.2023
236 Clouds -30 1014 98 10000 2.71 306 12:33 13.01.2023
237 Clouds -30 1013 98 10000 2.47 306 11:57 13.01.2023
238 Snow -18 1010 85 10000 5 360 10:23 13.01.2023
239 Clouds -18 1010 85 10000 4 340 09:44 13.01.2023
240 Clouds -18 1010 78 10000 5 360 08:52 13.01.2023
241 Clouds -18 1010 78 10000 5 360 07:43 13.01.2023
242 Clouds -18 1009 78 10000 5 360 06:49 13.01.2023
243 Snow -20 1009 84 10000 4 340 03:21 13.01.2023
244 Clouds -20 1009 84 10000 3 340 23:43 12.01.2023
245 Clouds -21 1009 83 10000 2 320 22:31 12.01.2023
246 Clouds -21 1008 83 10000 3 320 20:55 12.01.2023
247 Clouds -22 1007 83 10000 6 340 18:52 12.01.2023
248 Clouds -22 1007 83 10000 6 340 17:33 12.01.2023
249 Clouds -23 1007 83 10000 4 330 15:53 12.01.2023
250 Clouds -23 1007 76 10000 4 350 14:44 12.01.2023
251 Clouds -23 1007 76 10000 4 350 14:21 12.01.2023
252 Clouds -26 1007 75 10000 3 320 12:44 12.01.2023
253 Clouds -26 1007 83 10000 4 330 10:30 12.01.2023
254 Clouds -24 1007 76 10000 4 330 08:21 12.01.2023
255 Clear -26 1008 69 10000 3 290 01:49 12.01.2023
256 Clear -27 1009 75 10000 5 320 23:59 11.01.2023
257 Clear -27 1009 75 10000 5 320 23:39 11.01.2023
258 Clear -26 1009 75 10000 4 350 23:20 11.01.2023
259 Clear -26 1010 75 10000 8 350 21:41 11.01.2023
260 Clear -26 1010 83 10000 8 340 19:47 11.01.2023
261 Clouds -23 1010 70 10000 6 340 18:35 11.01.2023
262 Clouds -19 1011 71 10000 10 360 16:42 11.01.2023
263 Clear -24 1012 84 10000 3 310 14:44 11.01.2023
264 Clear -24 1013 77 10000 5 320 12:38 11.01.2023
265 Clear -26 1013 76 10000 7 340 11:54 11.01.2023
266 Clear -27 1014 75 10000 4 360 10:20 11.01.2023
267 Clear -23 1015 70 10000 6 360 07:38 11.01.2023
268 Clear -23 1015 70 10000 6 360 07:20 11.01.2023
269 Clear -23 1015 77 10000 2 40 23:58 10.01.2023
270 Clear -21 1015 77 10000 1 220 22:45 10.01.2023
271 Clear -23 1015 84 10000 1 0 21:32 10.01.2023
272 Clear -23 1015 84 10000 1 0 20:37 10.01.2023
273 Clear -24 1015 76 10000 1 0 19:37 10.01.2023
274 Clear -23 1015 77 10000 2 310 18:47 10.01.2023
275 Clear -22 1014 77 10000 3 20 17:54 10.01.2023
276 Clear -23 1015 70 10000 2 20 16:39 10.01.2023
277 Clear -22 1015 77 10000 2 330 15:24 10.01.2023
278 Clear -22 1015 77 10000 2 80 14:30 10.01.2023
279 Clear -18 1015 71 10000 0 0 12:21 10.01.2023
280 Clear -17 1014 78 10000 2 50 09:21 10.01.2023
281 Clear -16 1014 78 10000 2 30 08:29 10.01.2023
282 Clear -18 1014 78 10000 2 40 07:26 10.01.2023
283 Clear -15 1014 72 10000 3 20 04:53 10.01.2023
284 Clouds -23 1016 92 10000 1.11 108 22:59 09.01.2023
285 Clouds -13 1014 78 10000 10 80 21:49 09.01.2023
286 Mist -12 1013 85 10000 7 90 20:43 09.01.2023
287 Snow -11 1013 79 8000 8 90 19:21 09.01.2023
288 Snow -11 1013 85 3200 11 100 17:54 09.01.2023
289 Snow -11 1013 85 3200 11 100 17:19 09.01.2023
290 Snow -12 1013 85 4800 12 100 16:32 09.01.2023
291 Snow -12 1013 92 6000 8 90 15:23 09.01.2023
292 Snow -12 1013 85 6000 10 90 14:43 09.01.2023
293 Snow -12 1013 79 10000 5 20 12:56 09.01.2023
294 Snow -12 1013 79 10000 5 20 12:35 09.01.2023
295 Clouds -11 1013 79 1500 12 80 11:21 09.01.2023
296 Snow -12 1013 85 10000 5 20 08:42 09.01.2023
297 Clouds -11 1011 92 500 10 90 06:37 09.01.2023
298 Snow -10 1010 92 450 11 90 02:53 09.01.2023
299 Snow -11 999 85 650 11 80 22:53 08.01.2023
300 Snow -10 1009 85 2400 10 80 21:23 08.01.2023
301 Snow -11 1008 92 1100 10 80 20:57 08.01.2023
302 Snow -9 1009 73 10000 6 80 19:44 08.01.2023
303 Clear -13 1009 85 10000 2 50 17:41 08.01.2023
304 Clear -12 1009 85 10000 2 50 17:19 08.01.2023
305 Clouds -18 1009 84 10000 5 340 15:39 08.01.2023
306 Clear -18 1009 77 10000 4 350 14:35 08.01.2023
307 Clear -18 1009 77 10000 3 20 13:55 08.01.2023
308 Clear -18 1009 77 10000 3 20 13:21 08.01.2023
309 Clouds -16 1009 85 10000 3 360 11:50 08.01.2023
310 Snow -14 1009 85 10000 2 350 09:38 08.01.2023
311 Clouds -13 1009 85 10000 2 20 08:33 08.01.2023
312 Clouds -14 1009 85 10000 2 40 06:20 08.01.2023
313 Clouds -19 1008 84 10000 6 20 23:25 07.01.2023
314 Clouds -19 1008 84 10000 4 350 22:44 07.01.2023
315 Clouds -19 1008 84 10000 3 30 21:59 07.01.2023
316 Clouds -19 1008 84 10000 3 30 21:29 07.01.2023
317 Snow -19 1008 84 10000 4 350 20:25 07.01.2023
318 Clouds -19 1008 84 10000 4 10 19:25 07.01.2023
319 Clouds -18 1008 85 10000 4 360 18:18 07.01.2023
320 Snow -19 1007 84 10000 2 10 17:40 07.01.2023
321 Snow -20 1008 84 10000 3 350 16:47 07.01.2023
322 Snow -20 1008 84 10000 3 350 16:23 07.01.2023
323 Snow -20 1008 84 10000 4 350 15:39 07.01.2023
324 Snow -20 1008 84 10000 4 350 15:21 07.01.2023
325 Clouds -19 1008 84 10000 4 360 13:59 07.01.2023
326 Clouds -19 1008 84 10000 4 360 13:41 07.01.2023
327 Clouds -19 1008 84 10000 4 360 12:50 07.01.2023
328 Clouds -19 1008 84 10000 4 360 12:20 07.01.2023
329 Snow -19 1008 77 10000 3 320 10:28 07.01.2023
330 Snow -22 1008 76 10000 3 20 09:22 07.01.2023
331 Snow -20 1008 76 10000 3 340 07:59 07.01.2023
332 Snow -20 1008 76 10000 3 340 07:40 07.01.2023
333 Clouds -21 1007 76 10000 2 330 05:49 07.01.2023
334 Snow -21 1007 84 6000 4 310 22:58 06.01.2023
335 Snow -21 1007 84 6000 4 310 22:21 06.01.2023
336 Snow -21 1007 84 6000 4 310 22:21 06.01.2023
337 Snow -20 1006 84 8000 3 310 21:47 06.01.2023
338 Snow -19 1006 84 3200 4 320 20:34 06.01.2023
339 Snow -19 1005 84 7000 4 340 19:55 06.01.2023
340 Snow -19 1005 84 7000 4 340 19:36 06.01.2023
341 Snow -19 1005 84 7000 4 340 19:18 06.01.2023
342 Snow -21 1005 83 6000 5 340 17:44 06.01.2023
343 Snow -19 1005 84 9000 5 350 16:52 06.01.2023
344 Snow -19 1005 84 9000 5 350 16:22 06.01.2023
345 Snow -21 1005 83 1800 5 340 15:51 06.01.2023
346 Snow -21 1005 83 1800 5 340 15:28 06.01.2023
347 Snow -21 1005 83 10000 6 330 13:38 06.01.2023
348 Mist -21 1005 76 4900 5 330 11:49 06.01.2023
349 Snow -21 1005 76 3500 7 340 10:33 06.01.2023
350 Snow -21 1005 76 4500 7 350 08:34 06.01.2023
351 Snow -21 1005 83 10000 6 340 03:44 06.01.2023
352 Snow -21 1006 83 10000 5 340 22:56 05.01.2023
353 Snow -21 1006 84 10000 5 340 22:20 05.01.2023
354 Snow -21 1006 84 10000 5 340 20:24 05.01.2023
355 Snow -21 1006 84 10000 5 360 17:30 05.01.2023
356 Snow -21 1006 77 10000 5 350 16:37 05.01.2023
357 Snow -21 1007 77 10000 5 330 15:48 05.01.2023
358 Snow -21 1007 77 10000 4 340 14:56 05.01.2023
359 Snow -22 1007 84 8000 5 330 13:28 05.01.2023
360 Snow -22 1007 84 10000 5 340 12:38 05.01.2023
361 Snow -22 1007 77 6000 5 340 10:19 05.01.2023
362 Snow -22 1006 77 8000 5 350 09:36 05.01.2023
363 Snow -22 1006 77 10000 4 350 07:26 05.01.2023
364 Snow -22 1006 77 10000 4 350 06:38 05.01.2023
365 Snow -23 1006 77 7000 5 340 00:28 05.01.2023
366 Snow -23 1006 77 10000 5 340 22:23 04.01.2023
367 Snow -23 1006 77 10000 6 350 21:29 04.01.2023
368 Snow -24 1006 84 9000 6 340 19:58 04.01.2023
369 Snow -24 1006 84 9000 6 340 19:36 04.01.2023
370 Snow -24 1006 84 9000 6 340 19:18 04.01.2023
371 Snow -24 1006 84 6000 7 340 16:48 04.01.2023
372 Snow -24 1006 84 6000 7 340 16:30 04.01.2023
373 Snow -24 1006 77 9000 6 360 14:49 04.01.2023
374 Snow -25 1007 77 10000 5 10 11:45 04.01.2023
375 Snow -25 1007 77 10000 5 10 11:22 04.01.2023
376 Snow -25 1006 70 10000 6 10 10:43 04.01.2023
377 Snow -25 1006 70 10000 6 10 10:24 04.01.2023
378 Snow -26 1006 76 4800 7 360 08:58 04.01.2023
379 Snow -27 1007 76 9000 6 10 05:37 04.01.2023
380 Clouds -28 1007 69 10000 8 350 00:39 04.01.2023
381 Clouds -30 1008 76 10000 7 20 23:36 03.01.2023
382 Clouds -30 1008 76 10000 5 30 22:55 03.01.2023
383 Clouds -30 1008 76 10000 7 10 20:59 03.01.2023
384 Clear -29 1008 69 10000 6 350 19:51 03.01.2023
385 Clear -30 1008 76 10000 4 20 17:57 03.01.2023
386 Clear -29 1009 69 10000 4 360 16:39 03.01.2023
387 Clear -29 1008 76 10000 7 360 13:58 03.01.2023
388 Clear -29 1008 76 10000 7 360 13:31 03.01.2023
389 Clear -29 1008 76 10000 7 10 12:58 03.01.2023
390 Clear -29 1008 76 10000 7 10 12:58 03.01.2023
391 Clear -29 1008 76 10000 7 10 12:30 03.01.2023
392 Clear -29 1009 76 10000 7 360 11:32 03.01.2023
393 Clear -28 1008 69 10000 6 10 07:50 03.01.2023
394 Clear -28 1008 76 10000 5 10 04:23 03.01.2023
395 Clear -28 1007 69 10000 5 30 03:44 03.01.2023
396 Clear -28 1007 69 10000 5 30 02:50 03.01.2023
397 Clear -28 1007 76 10000 5 10 22:44 02.01.2023
398 Clear -28 1007 76 10000 5 10 22:24 02.01.2023
399 Clear -28 1007 76 10000 6 20 20:40 02.01.2023
400 Clear -28 1007 76 10000 5 10 19:54 02.01.2023
401 Clear -28 1007 76 10000 5 20 18:26 02.01.2023
402 Clear -27 1007 69 10000 6 20 15:28 02.01.2023
403 Clear -27 1007 69 10000 6 20 13:39 02.01.2023
404 Clear -27 1007 76 10000 6 360 12:18 02.01.2023
405 Clear -27 1007 76 10000 5 360 10:52 02.01.2023
406 Clear -26 1006 76 10000 6 350 07:35 02.01.2023
407 Clouds -35 1009 98 10000 3.87 334 02:48 02.01.2023
408 Clouds -36 1009 98 10000 4.05 331 22:41 01.01.2023
409 Clouds -35 1009 98 10000 3.96 332 21:38 01.01.2023
410 Clouds -35 1009 98 10000 3.88 331 20:48 01.01.2023
411 Clouds -34 1009 98 10000 3.84 331 19:49 01.01.2023
412 Clouds -34 1009 97 10000 3.63 331 18:24 01.01.2023
413 Clouds -34 1009 97 10000 3.7 331 17:22 01.01.2023
414 Clouds -34 1009 97 10000 3.7 331 16:33 01.01.2023
415 Clouds -34 1009 97 10000 3.83 334 14:59 01.01.2023
416 Clouds -35 1010 97 10000 3.75 328 13:41 01.01.2023
417 Clouds -35 1010 97 10000 3.56 331 12:41 01.01.2023
418 Clouds -35 1010 97 10000 3.6 330 11:38 01.01.2023
419 Clouds -35 1010 97 10000 3.54 331 10:44 01.01.2023
420 Clouds -35 1010 97 10000 3.67 332 08:56 01.01.2023
421 Clouds -35 1010 97 10000 3.83 333 08:22 01.01.2023
422 Clouds -37 1011 97 10000 3.74 332 07:23 01.01.2023
423 Clouds -37 1011 97 10000 3.83 328 03:21 01.01.2023
424 Clouds -36 1011 97 10000 3.8 331 23:43 31.12.2022
425 Clouds -36 1011 97 10000 3.77 331 22:33 31.12.2022
426 Clouds -36 1011 96 10000 3.79 329 21:37 31.12.2022
427 Clouds -36 1010 96 10000 3.73 331 21:18 31.12.2022
428 Clouds -36 1010 97 10000 3.73 330 19:42 31.12.2022
429 Clouds -37 1011 97 10000 3.44 328 18:45 31.12.2022
430 Clouds -37 1010 97 10000 3.41 328 18:19 31.12.2022
431 Snow -26 1007 76 10000 6 340 17:48 31.12.2022
432 Snow -26 1007 76 10000 6 340 16:59 31.12.2022
433 Snow -26 1007 76 10000 6 340 16:24 31.12.2022
434 Snow -26 1007 76 10000 5 330 14:40 31.12.2022
435 Snow -27 1007 76 10000 3 340 13:43 31.12.2022
436 Snow -27 1007 76 10000 4 360 12:40 31.12.2022
437 Snow -27 1007 76 10000 4 360 12:19 31.12.2022
438 Snow -27 1007 76 10000 5 360 11:50 31.12.2022
439 Snow -27 1007 76 10000 4 360 10:37 31.12.2022
440 Snow -27 1007 76 10000 4 360 09:55 31.12.2022
441 Snow -27 1007 76 10000 4 360 09:35 31.12.2022
442 Snow -28 1006 76 10000 4 360 07:49 31.12.2022
443 Snow -26 1006 70 10000 6 350 00:37 31.12.2022
444 Clouds -26 1006 70 10000 6 10 23:47 30.12.2022
445 Clouds -26 1006 70 10000 5 360 22:50 30.12.2022
446 Clouds -26 1006 76 10000 6 350 21:45 30.12.2022
447 Clouds -26 1006 76 10000 6 350 21:26 30.12.2022
448 Clouds -28 1005 76 10000 6 340 18:59 30.12.2022
449 Clouds -27 1005 69 10000 5 350 17:51 30.12.2022
450 Clouds -27 1005 69 10000 5 350 17:32 30.12.2022
451 Clear -28 1005 76 10000 6 360 15:57 30.12.2022
452 Clear -27 1005 69 10000 5 360 14:53 30.12.2022
453 Clear -28 1005 76 10000 5 360 11:58 30.12.2022
454 Clear -28 1005 69 10000 5 350 08:21 30.12.2022
455 Clear -28 1004 69 10000 9 340 03:39 30.12.2022
456 Clear -29 1004 76 10000 6 350 01:53 30.12.2022
457 Clear -29 1004 76 10000 4 350 22:58 29.12.2022
458 Clear -29 1003 76 10000 8 330 21:31 29.12.2022
459 Clear -29 1003 76 10000 7 350 20:54 29.12.2022
460 Clear -29 1003 76 10000 7 350 20:25 29.12.2022
461 Clear -28 1003 69 10000 10 330 18:30 29.12.2022
462 Clear -28 1003 76 10000 6 360 17:33 29.12.2022
463 Clear -26 1003 70 10000 5 330 16:55 29.12.2022
464 Clear -26 1003 70 10000 5 330 16:21 29.12.2022
465 Clear -27 1003 69 10000 5 340 15:33 29.12.2022
466 Clear -28 1003 76 10000 5 360 13:33 29.12.2022
467 Clear -27 1003 69 10000 2 60 11:29 29.12.2022
468 Clear -27 1002 69 10000 5 340 08:22 29.12.2022
469 Clear -26 1001 76 10000 6 340 00:22 29.12.2022
470 Clear -26 1001 76 10000 8 340 23:27 28.12.2022
471 Clear -26 1000 70 10000 8 340 21:21 28.12.2022
472 Clear -26 1000 76 10000 10 340 20:25 28.12.2022
473 Clear -26 1000 76 10000 7 350 19:23 28.12.2022
474 Clear -24 999 77 10000 3 10 16:56 28.12.2022
475 Clear -23 999 77 10000 3 360 14:42 28.12.2022
476 Clear -22 999 77 10000 3 360 12:55 28.12.2022
477 Clear -30 1001 93 10000 3.25 317 11:55 28.12.2022
478 Clear -20 999 77 10000 8 340 10:43 28.12.2022
479 Clear -29 1000 92 10000 3.65 318 08:43 28.12.2022
480 Clear -27 1001 89 10000 4.21 319 06:50 28.12.2022
481 Clear -18 998 71 10000 8 350 03:46 28.12.2022
482 Clear -18 999 71 10000 5 320 23:36 27.12.2022
483 Clear -16 999 72 10000 9 10 20:23 27.12.2022
484 Clear -16 998 72 10000 13 360 19:31 27.12.2022
485 Clear -16 999 66 10000 5 10 17:26 27.12.2022
486 Clear -16 998 66 10000 10 340 16:42 27.12.2022
487 Clear -13 999 52 10000 12 20 15:28 27.12.2022
488 Clear -13 998 61 10000 14 360 12:35 27.12.2022
489 Clear -13 1000 61 10000 8 360 11:28 27.12.2022
490 Clear -13 1000 72 10000 7 10 09:46 27.12.2022
491 Clear -13 1000 72 10000 7 10 09:46 27.12.2022
492 Clear -13 1000 72 10000 7 10 09:23 27.12.2022
493 Clear -12 1000 72 10000 14 10 06:50 27.12.2022
494 Clear -13 1001 66 10000 9 320 04:30 27.12.2022
495 Clear -14 1004 85 10000 4 10 22:26 26.12.2022
496 Clear -10 1004 73 10000 2 90 20:56 26.12.2022
497 Clear -10 1004 73 10000 2 90 20:34 26.12.2022
498 Clear -11 1005 73 10000 2 290 18:44 26.12.2022
499 Clear -11 1005 73 10000 4 280 17:44 26.12.2022
500 Clear -10 1006 79 10000 3 20 16:20 26.12.2022
501 Clear -19 1008 90 10000 4.67 325 13:54 26.12.2022
502 Clouds -19 1009 91 10000 4.58 323 12:45 26.12.2022
503 Clear -14 1013 78 10000 5 290 07:29 26.12.2022
504 Clear -16 1019 84 10000 8 310 23:56 25.12.2022
505 Clear -17 1020 84 10000 8 310 23:35 25.12.2022
506 Clear -14 1020 78 10000 7 330 22:27 25.12.2022
507 Clear -14 1020 78 10000 7 330 22:27 25.12.2022
508 Clear -18 1021 77 10000 1 0 21:37 25.12.2022
509 Clear -12 1022 79 10000 5 330 18:50 25.12.2022
510 Clear -14 1023 85 10000 2 70 17:52 25.12.2022
511 Clear -14 1023 85 10000 2 70 17:34 25.12.2022
512 Clear -14 1024 85 10000 8 320 15:21 25.12.2022
513 Clear -13 1026 78 10000 6 350 12:26 25.12.2022
514 Clear -12 1027 72 10000 3 260 08:39 25.12.2022
515 Clear -12 1028 72 10000 3 260 23:30 24.12.2022
516 Clear -13 1028 78 10000 5 360 21:41 24.12.2022
517 Clear -12 1029 79 10000 4 20 18:18 24.12.2022
518 Clear -10 1030 62 10000 6 350 16:38 24.12.2022
519 Clear -10 1031 67 10000 5 340 14:53 24.12.2022
520 Clear -10 1032 73 10000 6 350 12:43 24.12.2022
521 Clear -8 1032 67 10000 6 360 10:45 24.12.2022
522 Clear -8 1032 67 10000 6 360 10:20 24.12.2022
523 Clear -7 1032 68 10000 4 360 09:36 24.12.2022
524 Clear -6 1033 58 10000 8 20 05:48 24.12.2022
525 Clear -5 1034 50 10000 8 30 02:24 24.12.2022
526 Clear -17 1034 79 10000 3.39 20 23:37 23.12.2022
527 Clear -16 1033 85 10000 2.79 21 22:27 23.12.2022
528 Clear -6 1032 58 10000 6 360 20:40 23.12.2022
529 Clear -6 1032 58 10000 5 360 19:39 23.12.2022
530 Clear -6 1032 58 10000 5 360 19:39 23.12.2022
531 Clear -6 1032 58 10000 5 360 19:21 23.12.2022
532 Clear -6 1031 58 10000 8 300 18:39 23.12.2022
533 Clear -6 1031 58 10000 8 300 18:19 23.12.2022
534 Clear -13 1030 76 10000 3.97 18 16:33 23.12.2022
535 Clear -15 1030 75 10000 3.84 11 14:51 23.12.2022
536 Clouds -7 1033 58 10000 3 330 11:47 23.12.2022
537 Clear -8 1032 62 10000 9 350 09:37 23.12.2022
538 Clear -5 1034 42 10000 9 360 07:55 23.12.2022
539 Clear -6 1034 49 10000 8 350 06:52 23.12.2022
540 Clear -7 1035 53 10000 9 350 05:45 23.12.2022
541 Clear -4 1035 42 10000 11 30 23:22 22.12.2022
542 Clear -5 1035 42 10000 10 30 22:35 22.12.2022
543 Clear -6 1035 42 10000 11 10 20:27 22.12.2022
544 Clear -8 1035 49 10000 11 360 19:24 22.12.2022
545 Clear -8 1035 49 10000 13 10 18:40 22.12.2022
546 Clear -7 1035 45 10000 11 10 17:23 22.12.2022
547 Clear -8 1036 49 10000 11 20 16:38 22.12.2022
548 Clear -10 1036 62 10000 11 360 15:33 22.12.2022
549 Clear -11 1036 56 10000 13 10 14:46 22.12.2022
550 Clear -9 1036 53 10000 13 10 13:33 22.12.2022
551 Clear -10 1036 62 10000 13 10 12:46 22.12.2022
552 Clear -10 1037 62 10000 12 10 10:44 22.12.2022
553 Clear -10 1037 62 10000 12 10 10:21 22.12.2022
554 Clear -10 1036 62 10000 14 10 09:20 22.12.2022
555 Clear -10 1037 57 10000 10 360 08:25 22.12.2022
556 Clear -9 1037 48 10000 3 90 05:27 22.12.2022
557 Clear -8 1037 45 10000 9 40 04:18 22.12.2022
558 Clear -9 1039 53 10000 3 240 22:57 21.12.2022
559 Clear -10 1039 62 10000 6 350 21:54 21.12.2022
560 Clear -11 1038 67 10000 5 290 21:22 21.12.2022
561 Clear -9 1038 57 10000 5 30 20:49 21.12.2022
562 Clear -7 1037 45 10000 3 150 19:59 21.12.2022
563 Clear -7 1037 45 10000 3 150 19:41 21.12.2022
564 Clear -7 1037 45 10000 3 150 19:22 21.12.2022
565 Clear -9 1037 57 10000 6 350 18:44 21.12.2022
566 Clear -9 1037 53 10000 7 360 17:35 21.12.2022
567 Clear -8 1036 53 10000 8 330 14:32 21.12.2022
568 Clear -6 1037 45 10000 5 340 12:57 21.12.2022
569 Clear -5 1037 39 10000 7 10 11:42 21.12.2022
570 Clear -3 1036 28 10000 6 20 11:19 21.12.2022
571 Clear -2 1036 34 10000 8 70 08:53 21.12.2022
572 Clouds -17 1036 79 10000 2.13 17 06:59 21.12.2022
573 Clear -2 1032 54 10000 16 110 01:27 21.12.2022
574 Clear -2 1032 59 10000 14 90 22:42 20.12.2022
575 Clear -3 1033 74 10000 7 40 21:19 20.12.2022
576 Clear -2 1031 74 10000 15 70 20:22 20.12.2022
577 Clouds -2 1026 69 9000 24 100 18:49 20.12.2022
578 Clouds -2 1026 69 9000 24 100 18:28 20.12.2022
579 Clouds -2 1027 74 9000 23 100 17:51 20.12.2022
580 Clouds -2 1027 74 9000 23 100 17:32 20.12.2022
581 Clouds -3 1027 74 10000 22 100 16:32 20.12.2022
582 Clouds -4 1026 79 10000 23 100 15:27 20.12.2022
583 Clouds -4 1025 79 9000 24 100 14:37 20.12.2022
584 Clouds -3 1024 74 1500 24 100 13:58 20.12.2022
585 Clouds -3 1024 79 1800 22 100 12:44 20.12.2022
586 Clouds -3 1024 79 1800 22 100 12:23 20.12.2022
587 Clouds -3 1024 79 10000 23 100 11:28 20.12.2022
588 Clouds -3 1022 79 10000 23 100 08:23 20.12.2022
589 Clouds -3 1020 79 9000 16 100 00:27 20.12.2022
590 Clouds -3 1021 86 10000 14.75 90 22:36 19.12.2022
591 Clouds -3 1020 86 8000 16 100 21:39 19.12.2022
592 Snow -3 1007 92 1600 15 100 19:53 19.12.2022
593 Snow -3 1019 92 1600 15 100 19:31 19.12.2022
594 Clouds -3 1020 86 6000 12 100 18:24 19.12.2022
595 Clouds -3 1020 86 10000 13 90 16:35 19.12.2022
596 Clouds -3 1020 86 10000 13 90 16:35 19.12.2022
597 Clouds -3 1020 86 4600 15 100 13:24 19.12.2022
598 Clouds -3 1021 86 1900 15 110 11:55 19.12.2022
599 Clouds -3 1022 86 2100 14 100 09:19 19.12.2022
600 Clouds -3 1022 86 2800 14.75 100 07:32 19.12.2022
601 Clouds -4 1023 86 1400 16 100 02:22 19.12.2022
602 Clouds -4 1025 86 1000 16 100 21:51 18.12.2022
603 Clouds -2 1025 80 750 16 100 21:31 18.12.2022
604 Clouds -4 1026 86 2000 15 100 20:58 18.12.2022
605 Clouds -3 1026 79 1800 15 100 19:49 18.12.2022
606 Clouds -3 1026 79 1800 15 100 19:31 18.12.2022
607 Clouds -3 1026 79 1300 16 100 17:53 18.12.2022
608 Clouds -3 1027 79 3700 13 100 16:27 18.12.2022
609 Clouds -3 1027 74 10000 12 90 15:39 18.12.2022
610 Clouds -2 1027 74 10000 12 90 15:18 18.12.2022
611 Clouds -3 1029 74 10000 9 70 13:36 18.12.2022
612 Clouds -3 1030 74 10000 8 70 12:51 18.12.2022
613 Clouds -3 1030 74 10000 10 90 11:54 18.12.2022
614 Clouds -2 1030 69 10000 10 90 10:20 18.12.2022
615 Clouds -4 1030 68 10000 9 80 08:47 18.12.2022
616 Clouds -3 1031 74 10000 10 80 07:20 18.12.2022
617 Clouds -2 1031 69 10000 8 70 06:20 18.12.2022
618 Clouds -3 1030 80 4300 12 90 03:38 18.12.2022
619 Clouds -3 1031 80 10000 11 80 23:40 17.12.2022
620 Clouds -3 1031 80 5000 12 90 21:47 17.12.2022
621 Snow -4 1032 86 5000 11 90 18:54 17.12.2022
622 Snow -4 1032 86 9000 9 90 16:41 17.12.2022
623 Snow -4 1033 86 10000 11 90 14:23 17.12.2022
624 Clouds -4 1034 86 10000 12 90 11:36 17.12.2022
625 Clouds -4 1033 86 10000 12 90 10:46 17.12.2022
626 Clouds -4 1033 86 10000 13 90 09:46 17.12.2022
627 Snow -4 1034 80 10000 10 80 07:28 17.12.2022
628 Snow -4 1034 93 7000 10 90 06:45 17.12.2022
629 Clouds -5 1036 92 9000 11 100 23:49 16.12.2022
630 Clouds -5 1035 85 2700 13 110 20:56 16.12.2022
631 Mist -4 1035 79 2800 13 120 19:57 16.12.2022
632 Clouds -4 1035 86 800 16 120 16:40 16.12.2022
633 Clouds -4 1035 86 1600 13 120 14:48 16.12.2022
634 Clouds -4 1035 86 1200 15 120 13:45 16.12.2022
635 Clouds -4 1035 86 700 16.99 120 11:58 16.12.2022
636 Clouds -4 1035 86 1000 15.65 110 10:22 16.12.2022
637 Clouds -5 1036 85 1800 15.65 110 09:25 16.12.2022
638 Clouds -5 1035 85 550 16.99 120 07:56 16.12.2022
639 Clouds -5 1035 85 550 16.99 120 07:32 16.12.2022
640 Clouds -9 1035 85 250 16.99 120 23:31 15.12.2022
641 Clouds -10 1035 85 450 14 110 22:27 15.12.2022
642 Clouds -12 1010 92 150 15 110 20:36 15.12.2022
643 Snow -12 1034 85 250 12 110 19:36 15.12.2022
644 Clouds -11 1034 85 4300 8 100 18:20 15.12.2022
645 Clouds -13 1035 85 8000 7 80 17:24 15.12.2022
646 Clouds -15 1034 85 4000 7 90 15:35 15.12.2022
647 Clouds -15 1034 85 4000 7 90 15:35 15.12.2022
648 Clear -17 1034 85 10000 2 70 13:36 15.12.2022
649 Clear -19 1034 71 10000 4 30 12:33 15.12.2022
650 Fog -26 1032 75 10000 4 350 09:41 15.12.2022
651 Clouds -26 1032 75 10000 4 10 08:53 15.12.2022
652 Clouds -24 1031 77 10000 5 360 06:19 15.12.2022
653 Clouds -25 1029 77 10000 5 30 04:41 15.12.2022
654 Clouds -21 1020 83 300 12 300 21:25 14.12.2022
655 Clouds -21 1019 83 250 15 290 20:59 14.12.2022
656 Clouds -20 1019 84 250 15 290 20:29 14.12.2022
657 Clouds -21 1016 83 250 16 280 18:26 14.12.2022
658 Clouds -21 1014 76 250 15 280 16:57 14.12.2022
659 Clouds -21 1014 76 150 15 280 15:40 14.12.2022
660 Clouds -20 1013 84 500 14 280 13:52 14.12.2022
661 Snow -21 1012 83 300 13 280 11:31 14.12.2022
662 Snow -21 1011 83 250 12 280 10:34 14.12.2022
663 Snow -22 1010 76 350 13 290 08:51 14.12.2022
664 Snow -9 1005 86 650 16 110 22:50 13.12.2022
665 Clouds -9 1005 79 7000 13 110 21:48 13.12.2022
666 Snow -10 1006 79 10000 2 240 20:48 13.12.2022
667 Snow -10 1006 79 10000 2 240 20:25 13.12.2022
668 Clouds -21 1007 71 10000 5 10 17:50 13.12.2022
669 Clear -24 1008 69 10000 6 360 15:55 13.12.2022
670 Clouds -26 1008 69 10000 5 350 14:52 13.12.2022
671 Clouds -26 1008 69 10000 5 350 14:52 13.12.2022
672 Clear -25 1008 64 10000 4 20 11:32 13.12.2022
673 Clear -25 1008 64 10000 4 30 10:36 13.12.2022
674 Clear -25 1008 64 10000 4 10 09:43 13.12.2022
675 Clear -26 1008 70 10000 3 10 06:21 13.12.2022
676 Clear -24 1006 64 10000 2 20 22:23 12.12.2022
677 Clear -23 1005 70 10000 8 290 21:27 12.12.2022
678 Clear -22 1004 64 10000 8 280 18:34 12.12.2022
679 Clear -22 1004 64 10000 6 290 17:19 12.12.2022
680 Clear -21 1003 65 10000 9 260 15:22 12.12.2022
681 Clear -21 1002 59 10000 11 280 12:24 12.12.2022
682 Clouds -22 999 71 9000 11 280 09:19 12.12.2022
683 Clouds -21 997 64 9000 10 270 04:55 12.12.2022
684 Clouds -20 996 70 9000 10 280 03:21 12.12.2022
685 Clouds -18 993 77 10000 6 270 22:54 11.12.2022
686 Snow -16 991 85 2700 12 270 20:48 11.12.2022
687 Clouds -15 990 85 550 11 270 19:48 11.12.2022
688 Clouds -15 990 85 550 11 270 19:30 11.12.2022
689 Clouds -15 990 84 400 12 270 18:18 11.12.2022
690 Snow -15 989 92 450 11 270 17:31 11.12.2022
691 Snow -15 988 84 900 11 280 16:52 11.12.2022
692 Snow -15 988 84 900 13 280 15:47 11.12.2022
693 Snow -15 986 84 750 13 280 14:50 11.12.2022
694 Snow -14 986 84 600 12 290 12:44 11.12.2022
695 Snow -14 986 84 600 12 290 12:18 11.12.2022
696 Snow -11 984 92 450 11 290 08:29 11.12.2022
697 Snow -8 982 85 3200 13 20 00:34 11.12.2022
698 Snow -8 982 85 700 14 30 23:20 10.12.2022
699 Snow -9 982 92 1300 15 20 22:33 10.12.2022
700 Snow -8 983 85 1300 14 30 21:19 10.12.2022
701 Snow -8 983 92 500 14 20 20:35 10.12.2022
702 Snow -4 984 79 3700 10 70 18:58 10.12.2022
703 Snow -4 986 86 2000 11 80 16:57 10.12.2022
704 Snow -4 986 86 2000 11 80 16:33 10.12.2022
705 Snow -3 987 86 9000 10 60 15:38 10.12.2022
706 Snow -3 988 86 800 9 40 14:48 10.12.2022
707 Snow -9 992 92 6000 11 10 12:53 10.12.2022
708 Snow -10 993 92 2100 13 10 11:37 10.12.2022
709 Snow -10 996 85 2100 11 10 10:41 10.12.2022
710 Snow -13 1000 85 3900 5 350 08:58 10.12.2022
711 Snow -13 1001 78 10000 6 350 07:19 10.12.2022
712 Clear -14 1010 71 10000 4 20 00:52 10.12.2022
713 Clear -15 1010 71 10000 4 30 23:19 09.12.2022
714 Clear -15 1011 71 10000 3 40 22:38 09.12.2022
715 Clear -14 1011 78 10000 4 40 21:24 09.12.2022
716 Clear -16 1011 78 10000 4 20 20:42 09.12.2022
717 Clear -13 1011 78 10000 4 360 18:52 09.12.2022
718 Clouds -12 1011 79 10000 3 30 17:53 09.12.2022
719 Clouds -13 1010 85 10000 5 350 16:32 09.12.2022
720 Clouds -12 1010 85 10000 3 360 15:42 09.12.2022
721 Clouds -12 1010 85 10000 3 360 15:18 09.12.2022
722 Snow -4 1004 93 800 10 110 11:34 09.12.2022
723 Snow -5 1003 92 300 14 100 10:35 09.12.2022
724 Snow -5 1004 86 1100 14 100 08:42 09.12.2022
725 Clouds -6 1010 79 10000 8 120 03:19 09.12.2022
726 Clouds -20 1012 92 5458 2.67 356 00:25 09.12.2022
727 Clouds -21 1012 93 3403 2.68 355 22:19 08.12.2022
728 Clouds -10 1010 48 10000 6 60 20:30 08.12.2022
729 Clear -20 1010 76 10000 1 0 17:38 08.12.2022
730 Clear -19 1010 78 10000 2 30 15:36 08.12.2022
731 Clear -19 1010 71 10000 3 360 14:25 08.12.2022
732 Clear -21 1010 71 10000 3 20 11:19 08.12.2022
733 Clear -19 1010 65 10000 4 360 09:51 08.12.2022
734 Clear -19 1010 65 10000 4 360 09:21 08.12.2022
735 Clear -21 1006 77 10000 3 10 23:56 07.12.2022
736 Clear -19 1005 71 10000 3 360 22:19 07.12.2022
737 Clear -18 1005 71 10000 2 20 21:48 07.12.2022
738 Clear -21 1003 70 10000 5 30 20:36 07.12.2022
739 Clear -18 1002 71 10000 4 360 19:24 07.12.2022
740 Clouds -16 1000 78 10000 3 360 16:21 07.12.2022
741 Clouds -16 999 85 10000 2 40 14:40 07.12.2022
742 Snow -12 997 79 10000 1 0 11:38 07.12.2022
743 Clouds -14 995 92 10000 4 30 10:39 07.12.2022
744 Clouds -15 994 85 10000 1 0 09:41 07.12.2022
745 Snow -13 994 85 10000 2 260 08:46 07.12.2022
746 Snow -13 993 85 10000 2 210 06:46 07.12.2022
747 Snow -11 991 85 10000 3 230 04:44 07.12.2022
748 Mist -11 985 85 1800 5 200 22:39 06.12.2022
749 Snow -12 982 85 4100 7 200 20:24 06.12.2022
750 Clouds -11 981 79 10000 7 210 17:52 06.12.2022
751 Snow -12 980 78 10000 7 200 16:41 06.12.2022
752 Snow -12 979 78 10000 6 170 15:51 06.12.2022
753 Snow -12 979 78 10000 6 170 15:20 06.12.2022
754 Clouds -12 978 85 10000 6 170 14:25 06.12.2022
755 Clouds -5 975 74 10000 9 160 12:54 06.12.2022
756 Clouds -5 975 74 10000 9 160 12:36 06.12.2022
757 Clouds -4 972 86 10000 7 120 07:59 06.12.2022
758 Clear -4 971 79 10000 8 110 05:57 06.12.2022
759 Clouds -5 967 100 2499 17.59 65 01:25 06.12.2022
760 Snow -4 975 92 100 20 80 22:34 05.12.2022
761 Snow -5 980 92 300 16 80 20:55 05.12.2022
762 Snow -4 980 93 300 16 80 20:26 05.12.2022
763 Clouds -7 982 85 700 14 90 19:44 05.12.2022
764 Clear -10 986 56 10000 5 20 17:44 05.12.2022
765 Clear -9 988 48 10000 6 90 16:42 05.12.2022
766 Clear -17 988 78 10000 3 10 15:22 05.12.2022
767 Clear -19 989 77 10000 3 10 12:59 05.12.2022
768 Clear -19 989 77 10000 3 10 12:40 05.12.2022
769 Clear -18 989 77 10000 5 30 11:51 05.12.2022
770 Clear -16 989 78 10000 3 330 10:58 05.12.2022
771 Clouds -13 983 78 2100 13 290 00:20 05.12.2022
772 Clouds -12 983 78 4500 11 290 22:45 04.12.2022
773 Clouds -12 983 85 4100 14 280 22:20 04.12.2022
774 Clouds -12 983 85 4100 14 280 22:20 04.12.2022
775 Clouds -12 983 85 2600 14 280 21:53 04.12.2022
776 Snow -11 982 85 1600 13 280 20:30 04.12.2022
777 Snow -10 986 85 1400 13 290 19:27 04.12.2022
778 Snow -10 981 85 1000 13 290 18:40 04.12.2022
779 Snow -10 987 92 900 10 290 17:23 04.12.2022
780 Snow -10 987 92 900 11 290 16:37 04.12.2022
781 Snow -10 987 92 900 11 290 16:19 04.12.2022
782 Snow -9 980 85 900 11 290 15:57 04.12.2022
783 Snow -9 980 92 1100 10 300 14:43 04.12.2022
784 Snow -7 980 85 1600 6 300 13:30 04.12.2022
785 Snow -5 979 93 900 8 290 12:43 04.12.2022
786 Snow -5 979 100 1700 7 270 11:51 04.12.2022
787 Mist 0 978 93 4200 8 140 09:20 04.12.2022
788 Rain 0 978 100 3300 12 120 07:27 04.12.2022
789 Snow -6 993 85 1000 11 60 00:45 04.12.2022
790 Snow -6 996 85 1500 10 60 23:33 03.12.2022
791 Snow -7 1003 79 2500 8 70 21:59 03.12.2022
792 Snow -7 1003 79 2500 8 70 21:21 03.12.2022
793 Snow -5 1005 46 10000 6 40 20:22 03.12.2022
794 Snow -5 1008 42 10000 7 70 18:39 03.12.2022
795 Clear -9 1012 57 10000 2 350 15:54 03.12.2022
796 Clear -10 1013 72 10000 1 350 14:23 03.12.2022
797 Clear -11 1015 78 10000 4 10 12:54 03.12.2022
798 Clear -11 1015 78 10000 4 10 12:22 03.12.2022
799 Clear -12 1015 78 10000 3 20 10:21 03.12.2022
800 Clear -10 1016 79 10000 1 80 07:22 03.12.2022
801 Clear -8 1012 79 10000 2 190 01:29 03.12.2022
802 Clouds -7 1010 86 10000 4 250 22:50 02.12.2022
803 Clouds -6 1005 92 10000 9 280 20:54 02.12.2022
804 Clouds -6 1005 92 10000 9 280 20:54 02.12.2022
805 Clouds -6 1005 92 10000 9 280 20:54 02.12.2022
806 Snow -3 1003 93 10000 6 160 19:26 02.12.2022
807 Clouds -2 1001 80 10000 1 0 15:59 02.12.2022
808 Clouds -2 1001 86 10000 1 330 14:43 02.12.2022
809 Clouds -2 1001 86 10000 1 330 14:24 02.12.2022
810 Snow -2 1002 80 10000 2 350 12:56 02.12.2022
811 Snow -3 1002 86 9000 4 360 11:40 02.12.2022
812 Clouds 0 1002 74 10000 3 20 08:35 02.12.2022
813 Clouds -1 1002 74 10000 5 10 07:24 02.12.2022
814 Rain 2 1001 86 10000 9 170 23:54 01.12.2022
815 Clouds 3 1001 80 10000 12 150 21:49 01.12.2022
816 Clouds 3 1001 80 10000 9 150 21:31 01.12.2022
817 Clouds 2 1001 86 10000 11 140 19:48 01.12.2022
818 Clouds 1 1002 93 10000 14 130 17:50 01.12.2022
819 Clouds 0 1005 93 10000 13 120 15:59 01.12.2022
820 Clouds -1 1010 86 10000 13 130 11:55 01.12.2022
821 Clear -1 1011 80 10000 14 130 10:25 01.12.2022
822 Clear -1 1012 86 10000 11 130 09:54 01.12.2022
823 Clear -1 1012 86 10000 11 130 09:36 01.12.2022
824 Clouds 0 1016 80 10000 11 120 02:00 01.12.2022
825 Clear -2 1019 86 10000 4 140 22:38 30.11.2022
826 Clear -5 1018 93 10000 3 140 21:19 30.11.2022
827 Clear -6 1019 100 10000 1 190 20:45 30.11.2022
828 Clear -6 1019 100 10000 1 190 20:22 30.11.2022
829 Clear -8 1020 93 10000 2 30 18:33 30.11.2022
830 Clear -9 1019 92 10000 2 10 17:36 30.11.2022
831 Clouds -7 1018 100 9000 2 320 16:19 30.11.2022
832 Clouds -6 1017 93 10000 3 310 14:27 30.11.2022
833 Fog -6 1017 93 1200 3 40 13:48 30.11.2022
834 Fog -3 1015 100 350 4 360 10:42 30.11.2022
835 Snow -1 1015 93 800 1 210 08:39 30.11.2022
836 Snow -1 1015 100 3700 1 180 07:56 30.11.2022
837 Clouds 0 1018 80 10000 5 170 23:36 29.11.2022
838 Clouds 0 1018 80 10000 6 170 22:51 29.11.2022
839 Clouds 1 1018 74 10000 7.6 160 21:36 29.11.2022
840 Clouds 0 1018 80 10000 4 140 20:37 29.11.2022
841 Clear 0 1017 80 10000 9 150 18:59 29.11.2022
842 Clear 1 1017 74 10000 11 150 17:18 29.11.2022
843 Clear 1 1017 80 10000 10 150 16:25 29.11.2022
844 Clear 1 1017 80 10000 9 140 14:50 29.11.2022
845 Clear 0 1017 86 10000 9 130 13:20 29.11.2022
846 Clouds -1 1017 93 10000 9 140 11:44 29.11.2022
847 Fog -1 1017 100 10000 9 140 10:56 29.11.2022
848 Fog -1 1017 100 450 9 130 09:47 29.11.2022
849 Fog -1 1017 100 800 7 130 08:42 29.11.2022
850 Snow -3 1021 92 250 13 110 00:36 29.11.2022
851 Snow -3 1021 92 250 13 110 00:36 29.11.2022
852 Snow -3 1022 92 1000 13.86 120 23:35 28.11.2022
853 Snow -3 1022 86 1200 16 120 22:52 28.11.2022
854 Snow -3 1022 86 1900 17.88 120 21:44 28.11.2022
855 Snow -3 1023 79 2700 14 120 20:50 28.11.2022
856 Snow -3 1023 79 9000 13 120 19:38 28.11.2022
857 Snow -3 1024 79 8000 12 110 18:29 28.11.2022
858 Snow -4 1025 92 6000 11 110 17:50 28.11.2022
859 Snow -4 1026 86 5000 9 100 15:37 28.11.2022
860 Snow -5 1026 85 9000 10 90 14:24 28.11.2022
861 Snow -6 1027 85 10000 10 90 13:51 28.11.2022
862 Snow -4 1027 86 10000 11 90 12:35 28.11.2022
863 Clouds -5 1028 80 10000 11 90 09:27 28.11.2022
864 Clouds -5 1029 80 10000 9 80 07:19 28.11.2022
865 Clouds -5 1030 80 10000 9 80 04:42 28.11.2022
866 Clouds -6 1030 86 10000 7 90 03:58 28.11.2022
867 Clouds -7 1031 86 8000 14 90 01:27 28.11.2022
868 Clouds -12 1033 79 10000 4 320 22:42 27.11.2022
869 Clouds -9 1033 86 10000 8 20 21:28 27.11.2022
870 Clouds -10 1034 79 10000 6 80 19:30 27.11.2022
871 Clouds -11 1034 85 10000 0 0 16:47 27.11.2022
872 Clouds -16 1034 85 10000 2 350 14:30 27.11.2022
873 Clouds -15 1035 85 10000 2 10 12:32 27.11.2022
874 Fog -19 1034 84 10000 3 20 10:44 27.11.2022
875 Fog -20 1033 84 10000 2 50 07:57 27.11.2022
876 Fog -20 1033 84 10000 2 50 07:57 27.11.2022
877 Snow -16 1031 85 10000 3 340 23:43 26.11.2022
878 Clouds -26 1033 100 8642 1.95 336 21:58 26.11.2022
879 Clouds -25 1032 100 6471 2.27 346 20:36 26.11.2022
880 Clouds -25 1031 100 10000 2.08 358 19:22 26.11.2022
881 Clouds -15 1027 92 10000 2 240 16:59 26.11.2022
882 Clouds -23 1030 100 10000 1.83 357 15:38 26.11.2022
883 Clouds -21 1029 100 6371 1.94 338 12:55 26.11.2022
884 Clouds -19 1028 97 7598 2.16 345 11:24 26.11.2022
885 Snow -12 1024 92 2700 2 350 09:44 26.11.2022
886 Snow -15 1023 84 3200 3 350 08:46 26.11.2022
887 Clouds -13 1017 78 10000 2 10 23:23 25.11.2022
888 Clear -13 1015 78 10000 4 360 21:41 25.11.2022
889 Clear -13 1015 78 10000 4 360 21:19 25.11.2022
890 Clear -13 1013 78 10000 4 20 19:36 25.11.2022
891 Clear -14 1009 78 10000 7 350 15:51 25.11.2022
892 Clear -11 1007 79 10000 8 360 12:28 25.11.2022
893 Snow -12 1004 79 10000 5 360 08:56 25.11.2022
894 Snow -12 1004 79 10000 5 360 08:37 25.11.2022
895 Clouds -14 1002 78 10000 6 20 06:48 25.11.2022
896 Clouds -11 999 78 10000 6 20 01:54 25.11.2022
897 Snow -9 998 92 10000 3 260 23:43 24.11.2022
898 Clouds -8 997 73 10000 4 60 22:37 24.11.2022
899 Snow -8 996 67 10000 7.6 30 21:42 24.11.2022
900 Clouds -8 993 79 4600 14 70 19:48 24.11.2022
901 Snow -8 991 85 1000 16 80 17:48 24.11.2022
902 Clouds -8 991 85 1000 16 80 17:24 24.11.2022
903 Clouds -8 991 92 500 21.01 80 16:40 24.11.2022
904 Clouds -8 990 85 500 26 80 14:24 24.11.2022
905 Clouds -8 989 92 300 25 80 12:41 24.11.2022
906 Clouds -8 989 92 200 26 80 11:38 24.11.2022
907 Clouds -7 988 92 100 22 90 08:59 24.11.2022
908 Clouds -6 988 92 100 20 80 06:22 24.11.2022
909 Snow -5 994 93 50 18 100 00:41 24.11.2022
910 Snow -5 996 93 50 17 110 23:32 23.11.2022
911 Snow -7 998 93 50 17 100 21:48 23.11.2022
912 Snow -7 998 93 50 17 100 21:48 23.11.2022
913 Snow -7 1001 93 150 15 110 20:52 23.11.2022
914 Snow -7 1003 93 450 11 110 19:40 23.11.2022
915 Snow -11 1005 92 450 10 100 18:56 23.11.2022
916 Snow -11 1007 92 600 10 90 17:35 23.11.2022
917 Snow -14 1013 85 1900 8 80 14:19 23.11.2022
918 Snow -16 1015 72 10000 6 80 13:24 23.11.2022
919 Clouds -18 1016 71 10000 6 80 12:23 23.11.2022
920 Clear -18 1017 55 10000 5 90 11:46 23.11.2022
921 Clear -25 1019 70 10000 3 360 10:48 23.11.2022
922 Clear -25 1019 70 10000 3 360 10:18 23.11.2022
923 Clear -27 1019 69 10000 4 360 09:28 23.11.2022
924 Clear -28 1020 76 10000 6 10 08:58 23.11.2022
925 Clear -28 1020 76 10000 6 10 08:36 23.11.2022
926 Clear -29 1021 76 10000 4 360 05:19 23.11.2022
927 Clear -27 1022 69 10000 5 350 01:53 23.11.2022
928 Clear -27 1021 76 10000 4 360 22:37 22.11.2022
929 Clear -27 1021 76 10000 5 340 21:51 22.11.2022
930 Clear -27 1021 76 10000 4 350 21:31 22.11.2022
931 Clear -27 1021 76 10000 5 330 20:44 22.11.2022
932 Clear -27 1020 76 10000 6 340 19:47 22.11.2022
933 Clear -28 1019 76 10000 5 330 17:54 22.11.2022
934 Clear -29 1019 76 10000 4 350 16:39 22.11.2022
935 Clear -28 1019 76 10000 5 340 14:31 22.11.2022
936 Clear -27 1019 69 10000 4 360 12:56 22.11.2022
937 Clear -27 1018 76 10000 6 320 09:41 22.11.2022
938 Clear -27 1017 76 10000 5 330 08:57 22.11.2022
939 Clear -27 1017 69 10000 7 330 06:44 22.11.2022
940 Clear -25 1016 70 10000 7 310 00:54 22.11.2022
941 Clouds -26 1016 70 10000 6 330 22:57 21.11.2022
942 Clouds -27 1016 76 10000 5 350 22:24 21.11.2022
943 Clouds -26 1016 70 10000 6 340 21:32 21.11.2022
944 Clouds -26 1015 70 10000 5 340 20:34 21.11.2022
945 Clouds -26 1015 70 10000 5 340 19:39 21.11.2022
946 Clouds -26 1015 70 10000 8 310 18:52 21.11.2022
947 Snow -26 1015 76 10000 4 320 17:32 21.11.2022
948 Clouds -27 1015 76 10000 4 340 16:43 21.11.2022
949 Clouds -27 1015 76 10000 4 340 16:19 21.11.2022
950 Clouds -26 1014 70 10000 6 320 15:23 21.11.2022
951 Clouds -26 1014 76 10000 8 310 13:54 21.11.2022
952 Clouds -26 1014 76 10000 8 310 13:18 21.11.2022
953 Clear -26 1015 76 10000 6 320 09:43 21.11.2022
954 Clouds -25 1015 70 10000 7 320 07:52 21.11.2022
955 Clouds -25 1015 77 10000 6 350 00:50 21.11.2022
956 Clouds -25 1016 77 10000 7 340 21:47 20.11.2022
957 Clear -25 1015 77 10000 6 360 20:48 20.11.2022
958 Clear -25 1015 77 10000 6 340 19:21 20.11.2022
959 Clear -24 1015 70 10000 7 350 17:24 20.11.2022
960 Clear -24 1016 70 10000 7 340 15:50 20.11.2022
961 Clear -24 1016 70 10000 7 340 15:23 20.11.2022
962 Clouds -25 1016 77 10000 7 350 14:18 20.11.2022
963 Clouds -25 1016 77 10000 6 350 13:32 20.11.2022
964 Clouds -25 1016 77 10000 6 350 13:32 20.11.2022
965 Clear -25 1016 77 10000 5 360 12:23 20.11.2022
966 Clouds -24 1017 77 10000 6 350 10:58 20.11.2022
967 Clouds -24 1017 84 10000 7 350 09:44 20.11.2022
968 Clear -23 1017 77 10000 7 360 08:55 20.11.2022
969 Clear -23 1017 77 10000 7 360 08:32 20.11.2022
970 Clouds -24 1017 84 10000 5 350 07:27 20.11.2022
971 Clear -22 1018 77 10000 5 360 01:29 20.11.2022
972 Clear -22 1018 77 10000 5 350 00:57 20.11.2022
973 Clear -22 1018 77 10000 5 350 00:38 20.11.2022
974 Clear -22 1018 77 10000 5 350 00:19 20.11.2022
975 Clear -23 1018 84 10000 3 340 23:26 19.11.2022
976 Clear -21 1018 77 10000 5 340 22:49 19.11.2022
977 Clear -21 1018 77 10000 5 340 22:18 19.11.2022
978 Clouds -20 1018 77 10000 6 310 21:27 19.11.2022
979 Clouds -20 1018 77 10000 4 340 20:41 19.11.2022
980 Snow -19 1018 84 10000 4 360 19:51 19.11.2022
981 Clear -18 1018 78 10000 4 350 18:54 19.11.2022
982 Clear -21 1017 84 10000 5 360 17:39 19.11.2022
983 Clear -21 1017 84 10000 5 360 17:18 19.11.2022
984 Clear -23 1017 84 10000 4 360 15:33 19.11.2022
985 Clear -24 1017 84 10000 3 20 13:36 19.11.2022
986 Clear -21 1017 84 10000 3 350 11:56 19.11.2022
987 Clear -23 1016 77 10000 2 30 09:51 19.11.2022
988 Clear -23 1016 77 10000 2 30 08:19 19.11.2022
989 Clear -23 1016 77 10000 2 30 08:19 19.11.2022
990 Clear -24 1016 76 10000 4 40 04:45 19.11.2022
991 Clear -22 1018 77 10000 2 30 01:50 19.11.2022
992 Clear -21 1017 77 10000 4 50 23:35 18.11.2022
993 Clear -21 1018 83 10000 4 40 22:25 18.11.2022
994 Clear -21 1017 83 10000 4 20 21:36 18.11.2022
995 Clouds -22 1017 83 10000 4 30 20:58 18.11.2022
996 Clouds -22 1017 83 10000 4 30 20:25 18.11.2022
997 Clouds -23 1017 83 10000 4 50 19:44 18.11.2022
998 Clouds -22 1016 83 10000 5 40 17:45 18.11.2022
999 Clouds -22 1016 83 10000 5 40 17:45 18.11.2022
1000 Clear -19 1016 77 10000 4 10 16:32 18.11.2022
1001 Clear -16 1016 78 10000 3 360 12:39 18.11.2022
1002 Clear -15 1015 78 10000 4 340 10:45 18.11.2022
1003 Clear -14 1013 78 10000 5 330 07:52 18.11.2022
1004 Clouds -11 1012 73 10000 8 300 05:37 18.11.2022
1005 Clouds -10 1010 79 10000 7 300 02:49 18.11.2022
1006 Clouds -10 1007 85 1800 15 290 23:48 17.11.2022
1007 Snow -9 1004 92 650 14 290 20:48 17.11.2022
1008 Snow -9 1003 92 450 15 290 19:57 17.11.2022
1009 Snow -9 1003 92 450 15 290 19:31 17.11.2022
1010 Snow -8 1003 92 550 12 290 18:34 17.11.2022
1011 Snow -7 1003 92 1100 11 300 17:32 17.11.2022
1012 Snow -7 1003 92 900 11 300 16:32 17.11.2022
1013 Snow -5 1006 92 1200 6 330 12:24 17.11.2022
1014 Snow -5 1007 92 2900 6 320 10:47 17.11.2022
1015 Clouds -4 1007 100 10000 3 330 07:35 17.11.2022
1016 Clouds 2 1006 80 10000 3 110 01:30 17.11.2022
1017 Clear 1 1005 86 10000 4 150 23:32 16.11.2022
1018 Clear 1 1005 86 10000 3 180 22:24 16.11.2022
1019 Clear 2 1003 80 10000 6 160 20:33 16.11.2022
1020 Clear 1 1000 87 10000 8 160 18:49 16.11.2022
1021 Clear 1 1000 87 10000 8 160 18:49 16.11.2022
1022 Clear 1 1000 87 10000 8 160 18:49 16.11.2022
1023 Clear 1 1000 87 10000 8 160 18:30 16.11.2022
1024 Clouds 1 998 93 10000 8 150 15:58 16.11.2022
1025 Clouds 1 995 93 10000 11 130 11:54 16.11.2022
1026 Clouds 2 993 86 10000 17 130 07:45 16.11.2022
1027 Clouds 1 994 93 10000 18 130 01:42 16.11.2022
1028 Clouds 1 995 93 10000 15 130 23:36 15.11.2022
1029 Rain 1 996 93 6000 15 120 21:44 15.11.2022
1030 Snow 0 997 93 2400 17 120 20:19 15.11.2022
1031 Snow -1 1000 93 150 19 120 18:53 15.11.2022
1032 Snow -1 990 93 200 19 110 17:37 15.11.2022
1033 Snow -2 1006 100 200 18 110 16:20 15.11.2022
1034 Snow -2 1008 100 300 16 120 15:39 15.11.2022
1035 Snow -2 1011 92 400 14 110 14:41 15.11.2022
1036 Snow -2 1016 92 1900 12 120 12:54 15.11.2022
1037 Clouds -2 1017 92 9000 10 130 11:22 15.11.2022
1038 Clouds -1 1018 86 10000 9 130 09:39 15.11.2022
1039 Clear -2 1018 80 10000 7 160 00:54 15.11.2022
1040 Clear -2 1018 80 10000 6 160 00:24 15.11.2022
1041 Clear -3 1018 86 10000 7 160 22:33 14.11.2022
1042 Clear -2 1017 74 10000 6 160 20:44 14.11.2022
1043 Clear -3 1017 80 10000 6 150 19:46 14.11.2022
1044 Clear -3 1016 74 10000 6 150 18:27 14.11.2022
1045 Clouds -5 1016 74 10000 6 150 13:20 14.11.2022
1046 Clouds -6 1016 73 10000 7 150 11:49 14.11.2022
1047 Clouds -6 1016 73 10000 7 150 11:49 14.11.2022
1048 Clouds -6 1016 73 10000 6 150 10:59 14.11.2022
1049 Clouds -8 1016 73 10000 7 150 08:34 14.11.2022
1050 Clouds -17 1018 94 10000 2.84 143 07:52 14.11.2022
1051 Clouds -12 1016 92 10000 5 190 04:24 14.11.2022
1052 Fog -21 1017 76 1400 0 0 23:23 13.11.2022
1053 Fog -20 1017 84 10000 0 0 21:42 13.11.2022
1054 Fog -24 1016 76 10000 1 30 20:48 13.11.2022
1055 Fog -23 1016 76 10000 2 20 18:54 13.11.2022
1056 Fog -23 1016 76 10000 2 360 17:50 13.11.2022
1057 Fog -22 1015 83 10000 2 360 15:48 13.11.2022
1058 Fog -26 1016 83 10000 2 360 14:31 13.11.2022
1059 Fog -21 1015 83 10000 2 360 12:56 13.11.2022
1060 Fog -22 1015 83 10000 3 10 11:43 13.11.2022
1061 Fog -23 1015 83 10000 3 10 10:38 13.11.2022
1062 Mist -22 1014 76 4400 3 20 05:53 13.11.2022
1063 Fog -17 1013 85 10000 1 20 23:55 12.11.2022
1064 Fog -20 1013 84 1200 1 60 21:41 12.11.2022
1065 Mist -23 1013 83 10000 1 350 20:57 12.11.2022
1066 Fog -26 1013 83 10000 1 350 19:28 12.11.2022
1067 Fog -26 1012 75 10000 3 350 16:58 12.11.2022
1068 Fog -26 1012 75 10000 3 360 15:59 12.11.2022
1069 Fog -26 1013 75 10000 4 350 14:45 12.11.2022
1070 Mist -26 1012 75 4500 5 360 09:43 12.11.2022
1071 Mist -28 1012 83 3700 5 360 07:48 12.11.2022
1072 Clouds -23 1013 98 10000 3.93 332 00:40 12.11.2022
1073 Fog -26 1011 75 10000 3 10 21:21 11.11.2022
1074 Fog -26 1011 83 10000 2 360 20:44 11.11.2022
1075 Fog -25 1010 84 10000 4 350 19:27 11.11.2022
1076 Fog -22 1010 76 10000 3 360 18:40 11.11.2022
1077 Fog -23 1010 83 10000 3 360 17:40 11.11.2022
1078 Fog -23 1010 83 10000 3 360 17:40 11.11.2022
1079 Fog -23 1010 83 10000 3 360 17:40 11.11.2022
1080 Clear -19 1010 77 10000 4 350 15:21 11.11.2022
1081 Fog -18 1010 85 10000 4 340 13:57 11.11.2022
1082 Clear -17 1010 85 10000 3 350 12:45 11.11.2022
1083 Fog -23 1009 83 10000 2 40 09:32 11.11.2022
1084 Fog -23 1009 83 10000 2 40 09:32 11.11.2022
1085 Fog -18 1009 84 10000 2 30 08:27 11.11.2022
1086 Clouds -18 1007 84 10000 2 30 00:40 11.11.2022
1087 Clouds -14 1006 85 10000 3 50 22:54 10.11.2022
1088 Clouds -15 1006 85 10000 1 0 21:51 10.11.2022
1089 Clouds -13 1006 85 10000 2 340 21:28 10.11.2022
1090 Clouds -15 1005 92 10000 1 0 20:47 10.11.2022
1091 Clouds -15 1005 92 10000 1 0 20:20 10.11.2022
1092 Clouds -13 1005 85 10000 0 0 18:59 10.11.2022
1093 Clouds -13 1004 85 10000 1 0 17:59 10.11.2022
1094 Clouds -12 1004 85 10000 1 0 16:25 10.11.2022
1095 Snow -14 1004 92 8000 1 0 13:39 10.11.2022
1096 Snow -14 1003 84 9000 1 0 11:28 10.11.2022
1097 Snow -11 1003 85 3800 2 20 08:21 10.11.2022
1098 Snow -10 1002 85 9000 4 10 01:25 10.11.2022
1099 Snow -10 1002 92 10000 4 10 23:21 09.11.2022
1100 Snow -10 1002 85 6000 4 350 21:57 09.11.2022
1101 Snow -10 1001 85 10000 4 360 20:47 09.11.2022
1102 Snow -10 1001 85 10000 4 360 20:28 09.11.2022
1103 Snow -10 1000 85 10000 5 360 19:30 09.11.2022
1104 Snow -10 1000 85 9000 5 10 18:30 09.11.2022
1105 Snow -10 999 85 10000 5 360 15:45 09.11.2022
1106 Snow -9 999 85 10000 5 360 14:41 09.11.2022
1107 Snow -9 999 85 10000 5 360 14:22 09.11.2022
1108 Snow -9 998 85 10000 4 350 12:58 09.11.2022
1109 Snow -9 997 92 9000 4 360 09:52 09.11.2022
1110 Snow -9 996 92 10000 4 360 07:47 09.11.2022
1111 Snow -9 996 92 10000 4 10 06:55 09.11.2022
1112 Snow -6 994 93 10000 5 330 23:27 08.11.2022
1113 Snow -6 993 93 9000 5 290 21:44 08.11.2022
1114 Snow -6 993 93 4900 6 310 21:23 08.11.2022
1115 Snow -6 993 93 4700 8 310 20:40 08.11.2022
1116 Snow -6 992 93 5000 7 310 19:36 08.11.2022
1117 Snow -6 992 93 5000 7 310 18:23 08.11.2022
1118 Snow -6 991 93 6000 8 300 16:20 08.11.2022
1119 Snow -6 990 93 5000 9 310 14:55 08.11.2022
1120 Snow -6 990 93 1000 10 300 13:36 08.11.2022
1121 Snow -5 990 93 1000 8 300 12:38 08.11.2022
1122 Snow -3 989 93 1000 7 320 08:57 08.11.2022
1123 Snow -3 989 93 1200 7 330 07:25 08.11.2022
1124 Snow -3 993 92 6000 7 360 00:22 08.11.2022
1125 Snow -3 994 100 2600 7 360 22:24 07.11.2022
1126 Snow -2 995 92 3200 6 10 21:21 07.11.2022
1127 Snow -1 996 100 4900 6 360 20:33 07.11.2022
1128 Snow -2 1000 92 9000 3 20 17:51 07.11.2022
1129 Snow -1 1001 92 7000 3 350 16:32 07.11.2022
1130 Snow -2 1002 100 10000 5 20 15:34 07.11.2022
1131 Snow -2 1004 100 8000 3 20 14:31 07.11.2022
1132 Snow -2 1007 92 5000 2 360 12:35 07.11.2022
1133 Clear 0 1010 93 10000 3 50 10:55 07.11.2022
1134 Clear 1 1011 75 10000 3 50 09:29 07.11.2022
1135 Clear 0 1012 80 10000 5 80 07:31 07.11.2022
1136 Clear 0 1015 74 10000 3 100 03:39 07.11.2022
1137 Clear 1 1017 69 10000 5 110 01:20 07.11.2022
1138 Clear -3 1017 86 10000 1 0 22:18 06.11.2022
1139 Clear -1 1017 74 10000 3 150 21:19 06.11.2022
1140 Clear -2 1016 80 10000 2 130 20:23 06.11.2022
1141 Clear -3 1015 86 10000 1 0 19:33 06.11.2022
1142 Clear -2 1014 80 10000 2 220 18:39 06.11.2022
1143 Clear -2 1014 80 10000 2 220 18:19 06.11.2022
1144 Clear -1 1014 80 10000 4 140 17:20 06.11.2022
1145 Clear 0 1013 74 10000 5 150 16:40 06.11.2022
1146 Clear 0 1012 74 10000 5 190 15:43 06.11.2022
1147 Clear 1 1009 80 10000 8 160 12:48 06.11.2022
1148 Clear 1 1009 80 10000 8 160 12:28 06.11.2022
1149 Clear 2 1008 75 10000 8 150 10:45 06.11.2022
1150 Clear 2 1007 75 10000 7 150 08:29 06.11.2022
1151 Clouds 1 1004 93 9000 12 130 00:50 06.11.2022
1152 Clouds 1 1004 93 9000 15 130 22:54 05.11.2022
1153 Mist 1 1007 93 5000 17 120 19:37 05.11.2022
1154 Clouds 0 1010 93 8000 18 120 17:45 05.11.2022
1155 Snow -2 1014 92 200 18 110 15:53 05.11.2022
1156 Snow -2 1016 92 150 17 120 14:33 05.11.2022
1157 Snow -3 1019 86 1200 15 120 12:51 05.11.2022
1158 Clouds -4 1022 79 7000 12 120 10:31 05.11.2022
1159 Clouds -6 1022 79 7000 14 120 08:24 05.11.2022
1160 Clouds -6 1024 73 10000 8 110 06:57 05.11.2022
1161 Clouds -16 1027 90 10000 1.68 95 03:49 05.11.2022
1162 Clear -22 1027 76 10000 4 10 23:35 04.11.2022
1163 Clear -22 1027 77 10000 4 360 22:28 04.11.2022
1164 Clear -23 1026 83 10000 3 360 20:20 04.11.2022
1165 Clear -24 1026 83 10000 6 30 17:45 04.11.2022
1166 Clear -22 1026 77 10000 5 30 16:33 04.11.2022
1167 Clear -21 1025 84 10000 6 10 13:39 04.11.2022
1168 Clouds -24 1025 76 10000 5 40 12:23 04.11.2022
1169 Clear -21 1023 84 10000 5 360 09:40 04.11.2022
1170 Clear -23 1022 83 10000 5 360 08:21 04.11.2022
1171 Clear -19 1021 84 10000 6 350 07:41 04.11.2022
1172 Clear -18 1018 77 10000 4 10 01:35 04.11.2022
1173 Clear -16 1018 85 10000 4 10 22:30 03.11.2022
1174 Clear -16 1018 85 10000 3 30 20:48 03.11.2022
1175 Clouds -16 1018 85 10000 4 310 19:43 03.11.2022
1176 Clouds -15 1018 85 10000 2 360 18:46 03.11.2022
1177 Snow -13 1018 85 10000 4 330 17:40 03.11.2022
1178 Snow -13 1018 85 10000 3 350 15:49 03.11.2022
1179 Snow -13 1018 92 2400 4 350 13:51 03.11.2022
1180 Snow -13 1018 85 3700 3 40 12:35 03.11.2022
1181 Snow -12 1018 85 3700 4 10 11:43 03.11.2022
1182 Snow -13 1019 84 10000 4 350 08:51 03.11.2022
1183 Snow -12 1019 79 10000 5 330 06:47 03.11.2022
1184 Clear -10 1020 79 10000 4 10 20:57 02.11.2022
1185 Clear -10 1020 79 10000 4 10 20:33 02.11.2022
1186 Clear -10 1019 79 10000 4 10 19:47 02.11.2022
1187 Clear -8 1018 73 10000 2 60 16:34 02.11.2022
1188 Clear -10 1017 79 10000 5 350 15:35 02.11.2022
1189 Clouds -8 1016 73 10000 5 10 13:42 02.11.2022
1190 Clouds -7 1016 73 10000 7 20 12:35 02.11.2022
1191 Clouds -6 1015 73 10000 4 350 10:45 02.11.2022
1192 Clouds -6 1012 73 10000 11 70 08:43 02.11.2022
1193 Clouds -5 1005 85 450 15 80 03:39 02.11.2022
1194 Clouds -5 1004 85 650 15 80 23:27 01.11.2022
1195 Clouds -4 1002 93 250 16 80 22:18 01.11.2022
1196 Clouds -4 1001 93 150 17 80 21:24 01.11.2022
1197 Clouds -9 1017 85 800 21.01 20 20:23 01.11.2022
1198 Snow -9 1015 85 200 21.01 20 19:42 01.11.2022
1199 Snow -9 1002 85 200 19 20 18:32 01.11.2022
1200 Snow -11 1014 85 150 16 360 16:56 01.11.2022
1201 Snow -11 1014 85 150 16 350 15:53 01.11.2022
1202 Snow -11 1008 85 400 13 350 13:24 01.11.2022
1203 Snow -13 1008 92 250 14 360 12:27 01.11.2022
1204 Snow -13 1009 84 100 13 10 11:21 01.11.2022
1205 Snow -12 1011 92 200 14 30 09:37 01.11.2022
1206 Snow -12 1012 92 550 11 20 08:26 01.11.2022
1207 Snow -10 1012 79 4600 10 30 07:29 01.11.2022
1208 Snow -10 1013 79 5000 12 30 06:46 01.11.2022
1209 Snow -10 1013 73 9000 14 30 05:52 01.11.2022
1210 Clouds -14 1016 84 10000 8 10 22:52 31.10.2022
1211 Clouds -18 1016 84 10000 8 350 21:34 31.10.2022
1212 Snow -19 1017 84 9000 6 350 20:18 31.10.2022
1213 Clear -22 1018 76 10000 6 350 18:45 31.10.2022
1214 Clear -23 1019 83 10000 5 340 16:45 31.10.2022
1215 Clear -23 1019 76 10000 6 340 15:45 31.10.2022
1216 Clear -21 1020 83 10000 4 350 12:49 31.10.2022
1217 Clear -21 1021 83 10000 4 20 09:46 31.10.2022
1218 Clear -21 1021 83 10000 4 40 08:20 31.10.2022
1219 Clear -15 1020 78 10000 5 360 02:50 31.10.2022
1220 Clear -15 1021 78 10000 5 20 01:49 31.10.2022
1221 Clouds -18 1021 84 10000 3 360 22:33 30.10.2022
1222 Clouds -18 1020 84 10000 5 20 20:45 30.10.2022
1223 Clear -18 1020 77 10000 5 350 19:54 30.10.2022
1224 Clear -18 1019 84 10000 4 360 16:48 30.10.2022
1225 Clear -18 1020 84 10000 3 360 15:28 30.10.2022
1226 Clear -15 1019 78 10000 4 360 13:51 30.10.2022
1227 Clear -15 1019 78 10000 7 340 12:30 30.10.2022
1228 Clear -15 1019 78 10000 6 330 11:21 30.10.2022
1229 Clear -15 1018 85 10000 3 330 09:36 30.10.2022
1230 Clear -14 1017 78 10000 4 10 08:20 30.10.2022
1231 Clouds -16 1014 84 10000 4 330 00:30 30.10.2022
1232 Clouds -16 1013 77 10000 4 350 23:48 29.10.2022
1233 Clouds -17 1013 84 10000 4 360 22:53 29.10.2022
1234 Clear -15 1011 85 10000 8 300 20:52 29.10.2022
1235 Clear -14 1010 78 10000 9 300 17:34 29.10.2022
1236 Clouds -15 1009 85 10000 7 320 15:51 29.10.2022
1237 Clouds -15 1009 85 10000 7 320 15:24 29.10.2022
1238 Clouds -15 1009 85 10000 7 330 14:43 29.10.2022
1239 Clouds -15 1009 78 10000 4 340 12:34 29.10.2022
1240 Clouds -15 1008 78 10000 6 350 10:40 29.10.2022
1241 Clouds -18 1007 84 10000 5 20 07:37 29.10.2022
1242 Clouds -14 1006 85 10000 8 330 05:56 29.10.2022
1243 Clouds -16 1006 84 10000 5 20 03:54 29.10.2022
1244 Clear -19 1006 84 10000 5 340 22:34 28.10.2022
1245 Clear -19 1005 84 10000 6 350 20:46 28.10.2022
1246 Clouds -20 1005 84 10000 5 340 19:26 28.10.2022
1247 Clouds -21 1005 83 10000 6 340 18:31 28.10.2022
1248 Snow -19 1005 84 10000 5 340 15:31 28.10.2022
1249 Snow -19 1005 84 10000 5 340 14:43 28.10.2022
1250 Clear -21 1004 83 10000 5 340 12:53 28.10.2022
1251 Clear -21 1004 83 10000 4 330 11:34 28.10.2022
1252 Clouds -18 1004 84 10000 4 360 10:47 28.10.2022
1253 Clouds -18 1004 84 10000 3 350 09:48 28.10.2022
1254 Clouds -17 1005 84 10000 3 10 08:28 28.10.2022
1255 Clouds -14 1005 78 10000 3 10 03:43 28.10.2022
1256 Clear -16 1006 84 10000 3 10 23:49 27.10.2022
1257 Clouds -16 1006 77 10000 3 330 22:40 27.10.2022
1258 Clear -18 1006 84 10000 5 360 21:35 27.10.2022
1259 Clear -18 1006 84 10000 5 10 20:28 27.10.2022
1260 Clouds -17 1006 84 10000 3 360 18:22 27.10.2022
1261 Clouds -15 1005 84 10000 4 350 14:23 27.10.2022
1262 Clouds -14 1003 84 10000 6 310 11:29 27.10.2022
1263 Clouds -11 1000 85 10000 9 310 07:29 27.10.2022
1264 Snow -11 1001 85 4100 8 300 00:22 27.10.2022
1265 Snow -11 984 85 9000 7 290 23:44 26.10.2022
1266 Snow -10 1001 78 10000 7 300 22:37 26.10.2022
1267 Snow -6 1000 86 10000 5 300 19:57 26.10.2022
1268 Snow -6 1001 93 5000 2 180 16:52 26.10.2022
1269 Snow -6 1002 86 10000 3 170 14:53 26.10.2022
1270 Snow -9 1003 78 10000 2 160 12:39 26.10.2022
1271 Snow -9 1003 78 10000 1 0 11:32 26.10.2022
1272 Clouds -12 1004 92 10000 3 50 09:18 26.10.2022
1273 Clouds -13 1004 84 10000 3 50 08:43 26.10.2022
1274 Fog -15 1006 92 10000 4 360 00:48 26.10.2022
1275 Fog -15 1006 84 10000 4 350 00:29 26.10.2022
1276 Snow -14 1006 84 10000 1 360 21:57 25.10.2022
1277 Snow -14 1006 84 10000 1 360 21:24 25.10.2022
1278 Snow -15 1006 92 4600 1 340 19:57 25.10.2022
1279 Fog -15 1007 84 900 1 340 18:38 25.10.2022
1280 Clouds -17 1007 84 10000 4 360 14:58 25.10.2022
1281 Clouds -16 1008 84 10000 3 360 11:40 25.10.2022
1282 Clear -14 1008 84 10000 4 350 10:44 25.10.2022
1283 Clear -14 1008 84 10000 4 350 10:25 25.10.2022
1284 Clear -13 1009 78 10000 5 360 08:19 25.10.2022
1285 Clear -13 1009 84 10000 4 360 07:54 25.10.2022
1286 Clear -13 1009 84 10000 4 360 07:26 25.10.2022
1287 Clear -10 1011 78 10000 3 360 04:26 25.10.2022
1288 Clear -11 1013 78 10000 2 360 00:40 25.10.2022
1289 Clear -11 1013 85 10000 1 20 23:50 24.10.2022
1290 Clear -13 1013 84 10000 2 10 22:24 24.10.2022
1291 Clear -15 1014 84 10000 2 30 21:33 24.10.2022
1292 Clear -14 1014 84 10000 3 40 20:44 24.10.2022
1293 Clear -14 1014 84 10000 3 40 20:44 24.10.2022
1294 Clear -13 1014 84 10000 3 10 18:53 24.10.2022
1295 Clear -13 1014 84 10000 3 10 17:51 24.10.2022
1296 Clear -11 1014 78 10000 4 360 16:45 24.10.2022
1297 Clear -10 1014 79 10000 4 330 14:23 24.10.2022
1298 Clear -11 1014 78 10000 4 320 13:40 24.10.2022
1299 Clear -10 1013 78 10000 5 320 11:55 24.10.2022
1300 Clear -9 1012 78 10000 5 300 08:50 24.10.2022
1301 Clouds -6 1010 86 10000 6 290 00:52 24.10.2022
1302 Snow -6 1008 86 10000 5 300 21:23 23.10.2022
1303 Snow -6 1008 86 10000 5 290 19:53 23.10.2022
1304 Clouds -6 1007 93 10000 5 290 18:25 23.10.2022
1305 Clouds -6 1007 93 10000 5 290 17:27 23.10.2022
1306 Clouds -5 1007 86 10000 4 290 15:21 23.10.2022
1307 Clouds -5 1007 86 10000 4 300 13:22 23.10.2022
1308 Clouds -4 1006 86 10000 4 270 11:18 23.10.2022
1309 Clouds -4 1005 86 10000 2 290 08:19 23.10.2022
1310 Clouds -3 1004 80 10000 6 300 23:56 22.10.2022
1311 Clouds -3 1003 86 10000 5 280 22:32 22.10.2022
1312 Snow -3 1003 93 10000 4 290 21:42 22.10.2022
1313 Snow -3 1003 93 10000 4 300 20:55 22.10.2022
1314 Snow -3 1003 93 10000 2 360 19:45 22.10.2022
1315 Snow -3 1003 93 10000 2 360 19:24 22.10.2022
1316 Snow -2 1002 86 10000 2 310 17:37 22.10.2022
1317 Snow -2 1002 86 10000 2 310 17:37 22.10.2022
1318 Clouds -2 1002 86 10000 3 310 15:57 22.10.2022
1319 Clouds -2 1002 86 10000 2 310 14:44 22.10.2022
1320 Clouds -2 1002 86 10000 2 360 13:45 22.10.2022
1321 Clouds -1 1002 86 10000 4 300 10:25 22.10.2022
1322 Clouds -1 1001 86 10000 3 300 09:36 22.10.2022
1323 Clouds -1 1001 86 10000 3 290 07:58 22.10.2022
1324 Mist -2 999 92 2600 6 280 02:59 22.10.2022
1325 Fog -1 999 93 10000 7 280 23:51 21.10.2022
1326 Snow -1 998 93 7000 6 280 21:35 21.10.2022
1327 Snow -1 997 93 10000 6 280 20:59 21.10.2022
1328 Snow -1 997 92 10000 6 280 19:33 21.10.2022
1329 Snow -1 996 100 10000 5 280 16:51 21.10.2022
1330 Clouds 0 995 92 10000 5 300 13:59 21.10.2022
1331 Clouds -1 995 93 10000 3 320 12:58 21.10.2022
1332 Clouds -1 995 93 10000 3 320 12:58 21.10.2022
1333 Clouds -1 994 93 10000 1 330 10:59 21.10.2022
1334 Clouds -1 994 93 10000 2 340 09:50 21.10.2022
1335 Clouds -1 993 93 10000 3 10 08:39 21.10.2022
1336 Fog -1 993 100 10000 2 10 07:28 21.10.2022
1337 Clouds 3 991 87 10000 3 90 00:59 21.10.2022
1338 Clouds 0 989 93 10000 3 110 22:26 20.10.2022
1339 Clouds 2 988 93 10000 3 130 20:38 20.10.2022
1340 Clouds 2 988 93 10000 5 120 19:38 20.10.2022
1341 Clouds 2 986 93 10000 3 100 17:53 20.10.2022
1342 Clouds 2 986 93 10000 3 100 17:33 20.10.2022
1343 Clouds 0 984 86 10000 4 110 12:37 20.10.2022
1344 Clouds 0 984 86 10000 4 110 12:18 20.10.2022
1345 Clouds 1 983 87 10000 4 130 11:20 20.10.2022
1346 Clouds 1 982 86 10000 3 130 10:45 20.10.2022
1347 Clouds 1 981 86 10000 5 130 08:18 20.10.2022
1348 Clouds 2 978 93 10000 6 120 05:38 20.10.2022
1349 Clouds 2 976 100 8000 5 120 01:50 20.10.2022
1350 Fog 2 976 93 10000 3 110 22:46 19.10.2022
1351 Clouds 2 975 93 10000 4 100 21:57 19.10.2022
1352 Clouds 2 975 93 10000 5 110 20:53 19.10.2022
1353 Clouds 2 974 86 10000 7 120 18:50 19.10.2022
1354 Clouds 1 974 93 10000 7 150 17:38 19.10.2022
1355 Rain 2 971 93 2400 11 110 15:47 19.10.2022
1356 Snow 1 973 93 6000 14 110 13:52 19.10.2022
1357 Rain 2 976 93 4500 17 110 09:42 19.10.2022
1358 Mist 2 977 93 3600 21 110 08:35 19.10.2022
1359 Rain 2 979 93 4000 22 110 06:25 19.10.2022
1360 Clouds 3 987 86 10000 22 120 01:26 19.10.2022
1361 Rain 3 990 86 10000 20 120 23:18 18.10.2022
1362 Clouds 2 993 93 10000 15 120 21:45 18.10.2022
1363 Clouds 2 993 93 10000 14 120 20:59 18.10.2022
1364 Clouds 1 995 93 5000 14 120 19:58 18.10.2022
1365 Snow -1 997 100 3500 13 110 17:48 18.10.2022
1366 Snow -1 999 93 2200 12 110 16:52 18.10.2022
1367 Snow -2 1002 86 2300 9 100 14:32 18.10.2022
1368 Snow -4 1004 79 10000 6 120 12:33 18.10.2022
1369 Snow -5 1005 79 10000 3 100 11:22 18.10.2022
1370 Clouds -6 1006 73 10000 4 100 09:58 18.10.2022
1371 Clear -6 1006 73 10000 2 120 07:57 18.10.2022
1372 Clear -6 1006 73 10000 3 350 03:45 18.10.2022
1373 Clear -12 1007 85 10000 2 330 22:54 17.10.2022
1374 Clear -15 1007 92 10000 3 40 20:55 17.10.2022
1375 Clear -15 1007 92 10000 3 40 20:33 17.10.2022
1376 Clear -15 1007 85 10000 4 30 19:52 17.10.2022
1377 Clear -15 1007 85 10000 4 30 19:18 17.10.2022
1378 Clear -14 1007 92 10000 2 40 17:28 17.10.2022
1379 Clear -13 1007 92 10000 4 10 15:46 17.10.2022
1380 Clear -11 1007 92 10000 3 350 14:35 17.10.2022
1381 Snow -10 1007 92 10000 2 360 11:55 17.10.2022
1382 Snow -5 1008 85 10000 5 340 06:42 17.10.2022
1383 Snow -10 1010 85 10000 4 320 23:35 16.10.2022
1384 Snow -10 1010 92 9000 4 340 22:21 16.10.2022
1385 Snow -11 1011 85 10000 3 330 20:59 16.10.2022
1386 Snow -10 1011 85 10000 3 340 19:47 16.10.2022
1387 Clouds -11 1011 92 10000 1 0 17:58 16.10.2022
1388 Clouds -11 1011 92 10000 1 0 17:39 16.10.2022
1389 Clouds -11 1011 92 10000 1 0 17:39 16.10.2022
1390 Clouds -11 1011 92 10000 3 40 15:58 16.10.2022
1391 Clear -11 1012 92 10000 3 20 14:45 16.10.2022
1392 Clouds -10 1012 85 10000 2 340 12:23 16.10.2022
1393 Clear -9 1012 85 10000 5 20 10:28 16.10.2022
1394 Clear -6 1013 79 10000 5 340 09:26 16.10.2022
1395 Clouds -4 1014 79 10000 6 350 02:37 16.10.2022
1396 Clouds -5 1016 92 10000 5 340 23:41 15.10.2022
1397 Clouds -6 1016 92 10000 3 340 21:29 15.10.2022
1398 Clouds -6 1016 92 10000 4 360 20:57 15.10.2022
1399 Clouds -6 1016 92 10000 5 360 19:28 15.10.2022
1400 Clouds -5 1018 92 10000 2 360 15:59 15.10.2022
1401 Clouds -5 1018 92 10000 2 360 15:38 15.10.2022
1402 Clouds -5 1019 85 10000 3 40 12:33 15.10.2022
1403 Clear -6 1019 92 10000 3 50 11:27 15.10.2022
1404 Clouds -4 1019 86 10000 1 0 09:22 15.10.2022
1405 Clear -1 1019 74 10000 2 180 05:46 15.10.2022
1406 Clear -3 1019 86 10000 1 0 00:40 15.10.2022
1407 Clear -5 1019 85 10000 1 0 22:25 14.10.2022
1408 Clouds -7 1019 86 10000 2 100 21:37 14.10.2022
1409 Clouds -8 1019 92 10000 2 80 20:27 14.10.2022
1410 Clouds -6 1018 79 10000 1 0 17:35 14.10.2022
1411 Clouds -8 1019 86 10000 1 90 15:30 14.10.2022
1412 Clouds -8 1019 85 10000 2 100 12:45 14.10.2022
1413 Clouds -11 1018 85 10000 1 90 10:36 14.10.2022
1414 Clear -10 1017 92 10000 2 40 08:25 14.10.2022
1415 Clear -5 1017 68 10000 1 340 06:18 14.10.2022
1416 Clear -5 1017 68 10000 1 0 05:59 14.10.2022
1417 Clear -5 1017 68 10000 1 0 05:41 14.10.2022
1418 Clouds -5 1017 79 10000 2 350 01:30 14.10.2022
1419 Clouds -8 1016 86 10000 2 360 23:18 13.10.2022
1420 Clear -13 1015 92 10000 2 20 21:30 13.10.2022
1421 Clear -13 1015 85 10000 3 40 20:19 13.10.2022
1422 Clouds -13 1015 85 10000 3 40 19:39 13.10.2022
1423 Clouds -13 1015 92 10000 3 30 18:44 13.10.2022
1424 Clear -13 1014 85 10000 3 40 17:46 13.10.2022
1425 Clear -13 1014 92 10000 3 40 15:48 13.10.2022
1426 Clear -12 1014 85 10000 3 40 14:29 13.10.2022
1427 Clear -10 1014 85 10000 3 20 13:26 13.10.2022
1428 Clear -12 1014 85 10000 3 20 11:40 13.10.2022
1429 Clear -12 1014 92 10000 3 50 09:48 13.10.2022
1430 Clear -11 1014 85 10000 2 50 08:33 13.10.2022
1431 Clear -7 1013 86 10000 2 340 07:36 13.10.2022
1432 Clear -5 1014 62 10000 3 340 02:00 13.10.2022
1433 Clear -5 1015 67 10000 3 350 01:38 13.10.2022
1434 Clear -8 1015 93 10000 3 40 23:20 12.10.2022
1435 Clear -9 1015 86 10000 3 40 22:43 12.10.2022
1436 Clear -12 1016 79 10000 2 40 21:24 12.10.2022
1437 Clear -11 1016 79 10000 2 360 20:54 12.10.2022
1438 Clear -11 1016 79 10000 2 360 20:25 12.10.2022
1439 Clear -12 1016 79 10000 2 30 18:51 12.10.2022
1440 Clear -12 1016 79 10000 3 30 17:54 12.10.2022
1441 Clear -11 1016 85 10000 3 350 16:28 12.10.2022
1442 Clear -12 1017 85 10000 3 60 13:58 12.10.2022
1443 Clear -12 1017 85 10000 3 60 13:34 12.10.2022
1444 Clear -11 1018 85 10000 2 30 10:39 12.10.2022
1445 Clear -9 1018 79 10000 3 350 08:37 12.10.2022
1446 Clear -6 1018 73 10000 3 320 07:41 12.10.2022
1447 Clouds -5 1018 67 10000 4 310 06:43 12.10.2022
1448 Clear -5 1019 68 10000 5 320 02:46 12.10.2022
1449 Clear -7 1019 86 10000 2 310 22:43 11.10.2022
1450 Clear -10 1018 85 10000 3 360 20:57 11.10.2022
1451 Clear -8 1018 86 10000 2 360 19:58 11.10.2022
1452 Clear -7 1017 79 10000 2 30 17:38 11.10.2022
1453 Clear -6 1017 79 10000 2 330 15:32 11.10.2022
1454 Clear -7 1017 79 10000 2 360 13:28 11.10.2022
1455 Clear -6 1016 79 10000 2 30 10:31 11.10.2022
1456 Clear -6 1016 79 10000 2 30 10:31 11.10.2022
1457 Clear -5 1016 80 10000 3 350 09:50 11.10.2022
1458 Clear -5 1016 68 10000 2 340 08:22 11.10.2022
1459 Clear -3 1015 63 10000 7 270 02:46 11.10.2022
1460 Clear -4 1014 73 10000 5 290 00:34 11.10.2022
1461 Clear -9 1013 86 10000 2 10 21:47 10.10.2022
1462 Clear -9 1013 79 10000 3 60 20:32 10.10.2022
1463 Clear -9 1012 79 10000 2 10 18:44 10.10.2022
1464 Clear -7 1012 79 10000 0 0 17:24 10.10.2022
1465 Clear -7 1012 79 10000 3 310 16:22 10.10.2022
1466 Clear -9 1011 79 10000 2 20 13:31 10.10.2022
1467 Clear -9 1011 79 10000 3 40 12:22 10.10.2022
1468 Clear -6 1010 73 10000 2 360 09:23 10.10.2022
1469 Clear -3 1009 58 10000 4 300 05:53 10.10.2022
1470 Clear -3 1009 58 10000 5 290 05:32 10.10.2022
1471 Clear -4 1009 68 10000 6 300 00:41 10.10.2022
1472 Clear -6 1009 85 10000 2 340 23:36 09.10.2022
1473 Clear -5 1009 73 10000 1 0 22:25 09.10.2022
1474 Clear -8 1009 86 10000 1 0 21:27 09.10.2022
1475 Clear -7 1009 79 10000 2 340 20:42 09.10.2022
1476 Clouds -9 1009 79 10000 2 300 19:48 09.10.2022
1477 Clear -9 1009 86 10000 2 30 18:49 09.10.2022
1478 Clouds -7 1009 86 10000 1 0 17:39 09.10.2022
1479 Clear -7 1009 86 10000 2 320 16:48 09.10.2022
1480 Clear -7 1009 86 10000 2 320 16:19 09.10.2022
1481 Clear -8 1009 86 10000 1 0 14:54 09.10.2022
1482 Clear -8 1009 86 10000 1 0 14:26 09.10.2022
1483 Clear -7 1009 86 10000 0 0 12:49 09.10.2022
1484 Clear -5 1009 73 10000 1 0 11:27 09.10.2022
1485 Clear -5 1009 73 10000 2 340 08:32 09.10.2022
1486 Clear -2 1010 63 10000 6 280 05:59 09.10.2022
1487 Clear -2 1010 54 10000 6 290 03:25 09.10.2022
1488 Clouds -3 1010 63 10000 8 310 00:47 09.10.2022
1489 Clouds -4 1010 73 10000 5 310 23:33 08.10.2022
1490 Clouds -4 1010 73 10000 5 310 23:33 08.10.2022
1491 Clear -6 1010 79 10000 3 350 22:51 08.10.2022
1492 Clear -8 1010 86 10000 3 20 20:43 08.10.2022
1493 Clear -7 1009 79 10000 2 350 19:38 08.10.2022
1494 Clouds -6 1008 79 10000 3 320 17:44 08.10.2022
1495 Clouds -4 1008 73 10000 7 270 15:36 08.10.2022
1496 Snow -4 1008 73 10000 2 250 13:53 08.10.2022
1497 Clouds -5 1008 73 10000 2 340 12:30 08.10.2022
1498 Snow -3 1008 63 10000 7 300 10:35 08.10.2022
1499 Snow -3 1007 68 10000 5 300 09:42 08.10.2022
1500 Snow -3 1006 86 8000 4 290 07:29 08.10.2022
1501 Clouds -2 1006 54 10000 3 340 02:45 08.10.2022
1502 Clear -3 1006 74 10000 2 330 00:24 08.10.2022
1503 Clear -3 1005 74 10000 3 350 23:20 07.10.2022
1504 Clouds -4 1005 86 10000 2 10 22:19 07.10.2022
1505 Clouds -4 1004 92 10000 2 360 20:37 07.10.2022
1506 Clouds -3 1003 79 10000 4 280 18:40 07.10.2022
1507 Snow -3 1002 86 10000 6 290 16:59 07.10.2022
1508 Clouds -3 1002 86 10000 6 280 15:50 07.10.2022
1509 Clouds -2 1002 80 10000 5 260 14:42 07.10.2022
1510 Clouds -2 1001 74 10000 7 270 12:23 07.10.2022
1511 Clouds -2 998 68 10000 7 280 09:26 07.10.2022
1512 Clouds -1 997 64 10000 7 280 08:49 07.10.2022
1513 Clouds 1 994 47 10000 10 260 05:51 07.10.2022
1514 Clear 1 991 55 10000 9 240 00:46 07.10.2022
1515 Clear 0 991 74 10000 6 220 22:50 06.10.2022
1516 Clouds 0 990 74 10000 8 220 21:44 06.10.2022
1517 Clouds 0 990 74 10000 8 220 21:22 06.10.2022
1518 Clear 0 988 74 10000 10 210 19:50 06.10.2022
1519 Clouds -1 988 86 10000 8 210 18:37 06.10.2022
1520 Clouds -1 988 86 10000 8 210 18:37 06.10.2022
1521 Snow 0 988 74 10000 7 230 17:50 06.10.2022
1522 Clear 2 987 64 10000 10 220 14:24 06.10.2022
1523 Clear 1 985 69 10000 11 230 11:24 06.10.2022
1524 Clouds 1 978 80 10000 11 250 06:53 06.10.2022
1525 Rain 7 970 93 10000 9 120 03:34 06.10.2022
1526 Clouds 5 978 93 10000 12 130 23:20 05.10.2022
1527 Rain 4 988 93 8000 14 130 19:58 05.10.2022
1528 Rain 4 991 93 6000 12 130 18:57 05.10.2022
1529 Rain 5 993 86 6000 12 130 17:34 05.10.2022
1530 Rain 5 997 93 9000 12 120 15:55 05.10.2022
1531 Clouds 5 998 93 10000 12 130 14:47 05.10.2022
1532 Clouds 5 999 93 10000 12 130 13:55 05.10.2022
1533 Clouds 4 1001 100 10000 12 130 12:20 05.10.2022
1534 Rain 3 1006 93 9000 9 130 08:53 05.10.2022
1535 Rain 3 1007 86 10000 9 120 07:42 05.10.2022
1536 Clouds 0 1011 86 10000 9 120 05:36 05.10.2022
1537 Clouds 0 1013 74 10000 7 120 03:32 05.10.2022
1538 Clouds -1 1015 69 10000 3 170 00:45 05.10.2022
1539 Clouds -2 1014 68 10000 2 170 00:24 05.10.2022
1540 Clouds -2 1015 68 10000 1 0 22:34 04.10.2022
1541 Clouds -4 1015 80 10000 3 230 20:32 04.10.2022
1542 Clouds -3 1015 74 10000 3 270 18:58 04.10.2022
1543 Clouds -3 1015 74 10000 3 270 18:58 04.10.2022
1544 Clouds -3 1015 74 10000 3 270 18:36 04.10.2022
1545 Clouds -2 1015 74 10000 3 290 17:44 04.10.2022
1546 Snow -3 1014 92 10000 1 320 16:28 04.10.2022
1547 Snow -3 1014 92 9000 1 0 12:56 04.10.2022
1548 Clouds -2 1012 86 10000 3 340 09:32 04.10.2022
1549 Clouds -1 1012 86 10000 1 310 07:23 04.10.2022
1550 Clouds -1 1010 93 9000 3 360 02:19 04.10.2022
1551 Snow -1 1010 100 10000 0 0 23:40 03.10.2022
1552 Snow -1 1010 100 10000 0 0 23:40 03.10.2022
1553 Snow -3 1009 100 9000 1 340 21:52 03.10.2022
1554 Clouds -3 1008 92 10000 1 300 20:56 03.10.2022
1555 Clouds -3 1008 92 10000 2 30 19:38 03.10.2022
1556 Clouds -2 1008 86 10000 2 360 17:58 03.10.2022
1557 Clouds -2 1008 86 10000 3 10 16:56 03.10.2022
1558 Clouds -2 1008 86 10000 2 330 15:28 03.10.2022
1559 Clouds -2 1008 86 10000 3 10 13:45 03.10.2022
1560 Clouds -2 1008 86 10000 3 360 12:24 03.10.2022
1561 Clouds -2 1008 86 10000 3 10 10:39 03.10.2022
1562 Clouds -2 1008 86 10000 4 20 09:37 03.10.2022
1563 Clouds 0 1008 69 10000 4 20 05:44 03.10.2022
1564 Clouds 1 1008 69 10000 4 20 02:52 03.10.2022
1565 Clouds -2 1009 93 10000 2 360 22:29 02.10.2022
1566 Clear -5 1009 93 10000 4 50 20:50 02.10.2022
1567 Clear -3 1009 86 10000 3 40 18:42 02.10.2022
1568 Clear -3 1009 86 10000 2 40 17:52 02.10.2022
1569 Clear -2 1009 86 10000 2 40 16:33 02.10.2022
1570 Clear -2 1009 86 10000 2 30 15:50 02.10.2022
1571 Clear -3 1010 93 10000 1 0 13:51 02.10.2022
1572 Clear -3 1010 93 10000 1 0 13:21 02.10.2022
1573 Clear -1 1010 92 10000 1 0 12:28 02.10.2022
1574 Clear -2 1010 92 10000 1 0 11:37 02.10.2022
1575 Clear -1 1009 93 10000 3 240 10:37 02.10.2022
1576 Clear 0 1009 80 10000 2 200 09:27 02.10.2022
1577 Clear 2 1008 74 10000 2 320 07:39 02.10.2022
1578 Clouds 4 1008 65 10000 4 80 02:55 02.10.2022
1579 Clouds 2 1007 69 10000 1 0 00:46 02.10.2022
1580 Clouds 2 1007 69 10000 1 0 00:20 02.10.2022
1581 Clear 0 1007 80 10000 1 0 22:37 01.10.2022
1582 Clouds -1 1006 80 10000 1 0 20:35 01.10.2022
1583 Clear -3 1005 92 10000 4 20 18:40 01.10.2022
1584 Clouds -2 1005 92 10000 4 10 16:36 01.10.2022
1585 Clouds 1 1005 74 10000 4 20 14:35 01.10.2022
1586 Clouds 0 1005 80 10000 4 20 13:31 01.10.2022
1587 Clouds -1 1005 86 10000 2 20 12:32 01.10.2022
1588 Clouds 0 1005 74 10000 1 0 11:20 01.10.2022
1589 Clear 0 1005 74 10000 4 70 10:32 01.10.2022
1590 Clouds -1 1006 80 10000 1 0 09:28 01.10.2022
1591 Clouds 0 1006 74 10000 2 50 08:58 01.10.2022
1592 Clouds 2 1005 74 10000 6 80 05:28 01.10.2022
1593 Clouds 3 1006 69 10000 7 90 03:32 01.10.2022
1594 Clouds 3 1007 75 10000 6 70 00:18 01.10.2022
1595 Snow 1 1008 87 10000 5 50 22:48 30.09.2022
1596 Clouds 1 1008 80 10000 5 50 21:29 30.09.2022
1597 Snow 0 1008 86 10000 4 40 20:44 30.09.2022
1598 Snow 0 1008 86 10000 4 40 20:18 30.09.2022
1599 Clouds 1 1009 74 10000 6 100 17:38 30.09.2022
1600 Clouds 1 1010 74 10000 10 100 15:58 30.09.2022
1601 Clouds 2 1011 74 10000 8 100 13:34 30.09.2022
1602 Clouds 2 1011 74 10000 4 80 11:58 30.09.2022
1603 Clouds 2 1011 74 10000 4 80 11:28 30.09.2022
1604 Clouds 2 1012 74 10000 5 100 08:37 30.09.2022
1605 Clouds 2 1013 74 10000 10 110 06:26 30.09.2022
1606 Clouds 1 1014 80 10000 6 140 02:39 30.09.2022
1607 Clouds 0 1016 74 10000 5 130 23:35 29.09.2022
1608 Clear -3 1016 79 10000 2 120 21:29 29.09.2022
1609 Clear -4 1016 86 10000 1 0 20:57 29.09.2022
1610 Clear -7 1015 86 10000 2 60 18:45 29.09.2022
1611 Clear -7 1016 86 10000 1 50 17:32 29.09.2022
1612 Clear -7 1016 86 10000 2 60 16:28 29.09.2022
1613 Clear -7 1015 93 10000 2 40 15:36 29.09.2022
1614 Clear -6 1015 86 10000 3 50 14:35 29.09.2022
1615 Clear -4 1015 86 10000 2 60 10:33 29.09.2022
1616 Clouds -1 1014 86 10000 3 360 07:22 29.09.2022
1617 Clouds -1 1013 93 10000 5 330 02:52 29.09.2022
1618 Snow -2 1012 100 3900 3 340 23:56 28.09.2022
1619 Snow -2 1012 100 3900 3 340 23:56 28.09.2022
1620 Snow -2 1012 100 3600 4 350 22:58 28.09.2022
1621 Snow -1 1012 100 2700 3 350 21:30 28.09.2022
1622 Snow -1 1012 100 2700 3 350 21:30 28.09.2022
1623 Snow -1 1012 100 2700 3 350 21:30 28.09.2022
1624 Snow -2 1011 92 4200 3 360 20:25 28.09.2022
1625 Mist -2 1010 100 3500 4 360 18:42 28.09.2022
1626 Snow -1 1010 100 3000 4 350 15:32 28.09.2022
1627 Snow -2 1010 100 2900 4 350 13:27 28.09.2022
1628 Mist -1 1009 100 1400 4 350 11:18 28.09.2022
1629 Snow -1 1009 100 8000 4 350 09:18 28.09.2022
1630 Mist 0 1009 100 4400 4 340 07:39 28.09.2022
1631 Snow 0 1009 93 10000 5 350 04:34 28.09.2022
1632 Clear 1 1009 74 10000 4 350 01:36 28.09.2022
1633 Clear -1 1009 86 10000 4 350 23:27 27.09.2022
1634 Clear -3 1009 92 10000 4 350 21:47 27.09.2022
1635 Clear -3 1009 92 10000 3 340 20:44 27.09.2022
1636 Clear -2 1009 86 10000 3 350 19:48 27.09.2022
1637 Clear -3 1009 92 10000 2 310 18:49 27.09.2022
1638 Clear -3 1009 92 10000 3 360 17:46 27.09.2022
1639 Clouds -2 1009 80 10000 4 10 15:58 27.09.2022
1640 Clouds -1 1009 80 10000 4 10 14:58 27.09.2022
1641 Clouds -1 1009 80 10000 3 360 13:28 27.09.2022
1642 Clouds -3 1010 86 10000 3 10 12:21 27.09.2022
1643 Clear -2 1010 86 10000 3 20 09:34 27.09.2022
1644 Clouds 2 1009 60 10000 3 340 07:28 27.09.2022
1645 Clouds 3 1010 60 10000 5 350 02:51 27.09.2022
1646 Clear 1 1010 74 10000 5 360 01:35 27.09.2022
1647 Clear -1 1011 80 10000 4 330 23:37 26.09.2022
1648 Clear -1 1011 80 10000 4 330 23:18 26.09.2022
1649 Clear -4 1012 86 10000 2 20 20:47 26.09.2022
1650 Clear -4 1012 93 10000 3 360 19:34 26.09.2022
1651 Clear -3 1012 93 10000 5 360 18:34 26.09.2022
1652 Clear -3 1013 86 10000 4 10 16:41 26.09.2022
1653 Clouds -2 1013 86 10000 3 360 14:46 26.09.2022
1654 Clear -2 1014 86 10000 3 20 11:36 26.09.2022
1655 Clear -1 1014 80 10000 3 350 10:41 26.09.2022
1656 Clear -1 1014 80 10000 3 350 10:21 26.09.2022
1657 Clouds -1 1015 74 10000 3 10 09:56 26.09.2022
1658 Clouds 0 1015 74 10000 3 10 09:24 26.09.2022
1659 Clouds 2 1015 64 10000 3 320 08:57 26.09.2022
1660 Clear 2 1017 60 10000 5 340 02:58 26.09.2022
1661 Clear 0 1018 74 10000 6 340 00:35 26.09.2022
1662 Clear -2 1018 80 10000 6 340 23:20 25.09.2022
1663 Clear -4 1019 93 10000 3 350 21:44 25.09.2022
1664 Clear -5 1019 86 10000 3 320 20:54 25.09.2022
1665 Clear -5 1019 86 10000 4 10 19:55 25.09.2022
1666 Clear -5 1019 86 10000 3 10 18:43 25.09.2022
1667 Clear -5 1019 86 10000 3 10 18:20 25.09.2022
1668 Clear -4 1019 86 10000 4 30 16:50 25.09.2022
1669 Clear -3 1019 86 10000 4 360 15:46 25.09.2022
1670 Clear -2 1019 74 10000 6 10 14:31 25.09.2022
1671 Clear -2 1018 74 10000 4 10 13:19 25.09.2022
1672 Clear -1 1018 74 10000 7 10 10:37 25.09.2022
1673 Clouds 1 1018 59 10000 4 330 08:25 25.09.2022
1674 Clouds 2 1017 55 10000 6 350 06:24 25.09.2022
1675 Clouds 3 1017 48 10000 7 330 03:40 25.09.2022
1676 Clouds -1 1015 93 10000 6 350 23:23 24.09.2022
1677 Clouds -2 1014 86 10000 9 20 21:19 24.09.2022
1678 Snow -1 1013 93 10000 4 360 19:23 24.09.2022
1679 Clouds -1 1012 93 10000 2 20 18:18 24.09.2022
1680 Clouds 1 1011 87 10000 4 350 16:36 24.09.2022
1681 Rain 1 1011 93 10000 2 320 15:23 24.09.2022
1682 Rain 1 1010 93 10000 1 70 13:50 24.09.2022
1683 Rain 2 1010 86 10000 2 320 12:58 24.09.2022
1684 Rain 3 1010 80 10000 3 350 11:42 24.09.2022
1685 Rain 4 1009 75 10000 3 300 09:57 24.09.2022
1686 Clear 4 1009 70 10000 2 310 08:47 24.09.2022
1687 Clouds 5 1008 60 10000 5 360 07:39 24.09.2022
1688 Clouds 6 1007 61 10000 7 10 04:48 24.09.2022
1689 Clouds 6 1007 61 10000 10 20 03:43 24.09.2022
1690 Clouds 2 1003 86 10000 7 20 22:39 23.09.2022
1691 Clouds 2 1002 86 10000 4 30 21:31 23.09.2022
1692 Clouds 3 1001 80 10000 3 10 20:57 23.09.2022
1693 Clouds 3 1001 80 10000 3 10 20:20 23.09.2022
1694 Clouds 3 999 86 10000 8 10 18:51 23.09.2022
1695 Clouds 5 994 81 10000 8 40 14:55 23.09.2022
1696 Clouds 4 989 100 9000 6 360 10:55 23.09.2022
1697 Rain 4 988 100 10000 6 10 09:33 23.09.2022
1698 Clouds 5 984 100 10000 6 20 05:58 23.09.2022
1699 Rain 3 981 93 10000 7 340 00:36 23.09.2022
1700 Rain 3 981 93 10000 6 340 23:21 22.09.2022
1701 Rain 2 982 100 9000 4 330 22:27 22.09.2022
1702 Rain 2 981 100 10000 3 330 21:18 22.09.2022
1703 Rain 2 981 100 10000 3 310 19:56 22.09.2022
1704 Rain 2 981 93 10000 3 340 17:26 22.09.2022
1705 Drizzle 3 980 93 10000 3 360 12:46 22.09.2022
1706 Rain 2 980 100 10000 3 10 10:32 22.09.2022
1707 Rain 4 979 93 10000 3 330 08:56 22.09.2022
1708 Rain 5 979 93 10000 4 20 06:57 22.09.2022
1709 Rain 5 979 93 10000 4 250 03:46 22.09.2022
1710 Rain 4 979 100 9000 8 270 23:31 21.09.2022
1711 Rain 4 979 100 4400 5 260 21:50 21.09.2022
1712 Rain 4 979 100 4400 5 260 21:50 21.09.2022
1713 Rain 5 978 93 6000 3 240 20:34 21.09.2022
1714 Rain 5 978 93 4400 7 100 17:49 21.09.2022
1715 Rain 5 979 93 2300 9 100 16:51 21.09.2022
1716 Rain 5 980 93 4900 11 110 14:37 21.09.2022
1717 Rain 4 982 93 5000 13 110 12:54 21.09.2022
1718 Rain 4 984 93 5000 15 120 11:29 21.09.2022
1719 Rain 5 986 93 3600 15 120 10:29 21.09.2022
1720 Rain 5 988 93 4800 15 120 09:21 21.09.2022
1721 Rain 5 991 93 4900 14 120 07:41 21.09.2022
1722 Clouds 6 998 81 10000 12 130 02:48 21.09.2022
1723 Clouds 6 999 75 10000 12 140 02:28 21.09.2022
1724 Clouds 5 1003 70 10000 11 130 00:34 21.09.2022
1725 Clouds 4 1004 75 10000 7 130 23:18 20.09.2022
1726 Clouds 2 1008 86 10000 4 90 20:52 20.09.2022
1727 Clouds 1 1009 93 10000 4 110 19:32 20.09.2022
1728 Clear 1 1011 80 10000 3 120 16:28 20.09.2022
1729 Clear 2 1013 81 10000 2 150 14:46 20.09.2022
1730 Clear 1 1013 87 10000 2 160 13:28 20.09.2022
1731 Clear 2 1013 81 10000 1 0 09:50 20.09.2022
1732 Clear 4 1013 70 10000 2 270 08:27 20.09.2022
1733 Clouds 6 1013 61 10000 6 270 05:48 20.09.2022
1734 Clear 6 1012 56 10000 4 310 04:27 20.09.2022
1735 Clouds 2 1011 81 10000 5 310 22:59 19.09.2022
1736 Clouds 1 1011 87 10000 4 310 22:18 19.09.2022
1737 Clouds 0 1010 93 10000 4 310 20:51 19.09.2022
1738 Clouds 0 1010 93 10000 4 310 20:31 19.09.2022
1739 Clear 0 1009 93 10000 4 320 17:46 19.09.2022
1740 Clouds 2 1009 80 10000 3 320 15:37 19.09.2022
1741 Clouds 3 1008 86 10000 3 330 13:33 19.09.2022
1742 Clouds 4 1008 86 10000 4 320 11:28 19.09.2022
1743 Clouds 3 1007 93 10000 3 10 08:51 19.09.2022
1744 Rain 4 1006 86 10000 3 340 08:18 19.09.2022
1745 Drizzle 4 1004 93 10000 4 330 01:58 19.09.2022
1746 Drizzle 1 1003 100 4300 4 330 23:22 18.09.2022
1747 Rain 2 1002 86 10000 3 340 21:45 18.09.2022
1748 Clouds 1 1002 93 10000 3 340 20:33 18.09.2022
1749 Rain 2 1001 93 10000 3 330 18:34 18.09.2022
1750 Rain 2 1001 93 10000 3 330 17:39 18.09.2022
1751 Clouds 3 1000 86 10000 3 340 15:53 18.09.2022
1752 Clear 1 999 93 10000 3 350 14:23 18.09.2022
1753 Clear 3 998 86 10000 4 320 12:35 18.09.2022
1754 Clear 3 998 86 10000 2 10 11:24 18.09.2022
1755 Clouds 8 994 66 10000 6 300 05:24 18.09.2022
1756 Clouds 6 991 75 10000 7 320 01:27 18.09.2022
1757 Clouds 6 990 75 10000 8 320 00:27 18.09.2022
1758 Rain 4 988 86 10000 9 320 21:52 17.09.2022
1759 Clouds 5 985 75 10000 9 310 19:51 17.09.2022
1760 Rain 4 984 86 10000 8 330 19:00 17.09.2022
1761 Clouds 5 982 75 10000 10 350 16:57 17.09.2022
1762 Clouds 5 979 81 10000 9 350 13:59 17.09.2022
1763 Clouds 5 978 86 10000 8 350 11:55 17.09.2022
1764 Rain 5 977 86 10000 11 350 09:40 17.09.2022
1765 Rain 5 975 86 6000 11 350 06:27 17.09.2022
1766 Rain 4 975 86 10000 14 20 02:34 17.09.2022
1767 Rain 3 980 93 10000 13 20 22:58 16.09.2022
1768 Rain 5 981 86 10000 11 30 21:32 16.09.2022
1769 Rain 4 983 86 9000 15 40 20:31 16.09.2022
1770 Clouds 4 987 86 10000 9 30 17:52 16.09.2022
1771 Clouds 4 987 86 10000 9 30 17:52 16.09.2022
1772 Rain 5 990 81 10000 8 50 15:43 16.09.2022
1773 Clouds 5 991 81 10000 8 60 14:28 16.09.2022
1774 Clouds 5 996 81 10000 5 30 11:56 16.09.2022
1775 Clouds 5 998 86 10000 2 340 09:21 16.09.2022
1776 Clouds 6 999 81 10000 4 20 07:20 16.09.2022
1777 Clouds 6 1000 81 10000 4 30 06:47 16.09.2022
1778 Rain 6 1002 81 10000 1 0 02:59 16.09.2022
1779 Rain 6 1002 81 10000 4 60 23:48 15.09.2022
1780 Clouds 5 1002 86 10000 2 220 21:24 15.09.2022
1781 Clouds 4 1001 93 10000 1 0 20:23 15.09.2022
1782 Rain 5 1001 93 10000 2 40 18:30 15.09.2022
1783 Clouds 4 1000 93 10000 4 360 17:33 15.09.2022
1784 Rain 4 1000 93 10000 2 350 16:52 15.09.2022
1785 Clouds 4 1000 100 10000 5 10 14:42 15.09.2022
1786 Clouds 5 1000 93 10000 3 350 12:48 15.09.2022
1787 Clouds 5 999 93 9000 1 30 10:21 15.09.2022
1788 Rain 6 998 87 10000 7 360 07:51 15.09.2022
1789 Rain 5 998 86 10000 7 20 03:58 15.09.2022
1790 Clouds 5 998 93 10000 8 10 01:57 15.09.2022
1791 Clouds 3 999 93 10000 7 20 22:26 14.09.2022
1792 Rain 3 1000 93 10000 3 20 19:59 14.09.2022
1793 Rain 3 1000 93 10000 3 20 19:26 14.09.2022
1794 Rain 3 1001 100 10000 1 0 17:26 14.09.2022
1795 Rain 4 1002 86 10000 2 40 15:56 14.09.2022
1796 Rain 4 1002 86 10000 3 40 14:34 14.09.2022
1797 Rain 5 1003 93 10000 1 100 11:54 14.09.2022
1798 Rain 5 1003 93 10000 1 140 09:48 14.09.2022
1799 Rain 5 1003 93 10000 1 140 09:48 14.09.2022
1800 Rain 5 1003 100 10000 2 170 07:39 14.09.2022
1801 Mist 5 1003 93 8000 3 170 06:47 14.09.2022
1802 Rain 5 1004 100 10000 3 170 04:51 14.09.2022
1803 Rain 6 1004 87 10000 0 0 01:51 14.09.2022
1804 Rain 6 1004 87 10000 1 0 01:29 14.09.2022
1805 Rain 6 1004 87 10000 1 0 01:29 14.09.2022
1806 Rain 5 1004 93 10000 2 360 00:52 14.09.2022
1807 Clouds 5 1005 93 10000 1 0 23:54 13.09.2022
1808 Clouds 5 1005 93 10000 1 0 23:36 13.09.2022
1809 Clouds 5 1005 93 10000 1 0 23:18 13.09.2022
1810 Drizzle 5 1005 100 10000 1 0 22:20 13.09.2022
1811 Fog 4 1005 100 10000 1 10 20:21 13.09.2022
1812 Clouds 3 1005 100 10000 2.68 360 18:20 13.09.2022
1813 Clouds 3 1005 100 10000 3 330 15:55 13.09.2022
1814 Rain 4 1005 93 10000 1 0 14:36 13.09.2022
1815 Rain 3 1005 100 10000 3 10 13:20 13.09.2022
1816 Clear 6 1005 87 10000 2 360 09:23 13.09.2022
1817 Clouds 8 1005 81 10000 3 330 06:59 13.09.2022
1818 Rain 4 1004 100 10000 4 350 00:23 13.09.2022
1819 Rain 2 1004 93 10000 4.92 360 22:51 12.09.2022
1820 Rain 2 1004 93 9000 5 360 22:18 12.09.2022
1821 Clouds 0 1004 93 10000 4 360 20:39 12.09.2022
1822 Clouds 1 1004 93 10000 4 360 18:51 12.09.2022
1823 Clouds 3 1004 93 10000 3 320 17:25 12.09.2022
1824 Clear 3 1004 86 10000 2 350 14:39 12.09.2022
1825 Clear 4 1004 80 10000 2 20 11:31 12.09.2022
1826 Clouds 5 1004 81 10000 2 40 09:56 12.09.2022
1827 Clouds 9 1003 66 10000 5 330 04:55 12.09.2022
1828 Clouds 9 1003 61 10000 4 10 04:27 12.09.2022
1829 Clouds 6 1003 75 10000 4 320 23:47 11.09.2022
1830 Clouds 6 1003 75 10000 2 320 22:43 11.09.2022
1831 Clouds 3 1003 80 10000 3 360 20:51 11.09.2022
1832 Clouds 3 1003 80 10000 3 360 20:18 11.09.2022
1833 Clouds 4 1003 80 10000 2 360 19:25 11.09.2022
1834 Clouds 3 1002 80 10000 2 20 18:36 11.09.2022
1835 Clouds 3 1002 80 10000 2 340 16:47 11.09.2022
1836 Clouds 4 1002 75 10000 2 50 14:56 11.09.2022
1837 Clouds 5 1002 70 10000 3 70 12:53 11.09.2022
1838 Clouds 6 1001 75 10000 3 100 09:28 11.09.2022
1839 Clouds 7 1000 75 10000 3 120 07:21 11.09.2022
1840 Clouds 9 1001 61 10000 2 120 01:18 11.09.2022
1841 Clouds 8 1000 76 10000 3 110 23:27 10.09.2022
1842 Clouds 6 1001 81 10000 4 80 21:33 10.09.2022
1843 Clouds 5 1000 81 10000 3 80 19:56 10.09.2022
1844 Clouds 5 1000 81 10000 3 80 19:37 10.09.2022
1845 Clouds 5 1000 81 10000 3 80 19:19 10.09.2022
1846 Clear 4 1000 80 10000 5 50 16:58 10.09.2022
1847 Clear 5 1000 86 10000 7 80 15:28 10.09.2022
1848 Clouds 5 1002 81 10000 2 70 12:55 10.09.2022
1849 Clouds 5 1002 81 10000 2 70 12:55 10.09.2022
1850 Clouds 6 1002 75 10000 2 80 11:36 10.09.2022
1851 Clear 5 1002 86 10000 2 70 10:25 10.09.2022
1852 Clouds 7 1002 75 10000 2 100 08:37 10.09.2022
1853 Clouds 7 1002 75 10000 2 100 08:18 10.09.2022
1854 Clear 9 1004 70 10000 5 140 02:54 10.09.2022
1855 Clear 7 1005 70 10000 4 110 23:35 09.09.2022
1856 Clouds 7 1005 70 10000 3 100 22:21 09.09.2022
1857 Clouds 5 1005 86 10000 5 80 20:49 09.09.2022
1858 Clear 4 1006 80 10000 3 60 19:26 09.09.2022
1859 Clear 5 1006 86 10000 3 90 18:55 09.09.2022
1860 Clear 5 1006 86 10000 3 90 18:55 09.09.2022
1861 Clear 3 1006 80 10000 1 0 16:34 09.09.2022
1862 Clear 4 1007 75 10000 4 130 14:28 09.09.2022
1863 Clear 4 1007 80 10000 3 100 12:59 09.09.2022
1864 Clouds 4 1007 80 10000 3 110 10:23 09.09.2022
1865 Clouds 7 1007 70 10000 6 110 07:24 09.09.2022
1866 Clouds 7 1007 70 10000 6 110 07:24 09.09.2022
1867 Clouds 7 1007 70 10000 6 110 07:24 09.09.2022
1868 Clouds 8 1008 70 10000 8 110 03:30 09.09.2022
1869 Clouds 5 1010 86 10000 5 100 22:19 08.09.2022
1870 Clouds 5 1010 86 10000 5 90 21:47 08.09.2022
1871 Clouds 5 1010 81 10000 7 100 20:46 08.09.2022
1872 Clouds 5 1010 81 10000 7 100 20:21 08.09.2022
1873 Clouds 4 1011 86 10000 4 110 18:34 08.09.2022
1874 Clear 5 1012 81 10000 3 110 16:47 08.09.2022
1875 Clear 4 1013 80 10000 4 110 14:42 08.09.2022
1876 Clear 4 1014 80 10000 4 110 13:27 08.09.2022
1877 Clear 5 1014 81 10000 4 120 12:35 08.09.2022
1878 Clear 5 1015 81 10000 3 110 10:58 08.09.2022
1879 Clear 5 1015 75 10000 4 120 09:20 08.09.2022
1880 Clear 8 1016 53 10000 5 160 06:43 08.09.2022
1881 Clear 9 1018 50 10000 3 10 02:37 08.09.2022
1882 Clear 9 1018 50 10000 3 10 02:19 08.09.2022
1883 Clear 10 1018 49 10000 4 360 01:58 08.09.2022
1884 Clear 3 1018 80 10000 3 350 22:55 07.09.2022
1885 Clear 1 1018 86 10000 2 330 21:43 07.09.2022
1886 Clear 1 1018 86 10000 2 330 21:20 07.09.2022
1887 Clear -1 1018 93 10000 3 350 20:19 07.09.2022
1888 Clear -1 1017 93 10000 4 340 18:40 07.09.2022
1889 Clear 0 1017 86 10000 4 360 15:21 07.09.2022
1890 Clear 3 1016 75 10000 3 10 10:51 07.09.2022
1891 Clear 4 1016 75 10000 3 10 10:30 07.09.2022
1892 Clouds 8 1015 57 10000 5 320 07:43 07.09.2022
1893 Clouds 8 1014 57 10000 6 330 04:46 07.09.2022
1894 Clear 5 1014 70 10000 4 360 00:26 07.09.2022
1895 Clear 1 1012 93 10000 4 10 21:47 06.09.2022
1896 Clear 1 1012 93 10000 4 10 21:27 06.09.2022
1897 Clouds 2 1011 93 10000 4 10 19:22 06.09.2022
1898 Clouds 2 1010 93 10000 4 20 18:27 06.09.2022
1899 Clouds 2 1010 93 10000 4 350 17:23 06.09.2022
1900 Clouds 2 1009 93 10000 3 360 16:40 06.09.2022
1901 Clouds 2 1009 93 10000 4 350 15:23 06.09.2022
1902 Clouds 2 1007 93 10000 5 10 13:46 06.09.2022
1903 Clouds 2 1007 93 10000 5 10 13:26 06.09.2022
1904 Drizzle 3 1006 93 10000 7 10 12:37 06.09.2022
1905 Clouds 4 1004 86 10000 10 40 10:46 06.09.2022
1906 Clouds 5 1001 81 10000 7 20 08:56 06.09.2022
1907 Rain 5 1001 86 10000 4 10 07:52 06.09.2022
1908 Rain 3 999 93 3600 7.6 320 04:48 06.09.2022
1909 Rain 1 999 100 9000 7 320 00:20 06.09.2022
1910 Rain 1 998 93 10000 8 320 22:41 05.09.2022
1911 Rain 2 998 93 2200 8 310 20:59 05.09.2022
1912 Drizzle 2 998 100 3100 7 300 19:50 05.09.2022
1913 Drizzle 2 991 100 10000 5 330 18:49 05.09.2022
1914 Rain 2 998 100 10000 5 330 18:23 05.09.2022
1915 Drizzle 2 998 100 8000 5 340 17:31 05.09.2022
1916 Mist 2 992 100 1300 7 340 15:53 05.09.2022
1917 Drizzle 3 998 100 4200 7 330 13:54 05.09.2022
1918 Drizzle 5 998 100 900 7 320 12:29 05.09.2022
1919 Fog 5 998 93 10000 6 290 10:35 05.09.2022
1920 Clouds 8 998 81 10000 5 300 07:44 05.09.2022
1921 Clouds 10 998 81 10000 3 290 03:47 05.09.2022
1922 Clouds 8 998 93 10000 6 190 23:58 04.09.2022
1923 Fog 9 998 93 10000 6 120 22:28 04.09.2022
1924 Clouds 8 998 93 10000 8 110 21:45 04.09.2022
1925 Rain 7 997 93 8000 14 100 19:44 04.09.2022
1926 Rain 6 996 93 10000 15 100 18:21 04.09.2022
1927 Clouds 6 996 87 10000 17 90 17:24 04.09.2022
1928 Rain 7 998 87 10000 13 90 15:23 04.09.2022
1929 Rain 7 999 93 10000 10 90 14:22 04.09.2022
1930 Rain 8 1001 81 10000 7 100 12:24 04.09.2022
1931 Rain 10 1002 76 10000 3 80 10:59 04.09.2022
1932 Rain 8 1002 87 10000 3 60 09:24 04.09.2022
1933 Rain 12 1001 66 10000 4 300 06:27 04.09.2022
1934 Clear 12 1000 58 10000 4 10 02:31 04.09.2022
1935 Clouds 10 999 87 10000 4 350 22:33 03.09.2022
1936 Clouds 9 998 93 10000 3 360 21:25 03.09.2022
1937 Clouds 9 998 93 10000 4 310 20:51 03.09.2022
1938 Clouds 11 997 76 10000 1 0 17:37 03.09.2022
1939 Clouds 11 997 76 10000 1 0 17:37 03.09.2022
1940 Clouds 10 997 81 10000 3 140 16:52 03.09.2022
1941 Clouds 12 997 71 10000 3 170 14:52 03.09.2022
1942 Clouds 12 997 71 10000 3 170 14:30 03.09.2022
1943 Clouds 11 997 76 10000 1 0 13:44 03.09.2022
1944 Clear 12 998 66 10000 2 140 11:31 03.09.2022
1945 Clear 13 997 62 10000 7 130 08:57 03.09.2022
1946 Clear 13 998 62 10000 7 140 07:45 03.09.2022
1947 Clouds 10 1001 66 10000 6 160 04:48 03.09.2022
1948 Clouds 8 1002 70 10000 6 160 02:35 03.09.2022
1949 Clouds 6 1004 81 10000 5 170 23:35 02.09.2022
1950 Clear 5 1005 81 10000 3 140 21:57 02.09.2022
1951 Clear 1 1005 86 10000 2 110 20:40 02.09.2022
1952 Clear 0 1006 86 10000 1 0 19:47 02.09.2022
1953 Clear 0 1006 93 10000 0 0 18:50 02.09.2022
1954 Clear 0 1006 93 10000 0 0 18:24 02.09.2022
1955 Clear -2 1007 100 10000 1 0 17:23 02.09.2022
1956 Clear 2 1007 93 10000 0 0 16:31 02.09.2022
1957 Clouds 5 1008 81 10000 1 0 13:25 02.09.2022
1958 Clouds 8 1008 66 10000 6 290 10:39 02.09.2022
1959 Clouds 9 1007 66 10000 5 290 09:42 02.09.2022
1960 Clouds 10 1007 66 10000 5 290 08:43 02.09.2022
1961 Clouds 9 1007 66 10000 5 330 06:44 02.09.2022
1962 Clouds 9 1007 71 10000 4 330 06:18 02.09.2022
1963 Clouds 6 1005 87 10000 7 350 23:19 01.09.2022
1964 Clouds 5 1004 93 10000 6 340 21:47 01.09.2022
1965 Rain 5 1004 93 10000 6 340 21:27 01.09.2022
1966 Clouds 4 1004 93 10000 5 340 20:52 01.09.2022
1967 Rain 4 1003 93 10000 4 10 19:25 01.09.2022
1968 Clouds 4 1003 93 10000 5 360 18:18 01.09.2022
1969 Clear 5 1002 86 10000 5 10 16:51 01.09.2022
1970 Clouds 5 1001 93 10000 3 360 14:51 01.09.2022
1971 Clouds 6 1000 93 10000 2 330 13:21 01.09.2022
1972 Clouds 6 999 93 10000 5 350 12:42 01.09.2022
1973 Clouds 7 998 81 10000 8 10 11:50 01.09.2022
1974 Clouds 7 998 81 10000 8 10 11:19 01.09.2022
1975 Clouds 8 996 81 10000 9 350 09:31 01.09.2022
1976 Clouds 9 994 87 10000 8 330 06:31 01.09.2022
1977 Rain 7 992 93 5000 5 340 02:33 01.09.2022
1978 Rain 7 991 93 10000 7 350 01:29 01.09.2022
1979 Clouds 6 989 93 10000 4 20 22:22 31.08.2022
1980 Rain 5 987 93 10000 10 360 20:35 31.08.2022
1981 Rain 5 985 93 10000 8 10 18:32 31.08.2022
1982 Drizzle 5 984 93 10000 9 10 16:35 31.08.2022
1983 Drizzle 5 983 100 8000 8 360 15:18 31.08.2022
1984 Drizzle 6 980 93 10000 10 10 12:37 31.08.2022
1985 Rain 6 980 93 10000 12 20 11:48 31.08.2022
1986 Drizzle 7 978 93 5000 11 360 09:31 31.08.2022
1987 Rain 9 977 100 9000 8 10 07:28 31.08.2022
1988 Clouds 11 976 81 10000 5 20 01:57 31.08.2022
1989 Clouds 7 974 87 10000 4.92 10 22:18 30.08.2022
1990 Clouds 7 974 87 10000 5 10 21:27 30.08.2022
1991 Fog 7 1003 93 10000 5 10 19:26 30.08.2022
1992 Rain 7 973 93 9000 13 80 16:47 30.08.2022
1993 Rain 7 973 93 9000 13 80 16:47 30.08.2022
1994 Rain 7 975 93 6000 13 80 13:37 30.08.2022
1995 Rain 8 976 87 5000 15 90 11:23 30.08.2022
1996 Rain 8 976 87 4900 16 90 10:57 30.08.2022
1997 Rain 8 979 93 5000 13 90 08:51 30.08.2022
1998 Rain 10 988 93 5000 11 110 03:57 30.08.2022
1999 Rain 9 994 93 10000 9 110 00:30 30.08.2022
2000 Rain 10 996 93 10000 9 100 22:36 29.08.2022
2001 Rain 10 997 87 10000 9 110 21:48 29.08.2022
2002 Rain 10 999 93 10000 5 100 20:34 29.08.2022
2003 Rain 10 1001 93 10000 5 90 18:55 29.08.2022
2004 Rain 10 1002 93 10000 3 60 17:26 29.08.2022
2005 Rain 10 1003 93 10000 3 70 16:57 29.08.2022
2006 Rain 12 1003 82 10000 2 120 15:18 29.08.2022
2007 Rain 15 1005 63 10000 5 120 13:42 29.08.2022
2008 Clouds 13 1006 67 10000 5 120 12:20 29.08.2022
2009 Clouds 13 1007 71 10000 1 0 10:42 29.08.2022
2010 Clouds 13 1008 71 10000 2 120 08:53 29.08.2022
2011 Clouds 15 1010 67 10000 3 160 06:29 29.08.2022
2012 Clouds 13 1014 76 10000 4 170 01:58 29.08.2022
2013 Clouds 12 1015 81 10000 2 160 22:55 28.08.2022
2014 Clear 11 1015 81 10000 2 160 21:47 28.08.2022
2015 Clear 11 1015 81 10000 2 160 21:25 28.08.2022
2016 Fog 6 1016 93 10000 2 140 19:59 28.08.2022
2017 Fog 6 1016 93 10000 1 140 18:22 28.08.2022
2018 Clouds 7 1016 87 10000 1 120 17:50 28.08.2022
2019 Clouds 7 1016 93 10000 2 140 16:42 28.08.2022
2020 Clear 9 1016 93 10000 3 160 14:46 28.08.2022
2021 Clear 9 1016 93 10000 3 160 14:46 28.08.2022
2022 Clouds 10 1016 81 10000 3 160 12:56 28.08.2022
2023 Clear 10 1016 76 10000 3 140 11:19 28.08.2022
2024 Clear 11 1015 81 10000 3 150 10:19 28.08.2022
2025 Clouds 12 1015 76 10000 3 180 08:42 28.08.2022
2026 Clouds 13 1015 67 10000 2 180 07:50 28.08.2022
2027 Clouds 12 1015 66 10000 2 280 03:44 28.08.2022
2028 Clouds 10 1015 76 10000 2 320 00:34 28.08.2022
2029 Clouds 8 1014 87 10000 2 360 22:50 27.08.2022
2030 Clouds 7 1014 93 10000 2 360 22:19 27.08.2022
2031 Clouds 7 1014 93 10000 2 340 20:27 27.08.2022
2032 Clear 5 1013 93 10000 3 50 18:50 27.08.2022
2033 Clouds 7 1011 87 10000 3 10 16:26 27.08.2022
2034 Clouds 6 1011 93 10000 3 10 15:30 27.08.2022
2035 Clouds 7 1009 87 10000 3 350 12:55 27.08.2022
2036 Clear 7 1008 87 10000 4 350 11:56 27.08.2022
2037 Clouds 8 1006 81 10000 4 20 09:52 27.08.2022
2038 Clouds 9 1005 76 10000 7 30 09:25 27.08.2022
2039 Clouds 11 1001 76 10000 7 350 05:24 27.08.2022
2040 Clouds 9 997 87 10000 6 350 00:51 27.08.2022
2041 Rain 9 996 93 10000 5 340 23:35 26.08.2022
2042 Rain 7 994 100 10000 4 340 21:45 26.08.2022
2043 Fog 7 993 100 200 2 340 19:40 26.08.2022
2044 Fog 7 992 100 150 3 350 17:49 26.08.2022
2045 Drizzle 7 991 100 5000 1 350 15:40 26.08.2022
2046 Clouds 6 991 93 10000 1 0 14:56 26.08.2022
2047 Clouds 8 990 93 10000 4 310 12:54 26.08.2022
2048 Rain 8 989 93 10000 3 320 11:43 26.08.2022
2049 Rain 8 989 93 10000 3 320 11:21 26.08.2022
2050 Clouds 9 987 87 10000 4 320 07:56 26.08.2022
2051 Clouds 11 985 71 10000 6 350 02:43 26.08.2022
2052 Clouds 9 984 87 10000 5 360 23:45 25.08.2022
2053 Clouds 7 983 93 10000 6 20 21:55 25.08.2022
2054 Clouds 6 982 100 10000 6 20 20:51 25.08.2022
2055 Clouds 6 982 100 10000 5 20 19:27 25.08.2022
2056 Fog 6 982 100 10000 5 30 18:29 25.08.2022
2057 Rain 7 981 93 9000 5 30 17:31 25.08.2022
2058 Clouds 6 981 100 10000 2 340 16:27 25.08.2022
2059 Rain 7 982 93 10000 2 10 15:28 25.08.2022
2060 Rain 7 982 100 9000 6 60 13:20 25.08.2022
2061 Rain 7 983 100 3900 8 100 10:49 25.08.2022
2062 Mist 7 983 100 2500 10 110 09:46 25.08.2022
2063 Rain 8 985 87 7000 14 110 07:31 25.08.2022
2064 Rain 9 991 93 7000 13 120 02:29 25.08.2022
2065 Clouds 9 993 93 10000 11 130 23:29 24.08.2022
2066 Rain 10 994 93 10000 11 130 22:54 24.08.2022
2067 Clouds 9 994 93 10000 9 120 21:39 24.08.2022
2068 Clouds 9 994 93 10000 9 120 21:20 24.08.2022
2069 Clouds 10 996 93 10000 7 110 19:43 24.08.2022
2070 Clouds 11 999 81 10000 4 100 16:50 24.08.2022
2071 Clouds 11 1000 76 10000 4 110 15:52 24.08.2022
2072 Rain 11 1001 81 10000 4 130 13:49 24.08.2022
2073 Clouds 11 1002 81 10000 4 130 12:28 24.08.2022
2074 Clouds 12 1002 62 10000 3 130 11:18 24.08.2022
2075 Clouds 12 1002 66 10000 3 150 08:38 24.08.2022
2076 Clear 15 1002 41 10000 1 0 03:54 24.08.2022
2077 Clouds 11 1003 71 10000 2 340 23:53 23.08.2022
2078 Clouds 10 1003 76 10000 0 0 22:35 23.08.2022
2079 Clouds 9 1003 81 10000 0 0 21:49 23.08.2022
2080 Clouds 8 1002 87 10000 1 50 20:40 23.08.2022
2081 Clouds 8 1003 87 10000 0 0 18:55 23.08.2022
2082 Clouds 8 1003 87 10000 1 0 17:53 23.08.2022
2083 Clouds 8 1003 87 10000 1 0 17:18 23.08.2022
2084 Clouds 8 1003 87 10000 0 0 15:52 23.08.2022
2085 Clouds 8 1003 87 10000 0 0 13:50 23.08.2022
2086 Clouds 8 1004 87 10000 1 0 12:45 23.08.2022
2087 Clouds 9 1004 81 10000 1 0 10:57 23.08.2022
2088 Clouds 9 1004 81 10000 1 0 10:32 23.08.2022
2089 Clouds 9 1004 81 10000 1 0 10:32 23.08.2022
2090 Clouds 9 1005 87 10000 2 190 08:55 23.08.2022
2091 Clouds 10 1005 76 10000 2 150 08:22 23.08.2022
2092 Clouds 10 1005 76 10000 2 170 07:52 23.08.2022
2093 Clouds 10 1005 81 10000 4 120 07:22 23.08.2022
2094 Clouds 11 1006 57 10000 4 100 06:19 23.08.2022
2095 Clouds 10 1009 62 10000 8 100 01:43 23.08.2022
2096 Clouds 10 1009 66 10000 4 110 00:26 23.08.2022
2097 Clouds 9 1010 81 10000 4 100 23:30 22.08.2022
2098 Rain 8 1010 87 10000 4 70 22:19 22.08.2022
2099 Clear 9 1011 71 10000 4 120 19:56 22.08.2022
2100 Clear 9 1011 71 10000 4 120 19:36 22.08.2022
2101 Clear 10 1011 57 10000 5 120 18:36 22.08.2022
2102 Clear 9 1013 57 10000 3 60 15:45 22.08.2022
2103 Clear 9 1014 70 10000 3 40 14:48 22.08.2022
2104 Clear 10 1015 66 10000 6 130 11:20 22.08.2022
2105 Clear 11 1016 58 10000 6 130 09:20 22.08.2022
2106 Clear 13 1017 58 10000 6 150 04:45 22.08.2022
2107 Clear 13 1018 54 10000 4 180 00:54 22.08.2022
2108 Clear 12 1019 58 10000 5 160 00:35 22.08.2022
2109 Clear 10 1019 71 10000 3 180 22:56 21.08.2022
2110 Clear 10 1019 66 10000 3 150 21:50 21.08.2022
2111 Clear 10 1019 66 10000 3 150 21:18 21.08.2022
2112 Clear 8 1019 70 10000 2 150 19:40 21.08.2022
2113 Clear 5 1019 87 10000 2 110 18:35 21.08.2022
2114 Clear 6 1019 81 10000 2 130 16:34 21.08.2022
2115 Clear 7 1018 75 10000 2 150 15:51 21.08.2022
2116 Clear 9 1018 70 10000 3 150 14:41 21.08.2022
2117 Clear 8 1018 70 10000 4 150 13:44 21.08.2022
2118 Clear 7 1018 70 10000 2 140 12:53 21.08.2022
2119 Clear 10 1017 71 10000 5 150 09:57 21.08.2022
2120 Clear 11 1017 71 10000 6 150 08:56 21.08.2022
2121 Clear 11 1017 71 10000 6 150 08:38 21.08.2022
2122 Clear 12 1017 62 10000 5 160 07:50 21.08.2022
2123 Clear 15 1016 47 10000 2 350 04:28 21.08.2022
2124 Clear 10 1017 62 10000 1 0 00:54 21.08.2022
2125 Clear 8 1017 70 10000 2 190 23:20 20.08.2022
2126 Clear 7 1017 81 10000 0 0 21:46 20.08.2022
2127 Clear 6 1017 93 10000 1 110 20:48 20.08.2022
2128 Clear 4 1017 93 10000 1 100 19:42 20.08.2022
2129 Clear 4 1017 93 10000 2 130 18:44 20.08.2022
2130 Clear 3 1017 93 10000 2 130 18:25 20.08.2022
2131 Clouds 1 1017 100 10000 1 130 17:20 20.08.2022
2132 Clear 5 1016 86 10000 3 130 15:52 20.08.2022
2133 Clear 4 1016 93 10000 2 130 13:48 20.08.2022
2134 Clouds 6 1017 81 10000 4 140 11:54 20.08.2022
2135 Clouds 6 1017 81 10000 4 140 11:24 20.08.2022
2136 Clear 7 1016 75 10000 5 150 09:20 20.08.2022
2137 Clouds 9 1016 66 10000 5 150 07:18 20.08.2022
2138 Clouds 11 1015 57 10000 2 190 04:42 20.08.2022
2139 Clear 9 1016 57 10000 3 10 00:55 20.08.2022
2140 Clear 6 1016 70 10000 4 20 23:25 19.08.2022
2141 Clear 6 1016 70 10000 4 20 22:44 19.08.2022
2142 Clear 3 1016 93 10000 2 350 20:47 19.08.2022
2143 Clear 2 1015 93 10000 2 360 18:55 19.08.2022
2144 Clear 3 1015 87 10000 2 350 15:58 19.08.2022
2145 Clear 5 1014 70 10000 2 50 13:42 19.08.2022
2146 Clear 6 1014 65 10000 1 0 11:46 19.08.2022
2147 Clear 7 1014 65 10000 3 60 10:31 19.08.2022
2148 Clouds 8 1013 61 10000 1 0 08:31 19.08.2022
2149 Clouds 10 1013 66 10000 4 190 03:39 19.08.2022
2150 Clouds 8 1014 76 10000 1 0 00:38 19.08.2022
2151 Clouds 8 1014 76 10000 1 0 23:56 18.08.2022
2152 Clouds 7 1014 75 10000 2 360 22:54 18.08.2022
2153 Clouds 6 1014 75 10000 2 350 22:22 18.08.2022
2154 Clouds 6 1013 81 10000 2 360 21:47 18.08.2022
2155 Clouds 6 1013 87 10000 2 50 20:45 18.08.2022
2156 Clouds 5 1013 93 10000 1 90 19:34 18.08.2022
2157 Clouds 4 1013 80 10000 1 0 18:34 18.08.2022
2158 Clear 4 1012 75 10000 3 80 17:32 18.08.2022
2159 Clear 3 1012 81 10000 1 50 15:51 18.08.2022
2160 Clear 4 1012 75 10000 1 60 14:21 18.08.2022
2161 Clear 2 1012 87 10000 2 60 13:44 18.08.2022
2162 Clear 5 1012 65 10000 1 0 12:28 18.08.2022
2163 Clear 7 1011 61 10000 3 140 11:18 18.08.2022
2164 Clouds 8 1011 70 10000 5 140 09:43 18.08.2022
2165 Clouds 10 1010 57 10000 5 160 07:27 18.08.2022
2166 Clouds 11 1010 62 10000 4 240 05:33 18.08.2022
2167 Clear 10 1011 62 10000 3 320 01:43 18.08.2022
2168 Clear 7 1012 65 10000 2 210 22:32 17.08.2022
2169 Clear 2 1012 86 10000 0 0 20:21 17.08.2022
2170 Clear 0 1012 80 10000 1 120 19:34 17.08.2022
2171 Clear -1 1012 86 10000 2 20 18:32 17.08.2022
2172 Clear -1 1013 86 10000 2 60 16:50 17.08.2022
2173 Clear 2 1013 86 10000 2 190 15:45 17.08.2022
2174 Clear 2 1013 87 10000 1 60 14:36 17.08.2022
2175 Clear 4 1013 80 10000 3 140 12:22 17.08.2022
2176 Clear 5 1013 81 10000 2 130 10:59 17.08.2022
2177 Clear 6 1013 75 10000 3 170 08:26 17.08.2022
2178 Clouds 7 1014 70 10000 6 170 05:35 17.08.2022
2179 Clouds 9 1016 66 10000 3 100 00:49 17.08.2022
2180 Clouds 7 1016 65 10000 4 110 23:18 16.08.2022
2181 Clouds 6 1016 70 10000 5 100 21:21 16.08.2022
2182 Clouds 5 1016 80 10000 2 90 19:56 16.08.2022
2183 Clouds 4 1016 80 10000 2 90 19:22 16.08.2022
2184 Clouds 5 1016 75 10000 2 100 17:55 16.08.2022
2185 Clouds 5 1017 75 10000 4 90 16:47 16.08.2022
2186 Clouds 5 1017 75 10000 3 100 15:45 16.08.2022
2187 Clouds 5 1018 75 10000 3 80 14:54 16.08.2022
2188 Clouds 5 1018 75 10000 3 80 14:36 16.08.2022
2189 Clear 5 1018 75 10000 2 80 12:19 16.08.2022
2190 Clear 6 1018 70 10000 4 110 10:23 16.08.2022
2191 Clouds 7 1018 70 10000 5 120 08:53 16.08.2022
2192 Clouds 7 1018 70 10000 5 140 08:21 16.08.2022
2193 Clouds 7 1018 75 10000 8 90 05:55 16.08.2022
2194 Clear 7 1017 81 10000 2 130 23:56 15.08.2022
2195 Clouds 6 1016 87 10000 2 340 22:23 15.08.2022
2196 Rain 5 1015 93 10000 4 40 21:50 15.08.2022
2197 Rain 6 1014 87 10000 5 30 20:32 15.08.2022
2198 Rain 6 977 93 10000 3 30 19:22 15.08.2022
2199 Rain 7 1012 81 10000 9 80 17:59 15.08.2022
2200 Rain 7 1011 87 10000 6 70 16:25 15.08.2022
2201 Rain 7 1010 87 10000 7 70 15:52 15.08.2022
2202 Rain 8 1010 87 10000 6 100 13:50 15.08.2022
2203 Rain 10 1009 93 10000 2 20 11:24 15.08.2022
2204 Mist 11 1008 93 9000 4 40 09:40 15.08.2022
2205 Rain 12 1008 93 10000 4 30 07:32 15.08.2022
2206 Rain 16 1009 77 10000 4 140 04:34 15.08.2022
2207 Clouds 12 1011 82 10000 9 100 00:22 15.08.2022
2208 Clouds 11 1012 76 10000 5 130 22:29 14.08.2022
2209 Clouds 10 1013 76 10000 4.92 130 21:35 14.08.2022
2210 Clear 10 1013 71 10000 6 130 19:47 14.08.2022
2211 Clear 10 1014 71 10000 6 140 18:53 14.08.2022
2212 Clear 10 1014 71 10000 6 140 18:18 14.08.2022
2213 Clouds 9 1015 66 10000 6 140 16:50 14.08.2022
2214 Clouds 9 1016 66 10000 7 140 15:48 14.08.2022
2215 Clouds 8 1016 81 10000 6 140 14:19 14.08.2022
2216 Clouds 8 1016 81 10000 5 130 13:49 14.08.2022
2217 Clouds 8 1016 81 10000 5 130 13:18 14.08.2022
2218 Clear 8 1017 70 10000 4 130 11:50 14.08.2022
2219 Clear 8 1016 76 10000 6 150 10:27 14.08.2022
2220 Clear 10 1016 66 10000 5 160 08:50 14.08.2022
2221 Clouds 11 1017 57 10000 5 150 06:21 14.08.2022
2222 Clouds 10 1017 57 10000 5 170 02:47 14.08.2022
2223 Clouds 9 1017 61 10000 5 150 23:49 13.08.2022
2224 Clouds 8 1017 66 10000 3 160 22:52 13.08.2022
2225 Clouds 6 1016 75 10000 3 170 20:58 13.08.2022
2226 Clouds 6 1016 75 10000 3 170 20:28 13.08.2022
2227 Clouds 6 1016 81 10000 2 160 19:24 13.08.2022
2228 Clouds 6 1015 81 10000 2 130 17:36 13.08.2022
2229 Clouds 6 1014 93 10000 1 140 15:23 13.08.2022
2230 Fog 5 1013 93 10000 2 20 14:26 13.08.2022
2231 Clear 5 1013 100 10000 3 10 13:38 13.08.2022
2232 Clouds 8 1011 87 10000 3 70 11:52 13.08.2022
2233 Clouds 17 1008 72 10000 2 290 09:58 13.08.2022
2234 Clouds 19 1007 63 10000 5 20 08:23 13.08.2022
2235 Clouds 21 1006 52 10000 8 300 04:21 13.08.2022
2236 Clouds 14 1005 87 10000 4 310 23:47 12.08.2022
2237 Clouds 12 1004 93 10000 4 300 21:42 12.08.2022
2238 Clouds 12 1004 93 10000 3 280 20:40 12.08.2022
2239 Clouds 12 1004 93 10000 1 280 19:36 12.08.2022
2240 Clouds 11 1004 100 10000 0 0 18:46 12.08.2022
2241 Rain 12 1004 93 10000 2 270 16:37 12.08.2022
2242 Rain 12 1004 93 10000 0 0 15:40 12.08.2022
2243 Rain 12 1004 93 10000 0 0 14:27 12.08.2022
2244 Clouds 13 1004 87 10000 1 170 12:53 12.08.2022
2245 Clouds 13 1004 87 10000 1 170 12:53 12.08.2022
2246 Clouds 13 1004 82 10000 4 170 09:52 12.08.2022
2247 Clouds 14 1004 82 10000 2 160 07:47 12.08.2022
2248 Clouds 16 1004 67 10000 3 200 06:38 12.08.2022
2249 Clouds 14 1006 77 10000 3 260 02:33 12.08.2022
2250 Clouds 14 1006 77 10000 1 0 00:24 12.08.2022
2251 Clouds 13 1007 87 10000 2 300 23:35 11.08.2022
2252 Clouds 13 1000 82 10000 3 330 22:24 11.08.2022
2253 Rain 12 1007 93 10000 2 350 21:40 11.08.2022
2254 Clouds 12 1007 87 10000 2 340 20:45 11.08.2022
2255 Clouds 12 1007 82 10000 2 340 20:18 11.08.2022
2256 Clear 12 1007 82 10000 2 310 19:32 11.08.2022
2257 Clear 10 1007 93 10000 2 30 17:48 11.08.2022
2258 Clouds 13 1007 72 10000 2.09 279 16:35 11.08.2022
2259 Clouds 13 1008 82 10000 1.4 318 15:21 11.08.2022
2260 Clear 13 1008 82 10000 2 330 13:37 11.08.2022
2261 Clear 17 1008 67 10000 3 140 10:27 11.08.2022
2262 Clear 20 1008 56 10000 1 0 07:38 11.08.2022
2263 Clear 21 1009 52 10000 5 290 03:52 11.08.2022
2264 Clear 19 1009 63 10000 4 300 00:37 11.08.2022
2265 Clear 16 1010 67 10000 5 310 22:32 10.08.2022
2266 Clear 15 1010 77 10000 3 320 21:25 10.08.2022
2267 Clear 14 1009 77 10000 2 340 20:55 10.08.2022
2268 Clear 12 1009 87 10000 2 50 19:27 10.08.2022
2269 Clear 14 1009 77 10000 1 0 18:22 10.08.2022
2270 Clouds 14 1008 77 10000 3 260 16:36 10.08.2022
2271 Clear 15 1008 72 10000 1 0 13:35 10.08.2022
2272 Clear 14 1008 72 10000 2 170 12:41 10.08.2022
2273 Clear 17 1008 63 10000 4 200 09:25 10.08.2022
2274 Clear 18 1008 59 10000 6 210 08:33 10.08.2022
2275 Clear 19 1009 52 10000 5.81 220 07:18 10.08.2022
2276 Clear 16 1011 55 10000 5 180 03:28 10.08.2022
2277 Clear 10 1014 71 10000 6 160 23:34 09.08.2022
2278 Clear 10 1014 71 10000 7 170 22:56 09.08.2022
2279 Clear 9 1015 71 10000 6 170 21:36 09.08.2022
2280 Clear 10 1015 66 10000 6 160 20:30 09.08.2022
2281 Clear 7 1016 81 10000 6 160 18:44 09.08.2022
2282 Clear 7 1017 81 10000 4 150 17:28 09.08.2022
2283 Clear 7 1017 81 10000 5 140 16:40 09.08.2022
2284 Clear 7 1018 75 10000 5 160 15:58 09.08.2022
2285 Clear 7 1019 65 10000 4 150 12:52 09.08.2022
2286 Clear 9 1020 57 10000 4 140 09:39 09.08.2022
2287 Clear 9 1020 57 10000 5 170 08:50 09.08.2022
2288 Clear 10 1020 53 10000 5 170 07:53 09.08.2022
2289 Clouds 10 1020 49 10000 5 170 04:25 09.08.2022
2290 Clear 9 1017 57 10000 5 360 23:27 08.08.2022
2291 Clear 7 1017 65 10000 4 360 22:55 08.08.2022
2292 Clear 7 1017 61 10000 4 360 22:18 08.08.2022
2293 Clear 5 1016 75 10000 3 20 21:18 08.08.2022
2294 Clear 5 1015 86 10000 3 20 19:51 08.08.2022
2295 Clear 3 1014 86 10000 2 40 18:45 08.08.2022
2296 Clear 4 1013 80 10000 2 360 16:44 08.08.2022
2297 Clear 5 1013 80 10000 2 340 15:40 08.08.2022
2298 Clear 6 1013 70 10000 4 330 13:54 08.08.2022
2299 Clear 6 1013 70 10000 4 340 12:19 08.08.2022
2300 Clear 7 1012 61 10000 7 330 09:46 08.08.2022
2301 Clouds 8 1011 49 10000 9 320 05:54 08.08.2022
2302 Clouds 9 1011 50 10000 10 330 02:55 08.08.2022
2303 Clear 6 1010 56 10000 10 330 22:42 07.08.2022
2304 Clear 5 1010 65 10000 12 330 21:40 07.08.2022
2305 Clouds 3 1009 69 10000 11 320 20:26 07.08.2022
2306 Clouds 4 1008 69 10000 13 320 19:56 07.08.2022
2307 Clouds 3 1008 69 10000 13 320 19:38 07.08.2022
2308 Clouds 3 1008 75 10000 7 320 18:23 07.08.2022
2309 Clear 3 1006 75 10000 9 330 16:54 07.08.2022
2310 Clear 3 1006 75 10000 9 330 16:35 07.08.2022
2311 Clear 3 1006 75 10000 9 330 16:35 07.08.2022
2312 Clear 5 1005 70 10000 7 320 15:20 07.08.2022
2313 Clear 9 1005 70 10000 6 320 13:34 07.08.2022
2314 Clear 11 1003 76 10000 5 330 11:54 07.08.2022
2315 Clear 13 1003 82 10000 5 310 10:34 07.08.2022
2316 Clouds 11 1002 93 10000 4 300 07:36 07.08.2022
2317 Clouds 13 1004 82 10000 4 180 03:20 07.08.2022
2318 Clouds 13 1006 82 10000 2 190 00:57 07.08.2022
2319 Clouds 11 1007 87 10000 3 170 22:25 06.08.2022
2320 Clear 11 1007 76 10000 3 160 20:46 06.08.2022
2321 Clouds 11 1008 76 10000 2 150 19:41 06.08.2022
2322 Clear 11 1008 71 10000 2 160 18:30 06.08.2022
2323 Clouds 12 1009 71 10000 2 150 17:32 06.08.2022
2324 Clear 9 1010 81 10000 2 130 14:43 06.08.2022
2325 Clear 9 1011 81 10000 1 140 13:44 06.08.2022
2326 Clear 11 1011 81 10000 2 230 11:55 06.08.2022
2327 Clear 13 1011 67 10000 1 260 10:32 06.08.2022
2328 Clear 14 1011 58 10000 5 260 08:32 06.08.2022
2329 Clouds 15 1011 51 10000 8 280 03:52 06.08.2022
2330 Clear 12 1012 54 10000 8 320 23:36 05.08.2022
2331 Clear 11 1011 57 10000 8 330 22:32 05.08.2022
2332 Clear 6 1010 87 10000 4 340 19:46 05.08.2022
2333 Clear 5 1010 86 10000 5 350 18:46 05.08.2022
2334 Clear 5 1010 86 10000 5 350 18:22 05.08.2022
2335 Mist 5 1009 93 9000 2 320 16:49 05.08.2022
2336 Clouds 3 1008 100 10000 4 40 15:22 05.08.2022
2337 Clear 5 1008 93 10000 3 10 14:31 05.08.2022
2338 Fog 7 1007 93 10000 4 10 13:24 05.08.2022
2339 Clouds 9 1006 87 10000 4 10 12:29 05.08.2022
2340 Clouds 10 1004 87 10000 5 360 10:51 05.08.2022
2341 Clouds 14 1002 72 10000 8 330 08:30 05.08.2022
2342 Clouds 13 1001 87 10000 7 300 06:56 05.08.2022
2343 Clouds 13 1001 87 10000 7 300 06:56 05.08.2022
2344 Clouds 13 1002 82 10000 5 270 00:46 05.08.2022
2345 Clouds 12 1003 82 10000 1 190 22:32 04.08.2022
2346 Clear 11 1003 93 10000 2 180 21:27 04.08.2022
2347 Fog 11 1003 93 10000 2 160 20:44 04.08.2022
2348 Clear 10 1003 87 10000 3 150 19:48 04.08.2022
2349 Clear 10 1003 87 10000 2 140 18:51 04.08.2022
2350 Clear 10 1003 87 10000 2 140 18:32 04.08.2022
2351 Clear 10 1005 93 10000 4 150 14:39 04.08.2022
2352 Clear 10 1005 81 10000 3 160 13:22 04.08.2022
2353 Clear 11 1005 71 10000 3 150 11:33 04.08.2022
2354 Clear 14 1006 62 10000 5 180 07:56 04.08.2022
2355 Clear 13 1006 76 10000 5 180 07:26 04.08.2022
2356 Fog 16 1008 59 10000 6 190 02:38 04.08.2022
2357 Clear 15 1009 72 10000 3 140 23:49 03.08.2022
2358 Clear 17 1009 45 10000 5 140 23:27 03.08.2022
2359 Clear 13 1010 67 10000 2 300 20:57 03.08.2022
2360 Clear 11 1010 71 10000 2 330 19:56 03.08.2022
2361 Clear 12 1010 66 10000 2 30 18:40 03.08.2022
2362 Clear 13 1011 62 10000 3 100 16:26 03.08.2022
2363 Clear 14 1011 58 10000 1 0 15:47 03.08.2022
2364 Clear 16 1012 55 10000 3 140 13:24 03.08.2022
2365 Clear 18 1012 52 10000 4 140 09:51 03.08.2022
2366 Clouds 20 1013 52 10000 7 160 06:46 03.08.2022
2367 Clouds 20 1014 49 10000 6 170 04:22 03.08.2022
2368 Clouds 20 1014 49 10000 2 240 02:35 03.08.2022
2369 Clear 16 1015 67 10000 2 300 23:54 02.08.2022
2370 Clear 17 1015 59 10000 1 0 21:59 02.08.2022
2371 Clear 17 1015 59 10000 1 0 21:41 02.08.2022
2372 Clear 13 1014 71 10000 0 0 20:25 02.08.2022
2373 Clear 7 1013 81 10000 2 140 16:51 02.08.2022
2374 Clear 14 1013 71 10000 2 140 14:33 02.08.2022
2375 Clear 17 1012 48 10000 3 160 10:44 02.08.2022
2376 Clear 19 1012 48 10000 3 170 08:36 02.08.2022
2377 Clear 19 1012 45 10000 2 190 07:51 02.08.2022
2378 Clear 20 1012 34 10000 3 270 04:57 02.08.2022
2379 Clear 19 1013 48 10000 3 250 02:30 02.08.2022
2380 Clear 17 1013 51 10000 2 250 23:26 01.08.2022
2381 Clear 14 1013 62 10000 0 0 21:49 01.08.2022
2382 Clear 12 1012 66 10000 0 0 20:27 01.08.2022
2383 Clear 8 1012 81 10000 1 120 18:57 01.08.2022
2384 Clear 7 1012 81 10000 1 120 17:22 01.08.2022
2385 Clear 6 1012 87 10000 2 130 16:48 01.08.2022
2386 Clear 7 1012 87 10000 2 140 15:45 01.08.2022
2387 Clear 7 1012 87 10000 2 140 15:19 01.08.2022
2388 Clear 7 1012 81 10000 2 130 13:32 01.08.2022
2389 Clear 9 1012 70 10000 1 120 11:18 01.08.2022
2390 Clear 13 1012 58 10000 2 150 09:34 01.08.2022
2391 Clear 14 1012 54 10000 4 170 08:18 01.08.2022
2392 Clouds 16 1013 45 10000 5 170 04:43 01.08.2022
2393 Clouds 15 1014 51 10000 5 170 02:24 01.08.2022
2394 Clear 12 1015 76 10000 5 180 22:54 31.07.2022
2395 Clear 12 1015 71 10000 5 180 22:35 31.07.2022
2396 Clear 10 1015 76 10000 3 150 20:46 31.07.2022
2397 Clear 7 1015 81 10000 1 110 18:52 31.07.2022
2398 Clear 7 1015 81 10000 1 0 17:34 31.07.2022
2399 Clear 4 1016 93 10000 2 120 14:57 31.07.2022
2400 Clear 6 1016 87 10000 2 120 13:20 31.07.2022
2401 Clear 11 1016 66 10000 3 150 11:44 31.07.2022
2402 Clear 13 1016 58 10000 3 160 09:18 31.07.2022
2403 Clouds 15 1016 51 10000 3 170 06:31 31.07.2022
2404 Clouds 15 1018 55 10000 3 240 02:31 31.07.2022
2405 Clear 12 1019 58 10000 0 0 22:50 30.07.2022
2406 Clear 11 1019 66 10000 2 30 21:55 30.07.2022
2407 Clear 11 1019 66 10000 2 30 21:37 30.07.2022
2408 Clear 10 1019 71 10000 2 60 20:38 30.07.2022
2409 Clear 6 1019 93 10000 2 80 19:57 30.07.2022
2410 Clear 3 1019 87 10000 1 0 18:23 30.07.2022
2411 Clear 2 1019 87 10000 1 110 16:44 30.07.2022
2412 Clear 7 1020 87 10000 1 180 15:34 30.07.2022
2413 Clear 6 1020 75 10000 0 0 14:26 30.07.2022
2414 Clear 8 1020 87 10000 2 140 12:33 30.07.2022
2415 Clear 8 1020 87 10000 2 130 11:55 30.07.2022
2416 Clouds 10 1020 76 10000 3 170 10:20 30.07.2022
2417 Clouds 11 1020 71 10000 3 190 09:42 30.07.2022
2418 Clouds 11 1020 71 10000 4 160 07:44 30.07.2022
2419 Clouds 10 1021 76 10000 3 180 02:34 30.07.2022
2420 Clouds 10 1022 76 10000 3 190 01:20 30.07.2022
2421 Clouds 7 1022 87 10000 3 130 21:39 29.07.2022
2422 Clouds 7 1022 87 10000 3 120 20:57 29.07.2022
2423 Clouds 7 1022 87 10000 3 150 19:48 29.07.2022
2424 Clouds 6 1022 87 10000 3 100 17:39 29.07.2022
2425 Clear 7 1022 87 10000 4 90 14:53 29.07.2022
2426 Clouds 7 1022 87 10000 4 110 12:58 29.07.2022
2427 Clouds 7 1022 87 10000 8 120 09:35 29.07.2022
2428 Fog 7 1022 93 10000 8 110 08:46 29.07.2022
2429 Fog 9 1021 81 10000 9 120 07:30 29.07.2022
2430 Fog 11 1021 76 10000 8 130 01:46 29.07.2022
2431 Clouds 10 1020 81 10000 5 130 21:57 28.07.2022
2432 Clouds 9 1019 87 10000 5 140 20:55 28.07.2022
2433 Clouds 9 1019 87 10000 5 140 20:22 28.07.2022
2434 Clouds 9 1018 81 10000 5.54 133 19:41 28.07.2022
2435 Clouds 10 1018 81 10000 4 120 18:26 28.07.2022
2436 Clouds 8 1018 93 10000 4 120 17:42 28.07.2022
2437 Clouds 8 1018 93 10000 5 130 16:41 28.07.2022
2438 Clouds 8 1018 93 10000 2 110 14:58 28.07.2022
2439 Clouds 7 1018 93 10000 1 0 12:49 28.07.2022
2440 Clouds 9 1017 81 10000 6 90 09:45 28.07.2022
2441 Clouds 8 1017 87 10000 9 100 06:24 28.07.2022
2442 Clouds 10 1017 87 10000 8 110 05:26 28.07.2022
2443 Clouds 12 1015 76 10000 2 90 00:45 28.07.2022
2444 Clouds 8 1015 87 10000 3 10 22:31 27.07.2022
2445 Rain 6 1014 87 10000 8 70 20:25 27.07.2022
2446 Rain 6 1013 87 10000 11 80 19:34 27.07.2022
2447 Clouds 6 1012 87 10000 12 80 17:23 27.07.2022
2448 Rain 6 1013 87 10000 8 60 15:52 27.07.2022
2449 Rain 6 1014 87 10000 8 60 14:48 27.07.2022
2450 Rain 6 1014 87 10000 8 60 14:30 27.07.2022
2451 Rain 5 1015 93 10000 5 360 12:48 27.07.2022
2452 Drizzle 7 1014 87 10000 3 90 07:53 27.07.2022
2453 Drizzle 7 1014 87 10000 3 90 07:53 27.07.2022
2454 Drizzle 8 1014 87 10000 4 110 06:18 27.07.2022
2455 Clouds 10 1011 81 10000 9 90 00:48 27.07.2022
2456 Clouds 8 1011 81 10000 5 100 22:25 26.07.2022
2457 Clouds 8 1010 81 10000 6 110 21:20 26.07.2022
2458 Clouds 8 1010 81 10000 6 110 21:20 26.07.2022
2459 Clouds 7 1010 75 10000 5 120 19:59 26.07.2022
2460 Clouds 7 1010 81 10000 3 110 18:41 26.07.2022
2461 Rain 7 1010 87 10000 4 120 17:57 26.07.2022
2462 Rain 7 1010 87 10000 3 120 15:58 26.07.2022
2463 Rain 7 1009 87 10000 3 110 14:57 26.07.2022
2464 Rain 8 1009 87 10000 3 140 12:59 26.07.2022
2465 Clouds 9 1008 76 10000 2 130 10:59 26.07.2022
2466 Clouds 9 1008 76 10000 4 180 08:46 26.07.2022
2467 Rain 10 1007 71 10000 2 240 05:49 26.07.2022
2468 Clouds 8 1008 70 10000 3 180 00:28 26.07.2022
2469 Clouds 7 1008 75 10000 3 170 22:53 25.07.2022
2470 Clouds 7 1008 81 10000 3 160 22:22 25.07.2022
2471 Clear 8 1008 76 10000 1 0 21:38 25.07.2022
2472 Clear 6 1008 87 10000 0 0 20:40 25.07.2022
2473 Clouds 4 1008 93 10000 2 10 19:27 25.07.2022
2474 Rain 5 1008 93 10000 1 20 18:18 25.07.2022
2475 Clouds 4 1008 93 10000 3 30 17:27 25.07.2022
2476 Clear 6 1009 87 10000 0 0 14:32 25.07.2022
2477 Clear 8 1010 76 10000 2 60 12:21 25.07.2022
2478 Clouds 12 1010 58 10000 1 0 09:18 25.07.2022
2479 Clouds 13 1013 54 10000 4 360 03:23 25.07.2022
2480 Clear 10 1014 62 10000 4 10 23:54 24.07.2022
2481 Clear 8 1014 66 10000 3 20 22:56 24.07.2022
2482 Clouds 8 1014 76 10000 2 360 22:26 24.07.2022
2483 Clouds 6 1014 87 10000 0 0 21:19 24.07.2022
2484 Clouds 5 1014 86 10000 1 30 20:50 24.07.2022
2485 Clouds 5 1014 86 10000 1 30 20:19 24.07.2022
2486 Clear 5 1014 75 10000 0 0 18:38 24.07.2022
2487 Clear 6 1014 75 10000 2 70 16:29 24.07.2022
2488 Clear 5 1014 81 10000 2 70 15:45 24.07.2022
2489 Clear 6 1014 75 10000 3 130 14:19 24.07.2022
2490 Clear 8 1014 66 10000 4 150 12:54 24.07.2022
2491 Clear 8 1014 76 10000 2 140 11:40 24.07.2022
2492 Clouds 8 1014 76 10000 5.11 155 11:00 24.07.2022
2493 Clear 11 1013 66 10000 4 160 08:32 24.07.2022
2494 Clear 10 1013 71 10000 6 140 07:52 24.07.2022
2495 Clouds 13 1013 47 10000 5 300 05:44 24.07.2022
2496 Clouds 9 1015 66 10000 4 360 00:29 24.07.2022
2497 Clouds 6 1015 87 10000 3 360 21:37 23.07.2022
2498 Clouds 5 1015 93 10000 2 340 20:19 23.07.2022
2499 Clouds 5 1015 87 10000 1 0 18:50 23.07.2022
2500 Clouds 4 1015 87 10000 1 20 17:28 23.07.2022
2501 Clouds 4 1015 87 10000 1 0 16:35 23.07.2022
2502 Clouds 5 1014 80 10000 2 80 15:31 23.07.2022
2503 Clouds 6 1014 75 10000 0 0 14:59 23.07.2022
2504 Clouds 6 1014 75 10000 0 0 14:28 23.07.2022
2505 Clouds 6 1014 93 10000 0 0 13:36 23.07.2022
2506 Rain 7 1012 87 10000 6 130 10:49 23.07.2022
2507 Rain 7 1012 87 10000 6 130 10:21 23.07.2022
2508 Clouds 10 1011 71 10000 2 180 08:39 23.07.2022
2509 Clouds 9 1011 71 10000 4.54 148 03:39 23.07.2022
2510 Clouds 9 1011 70 10000 4 150 01:27 23.07.2022
2511 Clouds 8 1010 76 10000 2 150 22:56 22.07.2022
2512 Rain 7 1009 87 10000 1 0 20:56 22.07.2022
2513 Rain 7 1009 93 10000 1 0 19:41 22.07.2022
2514 Clouds 6 1009 93 10000 1.79 20 18:28 22.07.2022
2515 Rain 6 1009 93 10000 2 340 16:55 22.07.2022
2516 Clouds 6 1009 93 10000 2 350 14:54 22.07.2022
2517 Clouds 9 1009 71 10000 4 320 11:22 22.07.2022
2518 Clouds 12 1009 62 10000 6 340 09:26 22.07.2022
2519 Clouds 13 1009 58 10000 7 330 08:32 22.07.2022
2520 Clouds 13 1010 50 10000 5 290 05:19 22.07.2022
2521 Clouds 12 1010 54 10000 7 310 02:25 22.07.2022
2522 Clouds 10 1011 61 10000 5 320 22:43 21.07.2022
2523 Clouds 8 1011 70 10000 4 330 21:33 21.07.2022
2524 Clear 6 1011 75 10000 2 320 19:27 21.07.2022
2525 Clear 4 1011 86 10000 4 10 17:41 21.07.2022
2526 Clear 5 1012 81 10000 4 10 17:19 21.07.2022
2527 Clouds 7 1011 75 10000 2 200 14:55 21.07.2022
2528 Clouds 7 1011 75 10000 2 200 14:31 21.07.2022
2529 Clouds 7 1011 81 10000 3 40 12:28 21.07.2022
2530 Clear 10 1010 66 10000 2 360 11:19 21.07.2022
2531 Clouds 11 1009 50 10000 8 330 09:33 21.07.2022
2532 Clouds 10 1009 62 10000 7 320 08:50 21.07.2022
2533 Clouds 10 1009 57 10000 8 310 07:42 21.07.2022
2534 Clouds 10 1010 62 10000 7 290 05:47 21.07.2022
2535 Clouds 7 1012 65 10000 5 340 00:43 21.07.2022
2536 Clouds 5 1011 81 10000 4 360 22:22 20.07.2022
2537 Clouds 4 1011 86 10000 3 360 20:55 20.07.2022
2538 Clouds 3 1010 93 10000 3 360 19:53 20.07.2022
2539 Clouds 3 1010 93 10000 3 360 19:24 20.07.2022
2540 Clouds 4 1010 93 10000 3 340 18:34 20.07.2022
2541 Clouds 3 1009 100 10000 3.58 60 18:00 20.07.2022
2542 Clouds 4 1008 80 10000 2 80 16:45 20.07.2022
2543 Clouds 6 1007 81 10000 4 350 15:32 20.07.2022
2544 Clouds 6 1006 81 10000 8 330 14:20 20.07.2022
2545 Clouds 6 1006 81 10000 8 330 14:20 20.07.2022
2546 Clouds 6 1006 81 10000 8 330 14:20 20.07.2022
2547 Clouds 10 1005 81 10000 5 290 11:34 20.07.2022
2548 Clouds 9 1005 76 10000 4 310 09:41 20.07.2022
2549 Rain 6 1001 93 9000 1 0 03:49 20.07.2022
2550 Rain 6 996 87 10000 8 90 00:51 20.07.2022
2551 Rain 9 995 81 10000 9 110 23:41 19.07.2022
2552 Rain 8 995 81 10000 10 110 22:33 19.07.2022
2553 Rain 8 994 81 8000 10 120 21:35 19.07.2022
2554 Rain 9 996 81 9000 8 120 20:33 19.07.2022
2555 Thunderstorm 11 996 62 10000 7 140 19:21 19.07.2022
2556 Rain 11 997 58 10000 6 130 18:31 19.07.2022
2557 Clear 10 999 71 10000 4 150 17:46 19.07.2022
2558 Clear 6 1001 81 10000 2 140 14:57 19.07.2022
2559 Clear 11 1002 62 10000 3 320 11:44 19.07.2022
2560 Clear 13 1002 50 10000 4 320 10:55 19.07.2022
2561 Clear 13 1002 50 10000 8 300 09:25 19.07.2022
2562 Clear 14 1002 44 10000 8 310 08:39 19.07.2022
2563 Clear 13 1002 50 10000 9 300 07:19 19.07.2022
2564 Clear 15 1002 41 10000 9 300 05:48 19.07.2022
2565 Clear 14 1002 44 10000 8 310 04:56 19.07.2022
2566 Clear 12 1002 47 10000 9 320 01:50 19.07.2022
2567 Clouds 10 1001 50 10000 13 320 23:49 18.07.2022
2568 Clouds 9 1001 53 10000 12 320 23:18 18.07.2022
2569 Clouds 9 1001 53 10000 12 330 22:18 18.07.2022
2570 Clear 7 1001 65 10000 12 300 20:51 18.07.2022
2571 Clear 7 1001 65 10000 13 290 19:33 18.07.2022
2572 Clear 6 1001 65 10000 12 300 17:52 18.07.2022
2573 Clear 6 1002 61 10000 9 300 15:57 18.07.2022
2574 Clear 6 1002 61 10000 9 300 15:18 18.07.2022
2575 Clear 5 1002 60 10000 9 300 13:26 18.07.2022
2576 Clear 5 1002 60 10000 6 330 11:31 18.07.2022
2577 Clear 8 1002 39 10000 7 310 09:43 18.07.2022
2578 Clear 9 1002 37 10000 11 310 07:45 18.07.2022
2579 Clouds 6 1003 45 10000 11 300 02:34 18.07.2022
2580 Clouds 5 1002 41 10000 13 310 22:52 17.07.2022
2581 Clear 5 1002 45 10000 13 310 22:25 17.07.2022
2582 Clear 4 1001 52 10000 11 310 21:26 17.07.2022
2583 Clear 4 1000 44 10000 13 330 20:44 17.07.2022
2584 Clear 6 997 56 10000 11 340 19:49 17.07.2022
2585 Clear 6 997 56 10000 11 340 19:19 17.07.2022
2586 Clear 9 995 71 10000 8 330 17:39 17.07.2022
2587 Clear 13 993 76 10000 8 320 16:51 17.07.2022
2588 Clear 12 993 76 10000 8 320 16:27 17.07.2022
2589 Clouds 13 992 82 10000 7 290 15:34 17.07.2022
2590 Thunderstorm 13 993 93 2500 4 290 13:47 17.07.2022
2591 Clear 14 994 72 10000 2 240 12:32 17.07.2022
2592 Clear 18 994 59 10000 5 290 09:31 17.07.2022
2593 Clouds 20 995 56 10000 6 280 06:58 17.07.2022
2594 Clouds 20 997 60 10000 3 260 02:33 17.07.2022
2595 Clouds 17 998 77 10000 0 0 23:22 16.07.2022
2596 Clouds 13 999 76 10000 1 0 21:57 16.07.2022
2597 Clouds 10 999 81 10000 4 140 20:28 16.07.2022
2598 Rain 14 1001 67 10000 3 160 18:42 16.07.2022
2599 Clouds 12 1001 71 10000 5 150 17:24 16.07.2022
2600 Clear 14 1003 62 10000 8 150 15:41 16.07.2022
2601 Rain 12 1006 62 10000 7 150 11:55 16.07.2022
2602 Clear 13 1007 50 10000 7 130 09:41 16.07.2022
2603 Clear 13 1007 50 10000 7 130 09:22 16.07.2022
2604 Clouds 15 1008 51 10000 6 140 08:35 16.07.2022
2605 Clear 15 1009 55 10000 7 150 06:47 16.07.2022
2606 Clouds 13 1011 54 10000 5 150 03:31 16.07.2022
2607 Clear 10 1014 57 10000 4 150 23:52 15.07.2022
2608 Clear 9 1014 66 10000 5 150 22:44 15.07.2022
2609 Clear 9 1014 66 10000 5 160 21:52 15.07.2022
2610 Clear 10 1015 57 10000 2 150 20:32 15.07.2022
2611 Clear 6 1015 93 10000 0 0 18:46 15.07.2022
2612 Clear 5 1015 87 10000 3 30 17:51 15.07.2022
2613 Clear 5 1015 93 10000 0 0 16:23 15.07.2022
2614 Clouds 7 1016 87 10000 2 170 13:48 15.07.2022
2615 Clouds 8 1016 87 10000 4 140 12:22 15.07.2022
2616 Clouds 10 1015 76 10000 4 170 10:52 15.07.2022
2617 Clouds 10 1015 76 10000 2 130 07:47 15.07.2022
2618 Rain 15 1014 67 10000 4 190 02:47 15.07.2022
2619 Clouds 14 1013 71 10000 3 210 00:39 15.07.2022
2620 Clouds 14 1013 71 10000 3 210 00:39 15.07.2022
2621 Clouds 13 1013 76 10000 2 230 22:56 14.07.2022
2622 Clear 12 1012 87 10000 1 30 21:59 14.07.2022
2623 Clear 12 1012 87 10000 1 30 21:37 14.07.2022
2624 Clear 12 1012 87 10000 1 30 21:18 14.07.2022
2625 Clouds 11 1012 93 10000 1 0 20:41 14.07.2022
2626 Clouds 11 1012 93 10000 1 0 20:18 14.07.2022
2627 Clouds 10 1011 93 10000 1 350 17:25 14.07.2022
2628 Clouds 10 1011 93 10000 2 20 16:18 14.07.2022
2629 Clouds 10 1011 100 10000 0 0 14:44 14.07.2022
2630 Clouds 10 1011 100 10000 1 320 13:39 14.07.2022
2631 Rain 10 1011 100 9000 1 30 12:23 14.07.2022
2632 Rain 10 1011 93 10000 0 0 11:26 14.07.2022
2633 Rain 11 1010 93 10000 3 120 10:49 14.07.2022
2634 Rain 10 1010 93 10000 3 180 08:28 14.07.2022
2635 Clouds 12 1010 82 10000 0 0 03:42 14.07.2022
2636 Clouds 12 1010 82 10000 4 100 00:55 14.07.2022
2637 Clouds 12 1010 87 10000 0 0 00:18 14.07.2022
2638 Clouds 11 1009 93 10000 3 360 22:28 13.07.2022
2639 Clouds 11 1008 93 10000 2 310 21:37 13.07.2022
2640 Clouds 11 1008 93 10000 0 0 20:38 13.07.2022
2641 Rain 11 1007 87 10000 2 110 18:22 13.07.2022
2642 Clouds 10 1006 87 10000 2 190 17:22 13.07.2022
2643 Clouds 13 1006 88 10000 1 0 15:59 13.07.2022
2644 Clouds 15 1006 77 10000 2 140 13:50 13.07.2022
2645 Clear 15 1005 82 10000 1 50 11:30 13.07.2022
2646 Clear 17 1005 72 10000 1 0 10:44 13.07.2022
2647 Clear 17 1004 67 10000 3 170 09:29 13.07.2022
2648 Clear 20 1004 60 10000 2 270 08:23 13.07.2022
2649 Clear 22 1004 56 10000 3 150 04:37 13.07.2022
2650 Clouds 17 1005 63 10000 5 150 00:47 13.07.2022
2651 Clouds 15 1006 67 10000 5 140 22:47 12.07.2022
2652 Clear 15 1007 67 10000 3 130 21:49 12.07.2022
2653 Clear 14 1007 67 10000 5 140 20:53 12.07.2022
2654 Clear 13 1007 71 10000 6 140 19:54 12.07.2022
2655 Clear 14 1008 72 10000 6 130 18:51 12.07.2022
2656 Clear 11 1009 76 10000 6 140 17:23 12.07.2022
2657 Clear 11 1011 81 10000 4 150 15:32 12.07.2022
2658 Clear 11 1012 81 10000 4 150 13:43 12.07.2022
2659 Clear 12 1013 82 10000 3 150 11:55 12.07.2022
2660 Clear 13 1013 76 10000 4 150 10:45 12.07.2022
2661 Clouds 14 1013 72 10000 5 160 08:59 12.07.2022
2662 Clouds 14 1014 72 10000 5 170 07:55 12.07.2022
2663 Clouds 17 1014 67 10000 4 200 05:53 12.07.2022
2664 Clouds 16 1014 72 10000 3 210 05:34 12.07.2022
2665 Clouds 13 1016 71 10000 3 230 01:32 12.07.2022
2666 Clouds 12 1017 76 10000 1 0 22:48 11.07.2022
2667 Clouds 11 1017 81 10000 1 0 21:37 11.07.2022
2668 Clouds 10 1017 87 10000 2 340 20:33 11.07.2022
2669 Clouds 10 1017 87 10000 1 70 19:28 11.07.2022
2670 Clouds 9 1017 100 10000 1 50 18:30 11.07.2022
2671 Clouds 8 1017 100 10000 1 360 16:34 11.07.2022
2672 Clouds 9 1017 93 10000 1 0 15:34 11.07.2022
2673 Clouds 8 1017 100 10000 1 340 13:37 11.07.2022
2674 Clouds 9 1017 93 10000 1 250 11:33 11.07.2022
2675 Clouds 9 1016 93 10000 1 220 10:18 11.07.2022
2676 Clouds 10 1016 87 10000 2 30 09:40 11.07.2022
2677 Clouds 10 1016 87 10000 3 30 08:33 11.07.2022
2678 Clouds 10 1013 87 10000 6 30 03:23 11.07.2022
2679 Clouds 10 1011 87 10000 5 20 00:20 11.07.2022
2680 Clouds 8 1010 93 10000 6 20 22:55 10.07.2022
2681 Clouds 8 1009 93 10000 8 20 21:39 10.07.2022
2682 Clouds 8 1008 100 10000 3 10 20:47 10.07.2022
2683 Rain 7 1020 100 10000 1 360 19:48 10.07.2022
2684 Fog 7 1020 100 400 3 340 18:48 10.07.2022
2685 Drizzle 7 1006 93 1400 5 350 17:37 10.07.2022
2686 Drizzle 7 1005 100 2700 5 350 16:45 10.07.2022
2687 Mist 7 1005 100 2600 5 350 15:25 10.07.2022
2688 Rain 8 1004 100 2000 5 330 14:21 10.07.2022
2689 Rain 11 1003 93 10000 5 330 12:27 10.07.2022
2690 Rain 13 1002 94 2700 5 340 10:20 10.07.2022
2691 Rain 14 1001 94 1800 2 170 08:45 10.07.2022
2692 Rain 14 1001 94 1800 2 170 08:45 10.07.2022
2693 Rain 14 1000 94 3200 3 160 07:30 10.07.2022
2694 Rain 13 999 88 7000 6 140 01:33 10.07.2022
2695 Rain 12 999 87 10000 5 150 22:43 09.07.2022
2696 Rain 11 999 87 10000 5 150 22:24 09.07.2022
2697 Clouds 11 999 87 10000 6 150 20:50 09.07.2022
2698 Clouds 11 1000 87 10000 6 140 18:38 09.07.2022
2699 Clouds 11 1000 87 10000 6 140 17:45 09.07.2022
2700 Clouds 11 1001 87 10000 6 150 16:44 09.07.2022
2701 Clouds 11 1001 87 10000 5 140 15:41 09.07.2022
2702 Clouds 13 1001 82 10000 5 140 14:43 09.07.2022
2703 Clouds 13 1002 82 10000 5 150 13:50 09.07.2022
2704 Clouds 13 1002 82 10000 6 140 12:47 09.07.2022
2705 Clouds 13 1002 82 10000 6 140 11:31 09.07.2022
2706 Clouds 13 1002 82 10000 6 140 10:23 09.07.2022
2707 Clouds 12 1002 82 10000 5 140 07:54 09.07.2022
2708 Fog 10 1003 87 10000 7 110 05:24 09.07.2022
2709 Rain 8 1003 93 10000 7 120 03:29 09.07.2022
2710 Fog 8 1004 87 10000 2 70 22:59 08.07.2022
2711 Fog 8 1004 87 10000 4 110 21:59 08.07.2022
2712 Fog 8 1004 93 10000 2 20 20:55 08.07.2022
2713 Fog 8 1004 93 10000 2 20 20:24 08.07.2022
2714 Clouds 7 1004 93 10000 8 130 18:29 08.07.2022
2715 Clouds 7 1004 93 10000 8 130 18:29 08.07.2022
2716 Clouds 7 1004 93 9000 2 90 17:21 08.07.2022
2717 Clouds 7 1004 93 9000 2 90 17:21 08.07.2022
2718 Clouds 8 1004 81 10000 4 120 14:54 08.07.2022
2719 Clouds 9 1004 81 10000 5 110 13:56 08.07.2022
2720 Clouds 9 1004 81 10000 3 100 12:28 08.07.2022
2721 Clear 11 1004 71 10000 3 120 10:37 08.07.2022
2722 Clear 12 1004 71 10000 7 110 08:44 08.07.2022
2723 Clear 14 1004 62 10000 7 120 06:54 08.07.2022
2724 Clear 15 1004 55 10000 7 150 02:53 08.07.2022
2725 Clear 14 1005 58 10000 6 130 23:41 07.07.2022
2726 Clear 14 1005 62 10000 5 130 22:38 07.07.2022
2727 Clouds 14 1004 58 10000 4 140 20:56 07.07.2022
2728 Clouds 13 1004 62 10000 3 140 18:37 07.07.2022
2729 Clouds 13 1004 62 10000 3 150 17:19 07.07.2022
2730 Clouds 12 1004 62 10000 2 140 15:18 07.07.2022
2731 Clouds 12 1004 62 10000 3 140 13:25 07.07.2022
2732 Clouds 12 1004 62 10000 4 140 12:37 07.07.2022
2733 Clouds 12 1004 62 10000 4 140 12:18 07.07.2022
2734 Clouds 12 1004 62 10000 4 150 11:29 07.07.2022
2735 Clouds 12 1004 62 10000 5 130 10:42 07.07.2022
2736 Clouds 12 1004 62 10000 5 130 10:24 07.07.2022
2737 Clouds 14 1003 67 10000 4 120 07:22 07.07.2022
2738 Clear 15 1004 67 10000 5 170 04:18 07.07.2022
2739 Clouds 9 1006 87 5740 3.58 170 23:37 06.07.2022
2740 Clouds 9 1006 87 10000 4 170 23:18 06.07.2022
2741 Clouds 10 1006 87 10000 4 170 22:56 06.07.2022
2742 Clouds 8 1006 87 10000 4.92 150 22:38 06.07.2022
2743 Clouds 9 1006 87 10000 5 150 21:27 06.07.2022
2744 Clouds 7 1006 93 10000 5 150 19:35 06.07.2022
2745 Clouds 7 1006 87 10000 4 140 17:32 06.07.2022
2746 Clouds 7 1006 87 10000 5 170 16:19 06.07.2022
2747 Clouds 8 1006 87 10000 1 0 14:46 06.07.2022
2748 Clouds 8 1006 87 10000 2 150 12:35 06.07.2022
2749 Clouds 9 1006 81 10000 4 150 11:48 06.07.2022
2750 Clouds 10 1006 81 10000 2 120 10:18 06.07.2022
2751 Clouds 10 1006 81 10000 2 180 07:44 06.07.2022
2752 Clouds 10 1006 81 10000 3 170 07:23 06.07.2022
2753 Clouds 9 1007 87 10000 4 180 02:55 06.07.2022
2754 Clouds 9 1008 81 10000 1 0 22:45 05.07.2022
2755 Clouds 8 1008 81 10000 1 0 21:36 05.07.2022
2756 Clouds 7 1008 87 10000 4 40 20:38 05.07.2022
2757 Clouds 7 1008 87 10000 3 80 19:41 05.07.2022
2758 Clouds 7 1008 87 10000 3 80 19:21 05.07.2022
2759 Clouds 6 1008 93 10000 3 120 17:46 05.07.2022
2760 Fog 6 1008 93 10000 3 90 16:39 05.07.2022
2761 Clouds 6 1009 93 10000 3 110 15:25 05.07.2022
2762 Clouds 6 1009 93 10000 3 90 13:53 05.07.2022
2763 Clouds 6 1009 93 10000 2 100 12:42 05.07.2022
2764 Clouds 6 1009 93 10000 4 110 11:24 05.07.2022
2765 Clouds 7 1009 87 10000 3 110 10:31 05.07.2022
2766 Clouds 7 1009 93 10000 3 90 08:26 05.07.2022
2767 Rain 7 1010 93 9000 4 130 07:31 05.07.2022
2768 Rain 7 1010 93 10000 5 120 04:47 05.07.2022
2769 Rain 7 1010 93 10000 5 110 04:20 05.07.2022
2770 Rain 9 1011 87 10000 3 120 23:42 04.07.2022
2771 Clouds 8 1011 87 10000 3 110 22:59 04.07.2022
2772 Clouds 8 1011 81 10000 2 70 22:21 04.07.2022
2773 Clouds 9 1011 87 10000 1 0 21:20 04.07.2022
2774 Clouds 8 1011 81 10000 2 50 20:52 04.07.2022
2775 Clouds 8 1011 81 10000 2 50 20:33 04.07.2022
2776 Clouds 7 1010 87 10000 4 70 19:51 04.07.2022
2777 Clouds 7 1010 87 10000 4 70 19:33 04.07.2022
2778 Clouds 7 1011 87 10000 3 10 17:42 04.07.2022
2779 Clouds 7 1011 87 10000 4 50 15:44 04.07.2022
2780 Clouds 7 1011 87 10000 3 50 14:42 04.07.2022
2781 Clouds 7 1011 87 10000 5 80 13:27 04.07.2022
2782 Clouds 7 1011 87 10000 1 0 12:20 04.07.2022
2783 Clouds 8 1010 87 10000 3 60 10:33 04.07.2022
2784 Clouds 7 1010 87 10000 5 90 09:40 04.07.2022
2785 Clouds 7 1010 93 10000 4 110 06:53 04.07.2022
2786 Clouds 8 1010 81 10000 6 90 03:30 04.07.2022
2787 Clouds 8 1010 81 10000 6 90 00:30 04.07.2022
2788 Fog 7 1011 87 10000 2 10 22:58 03.07.2022
2789 Fog 6 1010 93 10000 5 70 20:47 03.07.2022
2790 Fog 6 1010 93 10000 5 70 20:21 03.07.2022
2791 Fog 6 1010 93 10000 5 60 19:26 03.07.2022
2792 Fog 5 1010 100 10000 5 80 18:32 03.07.2022
2793 Fog 6 1010 87 10000 3 90 17:43 03.07.2022
2794 Rain 6 1010 93 10000 4 90 15:29 03.07.2022
2795 Clouds 5 1010 100 8000 5 100 14:58 03.07.2022
2796 Clouds 5 1010 100 10000 7 110 13:59 03.07.2022
2797 Clouds 5 1010 100 10000 7 110 13:27 03.07.2022
2798 Clouds 5 1010 100 10000 8 110 12:22 03.07.2022
2799 Fog 6 1009 93 10000 7 110 10:55 03.07.2022
2800 Fog 6 1009 93 10000 7 110 10:36 03.07.2022
2801 Clouds 6 1008 93 10000 9 120 08:59 03.07.2022
2802 Clouds 6 1008 93 10000 9 120 07:34 03.07.2022
2803 Clouds 7 1007 87 10000 10 120 01:39 03.07.2022
2804 Clouds 6 1007 93 10000 7 120 23:50 02.07.2022
2805 Clouds 6 1006 93 10000 8 110 22:32 02.07.2022
2806 Clouds 6 1005 93 10000 8 120 20:37 02.07.2022
2807 Fog 5 1005 100 10000 6 120 19:50 02.07.2022
2808 Fog 5 1005 100 10000 6 120 19:19 02.07.2022
2809 Fog 5 1004 93 1300 4 110 17:40 02.07.2022
2810 Mist 4 1004 100 5000 6 100 16:38 02.07.2022
2811 Clouds 5 1002 93 10000 6 90 13:51 02.07.2022
2812 Clouds 7 1000 87 10000 7 100 11:52 02.07.2022
2813 Clouds 7 1000 87 10000 5 100 10:53 02.07.2022
2814 Clouds 7 1000 87 10000 5 100 10:32 02.07.2022
2815 Clouds 9 998 87 10000 6 100 08:39 02.07.2022
2816 Clouds 9 998 87 10000 6 100 08:19 02.07.2022
2817 Drizzle 8 998 93 9000 4 130 05:59 02.07.2022
2818 Mist 8 998 93 2700 7 120 00:47 02.07.2022
2819 Rain 8 998 93 4600 8 110 23:31 01.07.2022
2820 Rain 8 998 93 4900 8 110 22:40 01.07.2022
2821 Rain 8 997 93 4000 8 100 21:40 01.07.2022
2822 Rain 8 997 87 5000 9 100 20:59 01.07.2022
2823 Rain 8 997 87 5000 9 100 20:37 01.07.2022
2824 Mist 7 997 93 5000 8 100 19:41 01.07.2022
2825 Rain 7 997 100 2000 11 110 17:45 01.07.2022
2826 Rain 9 997 93 6000 10 90 15:21 01.07.2022
2827 Rain 8 998 93 9000 11 90 13:54 01.07.2022
2828 Rain 8 998 93 9000 11 90 13:54 01.07.2022
2829 Rain 8 998 93 9000 12 100 11:49 01.07.2022
2830 Rain 8 998 93 8000 13 100 10:19 01.07.2022
2831 Rain 9 998 87 3700 12 100 08:46 01.07.2022
2832 Rain 10 1003 87 4300 10 100 02:49 01.07.2022
2833 Mist 9 1005 93 3300 6 100 00:25 01.07.2022
2834 Mist 8 1005 93 3300 6 90 22:54 30.06.2022
2835 Mist 7 1006 93 2700 6 100 22:32 30.06.2022
2836 Rain 7 1006 93 5000 6 100 21:59 30.06.2022
2837 Rain 7 1006 93 5000 6 100 21:34 30.06.2022
2838 Rain 7 1006 93 3900 7 100 20:22 30.06.2022
2839 Rain 6 1006 100 2700 6 110 19:53 30.06.2022
2840 Rain 6 1006 100 2700 6 110 19:18 30.06.2022
2841 Rain 6 1007 100 4100 6 110 18:35 30.06.2022
2842 Mist 6 1007 100 4500 6 110 17:38 30.06.2022
2843 Drizzle 5 1007 100 2000 6 110 16:48 30.06.2022
2844 Mist 5 1007 100 2000 9 120 15:26 30.06.2022
2845 Mist 5 1008 100 5000 9 110 13:30 30.06.2022
2846 Mist 5 1008 100 1300 8 110 12:35 30.06.2022
2847 Fog 5 1008 100 1300 8 110 12:35 30.06.2022
2848 Fog 6 1008 93 10000 7 90 11:28 30.06.2022
2849 Clouds 7 1007 87 10000 11 110 09:53 30.06.2022
2850 Clouds 7 1007 87 10000 11 110 09:32 30.06.2022
2851 Fog 8 1007 87 10000 10 110 07:51 30.06.2022
2852 Clouds 11 1008 71 10000 9 120 05:57 30.06.2022
2853 Clouds 9 1009 76 10000 7 100 00:32 30.06.2022
2854 Clouds 9 1009 76 10000 3 90 23:34 29.06.2022
2855 Clouds 10 1009 71 10000 6 130 22:39 29.06.2022
2856 Clouds 9 1009 81 10000 4 90 21:37 29.06.2022
2857 Clouds 8 1009 81 10000 7 110 20:33 29.06.2022
2858 Clear 7 1009 87 10000 7 110 19:37 29.06.2022
2859 Clear 8 1008 81 10000 8 120 17:45 29.06.2022
2860 Clear 9 1008 76 10000 7 120 16:38 29.06.2022
2861 Clear 11 1008 71 10000 7 130 15:19 29.06.2022
2862 Clear 14 1007 58 10000 7 130 12:40 29.06.2022
2863 Clear 14 1007 58 10000 8 120 11:19 29.06.2022
2864 Clear 16 1006 55 10000 8 120 09:33 29.06.2022
2865 Clear 17 1006 55 10000 8 120 07:44 29.06.2022
2866 Clear 16 1006 59 10000 9 120 04:55 29.06.2022
2867 Clear 15 1008 62 10000 9 120 01:41 29.06.2022
2868 Clear 14 1008 62 10000 10 120 00:36 29.06.2022
2869 Clear 13 1008 67 10000 9 140 22:55 28.06.2022
2870 Clear 13 1008 67 10000 7 120 22:34 28.06.2022
2871 Clear 13 1009 67 10000 7 140 21:55 28.06.2022
2872 Clear 13 1009 67 10000 7 140 21:33 28.06.2022
2873 Clear 11 1009 71 10000 7 150 20:44 28.06.2022
2874 Clear 10 1009 76 10000 6 140 19:34 28.06.2022
2875 Clear 11 1008 82 10000 7 140 18:53 28.06.2022
2876 Clear 11 1008 82 10000 7 140 17:42 28.06.2022
2877 Clear 12 1008 76 10000 5 140 16:21 28.06.2022
2878 Clouds 12 1008 76 10000 5 140 15:42 28.06.2022
2879 Clouds 13 1008 76 10000 5 140 14:21 28.06.2022
2880 Clouds 14 1008 72 10000 4 140 13:54 28.06.2022
2881 Clouds 14 1008 67 10000 5 140 12:57 28.06.2022
2882 Clouds 13 1007 71 10000 5 110 11:18 28.06.2022
2883 Rain 12 1007 76 10000 8 100 09:30 28.06.2022
2884 Rain 12 1007 76 10000 9 110 08:44 28.06.2022
2885 Clouds 11 1007 76 10000 5 120 07:42 28.06.2022
2886 Clouds 13 1007 71 10000 5 120 07:19 28.06.2022
2887 Clouds 13 1007 76 10000 7 100 01:32 28.06.2022
2888 Clouds 10 1006 81 10000 4 70 23:41 27.06.2022
2889 Rain 11 1006 82 10000 3 70 22:52 27.06.2022
2890 Rain 8 1006 87 10000 2 80 21:38 27.06.2022
2891 Rain 7 1006 93 10000 2 70 20:53 27.06.2022
2892 Rain 7 1005 87 10000 1 0 19:36 27.06.2022
2893 Fog 7 1005 87 10000 4 60 18:26 27.06.2022
2894 Fog 6 1005 87 10000 0 0 16:27 27.06.2022
2895 Fog 6 1005 93 10000 2 90 15:23 27.06.2022
2896 Fog 5 1005 100 10000 1 0 13:37 27.06.2022
2897 Fog 6 1005 93 10000 1 0 12:56 27.06.2022
2898 Clouds 7 1004 87 10000 1 0 10:34 27.06.2022
2899 Clouds 8 1003 81 10000 4 140 09:20 27.06.2022
2900 Clouds 8 1004 87 10000 6 130 08:30 27.06.2022
2901 Clouds 10 1004 76 10000 5 140 06:39 27.06.2022
2902 Clouds 10 1004 76 10000 5 160 03:55 27.06.2022
2903 Clouds 9 1004 81 10000 4 150 00:56 27.06.2022
2904 Clouds 10 1005 76 10000 4 100 22:18 26.06.2022
2905 Clouds 7 1005 87 10000 1 0 20:44 26.06.2022
2906 Fog 6 1005 93 10000 5 50 19:42 26.06.2022
2907 Fog 6 1005 87 10000 3 90 18:31 26.06.2022
2908 Fog 5 1005 93 10000 1 0 16:47 26.06.2022
2909 Fog 5 1005 93 10000 3 100 15:26 26.06.2022
2910 Clouds 5 1006 93 10000 5 80 13:41 26.06.2022
2911 Clouds 5 1006 93 10000 5 80 13:20 26.06.2022
2912 Clouds 6 1005 87 10000 5 90 11:26 26.06.2022
2913 Clouds 7 1005 81 10000 6 120 10:27 26.06.2022
2914 Clouds 8 1005 81 10000 5 120 09:34 26.06.2022
2915 Clouds 8 1005 81 10000 6 140 07:44 26.06.2022
2916 Clouds 9 1005 76 10000 5 140 02:28 26.06.2022
2917 Clouds 8 1005 81 10000 4 150 00:21 26.06.2022
2918 Clouds 9 1005 81 10000 4 130 23:49 25.06.2022
2919 Clouds 9 1005 81 10000 4 130 23:23 25.06.2022
2920 Clouds 8 1005 81 10000 5 110 22:27 25.06.2022
2921 Clouds 7 1005 81 10000 5 110 21:41 25.06.2022
2922 Clouds 7 1005 81 10000 5 110 21:18 25.06.2022
2923 Clouds 7 1005 81 10000 4 100 20:28 25.06.2022
2924 Clouds 6 1014 87 10000 3 100 19:42 25.06.2022
2925 Clouds 6 1005 87 10000 3 90 18:19 25.06.2022
2926 Fog 5 1005 93 10000 4 90 17:24 25.06.2022
2927 Fog 5 1006 93 10000 5 100 15:36 25.06.2022
2928 Mist 5 1006 93 4100 4 90 13:41 25.06.2022
2929 Clouds 5 1006 93 7000 3 90 12:38 25.06.2022
2930 Fog 5 1007 93 10000 5 90 10:45 25.06.2022
2931 Clouds 6 1008 87 10000 5 100 09:20 25.06.2022
2932 Clouds 6 1008 87 10000 6 110 08:41 25.06.2022
2933 Clouds 6 1008 87 10000 6 110 08:19 25.06.2022
2934 Clouds 7 1009 81 10000 9 120 04:18 25.06.2022
2935 Rain 5 1011 97 4822 5.84 128 00:38 25.06.2022
2936 Rain 8 1010 93 10000 6 140 22:55 24.06.2022
2937 Clouds 10 1010 81 10000 7 150 21:44 24.06.2022
2938 Clouds 10 1010 81 10000 7 160 20:57 24.06.2022
2939 Clouds 10 1010 81 10000 7 160 20:19 24.06.2022
2940 Clouds 10 1010 81 10000 6 160 19:22 24.06.2022
2941 Clouds 8 1010 87 10000 5 140 18:49 24.06.2022
2942 Clouds 8 1010 87 10000 5 140 18:30 24.06.2022
2943 Clouds 10 1010 81 10000 5 150 17:21 24.06.2022
2944 Clouds 10 1010 81 10000 4 150 15:51 24.06.2022
2945 Clouds 10 1010 81 10000 5 140 14:28 24.06.2022
2946 Clouds 10 1009 81 10000 6 140 13:55 24.06.2022
2947 Clear 11 1009 76 10000 7 140 11:45 24.06.2022
2948 Clear 10 1009 76 10000 7 140 11:22 24.06.2022
2949 Rain 11 1009 76 10000 7 140 10:19 24.06.2022
2950 Rain 11 1008 76 10000 7 150 09:40 24.06.2022
2951 Rain 11 1008 76 10000 6 140 08:52 24.06.2022
2952 Clear 12 1009 76 10000 8 150 06:49 24.06.2022
2953 Clear 13 1009 71 10000 9 160 06:31 24.06.2022
2954 Clear 14 1009 72 10000 10 150 05:55 24.06.2022
2955 Clouds 14 1010 62 10000 9 130 01:36 24.06.2022
2956 Clouds 12 1011 71 10000 8 170 22:55 23.06.2022
2957 Clouds 12 1011 66 10000 8 170 22:33 23.06.2022
2958 Clouds 10 1012 76 10000 7 160 20:56 23.06.2022
2959 Clouds 10 1012 76 10000 7 160 20:32 23.06.2022
2960 Clouds 8 1012 81 10000 6 150 19:24 23.06.2022
2961 Clear 8 1012 87 10000 6 170 17:50 23.06.2022
2962 Clouds 8 1012 87 10000 4 150 16:50 23.06.2022
2963 Rain 9 1012 87 10000 6 170 15:49 23.06.2022
2964 Clouds 9 1012 87 10000 6 170 15:24 23.06.2022
2965 Clouds 10 1012 81 10000 7 180 13:32 23.06.2022
2966 Clouds 11 1012 76 10000 7 180 11:23 23.06.2022
2967 Clouds 10 1012 76 10000 7 170 10:31 23.06.2022
2968 Clouds 11 1012 76 10000 6 150 08:35 23.06.2022
2969 Clouds 12 1013 76 10000 7 120 02:46 23.06.2022
2970 Fog 11 1014 87 10000 5 160 00:26 23.06.2022
2971 Fog 10 1014 87 10000 6 170 23:27 22.06.2022
2972 Fog 10 1014 93 10000 4 160 22:39 22.06.2022
2973 Clouds 11 1014 82 10000 4 150 21:22 22.06.2022
2974 Clear 11 1013 87 10000 3 150 20:34 22.06.2022
2975 Clear 10 1013 93 10000 2 160 19:52 22.06.2022
2976 Clouds 9 1013 93 10000 2 150 18:21 22.06.2022
2977 Clouds 9 1013 93 10000 2 140 17:26 22.06.2022
2978 Clouds 9 1012 93 10000 2 140 16:18 22.06.2022
2979 Clouds 9 1012 100 10000 2 200 15:26 22.06.2022
2980 Clouds 9 1012 100 10000 2 190 14:18 22.06.2022
2981 Clouds 7 1012 93 10000 2 160 13:37 22.06.2022
2982 Clouds 7 1012 93 10000 2 160 13:18 22.06.2022
2983 Clouds 10 1011 87 10000 2 180 11:48 22.06.2022
2984 Rain 10 1011 93 10000 2 160 10:54 22.06.2022
2985 Rain 10 1010 93 10000 2 170 09:59 22.06.2022
2986 Rain 10 1010 87 10000 1 0 07:58 22.06.2022
2987 Rain 11 1009 87 10000 2 220 03:40 22.06.2022
2988 Rain 11 1008 87 10000 2 200 01:23 22.06.2022
2989 Rain 10 1008 81 10000 4 100 23:42 21.06.2022
2990 Rain 10 1007 81 10000 4 150 21:49 21.06.2022
2991 Rain 8 1007 87 10000 4 130 19:50 21.06.2022
2992 Clouds 10 1007 81 10000 4 130 18:35 21.06.2022
2993 Clouds 9 1007 87 10000 4 140 17:31 21.06.2022
2994 Clouds 12 1007 76 10000 5 150 13:45 21.06.2022
2995 Clouds 14 1006 62 10000 6 160 11:31 21.06.2022
2996 Clear 15 1006 63 10000 5 150 09:54 21.06.2022
2997 Clear 15 1005 63 10000 4 160 08:47 21.06.2022
2998 Rain 16 1005 59 10000 6 190 06:35 21.06.2022
2999 Clouds 14 1006 72 10000 7 170 01:30 21.06.2022
3000 Clouds 9 1007 87 10000 5 190 23:24 20.06.2022
3001 Rain 7 1007 93 10000 3 150 21:54 20.06.2022
3002 Rain 7 1007 87 10000 5 160 20:50 20.06.2022
3003 Rain 7 1006 87 10000 5 160 19:40 20.06.2022
3004 Rain 7 1006 87 10000 6 160 18:46 20.06.2022
3005 Clouds 7 1006 87 10000 4.92 160 18:00 20.06.2022
3006 Clouds 7 1006 87 10000 5 160 17:32 20.06.2022
3007 Rain 8 1006 81 10000 5 150 15:57 20.06.2022
3008 Rain 7 1006 93 10000 5 140 12:56 20.06.2022
3009 Rain 7 1006 93 10000 3 110 11:18 20.06.2022
3010 Rain 8 1006 87 10000 4 140 09:41 20.06.2022
3011 Rain 8 1006 87 10000 6 110 08:44 20.06.2022
3012 Clouds 9 1005 76 10000 10 120 06:37 20.06.2022
3013 Clouds 10 1006 71 10000 9 120 02:56 20.06.2022
3014 Clouds 10 1007 76 10000 5 160 00:32 20.06.2022
3015 Clouds 9 1007 81 10000 6 140 23:24 19.06.2022
3016 Clouds 6 1007 93 10000 5 120 21:59 19.06.2022
3017 Clouds 6 1007 93 10000 5 120 21:40 19.06.2022
3018 Clouds 6 1006 87 10000 4 120 20:44 19.06.2022
3019 Clouds 6 1006 87 10000 5 130 19:48 19.06.2022
3020 Clouds 6 1006 87 10000 5 130 19:48 19.06.2022
3021 Clouds 6 1006 87 10000 5 130 19:23 19.06.2022
3022 Clouds 6 1006 87 10000 4 130 18:31 19.06.2022
3023 Clouds 7 1006 81 10000 5 130 17:34 19.06.2022
3024 Clouds 9 1006 75 10000 5 140 16:38 19.06.2022
3025 Clear 9 1006 75 10000 4 140 15:44 19.06.2022
3026 Clear 9 1006 75 10000 4 140 15:25 19.06.2022
3027 Clear 9 1006 75 10000 5 140 14:21 19.06.2022
3028 Clear 10 1006 71 10000 6 140 13:43 19.06.2022
3029 Clear 11 1005 62 10000 6 140 11:52 19.06.2022
3030 Clear 13 1005 58 10000 6 120 10:51 19.06.2022
3031 Fog 12 1004 62 10000 5 130 08:55 19.06.2022
3032 Fog 12 1004 62 10000 5 130 08:30 19.06.2022
3033 Fog 13 1005 62 10000 5 150 06:48 19.06.2022
3034 Clouds 9 1006 76 10000 7 150 03:37 19.06.2022
3035 Clouds 8 1006 81 10000 7 140 00:27 19.06.2022
3036 Clouds 7 1006 81 10000 8 150 23:52 18.06.2022
3037 Clouds 7 1006 81 10000 8 150 23:34 18.06.2022
3038 Fog 11 1005 71 10000 2 160 21:54 18.06.2022
3039 Fog 9 1005 71 10000 2 220 20:50 18.06.2022
3040 Fog 9 1005 71 10000 2 220 20:18 18.06.2022
3041 Fog 6 1005 75 10000 2 260 18:55 18.06.2022
3042 Fog 6 1005 75 10000 2 260 18:30 18.06.2022
3043 Fog 8 1005 66 10000 5 100 17:29 18.06.2022
3044 Fog 8 1005 61 10000 4 20 15:46 18.06.2022
3045 Clear 13 1005 50 10000 3 100 14:50 18.06.2022
3046 Clear 13 1005 44 10000 4 110 13:58 18.06.2022
3047 Clear 14 1005 38 10000 6 120 12:28 18.06.2022
3048 Clear 15 1005 38 10000 5 130 10:59 18.06.2022
3049 Clear 14 1005 51 10000 5 140 09:39 18.06.2022
3050 Fog 16 1005 48 10000 3 140 08:40 18.06.2022
3051 Fog 16 1005 44 10000 3 150 07:34 18.06.2022
3052 Fog 12 1006 62 10000 6 160 05:20 18.06.2022
3053 Clouds 10 1007 71 10000 5 150 01:47 18.06.2022
3054 Clouds 10 1007 71 10000 5 150 01:21 18.06.2022
3055 Clouds 15 1007 55 10000 5 140 00:23 18.06.2022
3056 Clouds 15 1007 55 10000 5 140 00:23 18.06.2022
3057 Clouds 15 1007 58 10000 3 70 23:36 17.06.2022
3058 Clouds 13 1008 58 10000 3 100 22:27 17.06.2022
3059 Clouds 12 1007 66 10000 2 320 20:29 17.06.2022
3060 Clouds 12 1007 62 10000 2 130 19:24 17.06.2022
3061 Clouds 12 1007 62 10000 2 130 19:24 17.06.2022
3062 Clouds 8 1007 70 10000 2 190 17:56 17.06.2022
3063 Clouds 10 1007 66 10000 3 100 16:44 17.06.2022
3064 Clouds 10 1007 66 10000 3 100 16:25 17.06.2022
3065 Clouds 9 1007 71 10000 4 40 15:37 17.06.2022
3066 Clouds 10 1007 66 10000 4 40 14:23 17.06.2022
3067 Clear 11 1007 62 10000 4 70 13:58 17.06.2022
3068 Clear 11 1007 62 10000 4 70 13:38 17.06.2022
3069 Clear 12 1007 54 10000 3 70 12:24 17.06.2022
3070 Clouds 11 1006 62 10000 6 70 11:55 17.06.2022
3071 Clouds 11 1006 62 10000 6 70 11:33 17.06.2022
3072 Clear 14 1006 54 10000 5 80 08:58 17.06.2022
3073 Clear 14 1006 51 10000 5 110 08:25 17.06.2022
3074 Clear 16 1006 48 10000 9 110 06:44 17.06.2022
3075 Clear 16 1006 55 10000 8 140 03:45 17.06.2022
3076 Clear 14 1007 62 10000 6 160 01:56 17.06.2022
3077 Clear 10 1007 71 10000 7 150 23:35 16.06.2022
3078 Clear 10 1007 71 10000 6 150 22:42 16.06.2022
3079 Clear 9 1007 75 10000 6 150 21:22 16.06.2022
3080 Clouds 7 1007 87 10000 6 160 20:51 16.06.2022
3081 Clouds 7 1007 87 10000 6 160 20:32 16.06.2022
3082 Clouds 9 1007 81 10000 6 150 19:32 16.06.2022
3083 Clouds 7 1007 87 10000 5 150 18:24 16.06.2022
3084 Clouds 7 1007 87 10000 4 150 17:35 16.06.2022
3085 Clouds 9 1007 87 10000 5 170 16:33 16.06.2022
3086 Clouds 9 1007 81 10000 2 190 15:22 16.06.2022
3087 Clouds 9 1007 81 10000 3 350 14:30 16.06.2022
3088 Clouds 7 1005 87 10000 5 50 13:19 16.06.2022
3089 Clear 7 1005 87 10000 5 350 12:35 16.06.2022
3090 Clear 11 1005 82 10000 4 350 11:49 16.06.2022
3091 Rain 13 1005 67 10000 1 0 10:54 16.06.2022
3092 Rain 16 1004 55 10000 3 300 09:43 16.06.2022
3093 Rain 16 1004 55 10000 3 300 09:20 16.06.2022
3094 Clouds 17 1003 48 10000 1 0 07:57 16.06.2022
3095 Clouds 17 1003 48 10000 3 220 07:24 16.06.2022
3096 Clouds 12 1004 66 10000 7 160 04:42 16.06.2022
3097 Rain 11 1004 71 10000 8 160 02:19 16.06.2022
3098 Clouds 6 1005 87 10000 6 130 01:34 16.06.2022
3099 Clouds 6 1005 87 10000 6 130 01:34 16.06.2022
3100 Rain 5 1005 93 10000 9 110 00:38 16.06.2022
3101 Rain 4 1005 86 10000 10 110 23:33 15.06.2022
3102 Clouds 5 1005 81 10000 10 120 22:35 15.06.2022
3103 Clouds 4 1006 86 10000 10 120 21:21 15.06.2022
3104 Clouds 3 1006 86 10000 8 120 20:38 15.06.2022
3105 Clouds 3 1007 86 10000 8 120 20:19 15.06.2022
3106 Clouds 3 1007 93 10000 7 110 19:20 15.06.2022
3107 Clouds 3 1007 93 10000 8 100 17:56 15.06.2022
3108 Clouds 3 1007 93 10000 8 100 16:55 15.06.2022
3109 Clouds 3 1008 86 10000 6 90 15:36 15.06.2022
3110 Clouds 2 1008 93 10000 6 80 13:44 15.06.2022
3111 Clouds 2 1008 86 10000 7 90 12:54 15.06.2022
3112 Clouds 3 1008 80 10000 6 100 11:53 15.06.2022
3113 Clouds 3 1008 80 10000 7 110 10:24 15.06.2022
3114 Clouds 2 1008 86 10000 6 110 09:42 15.06.2022
3115 Rain 2 1008 86 10000 9 100 08:37 15.06.2022
3116 Rain 2 1008 81 10000 7 110 06:34 15.06.2022
3117 Clear 3 1007 75 10000 6 130 03:59 15.06.2022
3118 Clouds 4 1008 64 10000 5 160 01:54 15.06.2022
3119 Clouds 5 1008 60 10000 5 180 00:50 15.06.2022
3120 Clouds 5 1008 70 10000 3 190 23:39 14.06.2022
3121 Clouds 5 1008 70 10000 3 190 23:19 14.06.2022
3122 Clouds 3 1008 86 10000 2 190 22:21 14.06.2022
3123 Clouds 2 1008 81 10000 2 60 21:36 14.06.2022
3124 Clouds 2 1008 81 10000 2 30 20:54 14.06.2022
3125 Clouds 2 1008 81 10000 2 30 20:28 14.06.2022
3126 Clouds -2 1009 92 10000 2 60 18:56 14.06.2022
3127 Clouds -2 1009 93 10000 2 50 17:40 14.06.2022
3128 Clouds -4 1009 93 10000 2 80 16:43 14.06.2022
3129 Clouds -2 1009 92 10000 1 80 15:50 14.06.2022
3130 Clouds -2 1009 92 10000 1 80 15:24 14.06.2022
3131 Clouds 0 1010 93 10000 0 0 14:32 14.06.2022
3132 Clouds 0 1010 93 10000 2 130 13:41 14.06.2022
3133 Clouds 1 1010 87 10000 3 130 12:44 14.06.2022
3134 Snow 1 1010 86 10000 2 130 11:32 14.06.2022
3135 Snow 0 1010 93 10000 3 150 10:47 14.06.2022
3136 Snow 1 1010 87 10000 2 110 09:48 14.06.2022
3137 Clouds 1 1010 87 10000 4 100 08:47 14.06.2022
3138 Clouds 1 1010 93 10000 5 140 07:33 14.06.2022
3139 Rain 2 1010 86 10000 5 110 05:21 14.06.2022
3140 Clear 4 1010 65 10000 7 120 02:57 14.06.2022
3141 Clear 6 1011 56 10000 6 120 00:32 14.06.2022
3142 Clear 5 1011 56 10000 6 120 23:27 13.06.2022
3143 Clear 6 1011 56 10000 5 140 22:26 13.06.2022
3144 Clear 6 1011 56 10000 5 140 22:26 13.06.2022
3145 Clear 6 1011 52 10000 3 110 21:50 13.06.2022
3146 Clear 5 1011 56 10000 5 100 20:42 13.06.2022
3147 Clear 5 1011 56 10000 5 80 19:34 13.06.2022
3148 Clear 5 1011 56 10000 7 80 18:25 13.06.2022
3149 Clear 6 1011 52 10000 7 80 17:46 13.06.2022
3150 Clear 6 1011 56 10000 5 90 16:52 13.06.2022
3151 Clear 7 1011 57 10000 4 110 15:39 13.06.2022
3152 Clear 8 1010 53 10000 3 110 14:47 13.06.2022
3153 Clear 8 1011 53 10000 5 110 13:54 13.06.2022
3154 Clear 8 1011 53 10000 2 110 12:48 13.06.2022
3155 Clear 8 1011 53 10000 2 110 12:48 13.06.2022
3156 Clouds 9 1010 46 10000 6 110 11:26 13.06.2022
3157 Rain 9 1010 46 10000 9 90 10:27 13.06.2022
3158 Clouds 11 1009 43 10000 9 80 09:39 13.06.2022
3159 Clouds 16 1009 48 10000 2 260 07:53 13.06.2022
3160 Clouds 17 1009 42 10000 4 260 06:28 13.06.2022
3161 Clear 16 1012 41 10000 3 260 03:18 13.06.2022
3162 Clear 12 1013 43 10000 2 230 01:38 13.06.2022
3163 Clear 12 1014 50 10000 2 230 00:22 13.06.2022
3164 Clear 11 1015 46 10000 1 0 23:25 12.06.2022
3165 Clear 8 1015 53 10000 2 260 22:23 12.06.2022
3166 Clear 9 1015 43 10000 1 0 21:28 12.06.2022
3167 Clear 7 1016 49 10000 2 60 20:34 12.06.2022
3168 Clear 3 1016 69 10000 3 50 19:36 12.06.2022
3169 Clear 0 1017 86 10000 1 70 18:39 12.06.2022
3170 Clear -1 1017 93 10000 2 130 16:42 12.06.2022
3171 Clear 0 1017 80 10000 2 140 15:24 12.06.2022
3172 Clear 1 1018 80 10000 2 180 14:31 12.06.2022
3173 Clear 2 1018 69 10000 3 160 13:55 12.06.2022
3174 Clear 2 1018 69 10000 4 150 12:46 12.06.2022
3175 Clear 3 1018 64 10000 5 160 11:40 12.06.2022
3176 Clear 3 1018 69 10000 5 150 10:45 12.06.2022
3177 Clear 3 1018 64 10000 6 150 09:25 12.06.2022
3178 Clear 4 1018 65 10000 6 160 08:48 12.06.2022
3179 Clear 5 1018 65 10000 7 160 07:39 12.06.2022
3180 Clouds 4 1018 70 10000 7 150 05:38 12.06.2022
3181 Clouds 4 1018 70 10000 8 150 03:38 12.06.2022
3182 Clear 5 1017 65 10000 8 150 01:43 12.06.2022
3183 Clear 5 1017 65 10000 7 140 00:58 12.06.2022
3184 Clear 5 1017 65 10000 7 140 00:26 12.06.2022
3185 Clear 6 1017 61 10000 5 130 23:53 11.06.2022
3186 Clear 6 1016 56 10000 5 100 22:40 11.06.2022
3187 Clear 6 1016 56 10000 5 100 22:21 11.06.2022
3188 Clear 5 1015 65 10000 7 90 20:50 11.06.2022
3189 Clear 5 1015 65 10000 7 90 20:21 11.06.2022
3190 Clear 5 1015 65 10000 7 80 19:26 11.06.2022
3191 Clear 5 1015 52 10000 4 110 18:36 11.06.2022
3192 Clear 5 1015 45 10000 2 100 17:52 11.06.2022
3193 Clear 5 1015 45 10000 2 100 17:29 11.06.2022
3194 Clear 6 1014 42 10000 4 80 16:58 11.06.2022
3195 Clear 6 1014 42 10000 4 80 16:30 11.06.2022
3196 Clear 9 1014 31 10000 4 130 15:45 11.06.2022
3197 Clear 9 1014 31 10000 4 130 15:45 11.06.2022
3198 Clear 6 1014 45 10000 2 120 13:54 11.06.2022
3199 Clear 6 1014 45 10000 2 120 13:25 11.06.2022
3200 Clear 10 1014 46 10000 4 170 10:58 11.06.2022
3201 Clear 10 1014 46 10000 4 170 10:20 11.06.2022
3202 Clear 10 1013 40 10000 6 150 09:29 11.06.2022
3203 Clear 10 1014 46 10000 7 170 07:52 11.06.2022
3204 Clear 10 1014 46 10000 6 160 06:31 11.06.2022
3205 Clear 11 1014 46 10000 8 170 05:21 11.06.2022
3206 Clear 11 1015 40 10000 7 150 01:53 11.06.2022
3207 Clear 11 1015 40 10000 7 150 01:33 11.06.2022
3208 Clear 10 1016 53 10000 6 160 00:22 11.06.2022
3209 Clear 9 1016 37 10000 3 310 22:33 10.06.2022
3210 Clear 9 1016 39 10000 3 300 21:53 10.06.2022
3211 Clear 8 1016 49 10000 1 0 20:43 10.06.2022
3212 Clear 8 1016 49 10000 1 0 20:23 10.06.2022
3213 Clear 4 1016 65 10000 2 10 19:48 10.06.2022
3214 Clear 4 1016 65 10000 2 10 19:18 10.06.2022
3215 Clear 3 1016 81 10000 2 20 18:19 10.06.2022
3216 Clear 3 1016 75 10000 3 360 17:36 10.06.2022
3217 Clear 4 1016 75 10000 2 20 16:56 10.06.2022
3218 Clear 4 1016 60 10000 1 60 15:50 10.06.2022
3219 Clear 4 1016 60 10000 1 60 15:30 10.06.2022
3220 Clear 7 1017 52 10000 2 110 13:49 10.06.2022
3221 Clear 8 1017 57 10000 3 100 12:35 10.06.2022
3222 Clear 10 1017 53 10000 3 100 11:40 10.06.2022
3223 Clear 12 1017 43 10000 4 90 10:40 10.06.2022
3224 Clear 14 1017 41 10000 2 310 09:44 10.06.2022
3225 Clear 11 1017 46 10000 2 250 08:28 10.06.2022
3226 Clear 12 1017 37 10000 5 180 06:53 10.06.2022
3227 Clear 11 1018 37 10000 6 170 06:32 10.06.2022
3228 Clear 12 1018 35 10000 6 170 05:48 10.06.2022
3229 Clear 14 1018 35 10000 3 160 03:41 10.06.2022
3230 Clear 13 1019 30 10000 4 30 01:38 10.06.2022
3231 Clear 13 1020 30 10000 6 20 00:25 10.06.2022
3232 Clear 11 1020 37 10000 5 350 23:25 09.06.2022
3233 Clear 7 1021 45 10000 7 360 21:47 09.06.2022
3234 Clear 7 1021 45 10000 7 360 21:29 09.06.2022
3235 Clear 6 1021 48 10000 5 360 20:54 09.06.2022
3236 Clear 4 1022 65 10000 6 10 19:55 09.06.2022
3237 Clear 2 1022 74 10000 2 20 18:49 09.06.2022
3238 Clear 2 1022 74 10000 2 20 18:21 09.06.2022
3239 Clear -2 1023 86 10000 2 40 16:48 09.06.2022
3240 Clear 0 1023 86 10000 1 40 15:47 09.06.2022
3241 Clear -1 1023 86 10000 2 40 14:35 09.06.2022
3242 Clear 2 1024 80 10000 1 110 13:48 09.06.2022
3243 Clear 2 1024 80 10000 1 110 13:26 09.06.2022
3244 Clear 6 1024 61 10000 4 180 11:54 09.06.2022
3245 Clear 8 1024 57 10000 4 170 10:53 09.06.2022
3246 Clear 7 1024 52 10000 4 160 09:42 09.06.2022
3247 Clear 7 1024 52 10000 4 160 09:23 09.06.2022
3248 Clear 9 1024 46 10000 5 180 07:44 09.06.2022
3249 Clear 10 1024 40 10000 5 190 05:47 09.06.2022
3250 Clear 11 1025 40 10000 4 190 02:20 09.06.2022
3251 Clear 7 1026 52 10000 3 200 23:34 08.06.2022
3252 Clear 6 1027 52 10000 3 210 22:56 08.06.2022
3253 Clear 6 1026 52 10000 3 210 22:26 08.06.2022
3254 Clear 5 1027 56 10000 3 210 21:52 08.06.2022
3255 Clear 5 1026 52 10000 2 220 20:57 08.06.2022
3256 Clear 3 1026 69 10000 2 200 19:50 08.06.2022
3257 Clear 3 1026 69 10000 2 200 19:18 08.06.2022
3258 Clear 2 1026 74 10000 2 290 18:42 08.06.2022
3259 Clear 0 1026 86 10000 1 0 16:34 08.06.2022
3260 Clear 0 1026 86 10000 2 20 15:27 08.06.2022
3261 Clear 2 1026 81 10000 2 50 13:36 08.06.2022
3262 Clear 5 1026 70 10000 1 250 11:51 08.06.2022
3263 Clear 5 1026 70 10000 1 250 11:24 08.06.2022
3264 Clear 6 1025 65 10000 4 210 09:47 08.06.2022
3265 Clear 6 1025 65 10000 4 210 09:20 08.06.2022
3266 Clear 8 1025 57 10000 6 190 08:18 08.06.2022
3267 Clear 6 1025 65 10000 7 180 05:36 08.06.2022
3268 Clear 6 1026 60 10000 5 200 02:39 08.06.2022
3269 Clouds 7 1026 70 10000 5 190 00:21 08.06.2022
3270 Clouds 6 1026 70 10000 6 170 23:25 07.06.2022
3271 Clear 7 1025 61 10000 5 150 22:42 07.06.2022
3272 Clear 7 1025 70 10000 5 150 22:20 07.06.2022
3273 Clear 9 1025 66 10000 2 110 21:28 07.06.2022
3274 Clear 9 1024 66 10000 1 0 20:52 07.06.2022
3275 Clear 9 1024 66 10000 1 0 20:31 07.06.2022
3276 Clear 7 1024 65 10000 2 70 19:24 07.06.2022
3277 Clear 3 1024 80 10000 0 0 17:57 07.06.2022
3278 Clear 3 1024 80 10000 0 0 17:21 07.06.2022
3279 Clear 3 1023 86 10000 1 0 16:41 07.06.2022
3280 Clear 4 1023 93 10000 1 50 15:43 07.06.2022
3281 Clear 4 1023 93 10000 1 50 15:23 07.06.2022
3282 Clouds 4 1023 86 10000 0 0 14:46 07.06.2022
3283 Clouds 5 1022 86 10000 0 0 13:58 07.06.2022
3284 Clouds 5 1022 86 10000 0 0 13:29 07.06.2022
3285 Clouds 5 1022 86 10000 1 0 12:44 07.06.2022
3286 Clouds 6 1022 87 10000 1 0 11:31 07.06.2022
3287 Clouds 6 1022 81 10000 3 150 10:26 07.06.2022
3288 Clouds 6 1021 81 10000 4 160 08:49 07.06.2022
3289 Clouds 6 1021 81 10000 4 160 08:49 07.06.2022
3290 Clouds 6 1021 81 10000 4 160 08:49 07.06.2022
3291 Clouds 6 1021 87 10000 3 90 07:23 07.06.2022
3292 Clouds 6 1020 81 10000 3 110 05:56 07.06.2022
3293 Clouds 6 1020 87 10000 3 70 03:18 07.06.2022
3294 Rain 5 1019 86 10000 4 80 00:42 07.06.2022
3295 Rain 5 1018 93 10000 4 100 23:35 06.06.2022
3296 Rain 5 1018 93 10000 1 0 22:45 06.06.2022
3297 Rain 4 1017 100 10000 2 170 21:43 06.06.2022
3298 Rain 4 1017 100 5000 1 150 20:21 06.06.2022
3299 Mist 4 1016 100 2700 0 0 19:23 06.06.2022
3300 Fog 4 1016 93 10000 0 0 18:46 06.06.2022
3301 Fog 4 1015 93 10000 1 10 17:52 06.06.2022
3302 Fog 4 1015 100 10000 1 50 16:48 06.06.2022
3303 Fog 4 1015 93 10000 0 0 15:40 06.06.2022
3304 Fog 4 1015 100 10000 1 0 14:57 06.06.2022
3305 Rain 4 1014 100 6000 1 130 13:37 06.06.2022
3306 Mist 4 1015 100 3500 1 210 12:44 06.06.2022
3307 Mist 4 1015 100 3500 1 210 12:26 06.06.2022
3308 Clouds 5 1014 100 7000 1 280 11:45 06.06.2022
3309 Fog 8 1013 93 10000 2 10 09:43 06.06.2022
3310 Clouds 8 1013 87 10000 4 40 08:36 06.06.2022
3311 Rain 8 1012 87 10000 6 50 07:43 06.06.2022
3312 Rain 7 1012 81 10000 6 80 06:43 06.06.2022
3313 Rain 9 1011 76 10000 10 100 04:28 06.06.2022
3314 Clouds 7 1011 81 10000 8 110 01:30 06.06.2022
3315 Rain 10 1011 76 10000 7 100 00:47 06.06.2022
3316 Clouds 11 1011 82 10000 5 100 00:28 06.06.2022
3317 Rain 6 1012 87 10000 3 80 22:58 05.06.2022
3318 Rain 5 1013 81 10000 7 70 21:59 05.06.2022
3319 Clear 6 1012 75 10000 7 60 20:23 05.06.2022
3320 Clear 7 1012 61 10000 5 90 18:51 05.06.2022
3321 Clear 6 1011 65 10000 9 70 17:59 05.06.2022
3322 Clear 6 1011 65 10000 9 70 17:38 05.06.2022
3323 Clear 6 1011 65 10000 9 70 17:20 05.06.2022
3324 Clear 6 1011 61 10000 6 80 16:47 05.06.2022
3325 Clear 7 1012 52 10000 4 80 15:22 05.06.2022
3326 Clear 7 1012 52 10000 6 80 14:18 05.06.2022
3327 Clear 9 1013 49 10000 3 40 11:58 05.06.2022
3328 Clear 10 1013 46 10000 3 80 10:45 05.06.2022
3329 Clear 10 1013 46 10000 3 80 10:24 05.06.2022
3330 Clear 10 1013 43 10000 4 130 09:29 05.06.2022
3331 Clear 10 1014 43 10000 5 150 08:23 05.06.2022
3332 Clear 13 1014 38 10000 4 180 05:58 05.06.2022
3333 Clear 14 1014 38 10000 2 230 05:19 05.06.2022
3334 Clear 13 1015 41 10000 5 280 02:43 05.06.2022
3335 Clear 13 1015 38 10000 3 330 01:23 05.06.2022
3336 Clear 13 1015 38 10000 3 330 01:23 05.06.2022
3337 Clear 11 1015 40 10000 6 360 22:49 04.06.2022
3338 Clear 10 1015 43 10000 6 360 21:30 04.06.2022
3339 Clear 6 1015 48 10000 6 10 19:27 04.06.2022
3340 Clear 4 1014 52 10000 4 10 16:48 04.06.2022
3341 Clear 4 1014 52 10000 4 10 16:20 04.06.2022
3342 Clear 4 1014 60 10000 5 30 15:39 04.06.2022
3343 Clear 1 1014 86 10000 3 30 13:59 04.06.2022
3344 Clear 3 1014 75 10000 1 0 11:41 04.06.2022
3345 Clear 5 1013 70 10000 0 0 10:54 04.06.2022
3346 Clouds 5 1013 70 10000 2 180 09:56 04.06.2022
3347 Clouds 5 1013 70 10000 2 180 09:38 04.06.2022
3348 Clouds 5 1012 75 10000 4 170 08:38 04.06.2022
3349 Clear 11 1012 58 10000 3 190 06:59 04.06.2022
3350 Fog 7 1013 70 10000 2 200 03:57 04.06.2022
3351 Fog 5 1013 81 10000 3 190 00:22 04.06.2022
3352 Fog 4 1013 80 10000 3 190 23:19 03.06.2022
3353 Fog 6 1012 70 10000 1 0 21:54 03.06.2022
3354 Fog 4 1012 75 10000 1 0 20:40 03.06.2022
3355 Fog 2 1012 86 10000 3 330 19:49 03.06.2022
3356 Fog 7 1012 61 10000 2 120 16:59 03.06.2022
3357 Fog 4 1012 70 10000 5 150 15:57 03.06.2022
3358 Fog 4 1012 70 10000 3 170 14:47 03.06.2022
3359 Fog 7 1013 61 10000 3 140 12:26 03.06.2022
3360 Fog 9 1013 53 10000 4 110 09:58 03.06.2022
3361 Fog 9 1013 53 10000 4 110 09:29 03.06.2022
3362 Fog 12 1013 47 10000 2 150 07:50 03.06.2022
3363 Fog 13 1013 44 10000 4 130 07:19 03.06.2022
3364 Fog 13 1014 47 10000 10 100 06:30 03.06.2022
3365 Fog 13 1015 50 10000 10 100 04:35 03.06.2022
3366 Fog 10 1016 57 10000 5 80 00:21 03.06.2022
3367 Fog 10 1017 62 10000 3 140 22:35 02.06.2022
3368 Fog 10 1017 53 10000 3 130 20:58 02.06.2022
3369 Fog 8 1018 57 10000 2 100 19:59 02.06.2022
3370 Fog 8 1018 57 10000 2 100 19:40 02.06.2022
3371 Fog 8 1018 57 10000 2 100 19:18 02.06.2022
3372 Fog 7 1019 53 10000 4 110 16:30 02.06.2022
3373 Fog 8 1019 53 10000 3 120 15:58 02.06.2022
3374 Fog 5 1019 56 10000 2 150 13:38 02.06.2022
3375 Fog 5 1019 56 10000 2 150 13:20 02.06.2022
3376 Fog 11 1019 40 10000 4 140 10:53 02.06.2022
3377 Fog 11 1019 40 10000 4 140 10:19 02.06.2022
3378 Fog 12 1020 43 10000 3 140 09:27 02.06.2022
3379 Fog 13 1020 41 10000 6 120 08:24 02.06.2022
3380 Fog 10 1021 53 10000 5 150 06:26 02.06.2022
3381 Fog 6 1022 70 10000 6 190 03:53 02.06.2022
3382 Fog 6 1022 70 10000 7 190 02:22 02.06.2022
3383 Clouds 5 1022 75 10000 7 180 23:36 01.06.2022
3384 Fog 4 1022 86 10000 7 160 22:21 01.06.2022
3385 Fog 4 1022 80 10000 7 160 21:26 01.06.2022
3386 Fog 7 1021 61 10000 6 160 20:39 01.06.2022
3387 Clear 5 1021 70 10000 5 150 19:52 01.06.2022
3388 Fog 5 1021 70 10000 6 150 18:52 01.06.2022
3389 Clear 5 1021 70 10000 4 140 17:40 01.06.2022
3390 Clear 4 1020 70 10000 2 140 16:33 01.06.2022
3391 Clear 7 1020 61 10000 5 140 14:52 01.06.2022
3392 Clear 5 1020 70 10000 2 130 13:44 01.06.2022
3393 Clear 6 1019 65 10000 4 150 12:25 01.06.2022
3394 Clear 11 1019 46 10000 6 150 09:36 01.06.2022
3395 Clear 11 1018 46 10000 5 170 08:29 01.06.2022
3396 Clear 11 1018 46 10000 5 170 07:21 01.06.2022
3397 Clear 9 1019 57 10000 6 170 05:22 01.06.2022
3398 Fog 4 1019 80 10000 4 190 00:20 01.06.2022
3399 Fog 4 1019 86 10000 4 190 22:59 31.05.2022
3400 Fog 3 1019 86 10000 3 210 22:33 31.05.2022
3401 Mist 3 1019 86 10000 3 200 21:45 31.05.2022
3402 Fog 4 1019 80 10000 1 0 20:45 31.05.2022
3403 Fog 4 1019 80 10000 1 0 20:45 31.05.2022
3404 Fog 3 1019 80 10000 1 0 19:53 31.05.2022
3405 Fog 3 1018 86 10000 2 140 18:45 31.05.2022
3406 Fog 5 1018 81 10000 2 140 17:49 31.05.2022
3407 Fog 5 1018 81 10000 2 140 17:49 31.05.2022
3408 Clear 5 1018 87 10000 4 150 16:53 31.05.2022
3409 Clear 5 1018 81 10000 4 150 15:40 31.05.2022
3410 Clear 4 1018 80 10000 4 140 13:45 31.05.2022
3411 Clear 4 1018 70 10000 2 150 12:20 31.05.2022
3412 Clear 7 1018 61 10000 4 140 10:52 31.05.2022
3413 Clear 7 1018 65 10000 5 170 08:41 31.05.2022
3414 Clear 9 1018 57 10000 5 170 07:21 31.05.2022
3415 Fog 10 1018 53 10000 4 190 04:53 31.05.2022
3416 Fog 5 1019 75 10000 4 190 00:26 31.05.2022
3417 Fog 7 1019 70 10000 3 220 23:26 30.05.2022
3418 Fog 5 1019 75 10000 3 200 22:48 30.05.2022
3419 Fog 5 1019 75 10000 5 150 21:51 30.05.2022
3420 Fog 5 1019 75 10000 5 150 21:32 30.05.2022
3421 Clear 5 1018 75 10000 1 0 19:57 30.05.2022
3422 Clear 4 1018 80 10000 2 290 18:39 30.05.2022
3423 Clear 4 1018 80 10000 2 150 17:24 30.05.2022
3424 Clear 4 1018 75 10000 1 0 16:40 30.05.2022
3425 Clear 6 1018 65 10000 3 130 14:23 30.05.2022
3426 Clear 8 1018 61 10000 5 130 12:21 30.05.2022
3427 Clouds 9 1018 53 10000 5 130 10:40 30.05.2022
3428 Clouds 9 1017 57 10000 5 130 09:19 30.05.2022
3429 Clouds 9 1017 57 10000 7 150 06:40 30.05.2022
3430 Clouds 10 1018 53 10000 6 150 05:48 30.05.2022
3431 Clouds 10 1018 57 10000 5 160 01:33 30.05.2022
3432 Fog 5 1018 86 10000 1 0 22:54 29.05.2022
3433 Fog 4 1018 86 10000 2 280 22:36 29.05.2022
3434 Fog 2 1018 93 600 2 100 20:53 29.05.2022
3435 Fog 2 1017 93 10000 1 0 19:31 29.05.2022
3436 Fog 1 1017 100 10000 0 0 18:44 29.05.2022
3437 Fog -1 1017 100 10000 2 70 17:31 29.05.2022
3438 Fog 1 1017 87 10000 1 0 15:48 29.05.2022
3439 Clear 2 1017 86 10000 1 0 14:57 29.05.2022
3440 Clear 3 1017 86 10000 1 0 13:52 29.05.2022
3441 Clear 6 1017 75 10000 2 190 11:41 29.05.2022
3442 Clear 6 1017 81 10000 6 150 10:38 29.05.2022
3443 Clear 11 1017 58 10000 4 140 08:51 29.05.2022
3444 Clear 11 1017 54 10000 7 140 05:54 29.05.2022
3445 Clear 12 1017 50 10000 5 140 04:44 29.05.2022
3446 Clear 11 1017 50 10000 6 140 03:41 29.05.2022
3447 Clear 8 1018 66 10000 3 170 23:49 28.05.2022
3448 Clear 9 1018 66 10000 3 170 23:26 28.05.2022
3449 Clear 7 1017 65 10000 4 180 22:35 28.05.2022
3450 Clear 6 1017 70 10000 4 180 21:38 28.05.2022
3451 Clear 4 1017 80 10000 3 160 19:41 28.05.2022
3452 Clear 4 1017 80 10000 3 170 18:50 28.05.2022
3453 Clear 4 1016 80 10000 4 170 17:37 28.05.2022
3454 Clear 4 1016 80 10000 4 160 16:38 28.05.2022
3455 Clear 5 1016 75 10000 3 150 15:43 28.05.2022
3456 Clear 6 1016 75 10000 3 160 14:24 28.05.2022
3457 Clear 8 1016 66 10000 5 160 12:51 28.05.2022
3458 Clear 8 1016 66 10000 5 160 12:33 28.05.2022
3459 Clear 10 1015 62 10000 4 150 11:21 28.05.2022
3460 Clear 11 1015 58 10000 5 160 09:57 28.05.2022
3461 Clear 11 1014 58 10000 6 170 08:45 28.05.2022
3462 Clear 11 1014 58 10000 5 170 07:23 28.05.2022
3463 Clear 12 1014 58 10000 3 160 05:36 28.05.2022
3464 Clear 13 1014 54 10000 3 190 02:44 28.05.2022
3465 Clear 6 1014 70 10000 2 180 00:32 28.05.2022
3466 Fog 3 1014 80 10000 3 180 22:53 27.05.2022
3467 Fog 2 1014 81 10000 4 170 21:44 27.05.2022
3468 Fog 2 1013 81 10000 4 160 20:50 27.05.2022
3469 Fog 2 1013 81 10000 4 160 20:25 27.05.2022
3470 Fog 2 1013 86 10000 3 170 19:42 27.05.2022
3471 Fog 2 1013 86 10000 3 170 19:24 27.05.2022
3472 Fog 3 1012 80 10000 3 150 17:54 27.05.2022
3473 Fog 2 1012 81 10000 2 160 16:39 27.05.2022
3474 Fog 3 1012 80 10000 3 160 15:22 27.05.2022
3475 Fog 1 1012 87 10000 3 150 14:25 27.05.2022
3476 Fog 0 1012 93 10000 2 140 12:43 27.05.2022
3477 Fog 2 1012 86 10000 1 0 11:34 27.05.2022
3478 Fog 3 1011 80 10000 4 150 10:55 27.05.2022
3479 Fog 3 1011 80 10000 4 150 10:29 27.05.2022
3480 Fog 2 1011 86 10000 5 150 09:34 27.05.2022
3481 Fog 3 1011 86 10000 4 190 07:50 27.05.2022
3482 Fog 2 1012 93 10000 7 180 05:39 27.05.2022
3483 Fog 4 1012 80 10000 7 190 02:26 27.05.2022
3484 Fog 3 1012 80 10000 7 180 00:26 27.05.2022
3485 Fog 2 1012 86 10000 4 190 22:35 26.05.2022
3486 Fog 1 1012 87 10000 5 160 21:37 26.05.2022
3487 Clear 2 1011 80 10000 4 160 19:58 26.05.2022
3488 Clear 2 1011 80 10000 4 160 19:19 26.05.2022
3489 Clear 2 1010 81 10000 4 150 17:37 26.05.2022
3490 Clear 5 1010 65 10000 4 150 16:36 26.05.2022
3491 Clear 6 1009 61 10000 2 160 15:45 26.05.2022
3492 Clear 11 1009 43 10000 3 150 14:24 26.05.2022
3493 Clear 12 1009 37 10000 3 130 12:36 26.05.2022
3494 Clear 13 1009 38 10000 3 140 11:23 26.05.2022
3495 Clear 14 1008 38 10000 4 140 09:40 26.05.2022
3496 Clear 14 1008 38 10000 4 140 09:19 26.05.2022
3497 Clear 15 1008 41 10000 6 160 07:57 26.05.2022
3498 Clear 15 1008 47 10000 7 170 03:53 26.05.2022
3499 Clear 11 1008 58 10000 3 210 00:33 26.05.2022
3500 Clear 10 1008 61 10000 2 200 23:39 25.05.2022
3501 Clear 5 1008 70 10000 4 170 21:47 25.05.2022
3502 Clear 5 1008 70 10000 4 170 21:28 25.05.2022
3503 Clear 5 1007 75 10000 3 180 20:34 25.05.2022
3504 Clear 5 1007 75 10000 4 180 19:21 25.05.2022
3505 Clear 6 1007 70 10000 4 150 17:40 25.05.2022
3506 Clear 6 1007 70 10000 3 160 16:37 25.05.2022
3507 Clear 9 1007 61 10000 4 170 15:54 25.05.2022
3508 Clear 10 1007 62 10000 6 160 14:51 25.05.2022
3509 Clear 10 1007 62 10000 6 160 14:32 25.05.2022
3510 Clear 11 1007 54 10000 5 160 13:42 25.05.2022
3511 Clear 12 1007 54 10000 5 160 12:37 25.05.2022
3512 Clear 14 1007 51 10000 4 140 10:43 25.05.2022
3513 Clear 13 1007 54 10000 3 140 09:54 25.05.2022
3514 Clouds 5 1008 81 10000 3.28 167 08:37 25.05.2022
3515 Clouds 6 1008 71 10000 1.57 222 07:22 25.05.2022
3516 Clear 14 1008 54 10000 2 200 03:34 25.05.2022
3517 Clear 11 1009 54 10000 2 190 23:56 24.05.2022
3518 Clear 9 1009 61 10000 3 180 23:31 24.05.2022
3519 Clear 6 1010 65 10000 4 160 22:21 24.05.2022
3520 Clear 6 1010 65 10000 5 170 21:40 24.05.2022
3521 Clear 6 1010 65 10000 5 170 21:20 24.05.2022
3522 Clear 7 1010 61 10000 5 160 19:45 24.05.2022
3523 Clear 8 1010 57 10000 5 150 18:54 24.05.2022
3524 Clear 9 1011 53 10000 5 160 16:45 24.05.2022
3525 Clear 9 1011 53 10000 5 160 16:23 24.05.2022
3526 Clear 10 1012 50 10000 6 160 14:58 24.05.2022
3527 Clear 10 1012 50 10000 6 160 14:21 24.05.2022
3528 Clear 11 1013 50 10000 5 160 12:49 24.05.2022
3529 Clear 11 1013 54 10000 5 160 11:33 24.05.2022
3530 Clear 13 1013 50 10000 4 160 09:45 24.05.2022
3531 Clear 13 1014 50 10000 5 170 08:50 24.05.2022
3532 Clear 15 1014 47 10000 5 170 06:57 24.05.2022
3533 Clear 14 1016 51 10000 3 190 04:20 24.05.2022
3534 Clear 15 1017 41 10000 2 280 01:55 24.05.2022
3535 Clear 14 1017 44 10000 2 280 01:36 24.05.2022
3536 Clear 13 1018 50 10000 2 260 23:33 23.05.2022
3537 Clear 12 1018 50 10000 1 0 21:57 23.05.2022
3538 Clear 12 1018 50 10000 1 0 21:39 23.05.2022
3539 Clear 11 1018 54 10000 2 40 20:41 23.05.2022
3540 Clear 6 1018 75 10000 2 40 19:33 23.05.2022
3541 Clear 2 1018 81 10000 3 60 18:59 23.05.2022
3542 Clear 2 1018 81 10000 3 60 18:35 23.05.2022
3543 Clear 1 1018 87 10000 1 100 17:38 23.05.2022
3544 Clear 0 1019 86 10000 3 60 15:37 23.05.2022
3545 Clear 3 1019 80 10000 2 70 13:32 23.05.2022
3546 Clear 8 1019 66 10000 1 0 11:34 23.05.2022
3547 Clear 9 1019 61 10000 2 350 10:43 23.05.2022
3548 Clear 11 1019 58 10000 5 300 09:40 23.05.2022
3549 Clear 12 1019 58 10000 4 300 08:38 23.05.2022
3550 Clear 13 1019 54 10000 5 300 06:47 23.05.2022
3551 Clear 13 1019 54 10000 6 290 06:23 23.05.2022
3552 Clear 12 1020 58 10000 5 310 02:35 23.05.2022
3553 Clear 12 1020 58 10000 4 310 01:46 23.05.2022
3554 Clear 11 1020 62 10000 4 310 01:19 23.05.2022
3555 Clear 9 1020 66 10000 4 320 22:47 22.05.2022
3556 Clear 7 1020 65 10000 4 300 22:18 22.05.2022
3557 Clear 6 1020 70 10000 4 320 21:49 22.05.2022
3558 Clear 6 1020 65 10000 3 340 20:40 22.05.2022
3559 Clear 6 1020 65 10000 3 340 20:19 22.05.2022
3560 Clear 1 1020 87 10000 3 360 18:58 22.05.2022
3561 Clear 1 1020 87 10000 3 360 18:31 22.05.2022
3562 Clear 1 1020 80 10000 4 330 17:55 22.05.2022
3563 Clear 0 1020 86 10000 4 360 16:51 22.05.2022
3564 Clear 0 1020 93 10000 4 40 15:22 22.05.2022
3565 Clear 1 1020 87 10000 3 360 14:35 22.05.2022
3566 Clear 4 1020 75 10000 2 360 12:54 22.05.2022
3567 Clear 4 1020 75 10000 2 360 12:24 22.05.2022
3568 Clear 6 1020 65 10000 2 340 10:38 22.05.2022
3569 Clear 6 1020 65 10000 3 320 09:27 22.05.2022
3570 Clear 8 1020 61 10000 3 300 07:44 22.05.2022
3571 Clear 10 1020 57 10000 3 280 06:41 22.05.2022
3572 Clear 9 1021 61 10000 3 280 03:53 22.05.2022
3573 Clear 6 1021 70 10000 3 290 00:49 22.05.2022
3574 Clear 5 1021 70 10000 2 340 23:56 21.05.2022
3575 Clear 5 1021 70 10000 2 340 23:29 21.05.2022
3576 Clear 1 1021 93 10000 4 340 21:59 21.05.2022
3577 Clear 1 1021 93 10000 4 340 21:37 21.05.2022
3578 Fog 0 1021 93 10000 3 10 20:41 21.05.2022
3579 Fog -1 1022 93 10000 2 350 19:53 21.05.2022
3580 Fog -2 1022 92 10000 3 340 18:54 21.05.2022
3581 Clear -2 1022 92 10000 3 350 16:57 21.05.2022
3582 Clear -2 1022 100 10000 4 360 14:49 21.05.2022
3583 Clear -2 1023 93 10000 2 10 13:55 21.05.2022
3584 Clear -2 1023 93 10000 2 10 13:25 21.05.2022
3585 Clear -1 1023 93 10000 2 340 12:39 21.05.2022
3586 Clear 0 1024 86 10000 2 340 11:38 21.05.2022
3587 Clear 1 1024 87 10000 2 310 10:21 21.05.2022
3588 Clear 2 1024 81 10000 3 300 08:59 21.05.2022
3589 Clear 2 1024 81 10000 3 300 08:38 21.05.2022
3590 Clouds 2 1024 86 6636 1.79 250 06:20 21.05.2022
3591 Clouds 1 1026 86 10000 2 200 01:42 21.05.2022
3592 Clouds 0 1027 93 10000 0 0 23:35 20.05.2022
3593 Clouds 0 1027 86 10000 1 0 22:40 20.05.2022
3594 Clouds 0 1027 86 10000 0 0 21:58 20.05.2022
3595 Clouds 0 1027 86 10000 0 0 21:19 20.05.2022
3596 Clouds -1 1027 93 10000 1 0 20:47 20.05.2022
3597 Clouds -1 1027 86 10000 3 110 19:45 20.05.2022
3598 Clouds -1 1027 86 10000 1 0 18:53 20.05.2022
3599 Clouds -1 1027 86 10000 1 0 18:18 20.05.2022
3600 Clouds -1 1027 86 10000 3 90 16:23 20.05.2022
3601 Clouds -1 1028 86 10000 5 100 15:54 20.05.2022
3602 Clouds -1 1028 93 10000 3 120 14:44 20.05.2022
3603 Clouds -1 1028 93 10000 3 120 14:26 20.05.2022
3604 Fog 0 1027 86 10000 4 90 11:52 20.05.2022
3605 Fog 0 1027 86 10000 3 110 10:47 20.05.2022
3606 Fog 2 1027 81 10000 4 110 09:27 20.05.2022
3607 Fog 1 1027 87 10000 5 140 08:24 20.05.2022
3608 Fog 7 1026 70 10000 9 110 06:42 20.05.2022
3609 Fog 5 1026 75 10000 7 110 05:39 20.05.2022
3610 Fog 6 1025 70 10000 7 110 02:41 20.05.2022
3611 Fog 6 1025 70 10000 3 100 23:47 19.05.2022
3612 Fog 4 1025 80 10000 3 200 22:36 19.05.2022
3613 Fog 3 1024 80 10000 3 170 21:50 19.05.2022
3614 Fog 3 1024 80 10000 3 170 21:24 19.05.2022
3615 Fog 2 1023 81 10000 3 150 20:47 19.05.2022
3616 Fog 4 1023 81 10000 2 140 19:54 19.05.2022
3617 Clouds 0 1023 86 123 2.68 160 19:00 19.05.2022
3618 Clear 1 1022 87 10000 2 150 17:44 19.05.2022
3619 Clear 3 1022 87 10000 4 140 15:51 19.05.2022
3620 Clear 4 1021 81 10000 4 140 14:47 19.05.2022
3621 Clear 3 1021 80 10000 4 140 14:20 19.05.2022
3622 Clouds 5 1020 81 10000 4 150 11:54 19.05.2022
3623 Clouds 5 1019 81 10000 4 150 10:30 19.05.2022
3624 Clouds 6 1018 75 10000 4 170 08:44 19.05.2022
3625 Clouds 7 1018 65 10000 5 180 07:18 19.05.2022
3626 Clouds 6 1017 75 10000 3 150 03:52 19.05.2022
3627 Rain 6 1016 75 10000 4 170 00:58 19.05.2022
3628 Rain 4 1016 80 10000 6 170 23:40 18.05.2022
3629 Clouds 3 1016 80 10000 4 170 22:43 18.05.2022
3630 Clouds 4 1016 75 10000 4 160 21:43 18.05.2022
3631 Clouds 4 1016 75 10000 4 160 21:23 18.05.2022
3632 Clouds 3 1016 80 10000 4 150 20:21 18.05.2022
3633 Clouds 1 1015 87 10000 4 160 18:56 18.05.2022
3634 Clouds 1 1015 87 10000 3 140 17:57 18.05.2022
3635 Clouds 1 1015 87 10000 3 140 17:36 18.05.2022
3636 Clouds 1 1015 87 10000 3 140 17:18 18.05.2022
3637 Clouds 0 1015 86 10000 4 160 15:52 18.05.2022
3638 Clouds 0 1015 86 10000 4 160 15:33 18.05.2022
3639 Clouds 2 1014 81 10000 3 160 14:21 18.05.2022
3640 Fog 2 1014 81 10000 3 170 12:55 18.05.2022
3641 Fog 2 1014 81 10000 3 170 12:24 18.05.2022
3642 Fog 3 1014 75 10000 3 140 11:33 18.05.2022
3643 Fog 3 1014 75 10000 2 290 10:48 18.05.2022
3644 Fog 1 1013 80 10000 3 170 08:25 18.05.2022
3645 Fog 2 1013 81 10000 2 170 07:27 18.05.2022
3646 Clear 3 1013 75 10000 4 100 03:59 18.05.2022
3647 Clear 3 1014 75 10000 5 100 00:51 18.05.2022
3648 Clouds 1 1015 80 10000 1 0 23:41 17.05.2022
3649 Clear 1 1015 80 10000 1 0 21:22 17.05.2022
3650 Fog -2 1015 92 10000 3 330 20:44 17.05.2022
3651 Fog -3 1015 92 10000 1 340 19:45 17.05.2022
3652 Fog -3 1015 92 10000 1 340 19:24 17.05.2022
3653 Fog -4 1015 92 10000 1 0 17:49 17.05.2022
3654 Fog -4 1016 92 10000 1 0 16:57 17.05.2022
3655 Fog -3 1016 92 10000 1 0 15:59 17.05.2022
3656 Fog -2 1016 92 10000 1 0 14:55 17.05.2022
3657 Fog -2 1016 92 10000 1 0 14:28 17.05.2022
3658 Fog -2 1016 86 10000 1 0 13:24 17.05.2022
3659 Fog 1 1017 80 10000 3 150 10:42 17.05.2022
3660 Fog 5 1018 70 10000 5 200 08:53 17.05.2022
3661 Fog 6 1018 70 10000 2 150 07:56 17.05.2022
3662 Fog 5 1018 70 10000 4 200 06:26 17.05.2022
3663 Clear 8 1020 61 10000 3 110 01:34 17.05.2022
3664 Clear 8 1021 57 10000 2 80 23:46 16.05.2022
3665 Clear 6 1021 61 10000 3 330 22:39 16.05.2022
3666 Clear 5 1022 65 10000 3 300 21:31 16.05.2022
3667 Clear 3 1022 64 10000 4 290 20:43 16.05.2022
3668 Clear 3 1022 70 10000 3 70 18:53 16.05.2022
3669 Clear 2 1023 64 10000 5 70 17:26 16.05.2022
3670 Clear 3 1024 56 10000 6 110 15:35 16.05.2022
3671 Clear 2 1025 44 10000 8 130 13:48 16.05.2022
3672 Clear 2 1026 44 10000 6 120 12:44 16.05.2022
3673 Clear 3 1026 48 10000 4 110 10:38 16.05.2022
3674 Clear 3 1027 44 10000 5 120 08:32 16.05.2022
3675 Clear 3 1027 44 10000 11 110 06:30 16.05.2022
3676 Clear 8 1026 61 10000 4 100 01:44 16.05.2022
3677 Clear 6 1025 70 10000 2 340 22:52 15.05.2022
3678 Clear 5 1025 75 10000 3 340 22:25 15.05.2022
3679 Clear 2 1025 81 10000 3 10 21:38 15.05.2022
3680 Clear 2 1024 81 10000 4 330 20:53 15.05.2022
3681 Clear -1 1024 93 10000 3 10 18:52 15.05.2022
3682 Clear -1 1024 93 10000 3 340 17:29 15.05.2022
3683 Clear 1 1023 87 10000 4 20 15:26 15.05.2022
3684 Clear 2 1022 81 10000 5 310 13:47 15.05.2022
3685 Clear 1 1022 86 10000 4 310 12:21 15.05.2022
3686 Clear 2 1021 80 10000 7 300 11:29 15.05.2022
3687 Clear 3 1019 80 10000 8 290 09:58 15.05.2022
3688 Clear 4 1018 75 10000 8 300 07:25 15.05.2022
3689 Clouds 5 1017 75 10000 10 290 06:56 15.05.2022
3690 Clouds 7 1017 70 10000 8 270 03:40 15.05.2022
3691 Clouds 3 1017 80 10000 0 0 00:42 15.05.2022
3692 Clouds 1 1018 87 10000 2 200 23:38 14.05.2022
3693 Clouds 2 1018 86 10000 3 180 22:41 14.05.2022
3694 Clouds 1 1018 93 10000 4 160 21:27 14.05.2022
3695 Rain 1 1018 93 10000 4 160 20:30 14.05.2022
3696 Rain 1 1019 93 10000 4 180 19:21 14.05.2022
3697 Clear 1 1019 87 10000 6 160 18:59 14.05.2022
3698 Clear 2 1019 86 10000 5 160 17:53 14.05.2022
3699 Clear 2 1019 86 10000 5 160 16:23 14.05.2022
3700 Clear 2 1021 81 10000 4 150 14:50 14.05.2022
3701 Clear 2 1021 81 10000 4 150 14:26 14.05.2022
3702 Fog -1 1021 86 10000 4 170 11:51 14.05.2022
3703 Fog -1 1022 93 10000 5 160 10:45 14.05.2022
3704 Fog -1 1022 93 10000 5 160 10:19 14.05.2022
3705 Fog 4 1021 75 10000 4 150 09:34 14.05.2022
3706 Clear 2 1022 81 10000 6 160 07:59 14.05.2022
3707 Clear 8 1022 57 10000 4 140 05:21 14.05.2022
3708 Clouds -1 1024 95 5782 2.07 160 01:57 14.05.2022
3709 Clear 7 1023 61 10000 6 140 23:28 13.05.2022
3710 Clear 6 1024 61 10000 5 130 22:56 13.05.2022
3711 Clear 6 1024 61 10000 5 130 22:22 13.05.2022
3712 Clear 5 1024 65 10000 6 140 21:19 13.05.2022
3713 Clear 3 1024 70 10000 5 150 20:43 13.05.2022
3714 Clear 3 1024 70 10000 5 150 20:22 13.05.2022
3715 Clear 4 1024 70 10000 2 80 19:19 13.05.2022
3716 Clear 3 1024 70 10000 1 0 17:47 13.05.2022
3717 Clear 3 1024 70 10000 1 0 17:23 13.05.2022
3718 Clear 2 1025 64 10000 3 140 15:48 13.05.2022
3719 Clear 2 1025 64 10000 3 150 14:47 13.05.2022
3720 Clear 0 1025 80 10000 2 150 12:54 13.05.2022
3721 Clear 0 1025 80 10000 2 150 12:25 13.05.2022
3722 Clear 1 1025 74 10000 2 180 10:23 13.05.2022
3723 Clear 2 1025 64 10000 2 210 09:29 13.05.2022
3724 Clear 5 1025 56 10000 2 320 07:59 13.05.2022
3725 Clear 5 1025 56 10000 2 340 07:30 13.05.2022
3726 Clear 5 1025 56 10000 3 310 05:46 13.05.2022
3727 Clear 4 1024 60 10000 6 350 01:37 13.05.2022
3728 Clear 1 1023 64 10000 6 360 23:34 12.05.2022
3729 Clear 1 1023 69 10000 6 330 22:35 12.05.2022
3730 Clear -1 1022 69 10000 4 340 21:35 12.05.2022
3731 Clear -1 1022 74 10000 6 300 20:22 12.05.2022
3732 Clear -1 1020 93 10000 4 320 18:30 12.05.2022
3733 Clouds 1 1018 93 10000 6 300 16:52 12.05.2022
3734 Clear 0 1017 93 10000 6 300 15:30 12.05.2022
3735 Clear 1 1016 87 10000 7 280 13:58 12.05.2022
3736 Clouds 2 1015 81 10000 7 280 12:46 12.05.2022
3737 Clouds 3 1014 75 10000 6 270 10:34 12.05.2022
3738 Clouds 5 1013 70 10000 9 270 08:58 12.05.2022
3739 Clouds 5 1013 70 10000 9 270 08:37 12.05.2022
3740 Clouds 5 1013 65 10000 8 270 07:36 12.05.2022
3741 Clear 6 1013 70 10000 4 200 04:50 12.05.2022
3742 Clouds 5 1014 70 10000 7 200 01:55 12.05.2022
3743 Clouds 2 1015 81 10000 6 200 23:55 11.05.2022
3744 Clouds 2 1016 81 10000 5 200 22:29 11.05.2022
3745 Clouds 2 1016 81 10000 4 190 21:29 11.05.2022
3746 Clouds 4 1016 75 10000 4 230 20:48 11.05.2022
3747 Clouds 0 1016 86 10000 1 0 17:54 11.05.2022
3748 Clouds 1 1015 87 10000 3 250 16:47 11.05.2022
3749 Clouds 2 1015 81 10000 5 270 14:50 11.05.2022
3750 Clouds 2 1015 81 10000 5 270 14:26 11.05.2022
3751 Clouds 2 1016 81 10000 2 260 13:44 11.05.2022
3752 Rain 3 1015 80 10000 1 0 11:50 11.05.2022
3753 Clouds 3 1014 80 10000 1 0 09:39 11.05.2022
3754 Clouds 5 1014 75 10000 4 310 07:52 11.05.2022
3755 Clouds 7 1014 70 10000 4 270 04:43 11.05.2022
3756 Clouds 5 1014 75 10000 4 200 23:48 10.05.2022
3757 Clouds 5 1014 70 10000 3 230 22:30 10.05.2022
3758 Clouds 3 1014 75 10000 2 210 21:43 10.05.2022
3759 Clouds 3 1014 75 10000 1 0 20:48 10.05.2022
3760 Clouds 2 1014 81 10000 3 140 19:25 10.05.2022
3761 Clear 2 1014 74 10000 4 190 17:44 10.05.2022
3762 Clear 2 1014 74 10000 6 170 16:39 10.05.2022
3763 Clear 4 1016 70 10000 3 160 13:54 10.05.2022
3764 Clear 4 1016 65 10000 6 150 12:36 10.05.2022
3765 Clear 5 1016 60 10000 6 160 11:49 10.05.2022
3766 Clear 5 1016 60 10000 6 160 11:18 10.05.2022
3767 Clear 5 1016 60 10000 6 150 09:52 10.05.2022
3768 Clear 6 1016 56 10000 6 150 08:29 10.05.2022
3769 Clear 6 1018 52 10000 7 160 06:21 10.05.2022
3770 Clear 4 1020 56 10000 6 160 02:48 10.05.2022
3771 Clear 3 1021 60 10000 6 170 00:23 10.05.2022
3772 Clear 0 1021 69 10000 5 170 22:42 09.05.2022
3773 Clear 0 1021 80 10000 4 170 21:48 09.05.2022
3774 Clear 0 1021 74 10000 3 170 20:22 09.05.2022
3775 Clear -2 1021 74 10000 4 150 18:35 09.05.2022
3776 Clear -3 1021 80 10000 2 100 17:33 09.05.2022
3777 Clear -3 1021 80 10000 2 80 16:21 09.05.2022
3778 Clear -3 1021 80 10000 3 310 15:47 09.05.2022
3779 Clear -3 1020 86 10000 2 310 14:41 09.05.2022
3780 Clear -2 1020 86 10000 5 300 13:59 09.05.2022
3781 Clear -2 1020 86 10000 5 300 13:32 09.05.2022
3782 Clear 0 1019 80 10000 9 300 11:53 09.05.2022
3783 Clear 0 1018 86 10000 5 330 10:50 09.05.2022
3784 Clear -1 1018 86 10000 5 330 10:26 09.05.2022
3785 Clouds 0 1016 86 10000 7 290 07:57 09.05.2022
3786 Clear 1 1014 74 10000 9 300 05:59 09.05.2022
3787 Clouds 1 1010 80 10000 8 290 02:37 09.05.2022
3788 Clouds 1 1010 80 10000 8 290 02:37 09.05.2022
3789 Clouds 1 1010 80 10000 8 290 02:37 09.05.2022
3790 Clouds 1 1010 80 10000 8 290 02:37 09.05.2022
3791 Clouds 0 1007 93 10000 9 280 23:29 08.05.2022
3792 Clouds 0 1006 93 10000 9 280 22:42 08.05.2022
3793 Clouds 0 1005 93 10000 9 270 21:37 08.05.2022
3794 Clouds 1 1005 93 10000 7 250 20:25 08.05.2022
3795 Clouds 1 1004 93 10000 6 260 19:35 08.05.2022
3796 Snow 0 1004 100 6000 4 240 18:49 08.05.2022
3797 Snow 0 1003 100 4600 3 250 17:45 08.05.2022
3798 Snow -1 1003 100 10000 1 270 16:23 08.05.2022
3799 Snow 0 1003 93 10000 4 310 15:25 08.05.2022
3800 Snow 0 1003 93 10000 5 320 14:23 08.05.2022
3801 Snow 0 1002 93 9000 0 0 11:53 08.05.2022
3802 Mist 0 1002 93 3400 2 140 10:27 08.05.2022
3803 Snow 0 1002 93 9000 4 160 09:54 08.05.2022
3804 Clouds 2 1002 74 10000 4 170 08:23 08.05.2022
3805 Clouds 2 1002 74 10000 4 140 06:31 08.05.2022
3806 Clouds 1 1004 80 10000 5 150 03:23 08.05.2022
3807 Clouds 2 1004 69 10000 5 160 01:25 08.05.2022
3808 Clouds 1 1004 69 10000 5 160 00:20 08.05.2022
3809 Clouds 0 1005 74 10000 6 160 23:41 07.05.2022
3810 Clear -1 1005 74 10000 6 160 22:46 07.05.2022
3811 Clear -2 1005 80 10000 5 160 21:57 07.05.2022
3812 Clear -2 1005 80 10000 5 160 21:31 07.05.2022
3813 Clear -2 1005 86 10000 5 160 20:25 07.05.2022
3814 Clear -2 1006 93 10000 4 140 18:59 07.05.2022
3815 Clouds -1 1006 86 10000 2 150 16:51 07.05.2022
3816 Clouds -1 1006 86 10000 3 140 15:18 07.05.2022
3817 Clouds 1 1006 80 10000 2 160 11:51 07.05.2022
3818 Clouds 1 1006 86 10000 2 170 10:18 07.05.2022
3819 Clouds 0 1006 86 10000 1 0 08:34 07.05.2022
3820 Clouds 0 1005 86 10000 2 170 07:30 07.05.2022
3821 Clouds 0 1006 86 10000 4 210 06:42 07.05.2022
3822 Snow 1 1006 80 10000 4 200 04:19 07.05.2022
3823 Clouds -1 1007 86 10000 5 180 00:45 07.05.2022
3824 Clouds -1 1008 86 10000 5 170 22:41 06.05.2022
3825 Clouds -1 1008 80 10000 5 170 22:21 06.05.2022
3826 Clouds -1 1008 86 10000 5 170 21:32 06.05.2022
3827 Clouds -1 1009 80 10000 4 150 19:49 06.05.2022
3828 Clouds -1 1009 80 10000 4 150 19:27 06.05.2022
3829 Clouds -1 1009 80 10000 2 170 18:43 06.05.2022
3830 Clouds -1 1010 80 10000 3 160 17:37 06.05.2022
3831 Fog -2 1010 93 10000 2 150 15:54 06.05.2022
3832 Fog -3 1010 92 10000 2 150 15:30 06.05.2022
3833 Fog -4 1010 92 10000 1 0 13:50 06.05.2022
3834 Fog -1 1011 86 10000 2 140 12:51 06.05.2022
3835 Clear -1 1011 86 10000 2 150 11:58 06.05.2022
3836 Clear -1 1011 86 10000 2 150 11:27 06.05.2022
3837 Clear -1 1011 86 10000 2 190 09:48 06.05.2022
3838 Clear 0 1011 80 10000 3 230 09:18 06.05.2022
3839 Clear 0 1011 74 10000 3 310 07:54 06.05.2022
3840 Clear 0 1011 74 10000 4 300 06:26 06.05.2022
3841 Clear 0 1011 74 10000 4 290 03:42 06.05.2022
3842 Clear 0 1012 80 10000 4 310 02:38 06.05.2022
3843 Clouds 0 1012 74 10000 3 310 23:24 05.05.2022
3844 Clouds -2 1011 74 10000 3 20 21:50 05.05.2022
3845 Clouds -3 1011 74 10000 4 10 20:37 05.05.2022
3846 Clear -9 1011 86 10000 4 40 18:56 05.05.2022
3847 Clear -8 1011 86 10000 3 30 16:42 05.05.2022
3848 Clear -7 1011 79 10000 4 40 15:31 05.05.2022
3849 Clear -6 1011 86 10000 4 40 13:30 05.05.2022
3850 Clear -5 1011 93 10000 4 10 12:56 05.05.2022
3851 Clear -5 1011 93 10000 3 10 11:35 05.05.2022
3852 Clear -1 1011 80 10000 4 320 09:41 05.05.2022
3853 Clear -1 1011 80 10000 4 320 09:41 05.05.2022
3854 Clear -1 1011 80 10000 3 310 08:54 05.05.2022
3855 Clear 0 1011 74 10000 2 320 06:28 05.05.2022
3856 Clear -2 1011 74 10000 3 360 02:27 05.05.2022
3857 Clear -2 1011 74 10000 3 350 01:44 05.05.2022
3858 Clear -3 1011 80 10000 3 350 00:49 05.05.2022
3859 Clear -4 1011 80 10000 3 340 23:18 04.05.2022
3860 Clear -6 1011 86 10000 3 350 21:59 04.05.2022
3861 Clear -6 1011 86 10000 3 350 21:34 04.05.2022
3862 Clear -7 1011 86 10000 3 10 20:55 04.05.2022
3863 Clear -7 1011 86 10000 3 10 20:18 04.05.2022
3864 Clear -9 1011 86 10000 4 340 19:35 04.05.2022
3865 Clear -9 1010 86 10000 5 340 18:43 04.05.2022
3866 Clear -9 1010 86 10000 5 340 18:19 04.05.2022
3867 Clear -8 1010 93 10000 4 330 17:22 04.05.2022
3868 Clear -8 1010 86 10000 6 350 15:34 04.05.2022
3869 Clear -7 1010 79 10000 4 350 14:41 04.05.2022
3870 Clear -7 1010 79 10000 4 350 14:19 04.05.2022
3871 Clear -6 1010 86 10000 5 350 12:39 04.05.2022
3872 Clear -4 1010 86 10000 1 0 11:40 04.05.2022
3873 Clear -4 1010 86 10000 6 350 10:27 04.05.2022
3874 Clear -3 1010 86 10000 6 340 09:21 04.05.2022
3875 Clear -2 1010 80 10000 5 350 07:59 04.05.2022
3876 Clear -3 1010 74 10000 5 340 05:34 04.05.2022
3877 Clear -4 1010 80 10000 6 340 02:37 04.05.2022
3878 Clear -6 1010 86 10000 5 350 23:20 03.05.2022
3879 Clouds -10 1009 92 8000 2 350 21:53 03.05.2022
3880 Clouds -10 1009 92 8000 2 350 21:31 03.05.2022
3881 Clouds -10 1009 92 7000 3 360 20:52 03.05.2022
3882 Fog -11 1009 92 10000 3 350 19:33 03.05.2022
3883 Mist -11 1009 92 4700 2 350 18:47 03.05.2022
3884 Fog -11 1008 85 10000 2 360 17:22 03.05.2022
3885 Clear -10 1008 92 10000 2 340 16:19 03.05.2022
3886 Clear -7 1007 86 10000 2 10 14:25 03.05.2022
3887 Clear -7 1006 93 10000 2 320 12:42 03.05.2022
3888 Clear -6 1007 93 10000 4 20 11:49 03.05.2022
3889 Clear -4 1006 86 10000 5 310 10:49 03.05.2022
3890 Clear -3 1006 86 10000 7 310 08:29 03.05.2022
3891 Clouds -2 1007 86 10000 7 310 06:45 03.05.2022
3892 Clouds -2 1007 74 10000 7 310 02:48 03.05.2022
3893 Clear -3 1008 80 10000 4 320 23:32 02.05.2022
3894 Clear -5 1009 80 10000 4 350 22:31 02.05.2022
3895 Clear -7 1009 86 10000 3 10 21:48 02.05.2022
3896 Clear -8 1009 86 10000 4 350 19:59 02.05.2022
3897 Clear -11 1010 92 10000 3 20 18:27 02.05.2022
3898 Clear -13 1010 92 10000 4 20 17:42 02.05.2022
3899 Clear -9 1010 86 10000 4 350 16:43 02.05.2022
3900 Clear -9 1011 92 10000 3 340 15:52 02.05.2022
3901 Clear -10 1011 92 10000 2 350 14:54 02.05.2022
3902 Clear -10 1011 85 10000 2 10 13:45 02.05.2022
3903 Clear -8 1012 86 10000 3 30 11:41 02.05.2022
3904 Clear -5 1012 80 10000 5 350 09:59 02.05.2022
3905 Clear -5 1012 80 10000 5 350 08:43 02.05.2022
3906 Clear -4 1012 74 10000 5 340 07:23 02.05.2022
3907 Clear -8 1014 79 10000 4 330 00:48 02.05.2022
3908 Clear -8 1014 79 10000 3 350 00:22 02.05.2022
3909 Clear -9 1014 78 10000 2 10 23:40 01.05.2022
3910 Clear -10 1014 85 10000 1 0 21:45 01.05.2022
3911 Clear -10 1014 92 10000 4 360 20:50 01.05.2022
3912 Clear -10 1014 85 10000 5 350 19:40 01.05.2022
3913 Clear -12 1014 85 10000 4 10 18:53 01.05.2022
3914 Clear -9 1014 86 10000 1 0 17:51 01.05.2022
3915 Clear -9 1015 86 10000 1 0 16:42 01.05.2022
3916 Clear -9 1015 86 10000 1 0 16:18 01.05.2022
3917 Clear -10 1016 92 10000 1 30 14:58 01.05.2022
3918 Clear -7 1016 86 10000 1 280 13:23 01.05.2022
3919 Clear -3 1016 80 10000 2 330 10:45 01.05.2022
3920 Clouds -3 1016 80 10000 3 320 08:50 01.05.2022
3921 Clouds -3 1016 74 10000 5 360 06:53 01.05.2022
3922 Clouds -2 1016 68 10000 9 10 02:51 01.05.2022
3923 Clouds -1 1016 63 10000 5 40 22:52 30.04.2022
3924 Clouds -3 1016 68 10000 8 40 21:34 30.04.2022
3925 Clouds -3 1015 68 10000 11 30 20:24 30.04.2022
3926 Clouds -4 1015 79 10000 9 20 19:33 30.04.2022
3927 Clouds -3 1014 86 10000 1 0 17:38 30.04.2022
3928 Clouds -2 1014 80 10000 2 290 16:30 30.04.2022
3929 Clouds -2 1014 80 10000 2 130 15:19 30.04.2022
3930 Snow -2 1014 86 10000 4 310 14:31 30.04.2022
3931 Clear 0 1013 86 10000 0 0 12:28 30.04.2022
3932 Clouds 1 1013 80 10000 1 0 11:32 30.04.2022
3933 Clouds 0 1013 86 10000 2 350 10:31 30.04.2022
3934 Clouds -1 1012 93 10000 6 360 08:34 30.04.2022
3935 Clear 1 1012 80 10000 6 340 05:19 30.04.2022
3936 Clouds -1 1012 86 10000 2 350 00:35 30.04.2022
3937 Clouds -1 1012 86 10000 3 10 23:29 29.04.2022
3938 Snow -3 1013 86 10000 3 10 22:29 29.04.2022
3939 Snow -2 1012 86 10000 3 360 21:26 29.04.2022
3940 Clouds -5 1012 92 10000 5 360 20:38 29.04.2022
3941 Clouds -4 1011 86 10000 4 330 19:36 29.04.2022
3942 Clouds -2 1011 80 10000 1 0 17:48 29.04.2022
3943 Clouds -1 1011 74 10000 3 90 16:43 29.04.2022
3944 Clear -2 1011 74 10000 3 40 14:50 29.04.2022
3945 Clear -2 1011 74 10000 3 40 14:19 29.04.2022
3946 Clear -1 1011 80 10000 3 340 12:41 29.04.2022
3947 Clear -1 1010 80 10000 1 0 10:58 29.04.2022
3948 Clear 0 1010 69 10000 1 0 08:18 29.04.2022
3949 Clear 0 1010 69 10000 1 0 07:27 29.04.2022
3950 Clear 0 1010 64 10000 1 10 06:35 29.04.2022
3951 Clear -2 1011 68 10000 3 220 03:28 29.04.2022
3952 Clear -1 1013 80 10000 2 60 00:18 29.04.2022
3953 Clear -3 1013 80 10000 1 0 23:26 28.04.2022
3954 Clear -4 1013 73 10000 1 0 22:40 28.04.2022
3955 Fog -4 1013 80 10000 1 340 21:46 28.04.2022
3956 Fog -5 1014 93 10000 2 270 20:51 28.04.2022
3957 Fog -5 1014 93 10000 2 270 20:22 28.04.2022
3958 Clear -3 1014 86 10000 0 0 19:40 28.04.2022
3959 Clear -3 1014 86 10000 0 0 19:21 28.04.2022
3960 Fog -4 1014 100 10000 4 350 18:23 28.04.2022
3961 Clouds -3 1015 93 10000 2 30 16:59 28.04.2022
3962 Clouds -3 1015 93 10000 2 30 16:21 28.04.2022
3963 Clouds -14 1016 100 1522 0.94 297 15:57 28.04.2022
3964 Clouds -13 1016 99 3133 0.84 243 15:27 28.04.2022
3965 Clouds -1 1017 100 10000 2 330 13:44 28.04.2022
3966 Clouds -1 1017 100 10000 1 320 12:38 28.04.2022
3967 Clouds 0 1017 86 10000 1 300 11:53 28.04.2022
3968 Clouds 0 1018 93 10000 2 340 10:37 28.04.2022
3969 Clouds 1 1018 80 10000 1 0 09:52 28.04.2022
3970 Clouds 0 1018 86 10000 1 10 08:20 28.04.2022
3971 Clouds 0 1018 80 10000 6 70 06:58 28.04.2022
3972 Clouds 0 1018 80 10000 5 30 05:55 28.04.2022
3973 Clouds 0 1019 86 10000 9 30 04:50 28.04.2022
3974 Clouds -1 1019 86 10000 9 50 04:31 28.04.2022
3975 Clouds -2 1020 86 10000 9 90 23:59 27.04.2022
3976 Clouds -2 1020 86 10000 10 80 22:34 27.04.2022
3977 Clouds -2 1020 86 10000 8 80 21:51 27.04.2022
3978 Snow -3 1020 92 10000 7 70 20:56 27.04.2022
3979 Snow -3 1020 92 10000 7 70 20:34 27.04.2022
3980 Snow -3 1020 92 10000 7 70 20:34 27.04.2022
3981 Clouds -3 1020 92 8000 7 70 19:37 27.04.2022
3982 Clouds -2 1020 86 10000 7 80 18:52 27.04.2022
3983 Clouds -2 1020 86 10000 7 80 18:22 27.04.2022
3984 Snow -3 1020 92 8000 8 80 16:27 27.04.2022
3985 Clouds -3 1020 92 9000 9 90 14:26 27.04.2022
3986 Mist -2 1020 92 2200 9 90 11:45 27.04.2022
3987 Mist -2 1020 92 2200 9 90 11:20 27.04.2022
3988 Clouds -2 1019 92 10000 9 100 08:58 27.04.2022
3989 Clouds -2 1018 92 9000 8 100 07:18 27.04.2022
3990 Mist -2 1018 100 1800 10 110 04:21 27.04.2022
3991 Snow -2 1018 100 2400 11 110 01:31 27.04.2022
3992 Snow -2 1017 92 2400 12 110 00:36 27.04.2022
3993 Snow -2 1017 92 2400 11 100 23:25 26.04.2022
3994 Snow -2 1017 92 2400 11 100 22:57 26.04.2022
3995 Snow -1 1017 92 2400 11 100 22:38 26.04.2022
3996 Snow -2 1016 92 900 13 100 21:26 26.04.2022
3997 Snow -2 1016 92 900 13 100 21:26 26.04.2022
3998 Snow -2 1016 92 900 13 100 21:26 26.04.2022
3999 Snow -2 1016 92 1000 13 100 20:41 26.04.2022
4000 Snow -2 1016 92 3300 12 100 19:49 26.04.2022
4001 Snow -2 1016 92 3300 12 100 19:30 26.04.2022
4002 Snow -2 1015 92 1300 12 90 18:44 26.04.2022
4003 Snow -3 1015 100 500 13 100 17:54 26.04.2022
4004 Snow -3 1015 92 600 13 100 16:28 26.04.2022
4005 Snow -3 988 92 300 15 90 13:59 26.04.2022
4006 Snow -3 988 92 300 15 90 13:32 26.04.2022
4007 Snow -3 988 92 300 15 100 11:49 26.04.2022
4008 Snow -3 1013 92 150 17 110 10:34 26.04.2022
4009 Snow -3 1013 92 3600 14 100 08:54 26.04.2022
4010 Clouds -2 1013 86 9000 14 90 06:57 26.04.2022
4011 Clouds -2 1013 80 10000 12 80 04:23 26.04.2022
4012 Clear -3 1015 74 10000 10 90 01:22 26.04.2022
4013 Clear -4 1015 73 10000 9 90 00:25 26.04.2022
4014 Clear -4 1014 68 10000 11 90 22:21 25.04.2022
4015 Clear -4 1014 73 10000 11 90 21:39 25.04.2022
4016 Clear -5 1014 79 10000 10 90 20:35 25.04.2022
4017 Clear -5 1014 73 10000 11 90 18:54 25.04.2022
4018 Clear -4 1015 80 10000 10 90 17:52 25.04.2022
4019 Clear -4 1015 74 10000 9 100 16:54 25.04.2022
4020 Clear -3 1015 68 10000 8 90 15:29 25.04.2022
4021 Clear -3 1015 74 10000 8 90 14:38 25.04.2022
4022 Clear -4 1016 73 10000 8 80 13:32 25.04.2022
4023 Clouds -5 1016 92 7000 8 90 11:37 25.04.2022
4024 Clouds -3 1016 86 10000 7 120 10:23 25.04.2022
4025 Clouds -2 1016 80 10000 7 90 08:35 25.04.2022
4026 Clear -1 1016 64 10000 7 90 06:38 25.04.2022
4027 Clear 0 1017 59 10000 4 90 03:44 25.04.2022
4028 Clear -4 1018 74 10000 0 0 00:33 25.04.2022
4029 Clear -6 1018 79 10000 1 0 23:51 24.04.2022
4030 Clear -6 1017 85 10000 1 0 22:41 24.04.2022
4031 Clear -5 1017 80 10000 1 0 22:18 24.04.2022
4032 Clear -6 1017 79 10000 0 0 21:24 24.04.2022
4033 Clear -7 1017 86 10000 0 0 20:48 24.04.2022
4034 Clear -7 1017 86 10000 0 0 20:22 24.04.2022
4035 Clear -10 1016 85 10000 1 90 19:19 24.04.2022
4036 Clear -10 1016 85 10000 1 70 18:20 24.04.2022
4037 Clear -9 1016 86 10000 2 70 17:27 24.04.2022
4038 Clear -8 1016 86 10000 3 70 16:58 24.04.2022
4039 Clear -8 1016 86 10000 3 70 16:32 24.04.2022
4040 Clear -10 1015 85 10000 3 60 15:53 24.04.2022
4041 Clear -8 1015 93 10000 3 60 14:57 24.04.2022
4042 Clear -7 1015 86 10000 3 60 13:51 24.04.2022
4043 Clear -7 1015 86 10000 3 60 13:23 24.04.2022
4044 Clouds -5 1014 80 10000 2 60 11:56 24.04.2022
4045 Clouds -5 1014 80 10000 2 60 11:27 24.04.2022
4046 Clouds -3 1013 80 10000 2 340 09:55 24.04.2022
4047 Clouds -2 1013 69 10000 3 10 08:51 24.04.2022
4048 Clear -3 1012 74 10000 3 360 06:18 24.04.2022
4049 Clear -3 1011 68 10000 2 350 03:37 24.04.2022
4050 Clouds -4 1011 79 10000 2 340 01:18 24.04.2022
4051 Clouds -5 1010 79 10000 2 350 23:55 23.04.2022
4052 Clouds -5 1010 79 10000 2 350 23:25 23.04.2022
4053 Clouds -5 1010 79 10000 2 350 22:46 23.04.2022
4054 Clouds -5 1009 85 10000 1 350 21:49 23.04.2022
4055 Clouds -5 1009 85 10000 1 350 21:31 23.04.2022
4056 Clouds -5 1009 92 10000 3 330 20:27 23.04.2022
4057 Snow -3 1009 93 10000 2 330 19:41 23.04.2022
4058 Snow -3 1009 93 10000 2 330 19:18 23.04.2022
4059 Snow -3 1008 100 10000 3 320 18:46 23.04.2022
4060 Snow -2 1008 93 10000 3 320 17:48 23.04.2022
4061 Snow -2 1008 93 10000 3 300 16:47 23.04.2022
4062 Snow -2 1008 93 10000 0 0 15:54 23.04.2022
4063 Snow -2 1007 93 10000 1 100 14:27 23.04.2022
4064 Snow -2 1007 93 10000 1 0 11:59 23.04.2022
4065 Snow -2 1007 93 10000 1 230 10:40 23.04.2022
4066 Clouds -2 1006 86 10000 1 280 08:30 23.04.2022
4067 Clouds -2 1006 86 10000 1 260 05:27 23.04.2022
4068 Clouds -1 1006 80 10000 1 0 03:32 23.04.2022
4069 Clouds -3 1006 86 10000 2 10 00:18 23.04.2022
4070 Snow -1 1006 86 10000 0 0 23:25 22.04.2022
4071 Clear -4 1005 92 10000 1 20 21:59 22.04.2022
4072 Clear -4 1005 92 10000 1 20 21:40 22.04.2022
4073 Clear -5 1005 100 10000 2 20 20:37 22.04.2022
4074 Clear -4 1005 93 10000 2 10 19:39 22.04.2022
4075 Clear -4 1005 93 10000 2 10 19:18 22.04.2022
4076 Clear -4 1005 100 10000 2 340 18:28 22.04.2022
4077 Clear -4 1005 100 10000 2 350 17:24 22.04.2022
4078 Clear -3 1005 93 10000 2 20 15:59 22.04.2022
4079 Clear -3 1005 93 10000 2 20 15:30 22.04.2022
4080 Snow -3 1005 93 10000 2 40 14:38 22.04.2022
4081 Snow -3 1005 93 10000 2 40 14:38 22.04.2022
4082 Snow -4 1006 92 10000 2 20 13:42 22.04.2022
4083 Clear -4 1005 100 10000 1 350 12:48 22.04.2022
4084 Clear -2 1005 93 10000 2 360 11:23 22.04.2022
4085 Clear -2 1005 93 10000 2 330 10:57 22.04.2022
4086 Clear -2 1005 93 10000 2 330 10:34 22.04.2022
4087 Clouds -3 1005 92 10000 2 330 09:59 22.04.2022
4088 Clouds -3 1005 92 10000 2 330 09:30 22.04.2022
4089 Snow -3 1004 92 10000 3 330 08:49 22.04.2022
4090 Snow -2 1004 86 10000 3 350 06:54 22.04.2022
4091 Snow -2 1005 86 10000 2 280 01:34 22.04.2022
4092 Snow -3 1005 92 10000 1 360 23:35 21.04.2022
4093 Snow -3 1005 92 10000 2 360 22:47 21.04.2022
4094 Snow -3 1005 92 10000 1 30 21:42 21.04.2022
4095 Snow -3 1005 92 10000 1 160 20:32 21.04.2022
4096 Clouds -3 1005 92 10000 1 80 19:24 21.04.2022
4097 Clouds -3 1005 92 10000 1 360 18:32 21.04.2022
4098 Snow -3 1005 92 10000 1 240 17:20 21.04.2022
4099 Clouds -3 1005 92 10000 2 340 16:21 21.04.2022
4100 Clouds 0 1005 80 10000 2 80 15:19 21.04.2022
4101 Clouds -2 1006 86 10000 1 0 14:29 21.04.2022
4102 Snow -2 1006 86 10000 5 90 13:22 21.04.2022
4103 Snow -2 1006 86 10000 2 30 12:29 21.04.2022
4104 Snow -2 1006 86 10000 2 70 09:58 21.04.2022
4105 Snow -1 1006 80 10000 2 240 08:47 21.04.2022
4106 Snow -1 1006 74 10000 3 70 06:44 21.04.2022
4107 Clouds -1 1007 69 10000 4 150 04:21 21.04.2022
4108 Snow -1 1007 74 10000 5 50 03:22 21.04.2022
4109 Snow -1 1007 74 10000 5 80 02:44 21.04.2022
4110 Snow -1 1007 74 10000 5 80 02:44 21.04.2022
4111 Clouds -1 1007 74 10000 5 90 00:35 21.04.2022
4112 Snow 0 1007 80 10000 6 90 23:40 20.04.2022
4113 Snow -1 1007 80 10000 6 90 23:18 20.04.2022
4114 Clouds -1 1007 80 10000 6 100 22:36 20.04.2022
4115 Snow -1 1007 80 10000 6 100 21:47 20.04.2022
4116 Snow -2 1007 86 10000 3 80 20:45 20.04.2022
4117 Snow -1 1007 86 10000 3 80 20:21 20.04.2022
4118 Snow -2 1008 86 10000 2 90 19:46 20.04.2022
4119 Snow -2 1008 86 10000 4 70 18:48 20.04.2022
4120 Snow -2 1008 86 10000 4 90 17:50 20.04.2022
4121 Snow -2 1008 80 10000 4 70 16:39 20.04.2022
4122 Snow -2 1008 86 10000 4 60 15:26 20.04.2022
4123 Clear -1 1009 80 10000 4 40 12:46 20.04.2022
4124 Snow 0 1009 74 10000 4 20 11:42 20.04.2022
4125 Clear -1 1009 74 10000 4 80 10:44 20.04.2022
4126 Clouds -1 1009 80 10000 5 50 09:31 20.04.2022
4127 Clouds 0 1009 80 10000 4 80 08:40 20.04.2022
4128 Snow 0 1009 80 10000 4 80 08:18 20.04.2022
4129 Clouds 0 1009 80 10000 3 70 06:23 20.04.2022
4130 Snow 0 1008 80 6000 11 110 02:34 20.04.2022
4131 Snow 0 1007 86 7000 10 110 00:22 20.04.2022
4132 Snow -1 1007 93 6000 10 110 22:59 19.04.2022
4133 Snow -1 1007 93 6000 10 110 22:59 19.04.2022
4134 Snow -1 1007 86 9000 10 110 22:23 19.04.2022
4135 Snow -1 1008 86 9000 7 100 21:53 19.04.2022
4136 Snow -1 1007 86 7000 8 100 20:59 19.04.2022
4137 Snow -1 1007 86 7000 8 100 20:37 19.04.2022
4138 Snow -2 1007 92 9000 7 100 19:41 19.04.2022
4139 Snow -2 1007 92 5000 9 100 18:31 19.04.2022
4140 Snow -1 1006 86 5000 9 110 16:55 19.04.2022
4141 Snow -1 1006 86 5000 9 110 16:33 19.04.2022
4142 Snow -1 1006 93 4000 9 110 15:59 19.04.2022
4143 Snow -1 1005 93 3800 8 100 14:46 19.04.2022
4144 Snow -1 1005 93 3800 8 100 14:46 19.04.2022
4145 Snow -1 1005 93 3800 6 90 12:58 19.04.2022
4146 Snow -1 1005 93 3800 6 90 12:36 19.04.2022
4147 Snow -1 1005 93 3100 8 100 11:38 19.04.2022
4148 Snow -1 1003 93 3600 9 100 09:52 19.04.2022
4149 Snow -1 1003 93 2700 9 100 08:22 19.04.2022
4150 Snow 0 1002 86 8000 7 100 04:26 19.04.2022
4151 Snow 0 1002 92 3400 8 110 02:41 19.04.2022
4152 Snow -1 1002 93 1700 6 90 00:23 19.04.2022
4153 Snow -1 1002 86 8000 5 90 22:54 18.04.2022
4154 Snow -2 1003 92 4900 4 80 21:28 18.04.2022
4155 Snow -2 1003 92 5000 5 90 20:46 18.04.2022
4156 Snow -1 1003 92 5000 5 90 20:25 18.04.2022
4157 Snow -1 1003 86 7000 6 100 19:41 18.04.2022
4158 Snow -1 1003 93 4100 6 100 18:52 18.04.2022
4159 Snow -1 1003 93 6000 6 110 17:49 18.04.2022
4160 Snow -1 1003 93 6000 6 110 17:20 18.04.2022
4161 Snow -1 1003 93 5000 7 110 16:40 18.04.2022
4162 Snow -1 1003 93 9000 6 110 15:43 18.04.2022
4163 Snow -2 1003 100 9000 6 110 14:28 18.04.2022
4164 Snow -1 1003 93 5000 7 120 13:31 18.04.2022
4165 Snow 0 1003 86 7000 7 120 12:28 18.04.2022
4166 Snow -1 1002 93 9000 9 120 11:20 18.04.2022
4167 Snow -1 1002 93 9000 7 110 10:28 18.04.2022
4168 Snow -1 1001 93 3400 7 110 09:30 18.04.2022
4169 Snow -1 1001 93 8000 7 110 07:34 18.04.2022
4170 Snow -1 1001 86 8000 8 90 03:57 18.04.2022
4171 Snow 0 1002 86 5000 11 80 23:41 17.04.2022
4172 Snow -1 1003 92 4200 10 80 22:40 17.04.2022
4173 Clouds -1 1003 80 10000 11 80 21:42 17.04.2022
4174 Clouds -1 1003 80 10000 11 80 21:21 17.04.2022
4175 Snow 0 1004 80 10000 10 80 20:32 17.04.2022
4176 Snow 0 1004 86 3500 11 90 19:21 17.04.2022
4177 Snow -1 1006 93 6000 8 80 17:38 17.04.2022
4178 Snow -1 1007 86 4000 10 90 15:38 17.04.2022
4179 Snow -1 1008 86 2900 11 90 14:53 17.04.2022
4180 Snow -1 1009 86 2200 10 90 13:44 17.04.2022
4181 Snow -1 1009 86 9000 12 80 12:56 17.04.2022
4182 Clear 0 1009 80 10000 8 80 11:24 17.04.2022
4183 Clouds 0 1010 80 10000 8 80 10:40 17.04.2022
4184 Clouds 0 1010 80 10000 8 80 10:19 17.04.2022
4185 Clouds 1 1010 75 10000 8 80 09:23 17.04.2022
4186 Clouds -1 1009 86 10000 10 90 08:41 17.04.2022
4187 Clouds 0 1010 74 10000 8 100 06:53 17.04.2022
4188 Clouds -1 1011 80 10000 6 70 03:20 17.04.2022
4189 Clouds 1 1011 75 10000 6 80 00:55 17.04.2022
4190 Snow 0 1011 80 9000 5 50 23:50 16.04.2022
4191 Snow -1 1011 80 10000 3 10 22:27 16.04.2022
4192 Snow -1 1010 74 10000 3 360 21:29 16.04.2022
4193 Clear 0 1009 69 10000 7 100 19:54 16.04.2022
4194 Clear -1 1009 80 10000 4 60 18:54 16.04.2022
4195 Clear 1 1009 69 10000 7 80 17:40 16.04.2022
4196 Clouds 0 1008 74 10000 6 70 16:32 16.04.2022
4197 Clouds 0 1008 74 10000 8 80 15:40 16.04.2022
4198 Clouds -1 1007 80 10000 8 80 14:51 16.04.2022
4199 Clouds -1 1006 80 10000 10 80 13:57 16.04.2022
4200 Clouds -1 1006 80 10000 10 80 13:26 16.04.2022
4201 Clear -1 1006 80 10000 11 80 12:18 16.04.2022
4202 Clear -1 1005 80 10000 10 80 10:42 16.04.2022
4203 Clear -2 1004 80 10000 11 80 09:41 16.04.2022
4204 Clear 0 1004 74 10000 9 80 08:56 16.04.2022
4205 Clear -1 1003 80 10000 11 80 07:32 16.04.2022
4206 Clear -1 1003 80 10000 10 80 06:46 16.04.2022
4207 Snow 0 1002 74 10000 10 40 01:59 16.04.2022
4208 Clear 1 1002 69 10000 8 60 00:21 16.04.2022
4209 Clear 0 1001 69 10000 16 30 22:54 15.04.2022
4210 Clear 0 1001 69 10000 16 30 22:31 15.04.2022
4211 Clear -1 1001 74 10000 15 20 21:44 15.04.2022
4212 Clouds 0 1002 74 10000 12 40 20:56 15.04.2022
4213 Clouds -2 1003 86 10000 16 20 19:59 15.04.2022
4214 Clouds -2 1003 86 10000 16 20 19:38 15.04.2022
4215 Clouds 0 1003 80 10000 13 40 18:46 15.04.2022
4216 Clouds 0 1003 80 10000 13 40 18:24 15.04.2022
4217 Clouds 0 1004 80 10000 15 30 17:30 15.04.2022
4218 Clouds 0 1004 86 10000 15 30 16:26 15.04.2022
4219 Clear 1 1005 80 10000 5 20 15:59 15.04.2022
4220 Clear 0 1006 86 10000 5 10 14:30 15.04.2022
4221 Clouds 0 1007 80 10000 2 70 13:23 15.04.2022
4222 Clouds -1 1007 86 10000 4 10 12:40 15.04.2022
4223 Clouds 0 1007 80 10000 5 50 11:54 15.04.2022
4224 Clear 0 1007 80 10000 9 80 10:49 15.04.2022
4225 Clear 0 1007 80 10000 9 80 10:22 15.04.2022
4226 Clear 0 1007 80 10000 10 80 09:24 15.04.2022
4227 Clouds 0 1007 86 10000 11 90 08:57 15.04.2022
4228 Clouds 1 1007 74 10000 9 80 06:56 15.04.2022
4229 Clouds 1 1008 80 10000 7 80 05:56 15.04.2022
4230 Snow -1 1008 93 3000 10 90 01:49 15.04.2022
4231 Snow -1 1007 93 3500 11 100 23:30 14.04.2022
4232 Snow -1 1007 93 1600 10 90 22:47 14.04.2022
4233 Snow -2 1007 92 2300 11 100 22:28 14.04.2022
4234 Snow 0 1007 86 1100 11 90 21:54 14.04.2022
4235 Snow -1 1007 92 2200 10 100 20:35 14.04.2022
4236 Snow -1 1007 93 1600 9 100 19:22 14.04.2022
4237 Snow -1 1007 93 2600 9 100 18:18 14.04.2022
4238 Snow -2 1006 100 1200 10 100 17:28 14.04.2022
4239 Snow -1 1005 92 1200 11 100 16:33 14.04.2022
4240 Snow -3 1002 92 700 12 90 14:23 14.04.2022
4241 Snow -3 1002 92 450 13 90 13:39 14.04.2022
4242 Clouds -3 1005 92 550 15 90 12:51 14.04.2022
4243 Clouds -3 1005 92 550 15 90 12:30 14.04.2022
4244 Snow -3 1005 86 300 15 90 11:23 14.04.2022
4245 Snow -3 1005 92 350 13 90 10:36 14.04.2022
4246 Clouds -4 1006 92 650 12 80 09:56 14.04.2022
4247 Snow -3 1006 86 700 13 90 08:40 14.04.2022
4248 Snow -3 1001 86 400 14 90 06:50 14.04.2022
4249 Clouds -3 1010 86 750 13 80 02:53 14.04.2022
4250 Snow -4 1012 86 1600 11 80 22:56 13.04.2022
4251 Clouds -4 1015 86 10000 6 20 21:44 13.04.2022
4252 Snow -3 1015 86 10000 8 40 20:55 13.04.2022
4253 Snow -3 1015 86 10000 8 40 20:22 13.04.2022
4254 Snow -3 1015 86 1600 10 80 19:24 13.04.2022
4255 Snow -3 1015 93 2400 10 80 18:19 13.04.2022
4256 Snow -2 1016 86 4500 9 70 17:23 13.04.2022
4257 Snow -2 1017 86 9000 10 70 16:33 13.04.2022
4258 Snow -3 1018 86 10000 11 80 15:35 13.04.2022
4259 Snow -3 1019 86 7000 11 80 14:50 13.04.2022
4260 Snow -3 1019 86 7000 11 80 14:18 13.04.2022
4261 Snow -3 1019 86 3400 12 80 13:19 13.04.2022
4262 Snow -4 1020 93 1400 12 70 12:25 13.04.2022
4263 Clouds -2 1020 86 10000 8 70 10:47 13.04.2022
4264 Snow -4 1021 86 8000 8 30 08:58 13.04.2022
4265 Snow -4 1021 86 8000 8 30 08:33 13.04.2022
4266 Snow -2 1022 80 9000 9 60 06:51 13.04.2022
4267 Snow -2 1022 80 10000 9 60 06:25 13.04.2022
4268 Snow -3 1022 80 10000 10 60 04:55 13.04.2022
4269 Snow -4 1024 74 8000 10 70 00:21 13.04.2022
4270 Snow -3 1024 74 8000 11 60 23:29 12.04.2022
4271 Snow -4 1023 80 1700 12 60 21:58 12.04.2022
4272 Snow -4 1023 80 3500 11 60 20:57 12.04.2022
4273 Snow -4 1023 80 3500 11 60 20:38 12.04.2022
4274 Snow -4 1024 86 2700 11 60 19:48 12.04.2022
4275 Snow -4 1024 86 2700 11 60 19:29 12.04.2022
4276 Snow -4 1024 80 9000 9 70 17:59 12.04.2022
4277 Snow -4 1024 80 9000 9 70 17:23 12.04.2022
4278 Snow -6 1024 86 10000 6 10 16:22 12.04.2022
4279 Snow -6 1025 86 9000 6 20 15:29 12.04.2022
4280 Snow -4 1025 80 10000 8 360 14:21 12.04.2022
4281 Clouds -15 1027 90 10000 4.62 36 13:29 12.04.2022
4282 Clouds -15 1027 90 10000 4.62 36 12:49 12.04.2022
4283 Clouds -5 1025 80 10000 5 340 11:46 12.04.2022
4284 Clouds -5 1025 80 10000 5 350 10:35 12.04.2022
4285 Clouds -5 1025 80 10000 7 360 09:18 12.04.2022
4286 Clouds -6 1025 85 10000 4 360 07:55 12.04.2022
4287 Clouds -4 1023 79 3800 11 90 05:50 12.04.2022
4288 Clouds -4 1025 86 10000 3 350 04:55 12.04.2022
4289 Snow -7 1026 93 10000 5 350 23:53 11.04.2022
4290 Snow -8 1026 93 10000 5 350 22:44 11.04.2022
4291 Mist -9 1026 92 10000 4 340 21:37 11.04.2022
4292 Clouds -10 1027 85 7000 3 330 20:56 11.04.2022
4293 Clouds -10 1027 85 7000 3 330 20:29 11.04.2022
4294 Clouds -11 1027 92 9000 4 10 19:42 11.04.2022
4295 Clouds -11 1027 92 9000 4 10 19:18 11.04.2022
4296 Clouds -11 1027 92 10000 4 360 18:41 11.04.2022
4297 Clouds -11 1027 92 10000 4 340 17:56 11.04.2022
4298 Clouds -11 1027 92 10000 6 320 16:54 11.04.2022
4299 Clouds -10 1028 92 10000 5 350 15:54 11.04.2022
4300 Snow -9 1028 92 9000 5 320 13:59 11.04.2022
4301 Snow -8 1028 93 7000 4 320 12:47 11.04.2022
4302 Snow -8 1028 93 7000 4 320 12:29 11.04.2022
4303 Mist -9 1028 92 2600 5 310 11:31 11.04.2022
4304 Snow -8 1028 92 4900 4 310 10:24 11.04.2022
4305 Snow -7 1027 92 6000 4 340 08:56 11.04.2022
4306 Mist -6 1027 93 1800 5 340 06:21 11.04.2022
4307 Clouds -6 1027 86 10000 1 0 01:23 11.04.2022
4308 Clear -7 1026 86 10000 1 0 22:34 10.04.2022
4309 Clear -7 1025 93 10000 0 0 21:55 10.04.2022
4310 Clear -8 1025 92 10000 0 0 21:28 10.04.2022
4311 Clear -8 1024 93 10000 2 350 20:30 10.04.2022
4312 Clear -8 1024 85 10000 2 340 19:41 10.04.2022
4313 Clear -8 1024 85 10000 2 340 19:18 10.04.2022
4314 Clouds -8 1023 92 10000 3 340 18:38 10.04.2022
4315 Clouds -7 1023 85 10000 2 350 17:52 10.04.2022
4316 Clouds -7 1023 85 10000 2 350 17:32 10.04.2022
4317 Clouds -1 1022 80 10000 5 160 15:56 10.04.2022
4318 Clouds -1 1022 86 10000 6 160 14:51 10.04.2022
4319 Clouds -2 1021 86 10000 6 160 13:49 10.04.2022
4320 Clouds -1 1021 80 10000 8 170 12:33 10.04.2022
4321 Clouds -1 1020 80 10000 9 170 11:45 10.04.2022
4322 Clouds -1 1020 80 10000 9 170 11:24 10.04.2022
4323 Clouds -1 1019 80 10000 8 170 10:41 10.04.2022
4324 Clouds -1 1018 86 10000 7 150 09:49 10.04.2022
4325 Clouds 0 1017 80 10000 7 160 08:55 10.04.2022
4326 Clouds 0 1017 80 10000 7 160 08:20 10.04.2022
4327 Clouds 0 1016 80 10000 9 160 06:59 10.04.2022
4328 Clouds 0 1015 74 10000 12 150 04:36 10.04.2022
4329 Clouds 0 1014 74 10000 9 140 02:19 10.04.2022
4330 Clouds -3 1014 80 10000 7 160 23:54 09.04.2022
4331 Clouds -3 1014 80 10000 7 160 23:25 09.04.2022
4332 Snow -6 1014 86 9000 2 290 22:39 09.04.2022
4333 Snow -14 1015 92 4500 3 310 21:28 09.04.2022
4334 Snow -13 1015 92 4700 2 320 20:31 09.04.2022
4335 Snow -16 1016 84 10000 4 360 19:57 09.04.2022
4336 Snow -16 1016 84 10000 4 360 19:39 09.04.2022
4337 Snow -15 1016 84 10000 3 340 18:24 09.04.2022
4338 Snow -17 1016 84 3700 1 0 17:50 09.04.2022
4339 Snow -17 1016 77 10000 1 0 16:59 09.04.2022
4340 Snow -17 1016 77 10000 1 0 16:40 09.04.2022
4341 Snow -16 1016 77 8000 3 350 15:50 09.04.2022
4342 Snow -16 1016 77 8000 3 350 15:26 09.04.2022
4343 Clouds -16 1017 78 10000 3 360 14:26 09.04.2022
4344 Clouds -15 1016 78 10000 3 360 13:33 09.04.2022
4345 Snow -14 1016 78 10000 3 360 12:56 09.04.2022
4346 Clouds -12 1016 79 10000 2 30 11:50 09.04.2022
4347 Clouds -14 1016 78 10000 2 60 10:52 09.04.2022
4348 Clouds -14 1016 78 10000 2 60 10:18 09.04.2022
4349 Clouds -17 1016 84 10000 3 340 09:23 09.04.2022
4350 Clouds -14 1015 78 10000 1 0 08:26 09.04.2022
4351 Clouds -11 1015 67 10000 3 120 04:38 09.04.2022
4352 Clear -13 1015 61 10000 1 0 00:35 09.04.2022
4353 Clear -18 1015 71 10000 2 320 23:23 08.04.2022
4354 Clear -18 1015 71 10000 1 0 21:53 08.04.2022
4355 Clear -21 1015 71 10000 1 0 20:44 08.04.2022
4356 Clear -23 1015 84 10000 2 310 19:50 08.04.2022
4357 Clear -22 1015 77 10000 2 300 18:56 08.04.2022
4358 Clear -22 1015 77 10000 2 300 18:22 08.04.2022
4359 Clear -22 1015 77 10000 1 0 17:29 08.04.2022
4360 Clear -23 1014 70 10000 2 40 16:58 08.04.2022
4361 Clear -23 1014 70 10000 2 40 16:27 08.04.2022
4362 Clear -22 1015 77 10000 0 0 15:36 08.04.2022
4363 Clear -21 1015 77 10000 2 150 14:52 08.04.2022
4364 Clear -21 1015 77 10000 2 150 14:20 08.04.2022
4365 Clear -21 1015 77 10000 1 120 13:31 08.04.2022
4366 Clear -18 1015 78 10000 2 160 12:55 08.04.2022
4367 Clear -17 1014 78 10000 2 150 11:35 08.04.2022
4368 Clear -18 1014 71 10000 0 0 09:59 08.04.2022
4369 Clear -18 1014 71 10000 0 0 09:19 08.04.2022
4370 Clear -15 1014 66 10000 1 360 07:44 08.04.2022
4371 Clear -16 1015 71 10000 1 0 06:45 08.04.2022
4372 Clear -17 1015 71 10000 5 300 02:55 08.04.2022
4373 Clear -18 1016 71 10000 6 320 00:31 08.04.2022
4374 Clear -19 1016 77 10000 5 310 23:47 07.04.2022
4375 Clear -20 1016 76 10000 5 310 22:55 07.04.2022
4376 Clear -20 1016 71 10000 3 310 22:36 07.04.2022
4377 Clear -20 1016 71 10000 3 310 22:18 07.04.2022
4378 Clear -21 1016 77 10000 5 10 21:30 07.04.2022
4379 Clear -21 1016 84 10000 7 310 20:55 07.04.2022
4380 Clear -21 1016 84 10000 7 310 20:21 07.04.2022
4381 Clear -20 1016 77 10000 6 320 17:43 07.04.2022
4382 Clear -20 1016 77 10000 6 320 17:23 07.04.2022
4383 Clear -19 1017 78 10000 3 360 16:35 07.04.2022
4384 Clouds -20 1017 84 10000 5 310 15:52 07.04.2022
4385 Clear -19 1018 84 10000 6 290 13:59 07.04.2022
4386 Clear -19 1018 84 10000 6 290 13:26 07.04.2022
4387 Clear -18 1018 78 10000 7 290 11:54 07.04.2022
4388 Clear -18 1018 85 10000 6 300 10:56 07.04.2022
4389 Clear -18 1018 85 10000 7 300 09:34 07.04.2022
4390 Clouds -17 1018 78 10000 6 290 08:27 07.04.2022
4391 Clouds -17 1019 71 10000 8 300 06:18 07.04.2022
4392 Clear -18 1019 71 10000 7 310 02:38 07.04.2022
4393 Clouds -18 1019 71 10000 8 300 00:47 07.04.2022
4394 Clear -21 1019 70 10000 6 310 23:53 06.04.2022
4395 Clear -22 1019 76 10000 6 310 22:45 06.04.2022
4396 Clear -21 1019 65 10000 3 320 22:24 06.04.2022
4397 Clear -24 1019 77 10000 2 40 21:18 06.04.2022
4398 Clouds -24 1019 77 10000 2 330 20:27 06.04.2022
4399 Clouds -23 1019 70 10000 2 350 19:52 06.04.2022
4400 Clear -23 1019 77 10000 3 340 18:50 06.04.2022
4401 Clear -24 1018 77 10000 3 330 17:52 06.04.2022
4402 Clear -24 1018 77 10000 3 330 17:28 06.04.2022
4403 Clear -22 1018 77 10000 3 340 16:35 06.04.2022
4404 Clear -21 1018 77 10000 5 10 15:47 06.04.2022
4405 Clouds -19 1016 78 10000 8 310 14:20 06.04.2022
4406 Clear -18 1016 71 10000 6 320 12:58 06.04.2022
4407 Clear -20 1015 84 10000 4 310 11:54 06.04.2022
4408 Clouds -18 1015 85 10000 7 290 10:43 06.04.2022
4409 Clouds -18 1015 85 10000 7 290 10:19 06.04.2022
4410 Clouds -18 1015 85 10000 7 300 09:27 06.04.2022
4411 Clouds -18 1014 84 10000 10 290 08:30 06.04.2022
4412 Clouds -16 1014 78 9000 12 290 07:38 06.04.2022
4413 Clear -18 1016 71 10000 3 340 02:57 06.04.2022
4414 Clear -21 1017 70 10000 3 10 23:51 05.04.2022
4415 Clear -21 1018 71 10000 4 10 22:28 05.04.2022
4416 Clear -22 1018 71 10000 5 30 21:18 05.04.2022
4417 Clear -24 1018 77 10000 6 30 20:25 05.04.2022
4418 Clear -25 1018 77 10000 5 30 19:26 05.04.2022
4419 Clear -25 1019 77 10000 5 20 17:52 05.04.2022
4420 Clear -25 1018 84 10000 4 20 16:51 05.04.2022
4421 Clear -25 1019 84 10000 4 40 15:53 05.04.2022
4422 Clear -25 1019 84 10000 4 40 15:33 05.04.2022
4423 Clear -24 1018 77 10000 5 30 14:22 05.04.2022
4424 Clear -22 1018 77 10000 5 20 12:56 05.04.2022
4425 Clear -21 1018 77 10000 4 30 11:50 05.04.2022
4426 Clear -21 1018 77 10000 4 30 11:32 05.04.2022
4427 Clear -20 1017 77 10000 4 10 09:52 05.04.2022
4428 Clear -17 1017 71 10000 5 350 08:52 05.04.2022
4429 Clear -16 1015 71 10000 5 330 06:52 05.04.2022
4430 Clouds -21 1013 70 10000 9 350 01:51 05.04.2022
4431 Clouds -21 1012 71 10000 8 340 22:42 04.04.2022
4432 Clouds -21 1012 71 10000 8 340 22:22 04.04.2022
4433 Clouds -23 1012 77 10000 7 10 21:21 04.04.2022
4434 Clouds -23 1012 77 10000 7 10 21:21 04.04.2022
4435 Clear -25 1012 77 10000 6 360 20:49 04.04.2022
4436 Clear -25 1011 77 10000 6 340 19:45 04.04.2022
4437 Clear -25 1011 77 10000 6 340 19:25 04.04.2022
4438 Clear -24 1011 77 10000 4 360 18:33 04.04.2022
4439 Clouds -23 1010 77 10000 3 340 16:36 04.04.2022
4440 Clouds -21 1010 77 10000 2 330 15:43 04.04.2022
4441 Clouds -21 1010 77 10000 2 330 15:25 04.04.2022
4442 Clouds -22 1009 77 10000 3 350 14:46 04.04.2022
4443 Clouds -19 1009 78 10000 2 270 13:30 04.04.2022
4444 Clouds -19 1008 78 10000 1 0 11:55 04.04.2022
4445 Clouds -19 1008 78 10000 1 0 11:29 04.04.2022
4446 Clear -15 1006 72 10000 1 360 08:54 04.04.2022
4447 Clear -17 1006 71 10000 4 360 04:45 04.04.2022
4448 Clear -19 1006 70 10000 5 10 01:28 04.04.2022
4449 Clear -22 1006 76 10000 3.58 350 22:43 03.04.2022
4450 Clear -23 1006 77 10000 2 30 21:46 03.04.2022
4451 Clear -23 1006 77 10000 4 330 20:56 03.04.2022
4452 Clear -22 1005 77 10000 2 310 19:51 03.04.2022
4453 Clear -21 1005 77 10000 6 360 18:33 03.04.2022
4454 Clouds -19 1004 71 10000 9 20 17:47 03.04.2022
4455 Clouds -18 1004 71 10000 10 10 16:59 03.04.2022
4456 Clouds -18 1004 71 10000 10 10 16:41 03.04.2022
4457 Clear -17 1004 66 10000 3 110 14:52 03.04.2022
4458 Clear -17 1004 66 10000 3 210 13:55 03.04.2022
4459 Clear -17 1003 66 10000 2 100 12:46 03.04.2022
4460 Clear -17 1003 71 10000 1 0 11:29 03.04.2022
4461 Clear -15 1003 72 10000 1 0 09:38 03.04.2022
4462 Clear -13 1002 66 10000 4 260 08:40 03.04.2022
4463 Clouds -11 1002 66 10000 1 250 05:42 03.04.2022
4464 Clear -11 1003 78 10000 3 260 02:53 03.04.2022
4465 Snow -9 1003 79 10000 3 170 23:22 02.04.2022
4466 Snow -9 1002 86 9000 0 0 22:38 02.04.2022
4467 Snow -9 1003 86 10000 0 0 21:49 02.04.2022
4468 Snow -9 1003 86 10000 0 0 21:19 02.04.2022
4469 Snow -10 1003 92 9000 0 0 20:29 02.04.2022
4470 Snow -9 1003 86 5000 2 340 18:27 02.04.2022
4471 Snow -9 1003 86 10000 1 280 17:53 02.04.2022
4472 Snow -9 1003 86 2000 1 200 16:30 02.04.2022
4473 Snow -8 1003 79 10000 1 310 15:23 02.04.2022
4474 Snow -8 1004 79 10000 1 50 14:51 02.04.2022
4475 Snow -8 1004 79 10000 2 340 13:56 02.04.2022
4476 Snow -9 1004 78 10000 2 340 13:19 02.04.2022
4477 Snow -9 1004 78 10000 3 280 11:39 02.04.2022
4478 Clouds -9 1004 85 10000 3 200 09:31 02.04.2022
4479 Clouds -8 1004 85 10000 4 240 06:58 02.04.2022
4480 Clouds -6 1004 85 10000 4 280 03:55 02.04.2022
4481 Clouds -5 1004 85 10000 3 250 00:25 02.04.2022
4482 Snow -6 1005 85 10000 5 290 23:45 01.04.2022
4483 Snow -3 1004 68 10000 3 80 22:24 01.04.2022
4484 Snow -2 1004 74 10000 4 300 20:54 01.04.2022
4485 Snow -2 1004 74 10000 4 300 20:31 01.04.2022
4486 Snow -3 1004 86 10000 4 70 19:39 01.04.2022
4487 Snow -3 1003 86 2700 12 100 18:54 01.04.2022
4488 Snow -3 1003 86 2700 12 100 18:23 01.04.2022
4489 Snow -4 1003 93 1400 11 100 17:36 01.04.2022
4490 Clouds -4 1003 93 2600 11 90 15:44 01.04.2022
4491 Clouds -4 1003 86 8000 9 80 14:39 01.04.2022
4492 Clouds -4 1003 86 10000 7 60 13:38 01.04.2022
4493 Clouds -4 1003 93 10000 9 70 12:33 01.04.2022
4494 Clouds -4 1002 86 7000 10 80 11:45 01.04.2022
4495 Clouds -4 1002 86 10000 7 60 10:41 01.04.2022
4496 Clouds -4 1001 86 10000 9 40 09:34 01.04.2022
4497 Snow -7 1001 79 6000 3 10 07:19 01.04.2022
4498 Clear -5 1000 68 10000 1 0 04:56 01.04.2022
4499 Clear -6 1000 73 10000 3 150 04:37 01.04.2022
4500 Clouds -6 999 73 3500 17 40 02:32 01.04.2022
4501 Clouds -7 1001 73 10000 3 50 01:31 01.04.2022
4502 Clouds -14 1002 84 9000 9 340 22:24 31.03.2022
4503 Snow -15 1003 84 7000 10 350 21:37 31.03.2022
4504 Snow -15 1003 84 9000 8 340 20:50 31.03.2022
4505 Snow -15 1003 84 9000 8 340 20:28 31.03.2022
4506 Snow -15 1004 77 10000 9 350 19:18 31.03.2022
4507 Snow -16 1005 77 10000 8 340 18:31 31.03.2022
4508 Snow -16 1005 77 10000 8 340 18:31 31.03.2022
4509 Clouds -17 1005 77 10000 9 360 16:47 31.03.2022
4510 Snow -18 1006 77 10000 8 350 15:54 31.03.2022
4511 Snow -18 1006 77 10000 8 350 15:24 31.03.2022
4512 Snow -21 1007 83 10000 7 340 14:44 31.03.2022
4513 Snow -21 1007 76 10000 6 340 13:28 31.03.2022
4514 Clear -22 1008 83 10000 6 340 11:30 31.03.2022
4515 Clear -22 1008 76 10000 6 340 10:22 31.03.2022
4516 Clear -22 1008 83 10000 5 340 09:39 31.03.2022
4517 Clear -21 1008 83 10000 6 340 07:48 31.03.2022
4518 Clear -23 1010 76 10000 4 340 01:37 31.03.2022
4519 Clear -26 1010 83 10000 3 330 23:23 30.03.2022
4520 Clear -26 1010 83 10000 4 350 21:54 30.03.2022
4521 Clear -26 1010 84 10000 4 350 21:27 30.03.2022
4522 Clear -27 1010 83 10000 5 350 20:32 30.03.2022
4523 Clear -26 1010 84 10000 4 360 19:47 30.03.2022
4524 Clear -27 1010 83 10000 2 340 18:41 30.03.2022
4525 Clear -25 1011 77 10000 3 350 17:51 30.03.2022
4526 Clear -25 1011 77 10000 3 330 16:59 30.03.2022
4527 Clear -25 1011 76 10000 3 330 16:39 30.03.2022
4528 Clear -24 1011 77 10000 3 350 15:47 30.03.2022
4529 Clear -22 1011 77 10000 2 360 14:22 30.03.2022
4530 Clear -21 1012 77 10000 4 360 13:21 30.03.2022
4531 Clear -23 1012 77 10000 3 10 12:19 30.03.2022
4532 Clouds -22 1013 77 10000 2 360 10:48 30.03.2022
4533 Clouds -21 1013 76 10000 4 340 09:30 30.03.2022
4534 Clear -21 1013 76 10000 4 10 08:20 30.03.2022
4535 Clear -18 1013 77 10000 5 360 06:32 30.03.2022
4536 Clear -18 1013 77 10000 6 360 05:38 30.03.2022
4537 Clear -16 1014 77 10000 1 0 01:45 30.03.2022
4538 Clear -21 1014 83 10000 3 340 22:38 29.03.2022
4539 Clear -21 1014 83 10000 2 120 21:47 29.03.2022
4540 Clear -23 1013 83 10000 2 10 20:55 29.03.2022
4541 Clear -23 1013 83 10000 2 10 20:25 29.03.2022
4542 Clear -23 1013 83 10000 1.79 40 19:20 29.03.2022
4543 Clear -23 1013 83 10000 2 40 18:48 29.03.2022
4544 Clear -20 1013 84 10000 1 0 17:40 29.03.2022
4545 Clear -21 1013 83 10000 1 350 16:59 29.03.2022
4546 Clear -20 1013 84 10000 1 350 16:20 29.03.2022
4547 Clear -23 1013 83 10000 2 60 14:53 29.03.2022
4548 Clear -23 1013 83 10000 2 60 14:24 29.03.2022
4549 Clear -21 1013 76 10000 1 0 13:30 29.03.2022
4550 Clear -18 1012 85 10000 1 270 11:46 29.03.2022
4551 Clear -21 1013 76 10000 1 0 10:59 29.03.2022
4552 Clear -22 1012 76 10000 1 0 09:50 29.03.2022
4553 Clear -21 1012 83 10000 1 40 08:20 29.03.2022
4554 Clear -20 1012 84 10000 2 330 05:38 29.03.2022
4555 Clear -22 1014 77 10000 3 10 01:25 29.03.2022
4556 Clear -25 1013 77 10000 1 360 23:25 28.03.2022
4557 Clear -26 1014 76 10000 2 350 22:54 28.03.2022
4558 Clear -26 1014 75 10000 2 320 22:28 28.03.2022
4559 Fog -28 1014 75 10000 1 340 20:59 28.03.2022
4560 Fog -28 1014 75 10000 1 340 20:31 28.03.2022
4561 Fog -28 1014 75 10000 2 10 19:46 28.03.2022
4562 Fog -28 1014 75 10000 2 10 19:28 28.03.2022
4563 Fog -27 1014 75 10000 2 360 18:40 28.03.2022
4564 Fog -26 1014 76 10000 3 360 17:39 28.03.2022
4565 Fog -26 1014 76 10000 3 10 16:38 28.03.2022
4566 Mist -26 1015 75 5000 3 350 14:49 28.03.2022
4567 Mist -26 1015 75 5000 3 350 14:22 28.03.2022
4568 Fog -26 1016 75 350 3 340 12:41 28.03.2022
4569 Fog -26 1015 83 1800 4 360 11:38 28.03.2022
4570 Fog -24 1015 76 10000 4 360 09:43 28.03.2022
4571 Fog -24 1015 76 10000 4 360 09:19 28.03.2022
4572 Fog -23 1016 83 10000 4 350 08:23 28.03.2022
4573 Clear -22 1016 76 10000 4 10 07:40 28.03.2022
4574 Clear -19 1017 84 10000 3 360 04:18 28.03.2022
4575 Clouds -17 1018 85 10000 2 10 23:43 27.03.2022
4576 Clouds -19 1018 84 10000 1 0 22:25 27.03.2022
4577 Mist -21 1018 84 2300 2 30 21:42 27.03.2022
4578 Mist -24 1018 83 10000 2 350 20:58 27.03.2022
4579 Fog -23 1017 84 10000 3 310 19:49 27.03.2022
4580 Fog -23 1017 83 10000 3 310 19:26 27.03.2022
4581 Fog -21 1017 77 10000 5 350 18:28 27.03.2022
4582 Fog -20 1017 84 10000 4 360 17:40 27.03.2022
4583 Fog -20 1017 84 10000 4 360 17:20 27.03.2022
4584 Snow -21 1017 84 10000 1 350 15:28 27.03.2022
4585 Clouds -21 1017 84 10000 3 330 13:56 27.03.2022
4586 Clouds -19 1017 84 10000 2 360 12:38 27.03.2022
4587 Mist -21 1016 76 9000 3 10 11:21 27.03.2022
4588 Fog -21 1016 83 10000 0 0 09:21 27.03.2022
4589 Fog -19 1014 78 10000 1 250 05:56 27.03.2022
4590 Clouds -17 1013 84 10000 1 0 00:57 27.03.2022
4591 Clouds -18 1012 84 10000 1 0 23:46 26.03.2022
4592 Clouds -15 1012 84 10000 3 150 22:38 26.03.2022
4593 Snow -18 1011 91 10000 3 180 21:46 26.03.2022
4594 Snow -18 1011 91 10000 3 180 21:25 26.03.2022
4595 Snow -13 1010 85 9000 3 180 19:29 26.03.2022
4596 Snow -10 1009 79 10000 3 120 17:54 26.03.2022
4597 Snow -10 1009 79 10000 3 120 17:33 26.03.2022
4598 Snow -10 1009 79 10000 1 0 16:27 26.03.2022
4599 Snow -14 1008 84 10000 1 0 15:20 26.03.2022
4600 Snow -11 1008 85 10000 2 280 13:53 26.03.2022
4601 Snow -11 1008 92 8000 2 360 12:59 26.03.2022
4602 Snow -13 1008 92 4100 2 10 11:41 26.03.2022
4603 Snow -13 1008 92 4100 2 10 11:41 26.03.2022
4604 Snow -13 1008 92 4100 2 10 11:41 26.03.2022
4605 Snow -13 1008 92 4100 2 10 11:41 26.03.2022
4606 Snow -14 1008 85 7000 3 30 10:28 26.03.2022
4607 Snow -15 1007 84 10000 3 340 08:35 26.03.2022
4608 Clouds -15 1007 77 10000 2 350 05:54 26.03.2022
4609 Clouds -15 1007 77 10000 2 350 05:22 26.03.2022
4610 Clouds -15 1007 84 10000 2 350 00:28 26.03.2022
4611 Clouds -18 1006 84 10000 2 350 21:49 25.03.2022
4612 Clouds -19 1006 84 10000 2 10 20:46 25.03.2022
4613 Clouds -19 1006 84 10000 4 350 19:38 25.03.2022
4614 Clouds -17 1006 85 10000 4 360 18:47 25.03.2022
4615 Snow -17 1006 85 10000 4 350 17:47 25.03.2022
4616 Snow -17 1006 85 10000 4 350 17:27 25.03.2022
4617 Clouds -19 1005 84 10000 4 350 16:18 25.03.2022
4618 Snow -16 1006 78 10000 1 0 14:26 25.03.2022
4619 Clouds -16 1006 78 10000 2 120 12:57 25.03.2022
4620 Mist -18 1006 84 10000 0 0 10:22 25.03.2022
4621 Mist -18 1006 84 8000 2 210 09:28 25.03.2022
4622 Fog -18 1006 84 10000 2 360 08:24 25.03.2022
4623 Fog -16 1005 84 10000 1 0 07:28 25.03.2022
4624 Fog -15 1005 84 10000 5.81 100 05:55 25.03.2022
4625 Mist -15 1007 84 2100 1 350 00:46 25.03.2022
4626 Mist -16 1007 92 1300 4 360 22:51 24.03.2022
4627 Fog -16 1007 92 10000 2 320 21:45 24.03.2022
4628 Clear -14 1008 92 10000 3 360 20:26 24.03.2022
4629 Clear -16 1008 92 10000 3 340 19:47 24.03.2022
4630 Clouds -12 1009 85 10000 5 360 17:47 24.03.2022
4631 Clouds -12 1009 85 10000 5 360 17:19 24.03.2022
4632 Clouds -14 1009 92 10000 3 330 15:45 24.03.2022
4633 Clouds -13 1009 84 10000 3 330 14:48 24.03.2022
4634 Clouds -13 1009 85 10000 3 330 14:18 24.03.2022
4635 Clouds -13 1010 84 10000 3 360 12:52 24.03.2022
4636 Clouds -13 1010 84 10000 2 30 11:45 24.03.2022
4637 Snow -13 1010 84 10000 1 360 09:53 24.03.2022
4638 Clouds -13 1010 84 10000 1 280 08:41 24.03.2022
4639 Clouds -12 1011 79 10000 2 10 06:49 24.03.2022
4640 Clouds -12 1011 78 10000 2 210 02:24 24.03.2022
4641 Fog -14 1012 84 10000 1 300 23:20 23.03.2022
4642 Fog -16 1012 84 10000 2 20 21:27 23.03.2022
4643 Fog -16 1012 84 10000 2 190 20:59 23.03.2022
4644 Fog -16 1012 84 10000 3 20 19:46 23.03.2022
4645 Fog -16 1012 84 10000 2 350 18:45 23.03.2022
4646 Fog -15 1012 84 10000 1 0 17:36 23.03.2022
4647 Fog -14 1011 84 10000 3 50 16:33 23.03.2022
4648 Fog -12 1012 79 10000 2 170 14:51 23.03.2022
4649 Fog -12 1012 79 10000 2 170 14:26 23.03.2022
4650 Fog -9 1011 73 10000 2 330 12:51 23.03.2022
4651 Fog -5 1010 58 10000 8 110 09:42 23.03.2022
4652 Clouds -5 1010 68 10000 7 100 06:48 23.03.2022
4653 Clouds -5 1010 74 10000 9 110 05:23 23.03.2022
4654 Clouds -7 1010 79 6000 9 110 00:29 23.03.2022
4655 Clouds -5 1010 79 3100 10 120 23:39 22.03.2022
4656 Clouds -7 1010 79 5000 9 100 21:30 22.03.2022
4657 Clouds -6 1010 79 10000 11 110 20:45 22.03.2022
4658 Clouds -6 1010 79 10000 10 120 19:43 22.03.2022
4659 Clouds -5 1010 79 10000 10 120 19:18 22.03.2022
4660 Clouds -7 1010 92 10000 11.62 110 18:31 22.03.2022
4661 Clouds -7 1010 92 5000 12 110 17:29 22.03.2022
4662 Clouds -6 1010 85 2900 11 110 16:27 22.03.2022
4663 Clouds -7 1011 92 2900 11 110 15:23 22.03.2022
4664 Snow -7 1011 92 3500 10 110 14:47 22.03.2022
4665 Snow -7 1011 92 3500 10 110 14:27 22.03.2022
4666 Snow -6 1012 85 2400 10 100 13:35 22.03.2022
4667 Clouds -6 1012 85 9000 12 120 11:52 22.03.2022
4668 Snow -5 1012 85 6000 13 120 10:44 22.03.2022
4669 Clouds -4 1011 86 9000 12 130 08:36 22.03.2022
4670 Clouds -4 1011 86 10000 13 130 06:53 22.03.2022
4671 Clouds -4 1012 86 10000 16 130 03:49 22.03.2022
4672 Clouds -4 1013 86 6000 13 130 00:28 22.03.2022
4673 Clouds -5 1014 85 5000 13 130 22:42 21.03.2022
4674 Clouds -4 1014 86 6000 12 130 21:18 21.03.2022
4675 Clouds -5 1014 85 4600 9 130 20:40 21.03.2022
4676 Clouds -5 1015 85 5000 11 120 19:58 21.03.2022
4677 Clouds -5 1015 85 5000 11 120 19:34 21.03.2022
4678 Clouds -6 1015 85 7000 11 120 18:31 21.03.2022
4679 Clouds -5 1015 85 4200 11 120 17:19 21.03.2022
4680 Clouds -6 1016 85 7000 11 120 16:45 21.03.2022
4681 Clouds -7 1017 85 5000 10 120 15:59 21.03.2022
4682 Clouds -6 1017 86 5000 10 120 15:20 21.03.2022
4683 Clouds -6 1017 86 3900 11 120 14:25 21.03.2022
4684 Clouds -9 1019 78 4900 8 110 12:42 21.03.2022
4685 Clouds -7 1019 73 9000 7 110 11:53 21.03.2022
4686 Clouds -8 1019 73 7000 11 110 10:40 21.03.2022
4687 Fog -7 1020 68 10000 2 360 08:55 21.03.2022
4688 Fog -10 1021 92 10000 1 0 06:57 21.03.2022
4689 Fog -15 1023 84 10000 0 0 02:55 21.03.2022
4690 Fog -15 1023 84 10000 2 230 00:35 21.03.2022
4691 Fog -17 1024 84 10000 1 0 22:54 20.03.2022
4692 Fog -15 1024 85 10000 3 360 21:56 20.03.2022
4693 Clouds -15 1024 92 10000 3 40 21:29 20.03.2022
4694 Clouds -17 1024 85 10000 2 340 20:43 20.03.2022
4695 Clouds -16 1023 85 10000 2 350 19:59 20.03.2022
4696 Clouds -16 1023 85 10000 2 350 19:59 20.03.2022
4697 Clouds -16 1023 85 10000 2 350 19:34 20.03.2022
4698 Clouds -11 1023 85 10000 5 20 18:40 20.03.2022
4699 Clouds -13 1024 92 10000 3 10 17:35 20.03.2022
4700 Clouds -13 1024 85 10000 4 10 16:57 20.03.2022
4701 Clouds -13 1024 92 10000 4 30 15:43 20.03.2022
4702 Clouds -14 1024 85 10000 3 360 14:35 20.03.2022
4703 Clouds -15 1024 92 10000 5 10 12:42 20.03.2022
4704 Clear -16 1025 85 10000 3 360 11:32 20.03.2022
4705 Clouds -15 1024 85 10000 1 0 09:30 20.03.2022
4706 Snow -13 1024 78 10000 0 0 07:47 20.03.2022
4707 Snow -13 1024 78 10000 1 0 05:48 20.03.2022
4708 Snow -15 1026 78 10000 4 170 01:56 20.03.2022
4709 Snow -15 1026 78 10000 3 160 00:47 20.03.2022
4710 Snow -16 1027 78 9000 2 160 23:19 19.03.2022
4711 Snow -18 1027 78 9000 2 150 21:32 19.03.2022
4712 Snow -19 1027 78 10000 3 160 20:58 19.03.2022
4713 Snow -18 1028 65 10000 2 180 18:59 19.03.2022
4714 Snow -18 1028 65 10000 2 180 18:24 19.03.2022
4715 Snow -19 1028 65 10000 1 160 17:40 19.03.2022
4716 Clouds -20 1029 71 10000 1 220 16:24 19.03.2022
4717 Clouds -24 1029 70 10000 0 0 15:19 19.03.2022
4718 Clear -24 1030 70 10000 3 10 13:20 19.03.2022
4719 Clear -22 1030 64 10000 3 340 12:41 19.03.2022
4720 Clear -26 1031 69 10000 3 10 11:54 19.03.2022
4721 Clear -26 1031 69 10000 3 10 11:25 19.03.2022
4722 Clear -21 1031 71 10000 4 360 07:59 19.03.2022
4723 Clear -17 1031 60 10000 3 320 03:53 19.03.2022
4724 Clear -17 1032 60 10000 3 350 02:30 19.03.2022
4725 Clear -21 1032 65 10000 4 350 23:46 18.03.2022
4726 Clear -21 1032 65 10000 2 350 22:29 18.03.2022
4727 Clear -21 1032 65 10000 5 10 21:46 18.03.2022
4728 Clear -25 1032 70 10000 6 10 19:54 18.03.2022
4729 Clear -25 1032 70 10000 6 10 19:22 18.03.2022
4730 Clear -26 1032 76 10000 6 20 18:18 18.03.2022
4731 Clear -27 1032 68 10000 6 20 16:51 18.03.2022
4732 Clear -27 1033 68 10000 5 20 15:43 18.03.2022
4733 Clear -27 1033 68 10000 5 20 15:43 18.03.2022
4734 Clear -27 1033 75 10000 3 10 14:24 18.03.2022
4735 Clear -24 1032 70 10000 8 320 12:39 18.03.2022
4736 Clear -24 1032 77 10000 8 310 10:58 18.03.2022
4737 Clear -23 1031 70 10000 7 310 09:30 18.03.2022
4738 Clear -21 1031 65 10000 6 300 08:42 18.03.2022
4739 Clear -20 1030 71 10000 6 320 06:40 18.03.2022
4740 Clear -19 1029 70 10000 6 320 03:30 18.03.2022
4741 Clear -21 1028 70 10000 9 320 00:53 18.03.2022
4742 Clear -21 1028 70 10000 10 320 23:44 17.03.2022
4743 Clear -22 1028 71 10000 9 330 22:25 17.03.2022
4744 Clear -22 1027 71 10000 8 320 21:48 17.03.2022
4745 Clear -23 1027 70 10000 9 310 21:27 17.03.2022
4746 Clear -24 1027 70 10000 10 310 20:51 17.03.2022
4747 Clear -24 1026 77 10000 10 310 19:53 17.03.2022
4748 Clear -24 1026 77 10000 10 310 19:32 17.03.2022
4749 Clear -23 1026 70 10000 9 320 18:49 17.03.2022
4750 Clear -24 1026 77 10000 7 350 17:18 17.03.2022
4751 Clear -26 1026 76 10000 6 350 15:44 17.03.2022
4752 Clear -26 1026 76 10000 6 350 15:26 17.03.2022
4753 Clear -26 1026 76 10000 2 350 14:48 17.03.2022
4754 Clear -24 1026 77 10000 6 320 12:59 17.03.2022
4755 Clear -24 1026 77 10000 6 320 12:37 17.03.2022
4756 Clear -27 1026 75 10000 3 10 11:30 17.03.2022
4757 Clear -24 1026 84 10000 2 350 10:32 17.03.2022
4758 Clear -26 1025 75 10000 5 350 08:41 17.03.2022
4759 Clear -26 1024 75 10000 4 340 07:52 17.03.2022
4760 Clear -24 1024 76 10000 5 20 05:48 17.03.2022
4761 Clear -22 1023 76 10000 5 10 03:41 17.03.2022
4762 Fog -22 1023 77 10000 5 20 23:57 16.03.2022
4763 Fog -23 1023 77 10000 6 10 22:51 16.03.2022
4764 Fog -24 1023 83 10000 6 20 22:33 16.03.2022
4765 Fog -24 1023 77 10000 5 30 21:46 16.03.2022
4766 Clouds -25 1022 84 8000 6 10 20:26 16.03.2022
4767 Mist -23 1023 77 3300 4 360 19:21 16.03.2022
4768 Clouds -23 1022 77 8000 5 10 18:40 16.03.2022
4769 Fog -23 1022 77 10000 6 360 17:43 16.03.2022
4770 Fog -23 1022 77 10000 6 360 17:25 16.03.2022
4771 Fog -24 1023 84 10000 5 340 15:56 16.03.2022
4772 Fog -23 1023 84 10000 5 10 14:28 16.03.2022
4773 Clouds -22 1023 84 10000 7 360 13:32 16.03.2022
4774 Clear -24 1023 77 10000 5 360 11:58 16.03.2022
4775 Clear -24 1023 77 10000 5 360 11:21 16.03.2022
4776 Clear -26 1022 83 10000 4 20 10:27 16.03.2022
4777 Fog -24 1022 83 10000 4 360 09:42 16.03.2022
4778 Clouds -22 1023 76 10000 5 350 06:27 16.03.2022
4779 Clear -21 1024 76 10000 4 340 01:56 16.03.2022
4780 Clear -24 1025 76 10000 4.92 330 22:44 15.03.2022
4781 Clear -26 1024 75 10000 4 330 22:18 15.03.2022
4782 Clear -24 1024 84 10000 4 350 20:33 15.03.2022
4783 Clear -24 1025 77 10000 3 350 18:58 15.03.2022
4784 Clear -23 1024 77 10000 4 360 17:24 15.03.2022
4785 Clear -25 1025 84 10000 4 350 16:32 15.03.2022
4786 Clear -24 1025 77 10000 3 10 15:21 15.03.2022
4787 Clear -23 1025 77 10000 4 10 14:46 15.03.2022
4788 Clear -22 1025 77 10000 3 350 13:55 15.03.2022
4789 Clear -23 1025 84 10000 2 20 12:29 15.03.2022
4790 Clear -23 1025 77 10000 2 30 11:31 15.03.2022
4791 Clear -19 1024 71 10000 1 10 09:46 15.03.2022
4792 Clear -20 1024 84 10000 1 50 08:49 15.03.2022
4793 Clear -19 1024 78 10000 2 350 07:52 15.03.2022
4794 Clear -19 1024 78 10000 2 350 07:34 15.03.2022
4795 Clear -16 1023 72 10000 0 0 04:20 15.03.2022
4796 Clear -23 1023 83 10000 1 350 23:57 14.03.2022
4797 Clear -23 1023 76 10000 2 310 23:24 14.03.2022
4798 Clear -25 1022 83 10000 2 350 22:30 14.03.2022
4799 Clear -25 1022 84 10000 2 300 21:30 14.03.2022
4800 Clear -25 1021 84 10000 3 360 20:54 14.03.2022
4801 Clear -25 1021 84 10000 3 360 20:20 14.03.2022
4802 Clear -26 1020 76 10000 4 360 18:55 14.03.2022
4803 Clear -25 1020 77 10000 2 350 17:54 14.03.2022
4804 Clear -25 1020 77 10000 2 350 17:23 14.03.2022
4805 Clear -26 1020 83 10000 4 10 15:56 14.03.2022
4806 Clear -24 1020 77 10000 4 350 14:41 14.03.2022
4807 Clear -23 1020 84 10000 1 0 12:51 14.03.2022
4808 Clear -22 1020 77 10000 6 350 10:54 14.03.2022
4809 Clear -22 1020 84 10000 5 350 09:52 14.03.2022
4810 Clear -22 1020 83 10000 5 350 09:22 14.03.2022
4811 Clear -21 1020 84 10000 6 360 08:56 14.03.2022
4812 Clear -21 1020 76 10000 3 360 07:34 14.03.2022
4813 Clear -19 1020 77 10000 4 330 05:46 14.03.2022
4814 Clear -19 1021 77 10000 5 340 01:55 14.03.2022
4815 Clear -19 1021 77 10000 5 340 01:29 14.03.2022
4816 Clear -21 1022 76 10000 5 350 22:52 13.03.2022
4817 Clear -23 1022 84 10000 5 350 21:31 13.03.2022
4818 Clear -22 1021 84 10000 5 350 20:56 13.03.2022
4819 Clear -22 1021 83 10000 5 350 20:31 13.03.2022
4820 Clear -21 1021 84 10000 3 360 19:59 13.03.2022
4821 Clear -21 1021 84 10000 3 360 19:37 13.03.2022
4822 Clear -21 1021 84 10000 3 360 19:18 13.03.2022
4823 Clear -20 1021 77 10000 4 360 18:38 13.03.2022
4824 Clear -20 1021 77 10000 4 360 17:46 13.03.2022
4825 Clear -20 1021 76 10000 4 360 17:20 13.03.2022
4826 Clear -21 1022 84 10000 4 350 16:30 13.03.2022
4827 Clear -21 1022 84 10000 3 330 15:47 13.03.2022
4828 Clear -20 1022 77 10000 5 10 14:56 13.03.2022
4829 Clear -20 1022 77 10000 3 350 13:49 13.03.2022
4830 Clear -19 1022 78 10000 2 350 12:57 13.03.2022
4831 Clear -19 1022 84 10000 4 340 11:53 13.03.2022
4832 Clear -19 1022 84 10000 4 340 11:32 13.03.2022
4833 Clear -17 1022 78 10000 4 350 10:47 13.03.2022
4834 Clear -17 1022 78 10000 4 350 10:24 13.03.2022
4835 Clear -19 1022 77 10000 4 20 09:41 13.03.2022
4836 Clear -16 1022 78 10000 3 350 08:46 13.03.2022
4837 Clear -15 1022 72 10000 4 340 07:42 13.03.2022
4838 Clear -14 1021 71 10000 4 350 05:41 13.03.2022
4839 Clear -14 1021 71 10000 3 350 02:43 13.03.2022
4840 Clear -16 1022 71 10000 2 320 23:59 12.03.2022
4841 Clear -15 1021 72 10000 5 350 22:31 12.03.2022
4842 Clear -17 1021 71 10000 3 40 20:48 12.03.2022
4843 Clear -17 1021 71 10000 3 40 19:50 12.03.2022
4844 Clear -17 1021 71 10000 3 40 19:32 12.03.2022
4845 Clear -18 1020 54 10000 3 80 18:27 12.03.2022
4846 Clear -10 1020 57 10000 1 0 17:34 12.03.2022
4847 Clear -13 1020 72 10000 2 20 16:24 12.03.2022
4848 Clear -14 1020 78 10000 5 30 15:23 12.03.2022
4849 Clear -13 1020 72 10000 6 10 14:40 12.03.2022
4850 Clear -11 1020 52 10000 1 0 12:56 12.03.2022
4851 Clear -10 1020 57 10000 1 0 11:56 12.03.2022
4852 Clear -10 1020 57 10000 1 0 11:38 12.03.2022
4853 Clear -11 1020 57 10000 2 320 10:58 12.03.2022
4854 Clear -10 1019 62 10000 3 30 09:45 12.03.2022
4855 Clear -11 1019 62 10000 2 20 08:56 12.03.2022
4856 Clear -11 1019 67 10000 3 30 07:20 12.03.2022
4857 Clear -8 1019 73 10000 2 300 02:36 12.03.2022
4858 Clear -16 1020 73 10000 1.09 294 23:56 11.03.2022
4859 Clear -18 1020 79 10000 0.8 285 23:18 11.03.2022
4860 Clear -9 1018 53 10000 2 300 21:35 11.03.2022
4861 Clear -9 1018 57 10000 2 220 20:55 11.03.2022
4862 Clear -9 1018 57 10000 2 220 20:34 11.03.2022
4863 Clear -10 1017 62 10000 1 0 19:49 11.03.2022
4864 Clear -10 1017 62 10000 1 0 19:22 11.03.2022
4865 Clear -9 1017 57 10000 3 220 17:30 11.03.2022
4866 Clear -21 1019 80 10000 1.17 346 16:36 11.03.2022
4867 Clear -21 1019 79 10000 0.63 309 15:53 11.03.2022
4868 Clear -19 1018 75 10000 1.22 39 14:19 11.03.2022
4869 Clear -7 1018 53 10000 3 350 12:44 11.03.2022
4870 Clear -7 1018 53 10000 3 350 12:21 11.03.2022
4871 Clear -5 1018 46 10000 3 350 11:51 11.03.2022
4872 Clear -5 1018 50 10000 2 330 09:50 11.03.2022
4873 Clear -3 1017 46 9000 7 50 08:56 11.03.2022
4874 Clear -3 1017 46 9000 7 50 08:24 11.03.2022
4875 Clear -4 1017 46 5000 14 50 07:45 11.03.2022
4876 Clear -4 1016 50 4000 18 50 05:44 11.03.2022
4877 Clear -3 1017 46 1100 16 50 03:41 11.03.2022
4878 Clear -6 1022 45 10000 9 20 23:36 10.03.2022
4879 Clear -6 1023 45 10000 9 10 22:30 10.03.2022
4880 Clear -6 1022 53 10000 13 30 21:40 10.03.2022
4881 Clear -6 1022 53 10000 13 30 21:18 10.03.2022
4882 Clear -7 1023 58 10000 6 20 19:43 10.03.2022
4883 Clear -16 1024 77 10000 4.59 357 18:40 10.03.2022
4884 Clear -15 1025 78 10000 4.14 0 17:19 10.03.2022
4885 Clear -5 1024 54 10000 10 360 15:55 10.03.2022
4886 Clear -4 1024 54 10000 10 10 14:44 10.03.2022
4887 Clear -3 1025 50 10000 9 40 13:19 10.03.2022
4888 Clear -12 1027 72 10000 5.18 17 11:57 10.03.2022
4889 Clear -3 1025 54 8000 14 80 10:50 10.03.2022
4890 Clear -3 1025 59 8000 14 90 09:18 10.03.2022
4891 Clear -3 1027 50 10000 7 50 07:33 10.03.2022
4892 Clear -1 1027 47 10000 10 80 04:19 10.03.2022
4893 Clear -4 1029 54 10000 3 190 01:46 10.03.2022
4894 Clear -9 1030 67 10000 3 240 23:18 09.03.2022
4895 Clear -9 1030 62 10000 0 0 21:49 09.03.2022
4896 Clear -10 1030 67 10000 2 60 21:27 09.03.2022
4897 Clear -11 1031 73 10000 1 0 19:43 09.03.2022
4898 Clear -8 1030 67 10000 2 350 18:29 09.03.2022
4899 Clouds -19 1031 98 10000 0.32 281 17:26 09.03.2022
4900 Clouds -19 1031 98 10000 0.32 281 17:26 09.03.2022
4901 Clouds -19 1031 98 10000 0.32 281 17:26 09.03.2022
4902 Clouds -19 1031 98 10000 0.32 281 16:31 09.03.2022
4903 Clouds -18 1032 97 10000 1.38 149 14:59 09.03.2022
4904 Clouds -18 1032 97 10000 0.99 50 13:53 09.03.2022
4905 Clouds -18 1032 97 10000 1.37 11 12:45 09.03.2022
4906 Clear -7 1031 73 10000 1 0 11:53 09.03.2022
4907 Clear -7 1031 73 10000 1 0 11:35 09.03.2022
4908 Clouds -16 1032 98 10000 0.93 360 09:50 09.03.2022
4909 Clear -6 1031 79 10000 1 0 08:49 09.03.2022
4910 Clear -5 1031 74 10000 1 0 07:27 09.03.2022
4911 Clear -6 1031 85 10000 3 30 02:42 09.03.2022
4912 Clear -5 1031 85 10000 6 360 00:28 09.03.2022
4913 Clear -8 1031 92 10000 5 350 22:47 08.03.2022
4914 Clouds -6 1031 93 10000 4 350 21:55 08.03.2022
4915 Clouds -5 1031 93 10000 4 10 21:22 08.03.2022
4916 Clouds -5 1031 93 10000 3 350 20:29 08.03.2022
4917 Clouds -3 1030 93 10000 3 10 19:31 08.03.2022
4918 Clouds -3 1030 93 10000 2 10 18:44 08.03.2022
4919 Clouds -4 1030 100 10000 2 10 17:26 08.03.2022
4920 Fog -5 1030 100 10000 2 350 15:19 08.03.2022
4921 Clouds -4 1029 92 10000 0 0 14:18 08.03.2022
4922 Clouds -3 1028 86 10000 5 80 12:43 08.03.2022
4923 Fog -2 1028 92 10000 6 90 11:45 08.03.2022
4924 Mist -2 1028 92 10000 1 0 10:41 08.03.2022
4925 Fog -2 1027 100 10000 4 60 09:37 08.03.2022
4926 Fog -3 1025 100 650 4 30 06:34 08.03.2022
4927 Fog 0 1024 86 10000 3 310 04:25 08.03.2022
4928 Clouds -1 1021 93 9000 5 140 23:36 07.03.2022
4929 Clouds -1 1019 93 10000 7 140 21:50 07.03.2022
4930 Clouds -1 1019 93 10000 7 140 21:31 07.03.2022
4931 Clouds -1 1018 93 10000 9 130 20:39 07.03.2022
4932 Clouds 0 1016 93 9000 11 130 19:55 07.03.2022
4933 Clouds 0 1016 93 9000 11 130 19:29 07.03.2022
4934 Clouds 0 1015 93 8000 10.73 130 18:40 07.03.2022
4935 Clouds 0 1015 86 6000 12 130 17:47 07.03.2022
4936 Clouds 0 1015 86 4000 12 120 16:55 07.03.2022
4937 Clouds -1 1015 93 3000 12 120 15:32 07.03.2022
4938 Clouds -1 1014 93 2700 11 120 12:54 07.03.2022
4939 Clouds 0 1014 92 2700 11 120 12:21 07.03.2022
4940 Clouds -1 1014 93 1000 13 110 10:36 07.03.2022
4941 Clouds -2 1002 92 400 14 100 08:48 07.03.2022
4942 Clouds -5 1014 92 800 11 110 03:41 07.03.2022
4943 Clouds -8 1014 92 50 17 90 00:22 07.03.2022
4944 Clouds -9 1014 92 50 19 90 23:31 06.03.2022
4945 Clouds -9 1014 85 50 20 90 22:37 06.03.2022
4946 Clouds -9 1015 85 50 19 90 21:45 06.03.2022
4947 Clouds -9 1014 85 100 20 90 20:30 06.03.2022
4948 Clouds -8 1016 86 150 17 90 19:51 06.03.2022
4949 Snow -10 1017 92 150 15 80 18:51 06.03.2022
4950 Snow -10 1018 85 200 16 90 17:57 06.03.2022
4951 Snow -9 1018 86 200 16 90 17:21 06.03.2022
4952 Clouds -8 1018 86 700 14 90 16:41 06.03.2022
4953 Snow -8 1019 86 350 14 90 15:45 06.03.2022
4954 Snow -8 1019 86 700 12 90 14:49 06.03.2022
4955 Snow -8 1019 86 700 12 90 14:30 06.03.2022
4956 Snow -10 1022 92 2500 10 60 12:50 06.03.2022
4957 Snow -10 1021 85 9000 8 50 11:56 06.03.2022
4958 Clouds -12 1022 67 10000 4 40 10:52 06.03.2022
4959 Clouds -11 1022 73 10000 6 40 09:43 06.03.2022
4960 Clouds -12 1021 79 10000 5 350 08:29 06.03.2022
4961 Clouds -10 1021 67 10000 3 20 07:34 06.03.2022
4962 Clear -13 1020 72 10000 2 20 04:46 06.03.2022
4963 Clear -13 1019 72 10000 0 0 00:44 06.03.2022
4964 Clear -13 1019 72 10000 0 0 00:25 06.03.2022
4965 Clear -18 1018 77 10000 1 330 23:20 05.03.2022
4966 Clear -19 1018 84 10000 2 50 22:43 05.03.2022
4967 Clear -18 1017 84 10000 2 40 21:45 05.03.2022
4968 Clear -18 1017 84 10000 2 40 21:19 05.03.2022
4969 Clear -18 1015 84 10000 2 20 19:24 05.03.2022
4970 Clouds -15 1015 85 10000 0 0 18:51 05.03.2022
4971 Snow -15 1015 84 10000 0 0 17:43 05.03.2022
4972 Snow -15 1014 84 10000 1 0 16:26 05.03.2022
4973 Snow -14 1013 85 10000 2 340 15:30 05.03.2022
4974 Snow -13 1013 78 10000 1 60 14:44 05.03.2022
4975 Snow -13 1013 78 10000 1 60 14:24 05.03.2022
4976 Snow -14 1012 85 10000 1 330 12:59 05.03.2022
4977 Snow -15 1011 77 10000 1 10 11:43 05.03.2022
4978 Snow -15 1011 77 10000 1 10 11:18 05.03.2022
4979 Snow -16 1009 77 10000 1 0 09:58 05.03.2022
4980 Clouds -17 1009 77 10000 3 360 08:57 05.03.2022
4981 Clouds -15 1008 85 10000 4 40 07:37 05.03.2022
4982 Snow -14 1007 78 10000 3 10 05:42 05.03.2022
4983 Snow -15 1006 84 10000 2 340 01:30 05.03.2022
4984 Snow -13 1005 85 10000 1 0 23:35 04.03.2022
4985 Snow -13 1005 85 9000 1 180 22:41 04.03.2022
4986 Snow -14 1004 85 10000 1 320 21:47 04.03.2022
4987 Snow -13 1004 85 10000 2 350 20:51 04.03.2022
4988 Snow -14 1004 84 10000 2 350 20:21 04.03.2022
4989 Snow -12 1003 85 10000 0 0 19:35 04.03.2022
4990 Snow -13 1003 84 10000 0 0 18:37 04.03.2022
4991 Snow -13 1003 84 10000 1 100 17:30 04.03.2022
4992 Snow -13 1003 78 10000 1 0 16:43 04.03.2022
4993 Snow -13 1003 78 10000 1 110 15:28 04.03.2022
4994 Snow -14 1003 84 10000 0 0 14:19 04.03.2022
4995 Snow -11 1003 67 10000 1 0 12:54 04.03.2022
4996 Snow -11 1004 73 10000 4 30 11:40 04.03.2022
4997 Clouds -14 1004 78 10000 2 30 10:42 04.03.2022
4998 Clouds -11 1003 73 10000 3 30 09:28 04.03.2022
4999 Clear -14 1004 78 10000 1 0 08:34 04.03.2022
5000 Clouds -14 1003 85 10000 5 40 07:23 04.03.2022
5001 Snow -17 1004 84 8000 4 350 03:43 04.03.2022
5002 Clouds -18 1005 84 10000 2 350 00:22 04.03.2022
5003 Clear -19 1005 84 10000 2 350 22:21 03.03.2022
5004 Clear -19 1005 84 10000 1 0 21:39 03.03.2022
5005 Clear -19 1005 84 10000 1 0 21:18 03.03.2022
5006 Clear -19 1005 84 10000 1 310 19:48 03.03.2022
5007 Clear -18 1005 85 10000 3 350 18:51 03.03.2022
5008 Clear -18 1005 85 10000 3 350 18:22 03.03.2022
5009 Clear -17 1005 85 10000 2 340 17:27 03.03.2022
5010 Clear -17 1006 85 10000 2 340 15:48 03.03.2022
5011 Clear -17 1006 92 10000 3 10 14:59 03.03.2022
5012 Clear -17 1006 92 10000 3 10 14:33 03.03.2022
5013 Clear -15 1007 85 10000 2 340 13:18 03.03.2022
5014 Clear -15 1007 85 10000 2 340 13:18 03.03.2022
5015 Clear -15 1007 85 10000 2 340 13:18 03.03.2022
5016 Clear -12 1007 85 10000 2 340 11:45 03.03.2022
5017 Clear -12 1007 85 10000 3 350 10:41 03.03.2022
5018 Clear -11 1007 79 10000 4 320 08:52 03.03.2022
5019 Clouds -20 1009 100 8174 1.52 316 07:25 03.03.2022
5020 Clear -8 1007 79 10000 4 350 06:34 03.03.2022
5021 Clear -10 1008 85 10000 7 350 01:45 03.03.2022
5022 Clear -11 1009 85 10000 5 360 23:29 02.03.2022
5023 Clear -10 1009 79 10000 6 360 22:50 02.03.2022
5024 Clear -11 1009 92 10000 4 10 21:30 02.03.2022
5025 Clouds -22 1011 100 5305 1.77 351 20:45 02.03.2022
5026 Clouds -22 1011 100 5427 2.08 342 20:22 02.03.2022
5027 Clear -10 1010 85 10000 4 360 19:35 02.03.2022
5028 Clouds -11 1010 92 10000 2 330 18:44 02.03.2022
5029 Clouds -9 1010 86 10000 4 30 17:59 02.03.2022
5030 Clouds -9 1010 86 10000 4 30 17:23 02.03.2022
5031 Clouds -20 1011 100 5121 2.19 358 16:45 02.03.2022
5032 Clouds -20 1011 100 5121 2.19 358 16:45 02.03.2022
5033 Clouds -6 1010 86 10000 3 50 14:44 02.03.2022
5034 Clouds -5 1010 86 10000 7 90 13:24 02.03.2022
5035 Clouds -4 1010 80 10000 6 90 12:43 02.03.2022
5036 Snow -4 1011 86 10000 5 80 11:47 02.03.2022
5037 Snow -4 1011 86 10000 5 80 11:24 02.03.2022
5038 Clouds -4 1010 80 10000 6 80 09:42 02.03.2022
5039 Snow -3 1010 86 10000 5 80 08:55 02.03.2022
5040 Snow -3 1010 86 10000 6 80 07:38 02.03.2022
5041 Snow -3 1010 86 10000 6 80 06:51 02.03.2022
5042 Snow -2 1009 86 10000 7 90 02:35 02.03.2022
5043 Snow -4 1009 86 10000 7 100 23:55 01.03.2022
5044 Fog -5 1009 100 10000 6 90 22:46 01.03.2022
5045 Clouds -5 1009 92 6000 6 100 22:19 01.03.2022
5046 Mist -7 1009 92 9000 2 90 21:25 01.03.2022
5047 Mist -7 1008 92 1000 8 110 20:30 01.03.2022
5048 Mist -7 1008 92 1000 8 110 20:30 01.03.2022
5049 Mist -6 1008 92 1700 8 110 19:44 01.03.2022
5050 Clouds -6 1007 92 10000 7 100 18:50 01.03.2022
5051 Clouds -6 1007 92 10000 7 100 18:21 01.03.2022
5052 Clouds -5 1007 92 10000 6 100 17:30 01.03.2022
5053 Clear -6 1007 85 10000 5 120 16:34 01.03.2022
5054 Fog -5 1006 85 10000 6 130 15:41 01.03.2022
5055 Fog -6 1006 92 10000 6 130 14:40 01.03.2022
5056 Fog -6 1005 85 10000 7 130 13:58 01.03.2022
5057 Fog -5 1005 85 10000 7 130 13:25 01.03.2022
5058 Mist -7 1005 92 5000 6 130 12:33 01.03.2022
5059 Mist -7 1004 92 3100 6 120 10:37 01.03.2022
5060 Clouds -6 1003 92 10000 7 130 08:45 01.03.2022
5061 Clouds -5 1002 85 10000 10 120 07:54 01.03.2022
5062 Clouds -5 1002 85 10000 9 130 06:26 01.03.2022
5063 Snow -4 1000 73 9000 10 110 02:44 01.03.2022
5064 Clouds -3 999 74 10000 10 110 00:36 01.03.2022
5065 Clouds -3 999 74 10000 9 130 23:31 28.02.2022
5066 Clear -4 998 86 10000 9 130 22:18 28.02.2022
5067 Clouds -4 997 80 10000 8 150 21:39 28.02.2022
5068 Clouds -5 996 80 10000 7 140 19:59 28.02.2022
5069 Clouds -5 996 80 10000 7 140 19:40 28.02.2022
5070 Clouds -5 995 80 10000 7 140 18:44 28.02.2022
5071 Clear -4 994 74 10000 10 150 17:33 28.02.2022
5072 Clouds -4 994 74 10000 9 150 16:43 28.02.2022
5073 Clouds -4 993 80 10000 8 150 15:31 28.02.2022
5074 Clouds -5 992 79 10000 11 150 14:32 28.02.2022
5075 Clouds -5 991 79 10000 9 140 13:48 28.02.2022
5076 Clear -5 991 79 10000 10 140 12:50 28.02.2022
5077 Clear -5 990 79 10000 9 150 11:58 28.02.2022
5078 Clear -4 990 80 10000 9 150 11:18 28.02.2022
5079 Clear -4 989 80 10000 9 140 10:21 28.02.2022
5080 Clear -4 988 80 10000 8 140 09:36 28.02.2022
5081 Clouds -3 987 80 10000 8 140 08:48 28.02.2022
5082 Clouds -3 986 86 10000 7 140 07:43 28.02.2022
5083 Clouds -3 986 86 10000 7 140 07:43 28.02.2022
5084 Clouds -3 985 86 10000 6 140 05:25 28.02.2022
5085 Clouds -4 984 86 10000 7 130 04:27 28.02.2022
5086 Snow -5 982 92 4600 8 120 00:34 28.02.2022
5087 Clouds -5 980 92 9000 7 120 22:38 27.02.2022
5088 Clouds -5 980 92 7000 7 110 21:55 27.02.2022
5089 Clouds -5 980 92 1600 8 110 21:35 27.02.2022
5090 Clouds -5 979 100 5000 7 120 20:40 27.02.2022
5091 Clouds -4 978 92 3400 8 120 19:59 27.02.2022
5092 Clouds -4 978 92 3400 8 120 19:27 27.02.2022
5093 Clouds -4 978 92 3400 8 120 19:27 27.02.2022
5094 Snow -4 977 92 9000 8 110 18:48 27.02.2022
5095 Clouds -3 977 92 2000 9 120 17:57 27.02.2022
5096 Snow -3 977 92 2000 9 120 17:26 27.02.2022
5097 Snow -1 976 92 1600 8 100 16:22 27.02.2022
5098 Snow -2 976 92 1000 9 90 13:49 27.02.2022
5099 Snow -2 976 86 1800 8.94 100 12:35 27.02.2022
5100 Snow -3 975 92 1200 8 100 11:28 27.02.2022
5101 Snow -2 975 86 1700 9 100 10:24 27.02.2022
5102 Clouds -3 974 100 1100 12 100 09:51 27.02.2022
5103 Clouds -3 974 100 1100 12 100 09:21 27.02.2022
5104 Snow -2 973 92 1600 11 90 08:31 27.02.2022
5105 Snow -1 974 86 2200 14 80 05:41 27.02.2022
5106 Snow -1 975 80 8000 13 60 02:45 27.02.2022
5107 Clouds -2 977 86 10000 11 70 23:36 26.02.2022
5108 Clouds -2 978 86 9000 10 80 22:34 26.02.2022
5109 Clouds -2 978 86 3500 14 80 21:19 26.02.2022
5110 Clouds -2 978 86 6000 14 80 20:37 26.02.2022
5111 Clouds -1 977 80 2200 16 80 19:52 26.02.2022
5112 Clouds -1 977 80 2200 16 80 19:33 26.02.2022
5113 Clouds 1 978 80 10000 5 60 18:31 26.02.2022
5114 Snow 1 979 75 10000 4 40 17:31 26.02.2022
5115 Clouds -1 979 80 10000 3 320 16:36 26.02.2022
5116 Clouds -1 980 74 10000 5 70 15:27 26.02.2022
5117 Snow -3 981 86 10000 6 40 14:58 26.02.2022
5118 Snow -3 981 86 10000 6 40 14:39 26.02.2022
5119 Snow -1 981 74 10000 6 50 13:46 26.02.2022
5120 Snow -2 982 80 10000 4.92 60 12:53 26.02.2022
5121 Clouds -1 983 74 10000 6 50 11:45 26.02.2022
5122 Clouds -1 983 74 10000 6 50 11:24 26.02.2022
5123 Clouds -4 984 86 10000 9 360 09:28 26.02.2022
5124 Snow -4 985 92 10000 10 20 08:21 26.02.2022
5125 Snow -3 988 92 2700 10 30 04:22 26.02.2022
5126 Clouds -5 992 92 10000 1 310 23:50 25.02.2022
5127 Snow -6 992 100 10000 2 300 22:31 25.02.2022
5128 Clouds -4 992 92 10000 4 30 21:30 25.02.2022
5129 Snow -4 992 86 10000 1 0 20:34 25.02.2022
5130 Snow -5 991 92 9000 1 0 19:56 25.02.2022
5131 Mist -3 990 86 3700 7 90 17:54 25.02.2022
5132 Snow -4 990 93 2900 8 80 16:47 25.02.2022
5133 Snow -4 989 93 9000 7 80 15:50 25.02.2022
5134 Snow -4 989 93 9000 7 80 15:23 25.02.2022
5135 Snow -4 989 93 2800 6 80 14:50 25.02.2022
5136 Snow -4 989 93 2800 6 80 14:19 25.02.2022
5137 Snow -4 989 93 3600 7 80 13:23 25.02.2022
5138 Snow -7 988 92 2200 3 350 11:56 25.02.2022
5139 Snow -7 988 92 2200 3 350 11:20 25.02.2022
5140 Snow -8 989 92 2200 1 0 10:23 25.02.2022
5141 Snow -8 988 92 800 2 250 09:42 25.02.2022
5142 Snow -9 988 92 5000 1 280 07:53 25.02.2022
5143 Snow -9 989 92 6000 3 190 06:54 25.02.2022
5144 Snow -8 989 92 1800 2 120 05:41 25.02.2022
5145 Clouds -8 990 85 10000 3 350 02:43 25.02.2022
5146 Clouds -5 990 86 3600 12 80 22:37 24.02.2022
5147 Clouds -5 989 86 2200 13 90 21:50 24.02.2022
5148 Clouds -6 989 93 2000 13 90 21:30 24.02.2022
5149 Clouds -5 989 86 1000 12 80 20:44 24.02.2022
5150 Snow -6 988 92 400 13 90 19:32 24.02.2022
5151 Snow -6 988 93 550 13 90 18:21 24.02.2022
5152 Snow -7 1000 85 700 13 80 17:58 24.02.2022
5153 Snow -7 988 85 700 13 80 17:21 24.02.2022
5154 Snow -8 987 92 350 14 90 16:28 24.02.2022
5155 Snow -8 986 85 150 16 90 15:44 24.02.2022
5156 Clouds -9 990 83 10000 5.71 66 14:48 24.02.2022
5157 Clouds -9 990 82 6733 6.01 59 13:59 24.02.2022
5158 Clouds -9 990 82 6733 6.01 59 13:38 24.02.2022
5159 Snow -5 986 93 150 16 80 11:41 24.02.2022
5160 Snow -5 988 93 300 13 60 10:32 24.02.2022
5161 Snow -5 989 86 400 12 40 08:43 24.02.2022
5162 Snow -6 990 93 600 12 70 07:26 24.02.2022
5163 Snow -6 992 86 900 12 70 05:43 24.02.2022
5164 Snow -5 999 86 1800 6 30 00:32 24.02.2022
5165 Snow -9 1001 86 10000 4 360 22:25 23.02.2022
5166 Snow -6 1002 73 10000 3 200 20:48 23.02.2022
5167 Snow -6 1002 73 10000 3 200 20:29 23.02.2022
5168 Snow -14 1003 92 9000 1 0 19:36 23.02.2022
5169 Snow -15 1004 84 10000 2 200 18:31 23.02.2022
5170 Snow -16 1004 84 4600 2 360 16:43 23.02.2022
5171 Snow -16 1006 84 3000 2 40 14:33 23.02.2022
5172 Snow -16 1007 85 6000 2 130 12:37 23.02.2022
5173 Snow -18 1007 85 4700 1 0 11:23 23.02.2022
5174 Snow -19 1008 78 8000 1 0 10:24 23.02.2022
5175 Clouds -22 1008 76 10000 2 350 08:56 23.02.2022
5176 Clouds -23 1008 76 10000 2 340 07:56 23.02.2022
5177 Clear -26 1006 75 10000 5 340 03:47 23.02.2022
5178 Clear -25 1006 77 10000 3 350 00:19 23.02.2022
5179 Clear -25 1006 77 10000 2 340 23:34 22.02.2022
5180 Clear -26 1004 76 10000 4 360 22:31 22.02.2022
5181 Clouds -24 1004 77 10000 4 10 21:48 22.02.2022
5182 Clouds -23 1003 77 10000 6 20 21:25 22.02.2022
5183 Clouds -23 1002 77 10000 7 10 20:49 22.02.2022
5184 Clouds -22 1001 71 10000 7 10 20:29 22.02.2022
5185 Clouds -21 1002 77 10000 5 340 19:34 22.02.2022
5186 Clear -20 1001 71 10000 4 360 18:58 22.02.2022
5187 Clear -21 1001 77 10000 5 360 17:40 22.02.2022
5188 Clear -21 1001 77 10000 5 360 17:19 22.02.2022
5189 Clouds -23 1000 77 10000 5 360 16:36 22.02.2022
5190 Clouds -22 1000 77 10000 6 10 15:38 22.02.2022
5191 Clouds -22 999 77 10000 6 10 14:43 22.02.2022
5192 Clouds -23 997 77 10000 5 10 11:54 22.02.2022
5193 Clouds -26 997 75 10000 4 20 10:28 22.02.2022
5194 Snow -23 997 84 10000 3 10 07:48 22.02.2022
5195 Snow -22 996 84 10000 7 350 07:25 22.02.2022
5196 Snow -21 997 83 1200 5 350 02:52 22.02.2022
5197 Snow -21 998 76 3200 5 350 00:48 22.02.2022
5198 Snow -22 998 76 7000 2 340 22:41 21.02.2022
5199 Snow -23 1023 83 4700 6 360 21:30 21.02.2022
5200 Mist -23 999 76 3900 6 350 20:29 21.02.2022
5201 Snow -24 999 76 3700 7 360 18:41 21.02.2022
5202 Clouds -26 1000 75 10000 8 360 16:50 21.02.2022
5203 Clear -24 1002 69 10000 9 330 14:24 21.02.2022
5204 Clouds -23 1003 69 10000 8 350 13:59 21.02.2022
5205 Clouds -26 1004 75 10000 8 330 12:59 21.02.2022
5206 Clouds -26 1004 75 10000 8 330 12:23 21.02.2022
5207 Clouds -22 1007 77 10000 8 340 10:45 21.02.2022
5208 Clouds -22 1008 71 10000 7 360 09:30 21.02.2022
5209 Snow -21 1015 76 10000 8 350 02:58 21.02.2022
5210 Snow -22 1019 76 10000 4 350 23:29 20.02.2022
5211 Snow -23 1020 69 10000 3 350 22:19 20.02.2022
5212 Clear -24 1020 76 10000 1 0 21:41 20.02.2022
5213 Clear -24 1021 69 10000 3 360 20:52 20.02.2022
5214 Clear -26 1021 69 10000 3.58 360 20:22 20.02.2022
5215 Clouds -25 1021 70 10000 4 360 19:30 20.02.2022
5216 Clear -26 1021 68 10000 3 340 18:49 20.02.2022
5217 Clear -26 1021 70 10000 3 340 18:31 20.02.2022
5218 Clear -29 1022 75 10000 3 360 17:34 20.02.2022
5219 Clear -29 1023 75 10000 2 10 15:31 20.02.2022
5220 Clear -31 1024 74 10000 1 70 14:39 20.02.2022
5221 Clear -30 1024 75 10000 2 60 13:23 20.02.2022
5222 Clear -30 1024 76 10000 3 350 12:20 20.02.2022
5223 Clear -27 1025 76 10000 1 0 10:21 20.02.2022
5224 Clear -28 1024 76 10000 1 0 09:53 20.02.2022
5225 Clear -24 1024 70 10000 2 170 06:46 20.02.2022
5226 Clear -26 1026 76 10000 4 360 00:34 20.02.2022
5227 Clear -27 1026 69 10000 6 360 23:42 19.02.2022
5228 Clear -26 1026 76 10000 4 360 22:25 19.02.2022
5229 Clear -29 1026 76 10000 5 350 21:57 19.02.2022
5230 Clear -27 1026 76 10000 7 360 20:48 19.02.2022
5231 Clouds -29 1026 75 10000 7 350 19:41 19.02.2022
5232 Clouds -29 1026 75 10000 6 360 18:41 19.02.2022
5233 Clouds -29 1026 75 10000 6 360 18:19 19.02.2022
5234 Clouds -28 1026 75 10000 5 350 17:33 19.02.2022
5235 Clouds -29 1027 75 6000 5 350 16:21 19.02.2022
5236 Fog -29 1027 75 10000 4 360 14:56 19.02.2022
5237 Clear -29 1028 75 10000 5 350 13:59 19.02.2022
5238 Clouds -28 1027 75 10000 3 20 11:59 19.02.2022
5239 Clouds -28 1027 75 10000 3 20 11:36 19.02.2022
5240 Clouds -27 1027 75 10000 2 350 09:34 19.02.2022
5241 Clouds -26 1025 83 10000 3 340 06:52 19.02.2022
5242 Clear -24 1025 84 10000 6 10 01:39 19.02.2022
5243 Clear -28 1025 82 10000 5 20 22:54 18.02.2022
5244 Clear -28 1025 76 10000 5 20 21:30 18.02.2022
5245 Clear -31 1025 74 10000 4 360 20:33 18.02.2022
5246 Clouds -28 1025 76 10000 6 360 19:51 18.02.2022
5247 Clouds -28 1025 76 10000 5 360 18:49 18.02.2022
5248 Clouds -28 1025 76 10000 5 360 18:19 18.02.2022
5249 Clouds -29 1025 75 10000 5 30 17:21 18.02.2022
5250 Clouds -29 1025 82 10000 1 0 14:47 18.02.2022
5251 Clouds -28 1025 76 10000 1 0 13:54 18.02.2022
5252 Clouds -29 1025 82 7000 8 330 12:51 18.02.2022
5253 Clear -27 1025 76 10000 5 340 11:58 18.02.2022
5254 Clouds -26 1025 84 10000 2 30 10:58 18.02.2022
5255 Clear -23 1025 77 10000 5 320 09:30 18.02.2022
5256 Clear -23 1026 77 10000 4 320 06:50 18.02.2022
5257 Clear -22 1025 76 10000 9 340 05:37 18.02.2022
5258 Clear -19 1026 65 10000 1 0 22:46 17.02.2022
5259 Clear -20 1027 71 10000 8 30 21:42 17.02.2022
5260 Clear -18 1027 65 10000 8 50 20:52 17.02.2022
5261 Clear -18 1027 65 10000 8 50 20:33 17.02.2022
5262 Clear -19 1027 71 8000 12 30 19:43 17.02.2022
5263 Clouds -19 1027 71 10000 13 20 18:34 17.02.2022
5264 Clouds -20 1027 77 10000 13 20 17:46 17.02.2022
5265 Clouds -29 1029 98 10000 3.26 339 16:20 17.02.2022
5266 Clear -20 1029 77 10000 1 0 14:39 17.02.2022
5267 Clear -20 1029 71 10000 2 150 13:47 17.02.2022
5268 Clouds -31 1031 100 10000 2.98 325 11:57 17.02.2022
5269 Clouds -31 1032 100 10000 2.94 314 11:21 17.02.2022
5270 Mist -22 1030 77 3800 6 30 08:37 17.02.2022
5271 Mist -31 1032 74 5000 6 350 00:20 17.02.2022
5272 Clear -31 1033 74 10000 4 350 22:38 16.02.2022
5273 Clear -32 1033 74 10000 5 360 20:39 16.02.2022
5274 Clear -31 1032 67 10000 7 350 19:32 16.02.2022
5275 Fog -32 1032 74 10000 5 350 18:35 16.02.2022
5276 Clouds -31 1032 74 9000 6 340 17:34 16.02.2022
5277 Fog -28 1032 76 10000 4 10 15:24 16.02.2022
5278 Clouds -31 1032 74 7000 6 360 14:46 16.02.2022
5279 Fog -31 1032 74 10000 4 20 12:32 16.02.2022
5280 Mist -31 1032 74 5000 5 360 11:51 16.02.2022
5281 Clouds -32 1032 74 9000 3 350 10:37 16.02.2022
5282 Clouds -32 1032 74 9000 3 350 10:18 16.02.2022
5283 Mist -33 1033 67 5000 7 350 06:56 16.02.2022
5284 Mist -34 1033 75 3000 5 330 03:46 16.02.2022
5285 Clouds -36 1035 66 10000 5 340 22:35 15.02.2022
5286 Clouds -36 1035 66 7000 4 330 21:59 15.02.2022
5287 Clouds -36 1035 66 10000 4 340 21:39 15.02.2022
5288 Clouds -36 1035 73 10000 4 340 21:21 15.02.2022
5289 Mist -36 1034 66 9000 7 340 20:48 15.02.2022
5290 Mist -36 1034 73 5000 6 340 19:48 15.02.2022
5291 Mist -36 1034 73 3200 5 340 18:40 15.02.2022
5292 Mist -36 1034 73 3200 5 340 18:18 15.02.2022
5293 Mist -37 1034 73 9000 4 320 17:46 15.02.2022
5294 Clear -37 1034 73 10000 2 330 16:20 15.02.2022
5295 Clouds -36 1034 66 7000 6 350 14:35 15.02.2022
5296 Fog -36 1034 73 10000 5 350 13:26 15.02.2022
5297 Clouds -36 1034 73 9000 7 360 11:43 15.02.2022
5298 Clouds -36 1034 73 10000 8 360 10:39 15.02.2022
5299 Clouds -36 1034 73 7000 4 360 09:23 15.02.2022
5300 Clouds -34 1034 67 10000 6 360 06:47 15.02.2022
5301 Mist -36 1035 73 2600 6 340 00:26 15.02.2022
5302 Mist -37 1035 73 1700 7 350 21:59 14.02.2022
5303 Mist -38 1036 73 4100 3 340 20:57 14.02.2022
5304 Mist -38 1036 73 4100 3 340 20:19 14.02.2022
5305 Mist -37 1036 65 3700 5 340 19:30 14.02.2022
5306 Fog -37 1036 65 10000 5 350 18:24 14.02.2022
5307 Clouds -37 1037 65 8000 6 350 17:37 14.02.2022
5308 Clouds -37 1037 65 8000 6 350 17:18 14.02.2022
5309 Fog -37 1038 65 10000 5 350 15:52 14.02.2022
5310 Mist -38 1038 73 5000 5 350 13:37 14.02.2022
5311 Mist -38 1038 73 5000 5 350 13:18 14.02.2022
5312 Mist -38 1038 73 4800 6 350 12:32 14.02.2022
5313 Mist -38 1039 73 4000 6 350 11:43 14.02.2022
5314 Clear -36 1039 73 10000 6 350 10:22 14.02.2022
5315 Clouds -37 1039 73 9000 4 350 08:32 14.02.2022
5316 Fog -37 1039 73 10000 6 350 07:26 14.02.2022
5317 Clear -36 1039 75 10000 4 360 23:19 13.02.2022
5318 Clear -35 1038 74 10000 4 360 22:41 13.02.2022
5319 Clear -36 1038 68 10000 4 360 22:22 13.02.2022
5320 Clear -35 1038 68 10000 6 20 21:27 13.02.2022
5321 Clear -35 1038 75 10000 5 30 20:30 13.02.2022
5322 Clear -35 1037 75 10000 4 360 19:24 13.02.2022
5323 Clear -34 1037 75 10000 2 50 18:42 13.02.2022
5324 Clear -33 1037 68 10000 5 350 17:52 13.02.2022
5325 Clear -33 1037 75 10000 5 360 15:54 13.02.2022
5326 Clear -33 1037 75 10000 5 360 15:54 13.02.2022
5327 Clear -33 1037 75 10000 5 40 14:57 13.02.2022
5328 Clear -33 1036 68 10000 4 30 13:59 13.02.2022
5329 Clear -32 1036 75 10000 6 10 12:49 13.02.2022
5330 Clear -33 1036 75 10000 5 20 11:24 13.02.2022
5331 Clear -33 1036 75 10000 4 30 10:28 13.02.2022
5332 Clear -32 1036 68 10000 5 20 09:36 13.02.2022
5333 Clear -32 1034 75 10000 6 30 06:22 13.02.2022
5334 Clouds -30 1034 76 10000 6 10 00:35 13.02.2022
5335 Clear -32 1033 75 10000 6 10 22:59 12.02.2022
5336 Clear -32 1033 75 10000 6 10 22:33 12.02.2022
5337 Clear -33 1033 75 10000 6 10 21:19 12.02.2022
5338 Clear -33 1033 68 10000 5 10 20:32 12.02.2022
5339 Clear -35 1033 74 10000 5 20 19:21 12.02.2022
5340 Clear -35 1032 75 10000 6 20 18:50 12.02.2022
5341 Clear -35 1032 75 10000 6 20 18:32 12.02.2022
5342 Clear -35 1032 68 10000 3 20 16:56 12.02.2022
5343 Clear -35 1032 68 10000 3 20 16:25 12.02.2022
5344 Clear -34 1032 68 10000 5 10 15:50 12.02.2022
5345 Clear -35 1033 68 10000 4 30 14:31 12.02.2022
5346 Clear -35 1032 75 10000 4 10 12:58 12.02.2022
5347 Clear -36 1032 66 10000 5 10 10:40 12.02.2022
5348 Clear -37 1032 73 10000 3 360 09:39 12.02.2022
5349 Clear -37 1032 73 10000 4 10 08:50 12.02.2022
5350 Clear -37 1032 73 10000 4 10 08:18 12.02.2022
5351 Mist -37 1032 73 6000 4 350 05:33 12.02.2022
5352 Mist -37 1032 73 5000 6 350 04:27 12.02.2022
5353 Mist -37 1033 73 5000 5 350 02:18 12.02.2022
5354 Fog -37 1033 67 10000 4 360 22:28 11.02.2022
5355 Clear -38 1033 74 10000 3 340 21:51 11.02.2022
5356 Clear -38 1033 67 10000 3 10 20:40 11.02.2022
5357 Clear -37 1033 67 10000 4 360 19:46 11.02.2022
5358 Clear -37 1033 67 10000 4 360 19:27 11.02.2022
5359 Clear -36 1033 68 10000 5 350 17:55 11.02.2022
5360 Clear -36 1033 68 10000 5 350 17:25 11.02.2022
5361 Clear -36 1033 75 10000 3 360 16:23 11.02.2022
5362 Clear -36 1033 75 10000 5 360 14:43 11.02.2022
5363 Clear -36 1033 75 10000 5 360 14:21 11.02.2022
5364 Clear -37 1034 74 10000 5 340 13:59 11.02.2022
5365 Clear -37 1034 74 10000 5 340 13:39 11.02.2022
5366 Clear -35 1034 75 10000 4 10 11:42 11.02.2022
5367 Clear -34 1034 75 10000 5 340 09:58 11.02.2022
5368 Clear -31 1034 69 10000 3 350 08:49 11.02.2022
5369 Clear -31 1034 69 10000 3 350 08:27 11.02.2022
5370 Clear -31 1033 76 10000 3 360 07:18 11.02.2022
5371 Clear -29 1033 76 10000 3 30 02:39 11.02.2022
5372 Clear -29 1033 76 10000 3 30 02:18 11.02.2022
5373 Clear -29 1031 76 10000 5 20 22:53 10.02.2022
5374 Clear -32 1031 75 10000 4 20 21:50 10.02.2022
5375 Clear -31 1030 76 10000 3 30 21:18 10.02.2022
5376 Clear -31 1030 76 10000 2 40 20:38 10.02.2022
5377 Clear -30 1029 69 10000 4 50 19:26 10.02.2022
5378 Clear -30 1029 69 10000 3 50 18:46 10.02.2022
5379 Clear -29 1028 76 10000 5 20 17:26 10.02.2022
5380 Clear -27 1028 76 10000 6 20 16:50 10.02.2022
5381 Clear -27 1028 76 10000 5 10 15:51 10.02.2022
5382 Clear -27 1028 76 10000 5 10 15:31 10.02.2022
5383 Clear -27 1027 76 10000 5 350 14:48 10.02.2022
5384 Clear -27 1027 76 10000 5 350 14:24 10.02.2022
5385 Clear -28 1027 76 10000 7 360 13:29 10.02.2022
5386 Clear -28 1026 76 10000 6 360 12:50 10.02.2022
5387 Clear -28 1026 76 10000 5 10 11:34 10.02.2022
5388 Clear -29 1025 76 10000 3 350 10:55 10.02.2022
5389 Clear -29 1025 76 10000 3 350 10:18 10.02.2022
5390 Clear -31 1024 76 10000 4 10 09:25 10.02.2022
5391 Clear -32 1024 75 10000 5 360 07:36 10.02.2022
5392 Clear -32 1022 75 10000 4 360 04:58 10.02.2022
5393 Clear -33 1021 74 10000 4 350 01:51 10.02.2022
5394 Clear -32 1020 75 10000 3 340 00:49 10.02.2022
5395 Clear -32 1020 75 10000 3 360 00:28 10.02.2022
5396 Clear -30 1019 76 10000 3 360 23:24 09.02.2022
5397 Clear -29 1018 76 10000 4 360 22:36 09.02.2022
5398 Clear -29 1018 76 10000 4 350 21:52 09.02.2022
5399 Clear -28 1018 76 10000 4 360 21:29 09.02.2022
5400 Clear -28 1017 76 10000 5 20 20:47 09.02.2022
5401 Clear -28 1017 76 10000 5 20 20:27 09.02.2022
5402 Clear -30 1017 76 10000 5 30 19:54 09.02.2022
5403 Clear -30 1017 76 10000 5 30 19:31 09.02.2022
5404 Clear -31 1018 76 10000 4 20 17:37 09.02.2022
5405 Clear -30 1018 76 10000 5 10 16:48 09.02.2022
5406 Fog -31 1018 76 10000 4 20 15:50 09.02.2022
5407 Fog -30 1019 76 10000 5 350 14:35 09.02.2022
5408 Fog -32 1020 75 10000 4 10 12:28 09.02.2022
5409 Clear -32 1020 68 10000 5 20 10:54 09.02.2022
5410 Clear -32 1020 68 10000 5 20 10:26 09.02.2022
5411 Clear -33 1021 75 10000 3 20 09:40 09.02.2022
5412 Clear -33 1021 75 10000 3 20 09:19 09.02.2022
5413 Fog -33 1021 75 10000 3 30 07:53 09.02.2022
5414 Fog -33 1022 75 10000 3 20 05:30 09.02.2022
5415 Fog -33 1022 75 10000 3 20 05:30 09.02.2022
5416 Fog -33 1022 74 10000 2 10 03:50 09.02.2022
5417 Fog -33 1022 74 10000 2 10 03:50 09.02.2022
5418 Fog -36 1024 66 10000 4 360 00:44 09.02.2022
5419 Fog -35 1025 68 10000 4 20 23:32 08.02.2022
5420 Fog -35 1025 68 10000 4 20 23:32 08.02.2022
5421 Fog -35 1025 68 10000 4 20 23:32 08.02.2022
5422 Fog -35 1025 68 10000 4 20 23:32 08.02.2022
5423 Fog -35 1025 66 10000 5 10 22:46 08.02.2022
5424 Fog -35 1025 68 10000 6 350 22:21 08.02.2022
5425 Clouds -35 1025 68 9000 6 350 21:39 08.02.2022
5426 Clouds -35 1025 68 9000 6 350 21:20 08.02.2022
5427 Fog -35 1025 75 10000 6 350 20:43 08.02.2022
5428 Fog -34 1025 68 10000 6 360 19:46 08.02.2022
5429 Clouds -34 1025 75 9000 7 360 18:38 08.02.2022
5430 Fog -33 1025 68 10000 7 350 17:40 08.02.2022
5431 Fog -35 1026 75 10000 7 350 16:29 08.02.2022
5432 Fog -34 1026 75 10000 6 360 15:29 08.02.2022
5433 Clouds -34 1027 68 10000 5 360 14:26 08.02.2022
5434 Fog -35 1027 75 10000 5 340 13:20 08.02.2022
5435 Clouds -33 1028 68 9000 4 340 11:33 08.02.2022
5436 Clear -34 1028 75 10000 5 340 10:18 08.02.2022
5437 Clouds -32 1027 75 10000 7 340 09:41 08.02.2022
5438 Clouds -33 1028 75 10000 3 330 07:46 08.02.2022
5439 Mist -33 1028 75 10000 2 350 05:37 08.02.2022
5440 Fog -32 1028 75 10000 2 340 04:39 08.02.2022
5441 Fog -32 1028 75 10000 2 340 04:21 08.02.2022
5442 Clouds -32 1028 75 7000 4 350 03:36 08.02.2022
5443 Clouds -32 1028 75 7000 4 350 03:18 08.02.2022
5444 Fog -32 1029 75 10000 3 340 02:58 08.02.2022
5445 Fog -31 1029 76 10000 3 340 02:36 08.02.2022
5446 Fog -31 1029 76 10000 3 340 02:18 08.02.2022
5447 Clouds -30 1029 76 6000 2 340 01:43 08.02.2022
5448 Clouds -30 1029 76 6000 2 340 01:24 08.02.2022
5449 Clouds -30 1029 76 6000 2 10 00:49 08.02.2022
5450 Fog -31 1029 76 10000 3 360 23:54 07.02.2022
5451 Mist -32 1029 75 4800 2 350 23:36 07.02.2022
5452 Mist -32 1029 75 4800 2 350 23:18 07.02.2022
5453 Mist -32 1028 75 1900 6 350 22:19 07.02.2022
5454 Clouds -32 1028 68 9000 4 340 21:52 07.02.2022
5455 Fog -32 1028 75 10000 2 350 21:29 07.02.2022
5456 Fog -32 1028 75 10000 2 350 21:29 07.02.2022
5457 Clear -33 1028 75 10000 3 330 20:56 07.02.2022
5458 Clear -33 1028 75 10000 3 330 20:38 07.02.2022
5459 Clouds -33 1028 75 9000 2 320 19:49 07.02.2022
5460 Clouds -33 1028 75 9000 2 320 19:31 07.02.2022
5461 Clear -31 1027 69 10000 4 350 17:41 07.02.2022
5462 Clear -31 1027 76 10000 2 350 16:52 07.02.2022
5463 Clear -31 1027 76 10000 4 340 15:49 07.02.2022
5464 Clear -32 1027 75 10000 3 10 14:44 07.02.2022
5465 Clear -32 1027 75 10000 3 340 13:28 07.02.2022
5466 Clear -31 1026 69 10000 2 360 12:38 07.02.2022
5467 Clear -30 1025 76 10000 2 10 11:55 07.02.2022
5468 Clear -30 1025 76 10000 2 10 11:33 07.02.2022
5469 Clear -32 1025 75 10000 2 330 10:47 07.02.2022
5470 Clear -32 1025 75 10000 2 330 10:28 07.02.2022
5471 Clear -31 1025 76 10000 2 340 09:52 07.02.2022
5472 Clear -31 1025 76 10000 2 340 09:18 07.02.2022
5473 Clear -30 1024 76 10000 3 350 08:20 07.02.2022
5474 Clear -26 1023 76 10000 3 350 06:35 07.02.2022
5475 Clear -26 1023 76 10000 1 0 05:47 07.02.2022
5476 Fog -27 1024 76 10000 3 10 02:56 07.02.2022
5477 Clear -28 1024 76 10000 5 350 00:33 07.02.2022
5478 Clear -29 1025 76 10000 3 360 23:41 06.02.2022
5479 Clear -29 1025 76 10000 3 360 22:47 06.02.2022
5480 Clear -28 1025 76 10000 3 360 21:51 06.02.2022
5481 Clear -29 1025 76 10000 4 340 21:26 06.02.2022
5482 Clear -28 1025 83 10000 5 350 20:52 06.02.2022
5483 Clear -28 1025 83 10000 5 350 20:24 06.02.2022
5484 Clear -28 1025 76 10000 4 10 19:30 06.02.2022
5485 Clear -27 1025 76 10000 2 360 18:38 06.02.2022
5486 Clear -26 1025 76 10000 4 10 17:54 06.02.2022
5487 Clear -27 1025 76 10000 4 10 16:53 06.02.2022
5488 Clear -27 1025 76 10000 4 10 16:32 06.02.2022
5489 Clear -27 1025 76 10000 4 350 15:47 06.02.2022
5490 Clear -27 1025 76 10000 4 350 15:26 06.02.2022
5491 Clear -27 1025 83 10000 3 340 14:27 06.02.2022
5492 Clear -27 1025 83 10000 4 350 13:24 06.02.2022
5493 Clear -26 1025 76 10000 4 350 12:45 06.02.2022
5494 Clear -24 1025 70 10000 3 350 11:23 06.02.2022
5495 Clear -24 1025 77 10000 4 360 09:56 06.02.2022
5496 Clear -24 1025 70 10000 3 350 08:47 06.02.2022
5497 Clear -25 1025 77 10000 3 30 07:36 06.02.2022
5498 Clear -22 1024 71 10000 3 350 05:29 06.02.2022
5499 Clear -21 1024 71 10000 2 350 02:26 06.02.2022
5500 Clear -20 1024 71 10000 1 0 01:32 06.02.2022
5501 Clear -21 1024 71 10000 1 0 00:24 06.02.2022
5502 Clear -21 1023 77 10000 3 10 22:19 05.02.2022
5503 Clear -19 1022 84 10000 1 0 20:52 05.02.2022
5504 Clear -19 1022 84 10000 1 0 20:24 05.02.2022
5505 Clear -21 1021 77 10000 9 360 19:45 05.02.2022
5506 Clear -19 1021 71 10000 5 360 18:49 05.02.2022
5507 Clear -31 1022 96 10000 1.55 318 17:37 05.02.2022
5508 Clear -30 1022 95 10000 1.43 308 16:48 05.02.2022
5509 Clear -18 1019 71 10000 3 340 15:33 05.02.2022
5510 Clear -19 1019 78 10000 2 220 14:47 05.02.2022
5511 Clear -29 1020 94 10000 1.39 298 12:46 05.02.2022
5512 Clear -21 1018 71 10000 5 360 11:49 05.02.2022
5513 Clear -20 1017 77 10000 4 30 10:46 05.02.2022
5514 Clear -21 1017 71 10000 3 20 09:52 05.02.2022
5515 Clear -21 1017 71 10000 3 20 09:25 05.02.2022
5516 Clear -16 1015 60 10000 1 310 07:36 05.02.2022
5517 Clear -15 1014 61 10000 1 0 06:56 05.02.2022
5518 Clear -22 1013 79 10000 2.16 0 03:55 05.02.2022
5519 Clear -9 1012 35 10000 9 40 01:19 05.02.2022
5520 Clear -10 1012 41 10000 8 10 00:42 05.02.2022
5521 Clear -11 1011 44 10000 10 360 23:38 04.02.2022
5522 Clear -11 1011 44 10000 10 360 23:20 04.02.2022
5523 Clear -24 1011 77 10000 3.31 356 21:36 04.02.2022
5524 Clear -24 1011 79 10000 3.29 1 21:18 04.02.2022
5525 Clear -12 1010 52 10000 12 350 20:46 04.02.2022
5526 Clear -25 1010 79 10000 3.01 1 19:30 04.02.2022
5527 Clear -23 1010 74 10000 4.09 11 16:56 04.02.2022
5528 Clear -22 1010 74 10000 4.39 12 15:34 04.02.2022
5529 Clear -22 1011 74 10000 4.4 12 14:51 04.02.2022
5530 Clear -22 1012 73 10000 4.38 12 12:43 04.02.2022
5531 Clear -21 1012 71 10000 4.31 10 11:46 04.02.2022
5532 Clear -21 1012 73 10000 3.77 9 11:18 04.02.2022
5533 Clear -21 1012 73 10000 3.77 9 10:30 04.02.2022
5534 Clear -10 1012 44 10000 4 60 08:33 04.02.2022
5535 Clouds -10 1010 62 5000 15 40 04:53 04.02.2022
5536 Clouds -9 1012 48 9000 11 40 02:38 04.02.2022
5537 Clouds -10 1013 62 3200 17 50 00:26 04.02.2022
5538 Clouds -11 1013 62 4500 9 70 22:55 03.02.2022
5539 Clouds -10 1013 57 6000 7 70 22:22 03.02.2022
5540 Clouds -10 1013 57 10000 12 70 21:41 03.02.2022
5541 Clouds -10 1013 57 1400 13 80 20:22 03.02.2022
5542 Clouds -11 1013 62 3800 16 80 19:57 03.02.2022
5543 Clouds -11 1013 62 3800 16 80 19:23 03.02.2022
5544 Clouds -11 1014 62 6000 16 80 18:24 03.02.2022
5545 Clouds -10 1014 52 9000 14 80 17:26 03.02.2022
5546 Clouds -10 1015 57 4800 17 70 15:38 03.02.2022
5547 Clouds -10 1015 52 7000 14 70 14:18 03.02.2022
5548 Clouds -9 1015 53 5000 14 80 12:32 03.02.2022
5549 Clouds -10 1016 67 1000 12 80 08:59 03.02.2022
5550 Clouds -10 1016 67 1000 12 80 08:18 03.02.2022
5551 Clear -10 1017 72 1000 16 30 00:59 03.02.2022
5552 Clear -14 1017 78 1000 17 30 00:22 03.02.2022
5553 Clear -9 1018 57 8000 10 60 22:40 02.02.2022
5554 Clear -8 1018 53 7000 16 50 21:52 02.02.2022
5555 Clear -8 1018 57 9000 13 70 21:29 02.02.2022
5556 Clear -7 1017 49 10000 15 80 20:27 02.02.2022
5557 Clear -15 1020 60 10000 7.35 36 19:48 02.02.2022
5558 Clear -16 1020 64 10000 6.5 35 19:00 02.02.2022
5559 Clear -16 1021 65 10000 5.5 40 18:25 02.02.2022
5560 Clear -8 1016 57 2500 15 80 17:22 02.02.2022
5561 Clear -17 1021 70 10000 4.92 44 16:58 02.02.2022
5562 Clear -17 1021 67 10000 4.91 40 15:29 02.02.2022
5563 Clear -11 1020 73 10000 1 0 12:31 02.02.2022
5564 Clear -10 1020 73 10000 3 350 11:49 02.02.2022
5565 Clear -10 1020 73 10000 3 350 11:30 02.02.2022
5566 Clear -10 1021 62 10000 5 350 08:48 02.02.2022
5567 Clear -8 1021 57 10000 2 310 04:57 02.02.2022
5568 Clouds -6 1021 58 10000 13 80 22:34 01.02.2022
5569 Clear -9 1021 62 10000 8 20 20:55 01.02.2022
5570 Clear -8 1021 53 10000 4 10 19:29 01.02.2022
5571 Clouds -8 1020 62 9000 12 90 17:37 01.02.2022
5572 Clouds -9 1019 67 1200 14 80 16:31 01.02.2022
5573 Snow -8 1017 79 500 18 90 13:27 01.02.2022
5574 Snow -8 1017 79 400 17 90 12:28 01.02.2022
5575 Clouds -8 1020 62 7000 11 80 08:52 01.02.2022
5576 Clear -8 1021 53 10000 5 10 02:21 01.02.2022
5577 Clouds -22 1024 91 10000 0.69 360 23:38 31.01.2022
5578 Clouds -23 1024 93 10000 0.9 20 22:42 31.01.2022
5579 Clouds -23 1024 95 10000 0.07 198 21:35 31.01.2022
5580 Clear -11 1023 67 10000 2 330 20:35 31.01.2022
5581 Clouds -22 1024 94 10000 0.27 83 19:58 31.01.2022
5582 Clouds -21 1024 88 10000 0.61 347 18:32 31.01.2022
5583 Clouds -21 1024 88 10000 0.61 347 18:32 31.01.2022
5584 Clear -9 1024 53 10000 3 60 17:57 31.01.2022
5585 Clear -9 1024 53 10000 3 60 17:24 31.01.2022
5586 Clear -14 1025 66 10000 2 10 16:23 31.01.2022
5587 Clouds -22 1025 95 10000 1.13 325 14:53 31.01.2022
5588 Clouds -22 1026 97 10000 1.1 319 13:35 31.01.2022
5589 Clouds -11 1026 67 10000 7 100 12:38 31.01.2022
5590 Clouds -11 1026 79 10000 9 90 11:26 31.01.2022
5591 Clouds -23 1027 96 10000 1.82 347 10:48 31.01.2022
5592 Clouds -18 1027 92 10000 2 310 09:37 31.01.2022
5593 Clouds -13 1026 92 10000 8 90 08:56 31.01.2022
5594 Clouds -13 1026 92 10000 8 90 08:20 31.01.2022
5595 Clear -19 1027 78 10000 2 290 07:43 31.01.2022
5596 Clear -26 1027 83 10000 1 0 05:33 31.01.2022
5597 Clear -27 1028 75 10000 3.58 350 00:36 31.01.2022
5598 Fog -29 1028 75 10000 1 0 22:33 30.01.2022
5599 Fog -29 1028 75 10000 0.89 360 21:47 30.01.2022
5600 Clouds -29 1028 75 10000 0.89 350 21:26 30.01.2022
5601 Fog -29 1028 75 10000 1.79 10 20:54 30.01.2022
5602 Fog -29 1028 75 10000 1.79 10 20:31 30.01.2022
5603 Mist -29 1028 82 5000 0.89 360 19:58 30.01.2022
5604 Fog -28 1028 75 800 0.89 350 18:52 30.01.2022
5605 Fog -28 1028 75 800 0.89 350 18:26 30.01.2022
5606 Mist -28 1028 75 2000 2 10 17:31 30.01.2022
5607 Fog -27 1028 76 300 2 10 16:44 30.01.2022
5608 Fog -27 1028 75 300 1.79 10 16:23 30.01.2022
5609 Fog -27 1028 75 450 0 0 15:55 30.01.2022
5610 Fog -27 1028 75 450 0 0 15:37 30.01.2022
5611 Fog -27 1028 75 450 0 0 15:19 30.01.2022
5612 Fog -26 1028 76 350 1 20 14:44 30.01.2022
5613 Fog -25 1028 77 10000 0 0 12:46 30.01.2022
5614 Fog -24 1028 77 750 2 330 11:49 30.01.2022
5615 Fog -24 1028 77 650 2 70 10:26 30.01.2022
5616 Fog -26 1027 83 10000 2.68 360 09:26 30.01.2022
5617 Mist -21 1027 77 1200 5 170 08:44 30.01.2022
5618 Mist -23 1026 84 2100 0 0 02:58 30.01.2022
5619 Fog -23 1025 77 2100 1 160 01:54 30.01.2022
5620 Fog -26 1026 75 450 0 0 23:50 29.01.2022
5621 Mist -26 1026 83 1200 0 0 22:58 29.01.2022
5622 Mist -26 1025 83 10000 0.89 350 21:44 29.01.2022
5623 Mist -26 1025 83 10000 1 350 21:20 29.01.2022
5624 Fog -25 1025 76 1000 1 330 20:21 29.01.2022
5625 Fog -23 1025 77 10000 0 0 19:33 29.01.2022
5626 Fog -23 1026 84 3100 1 330 18:51 29.01.2022
5627 Fog -23 1026 84 3100 1 330 18:18 29.01.2022
5628 Fog -21 1026 77 2300 2 360 17:27 29.01.2022
5629 Fog -22 1027 84 400 1 40 15:42 29.01.2022
5630 Fog -20 1028 77 150 0 0 13:58 29.01.2022
5631 Fog -20 1028 76 150 0 0 13:37 29.01.2022
5632 Fog -20 1028 77 150 0 0 13:18 29.01.2022
5633 Fog -21 1028 76 10000 0.89 180 11:40 29.01.2022
5634 Mist -23 1028 83 1800 1.79 360 10:38 29.01.2022
5635 Clear -23 1029 83 10000 1 30 08:36 29.01.2022
5636 Fog -21 1029 83 10000 0 0 03:25 29.01.2022
5637 Fog -21 1030 83 10000 2 350 00:32 29.01.2022
5638 Fog -21 1030 83 500 1 0 23:32 28.01.2022
5639 Fog -22 1030 83 10000 0 0 22:48 28.01.2022
5640 Fog -22 1030 83 10000 0 0 22:20 28.01.2022
5641 Clear -21 1030 84 10000 1 0 20:41 28.01.2022
5642 Clear -21 1030 84 10000 2 330 19:59 28.01.2022
5643 Clear -21 1030 84 10000 2 330 19:18 28.01.2022
5644 Clouds -19 1030 78 8000 2 330 18:35 28.01.2022
5645 Clear -20 1030 84 10000 2 350 16:37 28.01.2022
5646 Clear -18 1030 85 10000 1 0 14:58 28.01.2022
5647 Clear -18 1031 85 10000 0 0 13:23 28.01.2022
5648 Clear -18 1031 85 10000 2 320 11:52 28.01.2022
5649 Clear -18 1031 92 10000 2 340 10:27 28.01.2022
5650 Clear -17 1031 85 10000 3 290 09:47 28.01.2022
5651 Clear -11 1030 79 10000 1 0 07:43 28.01.2022
5652 Clear -13 1030 85 10000 1 0 06:30 28.01.2022
5653 Clouds -11 1031 79 10000 5 60 03:51 28.01.2022
5654 Clouds -10 1030 79 10000 4 20 02:28 28.01.2022
5655 Clouds -10 1031 73 10000 5 120 01:38 28.01.2022
5656 Clouds -21 1033 98 2697 1.64 45 00:46 28.01.2022
5657 Fog -10 1031 85 10000 3 80 22:39 27.01.2022
5658 Snow -11 1031 85 9000 8 60 21:40 27.01.2022
5659 Snow -12 1031 92 5000 1 0 20:59 27.01.2022
5660 Snow -13 1031 85 9000 4 320 19:45 27.01.2022
5661 Snow -14 1031 85 5000 3 340 18:22 27.01.2022
5662 Snow -15 1031 85 1200 3 320 16:59 27.01.2022
5663 Snow -15 1032 85 1600 1 280 14:23 27.01.2022
5664 Snow -13 1032 78 4300 6 50 12:49 27.01.2022
5665 Snow -13 1032 78 4300 6 50 12:18 27.01.2022
5666 Snow -13 1032 85 10000 0 0 09:49 27.01.2022
5667 Snow -14 1032 85 10000 2 350 08:40 27.01.2022
5668 Clouds -24 1034 96 4055 1.28 29 07:53 27.01.2022
5669 Clouds -25 1034 97 1208 1.39 8 03:34 27.01.2022
5670 Clouds -29 1034 98 789 2.06 19 00:24 27.01.2022
5671 Clouds -30 1033 96 1706 1.13 353 22:28 26.01.2022
5672 Clouds -30 1033 96 1706 1.13 353 21:44 26.01.2022
5673 Clouds -31 1033 95 2468 1.2 38 20:52 26.01.2022
5674 Clouds -31 1033 95 2468 1.2 38 20:33 26.01.2022
5675 Clouds -32 1032 93 5553 1.52 9 19:49 26.01.2022
5676 Clouds -32 1032 92 7144 1.71 13 18:48 26.01.2022
5677 Clouds -32 1032 93 5265 1.16 7 18:24 26.01.2022
5678 Clouds -32 1032 93 5265 1.16 7 17:34 26.01.2022
5679 Clouds -33 1032 92 10000 1.65 20 16:56 26.01.2022
5680 Clouds -33 1032 91 10000 2.14 17 16:23 26.01.2022
5681 Clouds -20 1029 77 10000 2 30 14:54 26.01.2022
5682 Clouds -20 1029 84 10000 3 100 12:22 26.01.2022
5683 Clouds -32 1031 91 10000 0.69 136 10:52 26.01.2022
5684 Clouds -35 1030 94 10000 0.93 142 09:55 26.01.2022
5685 Clouds -35 1030 94 10000 0.93 142 09:36 26.01.2022
5686 Clear -29 1027 76 10000 1 300 06:43 26.01.2022
5687 Clear -29 1023 76 10000 6 30 00:26 26.01.2022
5688 Clouds -29 1023 76 10000 7 30 23:43 25.01.2022
5689 Clear -30 1023 76 10000 5 10 22:49 25.01.2022
5690 Clear -31 1022 76 10000 5 20 22:19 25.01.2022
5691 Clear -33 1021 74 10000 4.92 20 21:28 25.01.2022
5692 Clear -34 1021 73 10000 5.81 40 20:45 25.01.2022
5693 Clear -33 1020 74 10000 5 20 19:57 25.01.2022
5694 Clear -33 1020 74 10000 5 20 19:32 25.01.2022
5695 Clear -31 1018 76 10000 5 340 17:56 25.01.2022
5696 Clear -31 1018 76 10000 5 340 17:37 25.01.2022
5697 Clear -30 1017 76 10000 4 20 16:35 25.01.2022
5698 Clear -30 1016 69 10000 5 360 15:39 25.01.2022
5699 Clear -30 1016 69 10000 5 360 15:20 25.01.2022
5700 Clear -33 1016 68 10000 5 30 14:56 25.01.2022
5701 Clear -34 1014 75 10000 3 10 12:22 25.01.2022
5702 Clear -34 1011 75 10000 3 320 09:39 25.01.2022
5703 Clear -32 1011 68 10000 4 350 08:21 25.01.2022
5704 Clear -34 1010 75 10000 4 20 07:27 25.01.2022
5705 Clear -31 1008 76 10000 2 340 05:26 25.01.2022
5706 Fog -31 1006 76 10000 3 40 00:57 25.01.2022
5707 Clouds -31 1005 76 10000 3 10 23:36 24.01.2022
5708 Clouds -31 1005 76 10000 3 10 23:18 24.01.2022
5709 Fog -31 1005 76 10000 3 10 22:53 24.01.2022
5710 Fog -32 1005 75 10000 3 10 22:35 24.01.2022
5711 Fog -30 1004 76 10000 5 320 21:42 24.01.2022
5712 Fog -30 1004 76 10000 5 320 21:24 24.01.2022
5713 Clouds -31 1003 76 10000 4 350 20:28 24.01.2022
5714 Clouds -30 1003 76 9000 6 300 19:38 24.01.2022
5715 Mist -29 1003 76 4500 7 300 18:50 24.01.2022
5716 Clouds -31 1003 76 9000 7 310 17:42 24.01.2022
5717 Clouds -31 1003 76 9000 7 310 17:22 24.01.2022
5718 Fog -31 1003 76 10000 5 330 16:31 24.01.2022
5719 Clear -33 1003 74 10000 4 350 15:35 24.01.2022
5720 Clear -32 1003 74 10000 4 10 14:19 24.01.2022
5721 Clear -30 1003 76 10000 6 320 12:35 24.01.2022
5722 Clear -29 1003 76 10000 5 350 11:42 24.01.2022
5723 Clouds -31 1003 74 10000 3.58 10 10:19 24.01.2022
5724 Clouds -31 1003 74 10000 2.68 360 09:45 24.01.2022
5725 Mist -28 1002 76 5000 3 300 08:18 24.01.2022
5726 Clear -28 1002 75 10000 3 360 02:26 24.01.2022
5727 Clouds -26 1002 75 10000 3 350 01:26 24.01.2022
5728 Clouds -26 1002 75 10000 3 350 01:26 24.01.2022
5729 Clouds -27 1002 76 10000 2 350 00:31 24.01.2022
5730 Clouds -30 1001 75 10000 3 30 23:40 23.01.2022
5731 Clouds -28 1001 75 10000 3.58 10 22:21 23.01.2022
5732 Clouds -29 1000 75 10000 4 30 21:41 23.01.2022
5733 Clouds -32 1000 75 10000 4 30 21:23 23.01.2022
5734 Clouds -31 999 74 10000 3.58 20 20:23 23.01.2022
5735 Clouds -29 998 75 10000 5.81 20 18:56 23.01.2022
5736 Clouds -29 998 75 10000 5.81 20 18:24 23.01.2022
5737 Mist -27 997 75 6000 5 20 17:19 23.01.2022
5738 Snow -26 997 75 9000 2.68 10 15:59 23.01.2022
5739 Snow -26 996 75 9000 3.58 360 14:52 23.01.2022
5740 Snow -26 996 75 9000 3.58 360 14:19 23.01.2022
5741 Snow -22 995 76 9000 4.92 360 12:46 23.01.2022
5742 Snow -22 995 76 9000 5 360 12:21 23.01.2022
5743 Snow -21 994 77 10000 7 340 11:27 23.01.2022
5744 Snow -20 993 77 10000 5 10 10:58 23.01.2022
5745 Snow -20 993 77 10000 5 10 10:25 23.01.2022
5746 Snow -20 993 84 10000 1 300 09:32 23.01.2022
5747 Snow -20 992 84 7000 2 100 08:50 23.01.2022
5748 Snow -19 990 84 2700 0 0 03:59 23.01.2022
5749 Snow -19 990 84 1800 1 200 01:40 23.01.2022
5750 Snow -21 993 83 1800 0 0 00:47 23.01.2022
5751 Snow -21 993 83 1800 0 0 00:18 23.01.2022
5752 Snow -21 990 83 2200 1.79 330 23:18 22.01.2022
5753 Snow -21 990 83 7000 1 360 22:33 22.01.2022
5754 Snow -21 990 83 3400 1 0 20:47 22.01.2022
5755 Snow -21 990 83 4100 2.68 360 19:46 22.01.2022
5756 Snow -22 990 83 10000 1.79 10 18:41 22.01.2022
5757 Snow -21 990 76 3500 2.68 360 17:49 22.01.2022
5758 Snow -21 990 76 3500 2.68 360 17:31 22.01.2022
5759 Snow -21 990 76 4800 2.68 340 16:54 22.01.2022
5760 Snow -21 994 76 2100 3.58 350 15:45 22.01.2022
5761 Snow -22 991 83 1100 4 330 14:57 22.01.2022
5762 Snow -24 995 76 800 3.58 320 13:36 22.01.2022
5763 Snow -26 993 76 550 4 30 12:40 22.01.2022
5764 Snow -26 993 76 550 4 30 12:22 22.01.2022
5765 Snow -28 995 76 1000 3 360 10:55 22.01.2022
5766 Snow -28 995 76 1000 3 360 10:27 22.01.2022
5767 Snow -27 996 76 1400 6 340 09:43 22.01.2022
5768 Snow -28 996 76 2000 6 340 08:51 22.01.2022
5769 Snow -28 997 75 5000 4.92 330 07:27 22.01.2022
5770 Clouds -32 1000 75 9000 4 350 04:50 22.01.2022
5771 Clouds -36 1004 75 10000 6 330 00:57 22.01.2022
5772 Clouds -36 1004 73 10000 6 330 23:21 21.01.2022
5773 Fog -36 1006 66 10000 5.81 360 22:19 21.01.2022
5774 Clear -36 1009 73 10000 2.68 360 19:55 21.01.2022
5775 Clear -36 1010 73 10000 3.58 50 18:23 21.01.2022
5776 Clouds -36 1012 66 9000 3.58 20 16:58 21.01.2022
5777 Clear -36 1013 73 10000 4 360 15:27 21.01.2022
5778 Clouds -35 1014 66 10000 6 360 13:18 21.01.2022
5779 Fog -35 1015 68 10000 5 360 12:26 21.01.2022
5780 Fog -36 1016 73 10000 4.92 340 11:26 21.01.2022
5781 Clouds -37 1017 73 7000 3.58 340 09:34 21.01.2022
5782 Clear -36 1017 73 10000 4 360 08:22 21.01.2022
5783 Clouds -36 1020 66 8000 4 10 04:37 21.01.2022
5784 Mist -36 1023 66 2000 6 350 23:20 20.01.2022
5785 Mist -38 1024 65 2700 2.68 360 21:50 20.01.2022
5786 Mist -38 1024 73 2300 1.79 10 21:31 20.01.2022
5787 Mist -38 1024 66 2900 3 350 20:31 20.01.2022
5788 Mist -38 1025 65 1700 2.68 350 19:19 20.01.2022
5789 Mist -37 1025 65 2500 3 360 18:18 20.01.2022
5790 Clouds -39 1026 72 10000 2 360 16:40 20.01.2022
5791 Clouds -39 1027 72 9000 4 360 15:40 20.01.2022
5792 Clouds -38 1027 73 10000 4 360 14:40 20.01.2022
5793 Clouds -37 1028 65 10000 3 340 13:32 20.01.2022
5794 Clouds -38 1028 73 10000 3 350 12:31 20.01.2022
5795 Clouds -38 1028 73 7000 3 350 11:36 20.01.2022
5796 Clouds -37 1029 65 8000 3.58 360 10:37 20.01.2022
5797 Mist -37 1029 73 10000 1.79 340 09:34 20.01.2022
5798 Clouds -38 1029 73 7000 1 0 07:33 20.01.2022
5799 Clear -36 1031 66 10000 1.79 350 00:43 20.01.2022
5800 Fog -37 1031 65 10000 3.58 350 22:54 19.01.2022
5801 Fog -37 1032 73 10000 3.58 350 21:48 19.01.2022
5802 Fog -37 1031 65 10000 2.68 350 21:23 19.01.2022
5803 Clouds -37 1031 73 10000 2.68 340 20:46 19.01.2022
5804 Mist -37 1031 73 4500 2.68 350 19:42 19.01.2022
5805 Clouds -37 1032 65 7000 2.68 340 17:55 19.01.2022
5806 Clouds -37 1032 65 7000 2.68 340 17:35 19.01.2022
5807 Clear -37 1032 73 10000 4 350 16:46 19.01.2022
5808 Clear -36 1032 68 10000 3 350 14:42 19.01.2022
5809 Clear -36 1032 73 10000 3 330 12:41 19.01.2022
5810 Clear -34 1032 68 10000 4 30 11:39 19.01.2022
5811 Clouds -36 1032 66 10000 4 20 10:20 19.01.2022
5812 Clear -36 1032 73 10000 3 10 09:33 19.01.2022
5813 Clear -31 1032 69 10000 3 10 06:35 19.01.2022
5814 Clouds -32 1032 67 10000 3 10 02:38 19.01.2022
5815 Clear -36 1033 66 10000 2.68 10 23:19 18.01.2022
5816 Fog -36 1033 73 10000 2.68 20 22:19 18.01.2022
5817 Clouds -34 1033 66 10000 2.68 360 20:55 18.01.2022
5818 Clear -36 1033 73 10000 2.68 340 19:54 18.01.2022
5819 Clear -36 1033 73 10000 3 340 19:36 18.01.2022
5820 Clouds -36 1033 73 10000 2.68 350 18:38 18.01.2022
5821 Clouds -36 1034 73 10000 1.79 10 17:57 18.01.2022
5822 Clouds -34 1034 73 8000 1 0 16:38 18.01.2022
5823 Clear -34 1034 73 10000 1 0 15:40 18.01.2022
5824 Clear -34 1034 73 10000 1 0 15:20 18.01.2022
5825 Clouds -36 1035 73 10000 2 350 12:30 18.01.2022
5826 Clouds -34 1034 75 7000 4 350 10:46 18.01.2022
5827 Mist -34 1034 75 5000 4 340 08:49 18.01.2022
5828 Clouds -33 1034 75 7000 2 320 07:49 18.01.2022
5829 Fog -32 1034 68 10000 3 360 02:33 18.01.2022
5830 Clear -34 1034 74 10000 3 350 23:22 17.01.2022
5831 Clear -36 1034 73 10000 4 350 22:26 17.01.2022
5832 Clear -34 1033 75 10000 2 330 21:33 17.01.2022
5833 Clear -33 1033 68 10000 4 350 19:57 17.01.2022
5834 Clear -33 1033 68 10000 4 360 18:29 17.01.2022
5835 Clear -34 1033 74 10000 4 350 17:25 17.01.2022
5836 Clear -34 1033 74 10000 3 360 16:35 17.01.2022
5837 Clear -33 1033 75 10000 3 360 14:59 17.01.2022
5838 Clear -33 1033 75 10000 3 360 14:33 17.01.2022
5839 Clear -33 1033 68 10000 3 350 13:20 17.01.2022
5840 Clear -33 1034 75 10000 4 350 12:54 17.01.2022
5841 Clear -33 1034 75 10000 3 350 11:48 17.01.2022
5842 Clear -32 1034 75 10000 3 350 10:21 17.01.2022
5843 Clear -33 1034 75 10000 3 350 08:51 17.01.2022
5844 Clear -32 1034 68 10000 3 330 07:22 17.01.2022
5845 Clear -30 1034 76 10000 3 340 02:54 17.01.2022
5846 Clear -30 1034 76 10000 2 320 00:54 17.01.2022
5847 Clear -30 1034 76 10000 1 0 21:44 16.01.2022
5848 Clouds -37 1035 98 10000 2.84 330 20:33 16.01.2022
5849 Clouds -37 1035 98 10000 2.84 330 20:33 16.01.2022
5850 Fog -29 1033 76 10000 5 330 18:50 16.01.2022
5851 Clear -28 1033 83 10000 6 350 17:57 16.01.2022
5852 Clear -29 1033 76 10000 6 350 16:59 16.01.2022
5853 Clear -29 1033 76 10000 6 350 16:20 16.01.2022
5854 Clear -28 1034 76 10000 2 40 14:30 16.01.2022
5855 Clear -28 1033 76 10000 6 350 13:34 16.01.2022
5856 Clear -29 1033 76 10000 6 340 12:27 16.01.2022
5857 Fog -29 1034 76 10000 3 330 11:40 16.01.2022
5858 Clear -28 1033 76 10000 6 360 10:46 16.01.2022
5859 Clouds -27 1032 76 10000 7 360 09:59 16.01.2022
5860 Clouds -29 1032 76 10000 1 0 09:40 16.01.2022
5861 Clouds -29 1032 76 10000 1 0 09:21 16.01.2022
5862 Clouds -31 1032 76 10000 6 340 07:23 16.01.2022
5863 Clear -29 1030 76 10000 3 350 00:36 16.01.2022
5864 Clear -30 1030 76 10000 5 10 23:22 15.01.2022
5865 Clear -30 1029 76 10000 7 340 21:23 15.01.2022
5866 Clear -31 1029 74 10000 2.68 350 20:48 15.01.2022
5867 Clear -31 1029 74 10000 2.68 350 20:29 15.01.2022
5868 Clear -30 1028 75 10000 5 340 19:27 15.01.2022
5869 Clear -29 1027 76 10000 7 350 18:28 15.01.2022
5870 Clear -29 1027 76 10000 2 20 16:49 15.01.2022
5871 Clear -28 1027 76 10000 5 340 14:48 15.01.2022
5872 Clear -28 1027 76 10000 4 350 13:29 15.01.2022
5873 Clear -28 1026 76 10000 5 360 11:33 15.01.2022
5874 Clear -29 1024 75 10000 6.71 360 09:46 15.01.2022
5875 Clear -31 1023 74 10000 3.58 330 05:18 15.01.2022
5876 Clear -32 1022 74 10000 4 310 23:40 14.01.2022
5877 Fog -31 1021 74 10000 1.79 270 21:19 14.01.2022
5878 Fog -31 1021 74 10000 6.71 340 20:37 14.01.2022
5879 Clouds -31 1021 74 6000 4.92 350 19:56 14.01.2022
5880 Fog -32 1021 74 10000 5.81 350 18:43 14.01.2022
5881 Fog -31 1020 76 10000 6 340 17:52 14.01.2022
5882 Clouds -31 1020 76 10000 5 330 16:43 14.01.2022
5883 Clouds -31 1020 76 10000 5 330 16:43 14.01.2022
5884 Fog -31 1020 76 10000 2 300 15:33 14.01.2022
5885 Mist -27 1020 76 5000 4 350 14:29 14.01.2022
5886 Mist -28 1020 76 2100 4 340 12:59 14.01.2022
5887 Clouds -30 1019 76 7000 6 350 11:53 14.01.2022
5888 Mist -31 1020 76 9000 1 0 10:40 14.01.2022
5889 Clouds -31 1019 76 10000 7 360 08:53 14.01.2022
5890 Clouds -28 1020 76 10000 6 360 07:35 14.01.2022
5891 Mist -31 1020 76 1100 7 340 02:28 14.01.2022
5892 Mist -29 1021 76 9000 1 0 00:33 14.01.2022
5893 Clouds -31 1021 76 8000 1 0 21:53 13.01.2022
5894 Mist -32 1022 75 2200 2 310 21:29 13.01.2022
5895 Mist -31 1021 76 2700 2 320 20:27 13.01.2022
5896 Clouds -31 1022 76 10000 2 10 19:30 13.01.2022
5897 Clouds -31 1022 76 10000 4 360 18:49 13.01.2022
5898 Fog -32 1022 75 2200 4 350 16:58 13.01.2022
5899 Mist -31 1022 76 1200 4 340 15:49 13.01.2022
5900 Fog -31 1022 76 1200 4 340 15:26 13.01.2022
5901 Fog -32 1022 75 800 5 350 13:36 13.01.2022
5902 Clear -31 1023 76 10000 4 360 11:38 13.01.2022
5903 Clear -30 1023 76 10000 2 340 09:37 13.01.2022
5904 Clear -30 1023 76 10000 4 350 08:52 13.01.2022
5905 Clear -30 1023 75 10000 4 350 08:18 13.01.2022
5906 Clear -30 1023 76 10000 3 360 07:20 13.01.2022
5907 Clear -28 1023 76 10000 3 10 05:21 13.01.2022
5908 Clear -28 1023 76 10000 3 20 04:55 13.01.2022
5909 Clouds -28 1023 76 7000 5 350 01:41 13.01.2022
5910 Mist -28 1023 76 3300 1 0 23:54 12.01.2022
5911 Mist -28 1023 76 3300 1 0 23:34 12.01.2022
5912 Clear -29 1023 76 10000 4 20 22:35 12.01.2022
5913 Clouds -30 1023 76 9000 6 350 21:49 12.01.2022
5914 Fog -29 1024 76 10000 5 350 21:20 12.01.2022
5915 Clear -29 1023 76 10000 3 360 20:49 12.01.2022
5916 Clear -28 1023 76 10000 4 360 19:23 12.01.2022
5917 Clear -28 1023 83 10000 5 350 18:27 12.01.2022
5918 Clear -29 1023 83 10000 4 10 16:58 12.01.2022
5919 Clear -28 1023 76 10000 4 350 15:49 12.01.2022
5920 Clear -29 1023 75 10000 4 350 14:45 12.01.2022
5921 Clear -29 1022 76 10000 3 350 12:58 12.01.2022
5922 Clear -29 1020 75 10000 3 10 09:58 12.01.2022
5923 Clouds -27 1019 76 10000 3 340 07:59 12.01.2022
5924 Clouds -27 1019 76 10000 3 340 07:33 12.01.2022
5925 Clear -27 1018 75 10000 3 330 05:30 12.01.2022
5926 Clear -25 1016 77 10000 5 320 23:29 11.01.2022
5927 Clear -26 1016 76 10000 5 350 22:41 11.01.2022
5928 Clear -26 1016 76 10000 5 350 22:20 11.01.2022
5929 Clear -26 1015 76 10000 5 20 20:40 11.01.2022
5930 Clear -26 1015 76 10000 5 350 19:41 11.01.2022
5931 Clear -25 1014 70 10000 3 340 18:22 11.01.2022
5932 Clear -26 1013 76 10000 3 250 16:59 11.01.2022
5933 Clear -26 1013 76 10000 3 250 16:35 11.01.2022
5934 Clear -25 1013 77 10000 6 10 14:57 11.01.2022
5935 Clear -25 1013 77 10000 6 10 14:39 11.01.2022
5936 Clear -27 1014 76 10000 6 350 13:53 11.01.2022
5937 Clear -27 1014 76 10000 6 350 13:31 11.01.2022
5938 Clear -26 1014 70 10000 3 300 12:37 11.01.2022
5939 Clear -25 1014 77 10000 8 340 10:52 11.01.2022
5940 Clear -28 1014 76 10000 5 340 08:53 11.01.2022
5941 Clear -28 1014 75 10000 3.58 330 06:22 11.01.2022
5942 Clear -27 1014 69 10000 1 0 00:28 11.01.2022
5943 Clear -29 1014 75 10000 4 360 23:40 10.01.2022
5944 Clear -29 1014 76 10000 8 10 22:43 10.01.2022
5945 Clear -27 1014 69 10000 6 350 22:18 10.01.2022
5946 Clear -29 1014 69 10000 8 350 21:42 10.01.2022
5947 Clear -28 1014 69 10000 9 340 21:18 10.01.2022
5948 Clear -31 1014 74 10000 6 350 20:55 10.01.2022
5949 Clear -30 1014 76 10000 6 350 20:24 10.01.2022
5950 Clear -29 1014 69 10000 9 340 19:41 10.01.2022
5951 Clear -29 1014 69 10000 9 340 19:19 10.01.2022
5952 Clear -30 1014 76 10000 9 340 18:48 10.01.2022
5953 Clear -29 1015 76 10000 10 350 16:59 10.01.2022
5954 Clear -29 1015 76 10000 10 350 16:41 10.01.2022
5955 Clear -29 1016 76 10000 1 0 14:58 10.01.2022
5956 Clouds -30 1017 76 9000 3 340 13:35 10.01.2022
5957 Clear -28 1018 76 10000 3 350 11:57 10.01.2022
5958 Clear -28 1018 76 10000 3 350 11:24 10.01.2022
5959 Clear -29 1018 76 10000 7 350 09:41 10.01.2022
5960 Clear -26 1020 70 10000 4 360 05:52 10.01.2022
5961 Clear -27 1020 69 10000 6 350 05:23 10.01.2022
5962 Clouds -27 1021 76 10000 9 340 01:24 10.01.2022
5963 Clear -26 1022 70 10000 3 340 00:23 10.01.2022
5964 Clear -26 1023 70 10000 4 350 23:28 09.01.2022
5965 Clear -26 1023 76 10000 4 340 22:22 09.01.2022
5966 Clear -26 1023 76 10000 5 340 21:42 09.01.2022
5967 Clear -26 1023 76 10000 5 340 21:42 09.01.2022
5968 Clear -26 1023 76 10000 5 340 21:23 09.01.2022
5969 Clear -26 1023 76 10000 5 340 21:23 09.01.2022
5970 Clear -25 1024 70 10000 4 350 20:50 09.01.2022
5971 Clear -25 1024 70 10000 4 350 20:29 09.01.2022
5972 Clear -26 1024 76 10000 5 350 19:44 09.01.2022
5973 Clear -26 1024 76 10000 5 350 19:23 09.01.2022
5974 Clear -25 1024 70 10000 4 350 18:49 09.01.2022
5975 Clear -25 1024 70 10000 4 350 18:30 09.01.2022
5976 Clear -26 1025 76 10000 4 350 17:30 09.01.2022
5977 Clear -24 1025 70 10000 4 360 16:51 09.01.2022
5978 Clear -24 1026 77 10000 4 360 15:56 09.01.2022
5979 Clear -24 1026 77 10000 4 360 15:34 09.01.2022
5980 Clear -24 1026 70 10000 3 30 14:40 09.01.2022
5981 Clear -23 1026 70 10000 3 20 13:50 09.01.2022
5982 Clear -24 1027 77 10000 4 360 12:48 09.01.2022
5983 Clear -24 1027 76 10000 3.58 20 11:48 09.01.2022
5984 Clear -26 1028 75 10000 3 20 10:49 09.01.2022
5985 Clear -20 1028 71 10000 2 10 09:42 09.01.2022
5986 Clear -19 1028 71 10000 1 0 08:34 09.01.2022
5987 Clear -18 1028 78 10000 1 0 03:55 09.01.2022
5988 Clear -17 1028 71 10000 2 360 01:23 09.01.2022
5989 Clouds -23 1029 97 10000 1.25 330 23:39 08.01.2022
5990 Clouds -24 1029 98 10000 0.91 348 22:59 08.01.2022
5991 Clouds -24 1029 99 10000 1.29 324 21:33 08.01.2022
5992 Clouds -24 1028 99 10000 1.08 309 20:58 08.01.2022
5993 Clouds -24 1028 99 10000 1.08 309 20:39 08.01.2022
5994 Clouds -24 1028 99 10000 0.77 308 20:19 08.01.2022
5995 Clear -14 1028 78 10000 3 50 18:34 08.01.2022
5996 Clear -12 1027 79 10000 2 350 17:22 08.01.2022
5997 Clear -14 1027 78 10000 1 0 15:51 08.01.2022
5998 Clear -12 1027 79 10000 1 0 14:43 08.01.2022
5999 Clear -12 1027 72 10000 0 0 13:25 08.01.2022
6000 Clear -12 1026 72 10000 3 350 11:24 08.01.2022
6001 Clear -12 1026 72 10000 2 350 10:25 08.01.2022
6002 Clear -13 1025 78 10000 2 300 09:47 08.01.2022
6003 Clouds -22 1026 99 10000 0.94 326 07:21 08.01.2022
6004 Clouds -22 1025 100 10000 1.73 294 02:45 08.01.2022
6005 Clouds -21 1026 99 10000 1.19 337 00:41 08.01.2022
6006 Clouds -21 1026 100 10000 0.93 303 22:47 07.01.2022
6007 Clouds -21 1026 100 10000 1.03 294 20:56 07.01.2022
6008 Clouds -21 1026 100 10000 0.43 300 20:19 07.01.2022
6009 Clouds -20 1026 100 10000 0.72 344 19:18 07.01.2022
6010 Clouds -20 1026 100 10000 0.72 344 18:44 07.01.2022
6011 Clouds -21 1026 100 10000 1.09 355 17:26 07.01.2022
6012 Clouds -21 1026 100 10000 1.09 355 16:30 07.01.2022
6013 Clouds -21 1026 100 4335 1.47 274 13:54 07.01.2022
6014 Clouds -20 1026 100 2460 1.97 260 13:22 07.01.2022
6015 Clouds -20 1026 100 10000 2.05 265 12:49 07.01.2022
6016 Clouds -20 1026 99 10000 1.12 273 09:37 07.01.2022
6017 Clouds -19 1026 95 10000 0.63 200 02:56 07.01.2022
6018 Clouds -19 1026 97 10000 0.79 178 01:54 07.01.2022
6019 Clouds -19 1026 97 10000 0.71 206 01:28 07.01.2022
6020 Clouds -19 1026 97 10000 0.7 198 00:58 07.01.2022
6021 Clear -7 1026 79 10000 3 70 23:53 06.01.2022
6022 Clear -7 1026 79 10000 4 10 21:28 06.01.2022
6023 Clouds -20 1026 96 10000 1.42 295 20:22 06.01.2022
6024 Clouds -20 1026 96 10000 1.42 295 19:45 06.01.2022
6025 Clear -7 1026 93 10000 1 0 18:29 06.01.2022
6026 Clear -8 1026 86 10000 2 60 17:40 06.01.2022
6027 Clear -15 1026 85 10000 0 0 16:44 06.01.2022
6028 Clear -18 1027 91 10000 1.79 340 15:47 06.01.2022
6029 Clear -18 1027 91 10000 1.79 340 15:26 06.01.2022
6030 Clear -19 1027 84 10000 2 10 14:45 06.01.2022
6031 Clear -19 1027 84 10000 2 10 14:18 06.01.2022
6032 Clouds -18 1028 84 10000 2 310 12:50 06.01.2022
6033 Mist -18 1028 84 1100 2.68 320 11:43 06.01.2022
6034 Mist -18 1028 84 1100 2.68 320 11:22 06.01.2022
6035 Clouds -17 1028 84 10000 4 340 08:52 06.01.2022
6036 Fog -15 1032 92 10000 2 340 01:24 06.01.2022
6037 Clear -16 1033 85 10000 1 10 23:38 05.01.2022
6038 Clear -16 1033 85 10000 2 320 22:57 05.01.2022
6039 Clear -16 1033 85 10000 2 320 22:32 05.01.2022
6040 Clouds -18 1033 84 10000 1.79 360 21:49 05.01.2022
6041 Clouds -17 1033 85 10000 2 360 21:20 05.01.2022
6042 Mist -17 1033 85 5000 4 340 20:18 05.01.2022
6043 Fog -17 1033 85 800 6 350 18:44 05.01.2022
6044 Fog -18 1034 84 1100 4.92 350 17:26 05.01.2022
6045 Fog -18 1034 84 600 5.81 350 16:51 05.01.2022
6046 Mist -18 1035 84 6000 5 350 15:26 05.01.2022
6047 Clouds -18 1035 84 10000 2.68 340 13:52 05.01.2022
6048 Clouds -18 1035 84 10000 2.68 340 13:22 05.01.2022
6049 Clear -18 1036 84 10000 2.68 340 11:36 05.01.2022
6050 Clear -15 1037 84 10000 1 0 07:47 05.01.2022
6051 Clear -15 1037 84 10000 2.68 360 06:25 05.01.2022
6052 Clear -11 1038 92 10000 1 10 00:59 05.01.2022
6053 Clear -8 1038 86 10000 5 50 23:28 04.01.2022
6054 Clear -7 1038 79 10000 1 0 22:55 04.01.2022
6055 Clouds -6 1037 73 10000 3 360 21:31 04.01.2022
6056 Clouds -6 1037 73 10000 3 360 21:31 04.01.2022
6057 Clouds -12 1037 93 10000 2.9 120 19:20 04.01.2022
6058 Clear -5 1037 80 10000 6 60 17:52 04.01.2022
6059 Clear -6 1037 79 10000 7 110 16:44 04.01.2022
6060 Clear -6 1037 79 10000 7 110 16:24 04.01.2022
6061 Clouds -5 1037 80 10000 10 120 14:54 04.01.2022
6062 Clouds -5 1037 80 10000 10 120 14:35 04.01.2022
6063 Clouds -5 1038 79 10000 8 110 13:29 04.01.2022
6064 Clouds -5 1037 79 10000 9.83 120 10:41 04.01.2022
6065 Clouds -5 1036 85 10000 11 120 09:47 04.01.2022
6066 Clouds -5 1036 85 9000 12 120 08:32 04.01.2022
6067 Clouds -4 1035 86 10000 7.6 100 02:32 04.01.2022
6068 Clouds -4 1035 86 10000 9.83 110 00:41 04.01.2022
6069 Clouds -4 1035 92 9000 10.73 110 23:34 03.01.2022
6070 Clouds -4 1034 92 2500 11.62 110 21:52 03.01.2022
6071 Clouds -4 1034 92 2500 11.62 110 21:34 03.01.2022
6072 Clouds -4 1034 92 2700 11.62 110 20:26 03.01.2022
6073 Clouds -4 1033 92 3600 11.62 110 18:54 03.01.2022
6074 Clouds -4 1033 92 3600 11.62 110 18:28 03.01.2022
6075 Clouds -3 1033 92 2000 13.86 120 16:59 03.01.2022
6076 Clouds -3 1033 92 1900 12.96 120 15:40 03.01.2022
6077 Clouds -3 1033 92 2400 12.96 120 14:31 03.01.2022
6078 Clouds -2 1032 92 1700 12.96 120 12:48 03.01.2022
6079 Clouds -2 1032 92 2400 13 120 11:39 03.01.2022
6080 Clouds -2 1032 92 3100 13 120 10:37 03.01.2022
6081 Clouds -2 1032 92 1200 14.75 120 08:48 03.01.2022
6082 Clouds -2 1031 92 1200 14.75 120 07:36 03.01.2022
6083 Clouds -2 1032 92 2300 8.94 90 00:29 03.01.2022
6084 Clouds -3 1032 92 1200 8.94 100 23:22 02.01.2022
6085 Clear 2 1031 75 10000 8 120 22:55 02.01.2022
6086 Clear 1 1032 80 10000 5 320 21:52 02.01.2022
6087 Clouds 1 1032 80 9000 4 160 20:41 02.01.2022
6088 Clouds 1 1032 80 9000 4 160 20:22 02.01.2022
6089 Clear 0 1032 86 10000 6 60 19:31 02.01.2022
6090 Clouds 1 1031 80 9000 4 130 18:47 02.01.2022
6091 Clouds 0 1031 86 6000 2 100 17:56 02.01.2022
6092 Clouds 0 1031 86 6000 2 100 17:37 02.01.2022
6093 Clouds -1 1031 86 6000 1.79 100 17:18 02.01.2022
6094 Clouds 0 1031 86 10000 6 120 16:26 02.01.2022
6095 Clouds -2 1032 92 9000 7 110 14:34 02.01.2022
6096 Clouds -3 1031 92 7000 7.6 120 12:57 02.01.2022
6097 Clouds -2 1031 93 7000 8 120 12:25 02.01.2022
6098 Clouds -2 1031 93 5000 9 120 11:33 02.01.2022
6099 Snow -4 1031 92 1700 11.62 120 10:49 02.01.2022
6100 Snow -4 1030 92 1000 12.96 120 09:52 02.01.2022
6101 Snow -7 1031 92 350 13.86 120 07:26 02.01.2022
6102 Clouds -11 1032 85 100 13.86 100 02:19 02.01.2022
6103 Clouds -15 1034 84 350 13.86 120 23:40 01.01.2022
6104 Clouds -16 1035 84 450 12.96 120 22:58 01.01.2022
6105 Clouds -15 1035 85 450 13 120 22:23 01.01.2022
6106 Clouds -16 1036 85 1800 8 80 21:44 01.01.2022
6107 Clouds -16 1036 78 550 14 60 20:56 01.01.2022
6108 Clouds -16 1036 66 4800 11 90 19:58 01.01.2022
6109 Clouds -16 1036 66 4800 11 90 19:30 01.01.2022
6110 Clouds -17 1038 71 10000 5 100 18:20 01.01.2022
6111 Clouds -17 1037 66 10000 7 100 16:43 01.01.2022
6112 Clouds -17 1037 66 10000 7 100 16:20 01.01.2022
6113 Clouds -17 1038 51 10000 4 120 15:27 01.01.2022
6114 Clear -26 1038 75 10000 3 330 13:59 01.01.2022
6115 Clear -21 1037 63 10000 6 50 12:50 01.01.2022
6116 Clear -22 1037 71 10000 2 290 11:58 01.01.2022
6117 Clear -22 1037 69 10000 2 290 11:23 01.01.2022
6118 Clear -24 1037 76 10000 1 0 10:40 01.01.2022
6119 Clear -26 1036 75 10000 2 350 09:46 01.01.2022
6120 Clear -24 1035 76 10000 0 0 08:26 01.01.2022
6121 Clear -26 1035 75 10000 0 0 07:55 01.01.2022
6122 Clear -26 1035 75 10000 0 0 07:34 01.01.2022
6123 Clear -27 1035 75 10000 0 0 06:41 01.01.2022
6124 Clear -28 1034 75 10000 1 30 04:38 01.01.2022
6125 Clear -27 1034 75 10000 2 20 02:54 01.01.2022
6126 Clear -26 1033 83 10000 2 350 23:44 31.12.2021
6127 Clouds -26 1032 83 10000 2.68 90 21:54 31.12.2021
6128 Clouds -26 1031 83 10000 2 40 20:41 31.12.2021
6129 Clouds -24 1031 76 10000 0 0 19:31 31.12.2021
6130 Clear -23 1030 77 10000 1 340 18:44 31.12.2021
6131 Clear -23 1030 76 10000 1.79 330 17:45 31.12.2021
6132 Clear -23 1030 76 10000 1.79 330 17:19 31.12.2021
6133 Clear -22 1030 76 10000 0.89 360 16:44 31.12.2021
6134 Clear -22 1029 76 10000 1 0 15:58 31.12.2021
6135 Clear -22 1029 76 10000 1 0 15:31 31.12.2021
6136 Clear -21 1030 76 10000 0.89 280 14:57 31.12.2021
6137 Clear -21 1030 76 10000 1 280 14:33 31.12.2021
6138 Clear -21 1029 83 10000 2 100 13:43 31.12.2021
6139 Clear -20 1028 84 10000 0 0 12:49 31.12.2021
6140 Clear -21 1028 83 10000 0 0 12:19 31.12.2021
6141 Clear -21 1028 83 10000 0 0 11:33 31.12.2021
6142 Clear -21 1028 83 10000 0 0 10:41 31.12.2021
6143 Clear -21 1028 83 10000 0 0 10:23 31.12.2021
6144 Clouds -19 1028 84 10000 0 0 09:33 31.12.2021
6145 Clouds -18 1027 85 10000 2 230 08:49 31.12.2021
6146 Clouds -17 1027 78 10000 3 200 07:49 31.12.2021
6147 Clouds -20 1025 77 10000 0 0 01:38 31.12.2021
6148 Clouds -17 1025 78 10000 2 150 22:54 30.12.2021
6149 Clouds -18 1025 85 10000 1 0 22:27 30.12.2021
6150 Clouds -18 1025 85 10000 0 0 21:37 30.12.2021
6151 Clouds -18 1025 78 10000 1 360 20:58 30.12.2021
6152 Clouds -18 1025 78 10000 1 360 20:35 30.12.2021
6153 Clouds -18 1025 78 10000 2 350 19:50 30.12.2021
6154 Clouds -18 1025 78 10000 2 350 19:24 30.12.2021
6155 Clouds -18 1025 78 10000 1 60 18:21 30.12.2021
6156 Clouds -18 1025 78 10000 3 350 16:39 30.12.2021
6157 Clouds -18 1025 78 10000 2 350 15:53 30.12.2021
6158 Clouds -17 1026 78 10000 1 0 14:51 30.12.2021
6159 Clouds -17 1026 78 10000 1 30 14:31 30.12.2021
6160 Clouds -17 1026 78 10000 1 0 13:24 30.12.2021
6161 Clouds -28 1027 98 10000 0.35 43 11:45 30.12.2021
6162 Clouds -27 1026 98 10000 1.11 25 10:28 30.12.2021
6163 Clouds -17 1025 78 10000 0 0 09:27 30.12.2021
6164 Clouds -18 1024 85 10000 2 270 06:56 30.12.2021
6165 Snow -18 1024 85 10000 0 0 04:56 30.12.2021
6166 Clouds -18 1023 78 10000 1 310 03:40 30.12.2021
6167 Clouds -16 1023 72 10000 1 50 02:19 30.12.2021
6168 Snow -16 1022 66 10000 5 100 23:37 29.12.2021
6169 Snow -15 1021 61 10000 4 50 22:33 29.12.2021
6170 Snow -15 1021 66 10000 5 60 21:55 29.12.2021
6171 Clear -17 1021 71 10000 3 360 20:56 29.12.2021
6172 Clear -17 1021 71 10000 3 360 20:26 29.12.2021
6173 Snow -18 1021 77 10000 1.79 360 19:31 29.12.2021
6174 Snow -18 1020 70 10000 4.92 90 18:35 29.12.2021
6175 Snow -18 1020 77 10000 7.6 100 17:42 29.12.2021
6176 Snow -18 1020 77 10000 7.6 100 17:23 29.12.2021
6177 Snow -18 1019 70 10000 7.6 80 16:21 29.12.2021
6178 Clouds -18 1019 70 10000 6.71 90 15:21 29.12.2021
6179 Snow -18 1016 77 10000 1.79 110 12:57 29.12.2021
6180 Snow -18 1016 77 10000 1.79 110 12:32 29.12.2021
6181 Snow -16 1015 85 10000 3 130 11:22 29.12.2021
6182 Snow -17 1013 84 5000 1 0 09:24 29.12.2021
6183 Snow -18 1010 84 5000 5.81 10 07:30 29.12.2021
6184 Snow -18 1009 84 4900 3.58 350 06:32 29.12.2021
6185 Snow -17 1008 84 3400 2.68 20 05:55 29.12.2021
6186 Snow -17 1007 84 2700 4.92 30 04:57 29.12.2021
6187 Snow -18 1002 84 500 11.62 20 00:43 29.12.2021
6188 Snow -16 1001 78 550 10 20 23:58 28.12.2021
6189 Snow -16 1001 85 1200 4 260 22:57 28.12.2021
6190 Snow -17 1000 84 3500 3.58 160 22:25 28.12.2021
6191 Snow -17 1000 84 3500 3.58 160 22:25 28.12.2021
6192 Snow -15 999 85 350 11 40 21:54 28.12.2021
6193 Snow -15 999 85 350 11 40 21:54 28.12.2021
6194 Snow -17 998 84 350 11 40 21:34 28.12.2021
6195 Snow -16 999 85 150 14 30 20:25 28.12.2021
6196 Snow -16 1001 85 900 8 20 18:54 28.12.2021
6197 Snow -16 1001 85 900 8 20 18:27 28.12.2021
6198 Snow -16 1003 85 1000 5 10 17:34 28.12.2021
6199 Snow -18 1004 84 2300 7 10 16:20 28.12.2021
6200 Snow -15 1005 78 10000 2 300 15:41 28.12.2021
6201 Snow -17 1007 77 10000 2.68 330 14:55 28.12.2021
6202 Snow -17 1007 77 10000 2.68 330 14:55 28.12.2021
6203 Snow -17 1007 77 10000 2.68 330 14:37 28.12.2021
6204 Snow -17 1007 77 10000 2.68 330 14:18 28.12.2021
6205 Snow -17 1008 84 10000 0 0 13:37 28.12.2021
6206 Snow -17 1009 84 10000 2.68 200 12:56 28.12.2021
6207 Snow -16 1009 85 10000 3 200 12:21 28.12.2021
6208 Snow -15 1011 78 10000 2 250 10:47 28.12.2021
6209 Snow -16 1012 84 3300 1.79 340 07:38 28.12.2021
6210 Snow -16 1011 84 2600 1 0 03:37 28.12.2021
6211 Snow -14 1011 85 3200 2 50 23:40 27.12.2021
6212 Snow -14 1012 78 10000 2 350 22:27 27.12.2021
6213 Snow -13 1013 72 10000 6 360 21:31 27.12.2021
6214 Snow -13 1013 78 10000 8 60 20:39 27.12.2021
6215 Snow -13 1014 78 9000 8 70 19:55 27.12.2021
6216 Snow -13 1014 78 9000 8 70 19:37 27.12.2021
6217 Snow -14 1014 85 8000 4 330 17:55 27.12.2021
6218 Snow -14 1014 85 8000 4 330 17:29 27.12.2021
6219 Snow -14 1015 78 5000 5 80 16:26 27.12.2021
6220 Snow -14 1016 72 9000 4 20 15:49 27.12.2021
6221 Snow -18 1017 77 10000 1 0 14:26 27.12.2021
6222 Snow -21 1018 76 10000 3.58 340 13:31 27.12.2021
6223 Clear -23 1018 84 10000 4 360 11:20 27.12.2021
6224 Snow -24 1018 76 10000 2.68 350 10:27 27.12.2021
6225 Clouds -26 1018 75 10000 5.81 360 09:27 27.12.2021
6226 Clear -28 1017 75 10000 3.58 330 07:35 27.12.2021
6227 Clouds -28 1014 76 10000 6 360 06:29 27.12.2021
6228 Clear -31 1014 76 10000 4 360 01:59 27.12.2021
6229 Clouds -30 1011 76 10000 6 360 23:50 26.12.2021
6230 Clear -30 1011 76 10000 4 10 23:32 26.12.2021
6231 Clouds -31 1009 74 10000 4.92 10 21:48 26.12.2021
6232 Clouds -31 1008 74 10000 3.58 360 20:25 26.12.2021
6233 Clouds -29 1006 75 10000 5.81 10 19:27 26.12.2021
6234 Clouds -31 1007 82 10000 4.92 20 18:23 26.12.2021
6235 Clouds -31 1005 74 9000 4.92 10 15:55 26.12.2021
6236 Clouds -29 1005 75 10000 3 360 13:52 26.12.2021
6237 Clouds -29 1005 75 10000 3 360 13:32 26.12.2021
6238 Clear -28 1006 75 10000 5 350 12:37 26.12.2021
6239 Clouds -26 1006 75 10000 6 350 11:57 26.12.2021
6240 Clouds -23 1005 83 10000 5.81 320 09:44 26.12.2021
6241 Snow -21 1006 77 10000 7 310 08:59 26.12.2021
6242 Snow -21 1006 77 10000 7 310 08:38 26.12.2021
6243 Snow -21 1007 83 10000 5.81 330 06:47 26.12.2021
6244 Clouds -17 1009 85 10000 2 330 00:45 26.12.2021
6245 Clouds -16 1008 85 10000 3 310 23:50 25.12.2021
6246 Clouds -16 1008 85 10000 2 10 23:26 25.12.2021
6247 Snow -18 1008 91 10000 2 310 22:22 25.12.2021
6248 Snow -16 1007 92 8000 0 0 20:48 25.12.2021
6249 Snow -15 1006 84 2200 0.89 220 19:21 25.12.2021
6250 Snow -15 1003 84 2100 1 0 18:54 25.12.2021
6251 Snow -13 1006 85 10000 2 150 16:58 25.12.2021
6252 Snow -15 1006 84 8000 0.89 90 15:54 25.12.2021
6253 Snow -16 1006 84 5000 1.79 320 14:38 25.12.2021
6254 Snow -15 1007 84 1600 1 0 12:43 25.12.2021
6255 Snow -15 1007 84 2200 0.89 80 11:37 25.12.2021
6256 Snow -15 1009 84 1200 1 0 09:49 25.12.2021
6257 Snow -15 1011 84 2300 3.58 200 07:54 25.12.2021
6258 Snow -14 1014 84 10000 2.68 180 02:18 25.12.2021
6259 Clouds -15 1015 84 10000 5 350 00:30 25.12.2021
6260 Clouds -14 1017 84 10000 4 20 22:40 24.12.2021
6261 Clouds -15 1018 84 10000 0 0 19:38 24.12.2021
6262 Clouds -15 1018 84 10000 0 0 19:19 24.12.2021
6263 Clouds -16 1019 84 10000 1 0 16:50 24.12.2021
6264 Clouds -16 1019 84 10000 1 0 16:19 24.12.2021
6265 Snow -16 1019 92 10000 1.79 350 15:45 24.12.2021
6266 Snow -12 1019 79 10000 3 320 14:46 24.12.2021
6267 Snow -12 1019 79 10000 3 320 14:22 24.12.2021
6268 Snow -11 1019 79 10000 2 360 13:37 24.12.2021
6269 Snow -10 1020 79 10000 7 60 12:48 24.12.2021
6270 Snow -10 1019 79 2100 7 90 11:52 24.12.2021
6271 Snow -10 1019 79 2100 7 90 11:26 24.12.2021
6272 Snow -11 1018 85 350 11 90 10:46 24.12.2021
6273 Snow -12 1018 92 200 13 90 09:33 24.12.2021
6274 Snow -12 1018 85 200 14 90 08:23 24.12.2021
6275 Snow -13 1018 85 150 15 90 07:47 24.12.2021
6276 Snow -18 1005 77 1400 7.6 70 02:33 24.12.2021
6277 Clouds -17 1025 78 2000 10 70 23:56 23.12.2021
6278 Clouds -17 1026 66 9000 8 100 22:58 23.12.2021
6279 Clouds -17 1026 66 9000 8 100 22:37 23.12.2021
6280 Clouds -17 1026 66 10000 5 70 22:18 23.12.2021
6281 Clear -24 1026 77 10000 2 360 20:56 23.12.2021
6282 Clear -24 1026 77 10000 2 360 20:18 23.12.2021
6283 Clear -24 1026 77 10000 2 360 20:18 23.12.2021
6284 Clear -22 1026 77 10000 3 10 18:35 23.12.2021
6285 Clear -21 1025 77 10000 1 60 17:57 23.12.2021
6286 Clear -23 1025 83 10000 1.79 10 16:44 23.12.2021
6287 Clear -23 1025 83 10000 1.79 10 16:24 23.12.2021
6288 Clouds -18 1024 85 10000 1 0 15:31 23.12.2021
6289 Clear -19 1023 78 10000 1 60 14:52 23.12.2021
6290 Clear -19 1023 77 10000 1 60 14:30 23.12.2021
6291 Snow -17 1021 85 10000 4 20 12:57 23.12.2021
6292 Snow -15 1018 85 4400 2 200 10:52 23.12.2021
6293 Snow -15 1017 78 1700 5 190 09:47 23.12.2021
6294 Snow -17 1015 84 6000 4.92 180 08:59 23.12.2021
6295 Snow -17 1015 84 6000 4.92 180 08:59 23.12.2021
6296 Snow -15 1014 85 2400 1 0 06:58 23.12.2021
6297 Snow -14 1011 78 5000 2 270 04:33 23.12.2021
6298 Snow -15 1008 84 2300 6 40 23:26 22.12.2021
6299 Snow -15 1007 84 1100 8 40 22:47 22.12.2021
6300 Snow -15 1007 84 1000 7 30 21:56 22.12.2021
6301 Snow -14 1007 78 800 10 70 21:29 22.12.2021
6302 Snow -14 1007 84 2300 7 70 20:47 22.12.2021
6303 Snow -14 1007 84 2300 7 70 20:26 22.12.2021
6304 Snow -16 1007 84 150 13 10 19:28 22.12.2021
6305 Snow -12 1010 79 900 11 50 17:50 22.12.2021
6306 Snow -12 1011 72 1300 9 70 16:40 22.12.2021
6307 Snow -13 1013 72 600 14.75 60 15:40 22.12.2021
6308 Snow -13 1014 78 700 9.83 70 13:33 22.12.2021
6309 Snow -13 1017 78 2100 6.71 50 12:40 22.12.2021
6310 Clear -21 1021 71 10000 1 350 10:36 22.12.2021
6311 Clear -23 1023 77 10000 3 350 09:39 22.12.2021
6312 Clear -22 1025 69 10000 2.68 360 07:30 22.12.2021
6313 Clear -22 1025 69 10000 4.92 340 05:50 22.12.2021
6314 Clear -22 1026 69 10000 6.71 350 05:26 22.12.2021
6315 Clear -21 1026 65 10000 8 360 04:50 22.12.2021
6316 Clouds -22 1026 64 10000 9 350 04:29 22.12.2021
6317 Clouds -27 1027 75 10000 9.83 350 03:33 22.12.2021
6318 Clear -27 1031 68 10000 5.81 340 00:50 22.12.2021
6319 Clear -27 1032 69 10000 6 350 23:25 21.12.2021
6320 Clear -28 1031 69 10000 5 350 22:28 21.12.2021
6321 Clear -27 1031 69 10000 7 350 21:44 21.12.2021
6322 Clear -27 1032 69 10000 7 350 21:22 21.12.2021
6323 Clear -26 1032 64 10000 6 320 20:21 21.12.2021
6324 Clear -26 1032 64 10000 2 360 19:42 21.12.2021
6325 Clear -25 1032 64 10000 6 360 18:48 21.12.2021
6326 Clear -25 1032 64 10000 6 360 18:21 21.12.2021
6327 Clear -25 1032 64 10000 4 360 17:42 21.12.2021
6328 Clear -22 1032 54 10000 5 340 16:26 21.12.2021
6329 Clear -22 1031 54 10000 4 340 15:24 21.12.2021
6330 Clear -23 1030 59 10000 4 350 13:51 21.12.2021
6331 Clear -23 1030 59 10000 4 350 13:31 21.12.2021
6332 Clear -22 1028 54 10000 3 340 11:57 21.12.2021
6333 Clear -23 1027 54 10000 3 10 10:25 21.12.2021
6334 Clear -21 1026 59 10000 3 360 09:27 21.12.2021
6335 Clear -26 1023 64 10000 4 20 07:59 21.12.2021
6336 Clear -26 1023 70 10000 4 50 07:29 21.12.2021
6337 Clear -27 1023 76 10000 2 40 06:50 21.12.2021
6338 Clear -24 1020 70 10000 2 180 03:18 21.12.2021
6339 Clear -26 1018 64 10000 1 0 23:59 20.12.2021
6340 Clear -27 1017 62 10000 1.79 70 23:32 20.12.2021
6341 Clear -26 1017 64 10000 3 60 22:30 20.12.2021
6342 Clear -27 1016 68 10000 3.58 50 21:47 20.12.2021
6343 Clear -28 1015 68 10000 3.58 30 21:23 20.12.2021
6344 Clear -28 1015 68 10000 3.58 30 20:45 20.12.2021
6345 Clear -28 1014 68 10000 3.58 30 19:54 20.12.2021
6346 Clear -28 1014 69 10000 4 30 19:31 20.12.2021
6347 Clear -27 1014 69 10000 4 20 18:54 20.12.2021
6348 Clear -25 1013 64 10000 4 340 17:55 20.12.2021
6349 Clear -25 1013 64 10000 4 340 17:25 20.12.2021
6350 Clear -25 1012 64 10000 3 10 16:42 20.12.2021
6351 Clear -25 1011 70 10000 8 310 15:51 20.12.2021
6352 Clear -24 1010 63 10000 7.6 290 14:53 20.12.2021
6353 Clear -24 1009 64 10000 4 330 13:18 20.12.2021
6354 Clear -23 1007 70 10000 9 290 11:23 20.12.2021
6355 Clear -23 1003 77 10000 9 300 09:51 20.12.2021
6356 Clear -23 1003 76 10000 9 300 09:31 20.12.2021
6357 Clear -22 1001 77 10000 11 280 08:42 20.12.2021
6358 Clear -21 999 76 10000 8.94 290 07:50 20.12.2021
6359 Clear -21 999 76 10000 8.94 290 07:50 20.12.2021
6360 Clear -21 999 76 10000 8.94 290 07:30 20.12.2021
6361 Clear -19 994 71 10000 7 300 04:36 20.12.2021
6362 Clouds -14 989 72 10000 8 280 23:59 19.12.2021
6363 Clear -15 988 85 10000 5 310 22:51 19.12.2021
6364 Clouds -14 986 78 10000 6 300 21:50 19.12.2021
6365 Clouds -13 986 72 10000 7 290 21:30 19.12.2021
6366 Clouds -14 985 84 10000 6.71 300 20:32 19.12.2021
6367 Snow -12 983 85 10000 8 300 19:51 19.12.2021
6368 Snow -13 983 84 10000 7.6 300 19:22 19.12.2021
6369 Snow -11 981 85 4600 6.71 290 18:29 19.12.2021
6370 Snow -11 981 85 4600 6.71 290 18:29 19.12.2021
6371 Snow -9 979 85 8000 5.81 300 17:53 19.12.2021
6372 Snow -9 979 85 8000 5.81 300 17:19 19.12.2021
6373 Clouds -7 977 100 10000 5.81 180 16:26 19.12.2021
6374 Clouds -7 977 100 10000 5.81 180 16:26 19.12.2021
6375 Clouds 1 974 86 10000 9 160 15:42 19.12.2021
6376 Clouds 0 974 86 10000 8.94 160 15:20 19.12.2021
6377 Clouds 1 973 87 10000 12.96 130 14:41 19.12.2021
6378 Clouds 0 973 93 6000 11.62 120 13:22 19.12.2021
6379 Clouds -1 974 100 1500 12.96 110 12:42 19.12.2021
6380 Clouds -1 974 100 1500 12.96 110 12:18 19.12.2021
6381 Clouds -1 975 93 2400 12.96 110 11:19 19.12.2021
6382 Snow -4 976 100 350 16.99 90 10:25 19.12.2021
6383 Snow -4 976 92 200 18.78 90 09:41 19.12.2021
6384 Clouds -5 977 92 100 21.9 90 08:25 19.12.2021
6385 Snow -9 983 85 50 32 80 04:45 19.12.2021
6386 Snow -12 992 92 100 24.59 80 01:22 19.12.2021
6387 Snow -12 994 85 100 22 80 00:52 19.12.2021
6388 Snow -11 1000 85 450 18 80 22:36 18.12.2021
6389 Snow -12 1000 85 100 14 90 21:57 18.12.2021
6390 Snow -12 1000 85 100 14 90 21:35 18.12.2021
6391 Snow -13 1002 92 800 7 50 20:44 18.12.2021
6392 Snow -13 1005 78 9000 6 60 19:59 18.12.2021
6393 Snow -13 1005 78 9000 6 60 19:20 18.12.2021
6394 Snow -14 1006 85 10000 5 80 18:21 18.12.2021
6395 Clouds -15 1007 85 10000 2 90 17:48 18.12.2021
6396 Clouds -23 1008 83 10000 3 10 16:26 18.12.2021
6397 Clouds -26 1009 75 10000 2 360 15:27 18.12.2021
6398 Snow -27 1009 75 10000 1.79 360 14:38 18.12.2021
6399 Clear -28 1009 76 10000 4 350 13:21 18.12.2021
6400 Clouds -31 1009 74 9000 3 330 11:22 18.12.2021
6401 Clear -28 1010 76 10000 4 10 09:40 18.12.2021
6402 Clear -29 1009 75 10000 2 10 08:47 18.12.2021
6403 Clear -29 1009 75 10000 2 10 08:19 18.12.2021
6404 Clear -29 1005 75 10000 4 330 02:51 18.12.2021
6405 Clear -28 1004 82 10000 4 360 00:28 18.12.2021
6406 Clear -27 1004 75 10000 5 340 23:44 17.12.2021
6407 Clouds -27 1002 75 7000 4.92 10 21:56 17.12.2021
6408 Clouds -27 1002 75 7000 4.92 10 21:18 17.12.2021
6409 Clouds -27 1002 75 8000 4.92 360 20:38 17.12.2021
6410 Clouds -28 1002 83 7000 5 330 19:19 17.12.2021
6411 Mist -27 1002 75 4200 6.71 340 18:38 17.12.2021
6412 Mist -27 1002 82 2300 3.58 350 17:31 17.12.2021
6413 Mist -27 1002 75 2800 3.58 350 16:46 17.12.2021
6414 Mist -27 1002 75 2800 3.58 350 16:46 17.12.2021
6415 Mist -27 1002 75 2800 3.58 350 16:22 17.12.2021
6416 Mist -27 1002 75 7000 4.92 330 15:25 17.12.2021
6417 Clouds -27 1002 75 10000 2.68 340 14:40 17.12.2021
6418 Mist -23 1003 77 9000 5 360 12:47 17.12.2021
6419 Clouds -23 1003 77 10000 4 360 11:46 17.12.2021
6420 Mist -24 1003 83 4800 4.92 360 10:37 17.12.2021
6421 Clouds -23 1003 83 9000 5 360 09:31 17.12.2021
6422 Mist -23 1002 83 3700 7 360 08:30 17.12.2021
6423 Mist -23 1003 83 10000 4.92 340 06:22 17.12.2021
6424 Clouds -21 1003 76 10000 3.58 340 02:53 17.12.2021
6425 Fog -21 1002 83 10000 4.92 340 23:25 16.12.2021
6426 Clouds -21 1002 83 10000 5.81 350 22:24 16.12.2021
6427 Clouds -21 1002 83 10000 5.81 350 22:24 16.12.2021
6428 Clouds -21 1002 83 10000 5.81 350 22:24 16.12.2021
6429 Clouds -21 1002 83 10000 5.81 350 22:24 16.12.2021
6430 Clouds -21 1002 83 10000 5.81 350 22:23 16.12.2021
6431 Clouds -21 1001 83 10000 3.58 10 21:44 16.12.2021
6432 Snow -18 1000 84 8000 6.71 350 20:55 16.12.2021
6433 Snow -18 1000 84 8000 7 350 20:27 16.12.2021
6434 Snow -18 1000 84 7000 5.81 330 19:31 16.12.2021
6435 Snow -18 999 84 4300 5.81 360 18:36 16.12.2021
6436 Snow -18 998 84 7000 7.6 360 17:48 16.12.2021
6437 Snow -18 998 77 9000 6.71 360 16:44 16.12.2021
6438 Snow -18 998 77 9000 6.71 360 16:18 16.12.2021
6439 Snow -18 997 77 10000 8.94 20 14:23 16.12.2021
6440 Snow -18 996 84 3600 9.83 20 12:30 16.12.2021
6441 Snow -16 995 85 5000 3 20 11:19 16.12.2021
6442 Snow -15 995 85 5000 1 0 10:44 16.12.2021
6443 Snow -15 994 85 7000 1 200 09:51 16.12.2021
6444 Snow -14 993 85 3200 1 0 07:19 16.12.2021
6445 Snow -14 993 85 7000 5 20 06:18 16.12.2021
6446 Snow -12 993 67 10000 4 90 00:35 16.12.2021
6447 Clouds -13 993 72 10000 8 80 23:20 15.12.2021
6448 Clouds -13 993 72 10000 10 80 22:22 15.12.2021
6449 Snow -13 993 72 10000 10 80 21:45 15.12.2021
6450 Snow -13 993 72 10000 10 80 21:25 15.12.2021
6451 Snow -15 993 85 1500 12 80 19:54 15.12.2021
6452 Snow -15 993 85 1500 12 80 19:19 15.12.2021
6453 Snow -15 993 78 750 15 80 18:26 15.12.2021
6454 Snow -15 994 78 200 16 80 17:47 15.12.2021
6455 Snow -15 994 78 200 16 80 17:21 15.12.2021
6456 Snow -15 997 78 150 15 80 15:59 15.12.2021
6457 Snow -15 997 78 150 15 80 15:41 15.12.2021
6458 Snow -15 997 78 150 15 80 15:23 15.12.2021
6459 Snow -15 999 85 200 14 80 13:48 15.12.2021
6460 Snow -14 1000 78 200 16 90 11:52 15.12.2021
6461 Snow -15 1001 85 150 15 90 10:22 15.12.2021
6462 Snow -16 1002 84 200 13.86 80 08:27 15.12.2021
6463 Snow -15 1003 84 450 13.86 90 05:54 15.12.2021
6464 Snow -15 1008 84 300 10 50 00:39 15.12.2021
6465 Snow -19 1008 84 250 12.96 20 23:32 14.12.2021
6466 Clouds -15 1009 84 1400 11.62 60 22:45 14.12.2021
6467 Snow -15 1009 77 4400 13 60 21:47 14.12.2021
6468 Snow -18 1010 77 1700 12.96 60 20:23 14.12.2021
6469 Snow -15 1010 78 1600 11 70 19:37 14.12.2021
6470 Snow -16 1010 78 6000 11 360 18:39 14.12.2021
6471 Snow -16 1012 72 10000 8 30 17:57 14.12.2021
6472 Snow -16 1012 72 10000 6 10 16:49 14.12.2021
6473 Snow -16 1012 72 10000 6 10 16:30 14.12.2021
6474 Clouds -14 1014 72 10000 8 70 14:33 14.12.2021
6475 Clouds -15 1014 72 10000 10 90 13:22 14.12.2021
6476 Clouds -16 1015 72 5000 13 80 11:51 14.12.2021
6477 Clouds -16 1015 72 5000 13 80 11:22 14.12.2021
6478 Snow -18 1015 71 10000 9 10 09:55 14.12.2021
6479 Snow -18 1015 71 10000 9 10 09:19 14.12.2021
6480 Clouds -17 1015 71 2200 9 80 08:22 14.12.2021
6481 Clouds -16 1016 55 10000 9 90 07:39 14.12.2021
6482 Clouds -15 1015 72 4000 10 80 23:59 13.12.2021
6483 Clouds -16 1015 78 2600 12 90 22:33 13.12.2021
6484 Clouds -16 1015 78 4100 11 90 21:44 13.12.2021
6485 Clouds -15 1015 72 1200 12 90 20:58 13.12.2021
6486 Clouds -15 1015 72 1200 12 90 20:26 13.12.2021
6487 Clouds -15 1016 72 4000 11 80 19:49 13.12.2021
6488 Clouds -15 1017 72 5000 10 90 17:39 13.12.2021
6489 Clouds -15 1017 72 5000 10 90 17:18 13.12.2021
6490 Clouds -17 1020 71 10000 5 50 15:47 13.12.2021
6491 Clouds -16 1020 72 10000 8 30 14:43 13.12.2021
6492 Clouds -16 1021 72 10000 8 30 13:37 13.12.2021
6493 Clouds -17 1022 71 9000 5.81 40 12:41 13.12.2021
6494 Clouds -17 1023 77 9000 5.81 20 11:54 13.12.2021
6495 Clouds -17 1023 77 9000 5.81 20 11:34 13.12.2021
6496 Clouds -17 1024 71 9000 7.6 80 10:41 13.12.2021
6497 Clouds -15 1025 66 9000 10 90 08:45 13.12.2021
6498 Clouds -15 1026 78 1700 11 90 06:56 13.12.2021
6499 Clouds -28 1030 88 10000 3.11 347 05:19 13.12.2021
6500 Fog -33 1033 74 10000 4 360 00:41 13.12.2021
6501 Clouds -34 1035 68 10000 5 350 21:59 12.12.2021
6502 Snow -33 1035 68 10000 6 20 21:29 12.12.2021
6503 Fog -34 1036 68 10000 4 360 19:36 12.12.2021
6504 Fog -34 1036 68 10000 5 10 18:23 12.12.2021
6505 Clouds -36 1037 75 8000 6 360 16:47 12.12.2021
6506 Clouds -36 1037 75 8000 6 360 16:22 12.12.2021
6507 Fog -35 1037 68 10000 6 360 15:28 12.12.2021
6508 Fog -37 1039 74 10000 4 10 14:54 12.12.2021
6509 Fog -37 1039 74 10000 4 10 14:19 12.12.2021
6510 Clear -35 1038 75 10000 4 360 12:48 12.12.2021
6511 Clear -35 1038 75 10000 4 360 12:23 12.12.2021
6512 Clear -35 1038 75 10000 4 360 12:23 12.12.2021
6513 Clear -35 1038 75 10000 5 350 11:43 12.12.2021
6514 Clear -35 1037 75 10000 5 360 10:44 12.12.2021
6515 Clear -35 1037 75 10000 5 360 10:44 12.12.2021
6516 Clear -35 1037 75 10000 5 360 10:21 12.12.2021
6517 Clear -33 1038 68 10000 5 360 08:48 12.12.2021
6518 Clear -34 1038 68 10000 5 10 07:30 12.12.2021
6519 Clear -34 1037 75 10000 5 20 05:56 12.12.2021
6520 Fog -33 1036 75 10000 4 30 04:53 12.12.2021
6521 Fog -33 1036 75 10000 4 20 01:26 12.12.2021
6522 Clear -34 1035 75 10000 4 10 23:26 11.12.2021
6523 Clear -33 1034 75 10000 5 20 22:21 11.12.2021
6524 Clear -31 1033 69 10000 4 10 21:47 11.12.2021
6525 Clear -33 1033 75 10000 5 20 20:20 11.12.2021
6526 Clear -31 1033 69 10000 4 350 19:21 11.12.2021
6527 Clear -33 1032 68 10000 5 20 18:49 11.12.2021
6528 Clear -32 1031 75 10000 4 10 17:56 11.12.2021
6529 Clear -34 1031 73 10000 5 30 16:39 11.12.2021
6530 Clear -33 1031 68 10000 5 30 15:46 11.12.2021
6531 Clear -34 1030 73 10000 6 20 14:46 11.12.2021
6532 Clear -33 1029 74 10000 4 20 12:41 11.12.2021
6533 Clear -32 1029 67 10000 4 20 11:18 11.12.2021
6534 Clear -31 1027 76 10000 5 10 09:45 11.12.2021
6535 Fog -27 1025 68 10000 4.92 350 05:36 11.12.2021
6536 Clouds -26 1024 76 9000 6 330 00:50 11.12.2021
6537 Clouds -27 1023 75 6000 6 330 23:44 10.12.2021
6538 Mist -27 1023 75 3900 5 350 22:50 10.12.2021
6539 Mist -27 1022 76 2900 4 10 21:51 10.12.2021
6540 Mist -26 1021 76 2300 7 310 20:35 10.12.2021
6541 Clouds -27 1020 75 8000 3.58 350 19:19 10.12.2021
6542 Mist -26 1019 76 3100 3 360 17:54 10.12.2021
6543 Mist -27 1019 76 2600 6 350 16:41 10.12.2021
6544 Mist -27 1018 75 3500 5 350 15:47 10.12.2021
6545 Mist -27 1018 75 3500 4.92 350 15:28 10.12.2021
6546 Clouds -26 1018 76 7000 5 10 14:56 10.12.2021
6547 Clouds -26 1017 83 6000 5 340 13:50 10.12.2021
6548 Clouds -26 1017 83 6000 5 340 13:18 10.12.2021
6549 Mist -26 1016 83 2300 3.58 360 11:43 10.12.2021
6550 Mist -26 1016 83 2300 4 360 11:19 10.12.2021
6551 Mist -26 1014 75 2000 7.6 340 09:54 10.12.2021
6552 Mist -26 1013 83 5000 4 340 08:23 10.12.2021
6553 Snow -22 1011 77 2000 4 10 05:46 10.12.2021
6554 Snow -21 1008 76 3500 5 350 02:47 10.12.2021
6555 Snow -21 1006 76 2700 4.92 350 23:43 09.12.2021
6556 Snow -21 1005 76 3400 4 360 22:49 09.12.2021
6557 Snow -21 1005 76 3200 4.92 360 22:23 09.12.2021
6558 Snow -21 1005 76 3200 4.92 360 22:23 09.12.2021
6559 Snow -22 1004 83 6000 5 20 21:48 09.12.2021
6560 Snow -22 1003 83 5000 5.81 350 20:40 09.12.2021
6561 Snow -21 1002 76 5000 1.79 350 19:46 09.12.2021
6562 Mist -21 1002 76 5000 1.79 350 19:21 09.12.2021
6563 Snow -22 1001 76 2400 3.58 320 18:25 09.12.2021
6564 Snow -22 1000 76 4900 2.68 330 17:51 09.12.2021
6565 Snow -22 1000 76 4900 2.68 330 17:25 09.12.2021
6566 Snow -22 1000 83 4600 2.68 360 16:51 09.12.2021
6567 Snow -22 999 76 5000 1.79 360 15:31 09.12.2021
6568 Snow -22 999 76 9000 3.58 30 14:43 09.12.2021
6569 Snow -22 998 83 7000 3 10 13:18 09.12.2021
6570 Snow -21 998 76 7000 3.58 320 12:34 09.12.2021
6571 Snow -21 997 76 5000 4.92 320 10:50 09.12.2021
6572 Mist -21 996 83 3500 6.71 350 08:38 09.12.2021
6573 Snow -18 996 84 5000 4.92 360 05:54 09.12.2021
6574 Snow -18 994 77 2100 10.73 30 01:52 09.12.2021
6575 Snow -16 994 84 2800 7 10 23:42 08.12.2021
6576 Snow -18 994 84 2800 6.71 10 23:20 08.12.2021
6577 Snow -18 1016 84 4900 6.71 360 22:45 08.12.2021
6578 Snow -16 994 77 6000 6 20 21:39 08.12.2021
6579 Snow -15 994 84 2400 1 0 20:59 08.12.2021
6580 Snow -15 993 84 1600 4 10 19:58 08.12.2021
6581 Snow -15 993 84 1600 4 10 19:33 08.12.2021
6582 Snow -15 993 84 4500 0.89 160 18:30 08.12.2021
6583 Snow -15 993 84 1500 0 0 17:24 08.12.2021
6584 Snow -15 993 84 3400 1.79 350 15:46 08.12.2021
6585 Snow -15 993 84 3400 1.79 350 15:23 08.12.2021
6586 Snow -16 993 84 4300 1.79 360 14:26 08.12.2021
6587 Snow -24 994 76 1600 6.71 340 10:54 08.12.2021
6588 Snow -24 994 76 1600 6.71 340 10:28 08.12.2021
6589 Snow -27 995 82 10000 4.92 350 08:54 08.12.2021
6590 Snow -27 995 75 10000 5.81 340 07:21 08.12.2021
6591 Fog -29 997 75 10000 6 350 01:39 08.12.2021
6592 Fog -27 999 76 10000 5 10 23:33 07.12.2021
6593 Clear -25 999 70 10000 6 10 21:26 07.12.2021
6594 Clear -28 999 75 10000 4.92 20 20:54 07.12.2021
6595 Clear -27 1000 75 10000 4 20 19:50 07.12.2021
6596 Clear -26 1000 76 10000 4 360 18:39 07.12.2021
6597 Clear -27 1000 75 10000 2.68 20 17:27 07.12.2021
6598 Clear -27 1000 75 10000 2.68 20 17:27 07.12.2021
6599 Clouds -27 1000 75 10000 3.58 30 16:58 07.12.2021
6600 Clouds -27 1000 75 10000 3.58 30 16:28 07.12.2021
6601 Clouds -24 1000 76 10000 2.68 10 14:57 07.12.2021
6602 Clouds -24 1000 83 10000 4.92 360 13:49 07.12.2021
6603 Clouds -23 1000 77 7000 6 340 12:46 07.12.2021
6604 Clouds -23 1000 83 9000 3.58 340 11:25 07.12.2021
6605 Clouds -22 999 76 1700 9.83 300 09:44 07.12.2021
6606 Clouds -21 998 76 1200 10.73 290 07:55 07.12.2021
6607 Clouds -21 996 83 800 12.96 290 05:55 07.12.2021
6608 Clouds -21 996 83 500 12.96 300 05:30 07.12.2021
6609 Clouds -21 991 76 500 13 300 23:45 06.12.2021
6610 Snow -21 990 83 350 14 290 22:44 06.12.2021
6611 Clouds -21 990 83 300 13.86 300 22:18 06.12.2021
6612 Snow -21 989 83 300 14 290 21:42 06.12.2021
6613 Snow -21 988 83 500 12.96 300 20:33 06.12.2021
6614 Snow -21 987 76 400 13.86 300 19:27 06.12.2021
6615 Snow -21 986 83 350 12.96 300 18:57 06.12.2021
6616 Snow -21 985 83 550 13 290 17:56 06.12.2021
6617 Snow -21 985 83 550 13 290 17:37 06.12.2021
6618 Snow -21 984 83 600 12 290 16:21 06.12.2021
6619 Snow -21 982 76 600 10.73 290 14:54 06.12.2021
6620 Snow -21 981 83 450 11.62 290 13:45 06.12.2021
6621 Snow -21 980 76 500 13.86 280 12:39 06.12.2021
6622 Snow -21 978 83 450 11.62 290 10:32 06.12.2021
6623 Clouds -21 975 76 100 15.65 290 08:35 06.12.2021
6624 Snow -19 972 84 150 16.99 290 04:28 06.12.2021
6625 Snow -10 965 85 250 15 310 22:30 05.12.2021
6626 Snow -10 964 85 250 14 320 21:26 05.12.2021
6627 Snow -11 963 92 250 13.86 330 20:59 05.12.2021
6628 Snow -10 963 92 250 14 330 20:19 05.12.2021
6629 Snow -11 962 85 200 13.86 330 19:33 05.12.2021
6630 Snow -12 962 92 300 14.75 340 18:41 05.12.2021
6631 Snow -12 962 92 300 14.75 340 18:19 05.12.2021
6632 Snow -12 961 92 300 11.62 340 17:47 05.12.2021
6633 Snow -12 960 92 300 15.65 10 16:45 05.12.2021
6634 Snow -12 960 92 300 15.65 10 16:24 05.12.2021
6635 Snow -14 959 92 50 21.01 30 14:49 05.12.2021
6636 Snow -14 959 92 50 21.01 30 14:30 05.12.2021
6637 Snow -14 961 92 100 18.78 20 13:43 05.12.2021
6638 Snow -9 961 92 150 19.67 20 12:55 05.12.2021
6639 Snow -9 961 92 150 19.67 20 12:29 05.12.2021
6640 Snow -7 961 86 50 20 40 11:49 05.12.2021
6641 Snow -4 962 86 350 15 70 10:51 05.12.2021
6642 Snow -4 964 93 150 19 80 09:58 05.12.2021
6643 Snow -3 969 86 200 18 80 07:33 05.12.2021
6644 Snow -19 992 98 99 8.22 17 02:25 05.12.2021
6645 Snow -21 998 76 4500 7.6 340 23:31 04.12.2021
6646 Clouds -19 1003 58 10000 4.92 30 21:54 04.12.2021
6647 Clear -20 1006 59 10000 3 10 20:50 04.12.2021
6648 Clear -20 1006 54 10000 5 360 19:55 04.12.2021
6649 Clear -20 1006 54 10000 5 360 19:31 04.12.2021
6650 Clear -22 1009 54 10000 7 10 17:59 04.12.2021
6651 Clear -22 1009 54 10000 7 10 17:38 04.12.2021
6652 Clear -23 1010 59 10000 7 360 16:48 04.12.2021
6653 Clear -23 1010 59 10000 7 360 16:48 04.12.2021
6654 Clear -23 1010 59 10000 7 360 16:30 04.12.2021
6655 Clear -23 1010 59 10000 7 360 16:30 04.12.2021
6656 Clear -23 1010 57 10000 8 340 14:39 04.12.2021
6657 Clear -21 1010 65 10000 6 340 11:47 04.12.2021
6658 Clear -21 1010 63 10000 6 340 11:29 04.12.2021
6659 Clear -19 1009 60 10000 10 310 10:43 04.12.2021
6660 Clear -18 1007 65 10000 8 300 08:46 04.12.2021
6661 Clouds -15 1005 66 10000 11 280 06:24 04.12.2021
6662 Clouds -14 1003 66 10000 7 300 04:41 04.12.2021
6663 Clouds -12 998 72 10000 12.96 290 23:49 03.12.2021
6664 Clouds -12 998 72 10000 12.96 290 23:49 03.12.2021
6665 Clouds -10 996 78 10000 7 310 22:57 03.12.2021
6666 Clouds -10 996 78 10000 10 290 22:38 03.12.2021
6667 Clouds -9 993 78 10000 11 300 21:25 03.12.2021
6668 Snow -7 991 79 3200 13.86 290 20:46 03.12.2021
6669 Clear -2 989 86 10000 4 180 19:50 03.12.2021
6670 Clear -1 988 80 10000 2 140 18:34 03.12.2021
6671 Clouds -1 987 86 10000 2 140 17:59 03.12.2021
6672 Clouds 0 985 80 10000 3 170 14:47 03.12.2021
6673 Clouds 0 983 86 10000 6 160 12:54 03.12.2021
6674 Clouds 0 983 80 10000 8.94 170 11:39 03.12.2021
6675 Clouds 0 982 80 10000 6.71 160 10:51 03.12.2021
6676 Clouds 0 981 93 10000 11.62 130 08:25 03.12.2021
6677 Clouds 0 981 93 10000 17.88 130 07:40 03.12.2021
6678 Clouds 0 989 93 10000 22 140 02:39 03.12.2021
6679 Clouds 0 991 93 9000 13.86 130 00:47 03.12.2021
6680 Clouds 0 993 100 650 17 120 23:47 02.12.2021
6681 Clouds -2 998 92 100 18.78 130 21:43 02.12.2021
6682 Snow -3 999 100 100 19 120 21:21 02.12.2021
6683 Snow -5 1002 92 100 19.67 120 20:38 02.12.2021
6684 Snow -7 1005 92 50 17.88 120 19:43 02.12.2021
6685 Snow -10 1008 85 50 15.65 120 18:33 02.12.2021
6686 Snow -10 1008 85 50 15.65 120 18:33 02.12.2021
6687 Snow -9 1015 92 550 11 100 15:43 02.12.2021
6688 Snow -9 1015 92 550 11 100 15:20 02.12.2021
6689 Snow -8 1017 86 1000 10 100 14:43 02.12.2021
6690 Snow -18 1022 84 4100 1 0 12:53 02.12.2021
6691 Snow -18 1022 84 4100 1 0 12:18 02.12.2021
6692 Snow -18 1023 84 9000 1.79 360 10:38 02.12.2021
6693 Snow -19 1023 84 10000 3 340 08:59 02.12.2021
6694 Snow -17 1023 78 10000 3 30 05:34 02.12.2021
6695 Snow -17 1019 84 400 4.92 270 00:53 02.12.2021
6696 Snow -13 1018 85 500 5 250 23:28 01.12.2021
6697 Snow -12 1016 85 600 9 90 22:25 01.12.2021
6698 Snow -12 1016 85 6000 9 80 21:21 01.12.2021
6699 Snow -13 1014 85 900 10 90 19:58 01.12.2021
6700 Snow -13 1014 85 900 10 90 19:34 01.12.2021
6701 Snow -12 1011 85 150 14 100 17:50 01.12.2021
6702 Snow -12 1011 85 800 15 100 16:58 01.12.2021
6703 Snow -12 1011 79 700 15 110 15:20 01.12.2021
6704 Snow -15 1011 77 1200 13.86 110 13:49 01.12.2021
6705 Snow -15 1011 77 1200 13.86 110 13:30 01.12.2021
6706 Snow -17 1009 71 650 14.75 110 10:43 01.12.2021
6707 Snow -17 1009 77 500 13.86 110 09:56 01.12.2021
6708 Snow -17 1009 77 400 14.75 110 08:40 01.12.2021
6709 Snow -17 1010 77 450 10.73 90 07:54 01.12.2021
6710 Snow -17 1010 77 450 10.73 90 07:19 01.12.2021
6711 Snow -17 997 77 500 11.62 70 03:50 01.12.2021
6712 Snow -17 1010 77 1200 13.86 70 02:34 01.12.2021
6713 Snow -17 1011 77 1800 9.83 80 23:59 30.11.2021
6714 Snow -17 1011 71 1800 10.73 80 23:28 30.11.2021
6715 Snow -17 1011 71 3000 9.83 90 22:22 30.11.2021
6716 Clouds -16 1012 72 9000 8 70 20:46 30.11.2021
6717 Clouds -16 1012 72 9000 8 70 20:24 30.11.2021
6718 Clouds -15 1012 66 10000 5 70 19:39 30.11.2021
6719 Clouds -17 1012 71 10000 4 90 18:51 30.11.2021
6720 Clouds -17 1013 78 10000 3 60 17:23 30.11.2021
6721 Clouds -18 1013 85 10000 2 30 15:54 30.11.2021
6722 Clouds -19 1014 84 10000 3 60 14:31 30.11.2021
6723 Clouds -23 1014 76 10000 1.79 40 13:40 30.11.2021
6724 Clouds -24 1015 83 10000 0 0 12:53 30.11.2021
6725 Clear -22 1015 83 10000 1 0 11:55 30.11.2021
6726 Clear -22 1015 83 10000 1 0 11:25 30.11.2021
6727 Clouds -24 1015 83 10000 0.89 110 10:36 30.11.2021
6728 Snow -23 1015 83 10000 0.89 100 08:56 30.11.2021
6729 Snow -23 1015 83 10000 1 100 08:32 30.11.2021
6730 Snow -23 1015 76 10000 2 90 07:50 30.11.2021
6731 Clouds -24 1015 83 10000 0 0 06:36 30.11.2021
6732 Fog -20 1016 84 10000 2 90 01:47 30.11.2021
6733 Snow -23 1016 84 10000 1 40 01:27 30.11.2021
6734 Snow -21 1017 77 10000 1 70 23:36 29.11.2021
6735 Snow -21 1017 77 10000 1 70 23:18 29.11.2021
6736 Snow -20 1017 77 8000 1 50 22:37 29.11.2021
6737 Snow -18 1017 84 9000 0 0 21:52 29.11.2021
6738 Snow -18 1017 84 10000 0.89 30 21:20 29.11.2021
6739 Snow -18 1017 84 10000 0.89 30 20:46 29.11.2021
6740 Snow -18 1017 84 10000 0.89 10 19:58 29.11.2021
6741 Snow -18 1017 84 10000 0.89 10 19:39 29.11.2021
6742 Snow -18 1017 84 10000 0 0 18:59 29.11.2021
6743 Snow -16 1018 95 321 0.86 242 18:40 29.11.2021
6744 Snow -16 1018 95 416 0.88 257 17:21 29.11.2021
6745 Snow -16 1018 95 416 0.88 257 16:44 29.11.2021
6746 Snow -16 1018 95 272 1.01 270 16:22 29.11.2021
6747 Snow -16 1018 95 269 0.85 268 14:45 29.11.2021
6748 Snow -16 1018 95 237 0.83 266 13:52 29.11.2021
6749 Snow -16 1018 95 212 0.7 285 12:58 29.11.2021
6750 Snow -16 1018 96 240 0.96 321 12:19 29.11.2021
6751 Snow -17 1018 96 248 1.11 320 11:22 29.11.2021
6752 Snow -16 1016 85 2700 1 260 09:58 29.11.2021
6753 Snow -17 1016 85 10000 1 280 07:26 29.11.2021
6754 Snow -16 1016 85 9000 2 340 05:51 29.11.2021
6755 Snow -16 1016 85 2100 2 340 01:22 29.11.2021
6756 Snow -16 1016 85 10000 0 0 23:47 28.11.2021
6757 Snow -17 1017 85 10000 2 360 23:29 28.11.2021
6758 Snow -17 1017 85 6000 2 350 22:18 28.11.2021
6759 Snow -16 1017 78 10000 1 310 21:39 28.11.2021
6760 Snow -17 1017 85 8000 2 340 20:40 28.11.2021
6761 Snow -17 1017 85 10000 2 320 19:44 28.11.2021
6762 Snow -17 1017 78 10000 2 340 18:40 28.11.2021
6763 Snow -18 1018 85 10000 2 340 17:58 28.11.2021
6764 Snow -18 1018 85 10000 2 340 17:34 28.11.2021
6765 Snow -19 1018 84 10000 2 360 16:47 28.11.2021
6766 Snow -19 1018 84 10000 2 360 16:27 28.11.2021
6767 Snow -18 1019 78 10000 2 330 15:50 28.11.2021
6768 Snow -19 1019 84 9000 2 20 14:55 28.11.2021
6769 Snow -19 1019 84 9000 2 20 14:28 28.11.2021
6770 Snow -18 1020 85 6000 3 300 12:54 28.11.2021
6